<?xml version="1.0" encoding="UTF-8" standalone="no" ?>
<gpx xmlns="http://www.topografix.com/GPX/1/1" xmlns:xsi="http://www.w3.org/2001/XMLSchema-instance" xsi:schemaLocation="http://www.topografix.com/GPX/1/1 http://www.topografix.com/GPX/1/1/gpx.xsd" version="1.1" creator="VisuGPX - https://www.visugpx.com">
  <metadata>
    <name>La Bastide - Grambois - La Bastide</name>
    <desc><![CDATA[Une jolie boucle au départ de la Bastide, avec des sentiers diversifiés du petit single joueur au DFCI dégagé avec vue.]]></desc>
  </metadata>
  <trk>
    <name><![CDATA[Lgl]]></name>
    <extensions>
      <line xmlns="http://www.topografix.com/GPX/gpx_style/0/2">
        <color>0000FF</color>
        <width>4</width>
      </line>
    </extensions>
    <trkseg>
      <trkpt lat="43.78654" lon="5.63341">
        <ele>408</ele>
        <time>2022-08-13T06:34:56Z</time>
      </trkpt>
      <trkpt lat="43.7865" lon="5.63345">
        <ele>408</ele>
        <time>2022-08-13T06:35:06Z</time>
      </trkpt>
      <trkpt lat="43.78645" lon="5.63351">
        <ele>407</ele>
        <time>2022-08-13T06:35:13Z</time>
      </trkpt>
      <trkpt lat="43.78641" lon="5.63357">
        <ele>406</ele>
        <time>2022-08-13T06:35:15Z</time>
      </trkpt>
      <trkpt lat="43.78636" lon="5.63364">
        <ele>405</ele>
        <time>2022-08-13T06:35:17Z</time>
      </trkpt>
      <trkpt lat="43.78629" lon="5.6337">
        <ele>405</ele>
        <time>2022-08-13T06:35:19Z</time>
      </trkpt>
      <trkpt lat="43.78623" lon="5.63376">
        <ele>405</ele>
        <time>2022-08-13T06:35:21Z</time>
      </trkpt>
      <trkpt lat="43.78617" lon="5.63381">
        <ele>405</ele>
        <time>2022-08-13T06:35:23Z</time>
      </trkpt>
      <trkpt lat="43.78611" lon="5.63387">
        <ele>405</ele>
        <time>2022-08-13T06:35:25Z</time>
      </trkpt>
      <trkpt lat="43.78606" lon="5.63394">
        <ele>405</ele>
        <time>2022-08-13T06:35:27Z</time>
      </trkpt>
      <trkpt lat="43.78602" lon="5.63401">
        <ele>405</ele>
        <time>2022-08-13T06:35:29Z</time>
      </trkpt>
      <trkpt lat="43.78598" lon="5.63409">
        <ele>405</ele>
        <time>2022-08-13T06:35:31Z</time>
      </trkpt>
      <trkpt lat="43.78594" lon="5.63418">
        <ele>405</ele>
        <time>2022-08-13T06:35:33Z</time>
      </trkpt>
      <trkpt lat="43.78591" lon="5.63426">
        <ele>405</ele>
        <time>2022-08-13T06:35:35Z</time>
      </trkpt>
      <trkpt lat="43.78587" lon="5.63434">
        <ele>405</ele>
        <time>2022-08-13T06:35:37Z</time>
      </trkpt>
      <trkpt lat="43.78584" lon="5.6344">
        <ele>406</ele>
        <time>2022-08-13T06:35:39Z</time>
      </trkpt>
      <trkpt lat="43.7858" lon="5.63447">
        <ele>407</ele>
        <time>2022-08-13T06:35:42Z</time>
      </trkpt>
      <trkpt lat="43.78577" lon="5.63453">
        <ele>408</ele>
        <time>2022-08-13T06:35:44Z</time>
      </trkpt>
      <trkpt lat="43.78576" lon="5.6346">
        <ele>409</ele>
        <time>2022-08-13T06:35:46Z</time>
      </trkpt>
      <trkpt lat="43.78574" lon="5.63466">
        <ele>409</ele>
        <time>2022-08-13T06:35:48Z</time>
      </trkpt>
      <trkpt lat="43.78568" lon="5.63469">
        <ele>410</ele>
        <time>2022-08-13T06:35:50Z</time>
      </trkpt>
      <trkpt lat="43.78562" lon="5.63466">
        <ele>410</ele>
        <time>2022-08-13T06:35:52Z</time>
      </trkpt>
      <trkpt lat="43.78557" lon="5.63462">
        <ele>410</ele>
        <time>2022-08-13T06:35:54Z</time>
      </trkpt>
      <trkpt lat="43.78552" lon="5.63459">
        <ele>410</ele>
        <time>2022-08-13T06:35:56Z</time>
      </trkpt>
      <trkpt lat="43.78546" lon="5.63455">
        <ele>411</ele>
        <time>2022-08-13T06:35:58Z</time>
      </trkpt>
      <trkpt lat="43.7854" lon="5.63451">
        <ele>411</ele>
        <time>2022-08-13T06:36:00Z</time>
      </trkpt>
      <trkpt lat="43.78532" lon="5.63447">
        <ele>410</ele>
        <time>2022-08-13T06:36:02Z</time>
      </trkpt>
      <trkpt lat="43.78526" lon="5.63445">
        <ele>410</ele>
        <time>2022-08-13T06:36:03Z</time>
      </trkpt>
      <trkpt lat="43.78522" lon="5.63445">
        <ele>410</ele>
        <time>2022-08-13T06:36:04Z</time>
      </trkpt>
      <trkpt lat="43.78513" lon="5.63449">
        <ele>409</ele>
        <time>2022-08-13T06:36:06Z</time>
      </trkpt>
      <trkpt lat="43.78507" lon="5.63455">
        <ele>408</ele>
        <time>2022-08-13T06:36:07Z</time>
      </trkpt>
      <trkpt lat="43.785" lon="5.63459">
        <ele>407</ele>
        <time>2022-08-13T06:36:08Z</time>
      </trkpt>
      <trkpt lat="43.78494" lon="5.6346">
        <ele>407</ele>
        <time>2022-08-13T06:36:09Z</time>
      </trkpt>
      <trkpt lat="43.78488" lon="5.63463">
        <ele>406</ele>
        <time>2022-08-13T06:36:10Z</time>
      </trkpt>
      <trkpt lat="43.78481" lon="5.63464">
        <ele>405</ele>
        <time>2022-08-13T06:36:11Z</time>
      </trkpt>
      <trkpt lat="43.78476" lon="5.63465">
        <ele>404</ele>
        <time>2022-08-13T06:36:12Z</time>
      </trkpt>
      <trkpt lat="43.78471" lon="5.63465">
        <ele>404</ele>
        <time>2022-08-13T06:36:13Z</time>
      </trkpt>
      <trkpt lat="43.7847" lon="5.63472">
        <ele>404</ele>
        <time>2022-08-13T06:36:14Z</time>
      </trkpt>
      <trkpt lat="43.78463" lon="5.63477">
        <ele>404</ele>
        <time>2022-08-13T06:36:16Z</time>
      </trkpt>
      <trkpt lat="43.78459" lon="5.63484">
        <ele>404</ele>
        <time>2022-08-13T06:36:18Z</time>
      </trkpt>
      <trkpt lat="43.78461" lon="5.63492">
        <ele>405</ele>
        <time>2022-08-13T06:36:20Z</time>
      </trkpt>
      <trkpt lat="43.7846" lon="5.63501">
        <ele>405</ele>
        <time>2022-08-13T06:36:22Z</time>
      </trkpt>
      <trkpt lat="43.78458" lon="5.6351">
        <ele>406</ele>
        <time>2022-08-13T06:36:24Z</time>
      </trkpt>
      <trkpt lat="43.78454" lon="5.63516">
        <ele>407</ele>
        <time>2022-08-13T06:36:26Z</time>
      </trkpt>
      <trkpt lat="43.78451" lon="5.63521">
        <ele>407</ele>
        <time>2022-08-13T06:36:28Z</time>
      </trkpt>
      <trkpt lat="43.78446" lon="5.63524">
        <ele>408</ele>
        <time>2022-08-13T06:36:31Z</time>
      </trkpt>
      <trkpt lat="43.78441" lon="5.63527">
        <ele>410</ele>
        <time>2022-08-13T06:36:34Z</time>
      </trkpt>
      <trkpt lat="43.78435" lon="5.6353">
        <ele>411</ele>
        <time>2022-08-13T06:36:37Z</time>
      </trkpt>
      <trkpt lat="43.78431" lon="5.63536">
        <ele>412</ele>
        <time>2022-08-13T06:36:41Z</time>
      </trkpt>
      <trkpt lat="43.78426" lon="5.63544">
        <ele>413</ele>
        <time>2022-08-13T06:36:44Z</time>
      </trkpt>
      <trkpt lat="43.78423" lon="5.63552">
        <ele>414</ele>
        <time>2022-08-13T06:36:47Z</time>
      </trkpt>
      <trkpt lat="43.7842" lon="5.63558">
        <ele>415</ele>
        <time>2022-08-13T06:36:49Z</time>
      </trkpt>
      <trkpt lat="43.78418" lon="5.63564">
        <ele>416</ele>
        <time>2022-08-13T06:36:51Z</time>
      </trkpt>
      <trkpt lat="43.78416" lon="5.63572">
        <ele>416</ele>
        <time>2022-08-13T06:36:53Z</time>
      </trkpt>
      <trkpt lat="43.78415" lon="5.63578">
        <ele>417</ele>
        <time>2022-08-13T06:36:55Z</time>
      </trkpt>
      <trkpt lat="43.78413" lon="5.63586">
        <ele>417</ele>
        <time>2022-08-13T06:36:57Z</time>
      </trkpt>
      <trkpt lat="43.78411" lon="5.63592">
        <ele>417</ele>
        <time>2022-08-13T06:36:59Z</time>
      </trkpt>
      <trkpt lat="43.78409" lon="5.63599">
        <ele>417</ele>
        <time>2022-08-13T06:37:01Z</time>
      </trkpt>
      <trkpt lat="43.78407" lon="5.63605">
        <ele>417</ele>
        <time>2022-08-13T06:37:03Z</time>
      </trkpt>
      <trkpt lat="43.78406" lon="5.63612">
        <ele>417</ele>
        <time>2022-08-13T06:37:05Z</time>
      </trkpt>
      <trkpt lat="43.78405" lon="5.63619">
        <ele>418</ele>
        <time>2022-08-13T06:37:07Z</time>
      </trkpt>
      <trkpt lat="43.78403" lon="5.63626">
        <ele>418</ele>
        <time>2022-08-13T06:37:09Z</time>
      </trkpt>
      <trkpt lat="43.784" lon="5.63633">
        <ele>418</ele>
        <time>2022-08-13T06:37:11Z</time>
      </trkpt>
      <trkpt lat="43.78397" lon="5.63639">
        <ele>419</ele>
        <time>2022-08-13T06:37:13Z</time>
      </trkpt>
      <trkpt lat="43.78395" lon="5.63645">
        <ele>419</ele>
        <time>2022-08-13T06:37:15Z</time>
      </trkpt>
      <trkpt lat="43.78394" lon="5.63651">
        <ele>419</ele>
        <time>2022-08-13T06:37:17Z</time>
      </trkpt>
      <trkpt lat="43.78392" lon="5.63659">
        <ele>418</ele>
        <time>2022-08-13T06:37:19Z</time>
      </trkpt>
      <trkpt lat="43.78391" lon="5.63666">
        <ele>417</ele>
        <time>2022-08-13T06:37:21Z</time>
      </trkpt>
      <trkpt lat="43.78389" lon="5.63672">
        <ele>417</ele>
        <time>2022-08-13T06:37:23Z</time>
      </trkpt>
      <trkpt lat="43.78388" lon="5.63678">
        <ele>416</ele>
        <time>2022-08-13T06:37:25Z</time>
      </trkpt>
      <trkpt lat="43.78384" lon="5.63683">
        <ele>416</ele>
        <time>2022-08-13T06:37:27Z</time>
      </trkpt>
      <trkpt lat="43.78382" lon="5.63689">
        <ele>415</ele>
        <time>2022-08-13T06:37:29Z</time>
      </trkpt>
      <trkpt lat="43.78379" lon="5.63696">
        <ele>415</ele>
        <time>2022-08-13T06:37:31Z</time>
      </trkpt>
      <trkpt lat="43.78378" lon="5.63703">
        <ele>415</ele>
        <time>2022-08-13T06:37:34Z</time>
      </trkpt>
      <trkpt lat="43.78378" lon="5.6371">
        <ele>414</ele>
        <time>2022-08-13T06:37:36Z</time>
      </trkpt>
      <trkpt lat="43.78378" lon="5.63717">
        <ele>414</ele>
        <time>2022-08-13T06:37:38Z</time>
      </trkpt>
      <trkpt lat="43.78379" lon="5.63725">
        <ele>414</ele>
        <time>2022-08-13T06:37:40Z</time>
      </trkpt>
      <trkpt lat="43.78381" lon="5.63734">
        <ele>415</ele>
        <time>2022-08-13T06:37:42Z</time>
      </trkpt>
      <trkpt lat="43.78381" lon="5.63743">
        <ele>415</ele>
        <time>2022-08-13T06:37:44Z</time>
      </trkpt>
      <trkpt lat="43.78381" lon="5.63751">
        <ele>416</ele>
        <time>2022-08-13T06:37:46Z</time>
      </trkpt>
      <trkpt lat="43.7838" lon="5.6376">
        <ele>416</ele>
        <time>2022-08-13T06:37:48Z</time>
      </trkpt>
      <trkpt lat="43.78379" lon="5.63767">
        <ele>417</ele>
        <time>2022-08-13T06:37:51Z</time>
      </trkpt>
      <trkpt lat="43.78379" lon="5.63774">
        <ele>417</ele>
        <time>2022-08-13T06:38:00Z</time>
      </trkpt>
      <trkpt lat="43.78377" lon="5.63765">
        <ele>418</ele>
        <time>2022-08-13T06:38:05Z</time>
      </trkpt>
      <trkpt lat="43.78378" lon="5.63756">
        <ele>419</ele>
        <time>2022-08-13T06:38:07Z</time>
      </trkpt>
      <trkpt lat="43.78378" lon="5.63748">
        <ele>420</ele>
        <time>2022-08-13T06:38:09Z</time>
      </trkpt>
      <trkpt lat="43.78384" lon="5.63751">
        <ele>421</ele>
        <time>2022-08-13T06:38:12Z</time>
      </trkpt>
      <trkpt lat="43.78384" lon="5.6376">
        <ele>422</ele>
        <time>2022-08-13T06:38:14Z</time>
      </trkpt>
      <trkpt lat="43.78384" lon="5.63769">
        <ele>422</ele>
        <time>2022-08-13T06:38:16Z</time>
      </trkpt>
      <trkpt lat="43.78384" lon="5.63777">
        <ele>423</ele>
        <time>2022-08-13T06:38:18Z</time>
      </trkpt>
      <trkpt lat="43.78384" lon="5.63785">
        <ele>424</ele>
        <time>2022-08-13T06:38:20Z</time>
      </trkpt>
      <trkpt lat="43.78385" lon="5.63793">
        <ele>425</ele>
        <time>2022-08-13T06:38:22Z</time>
      </trkpt>
      <trkpt lat="43.78386" lon="5.63801">
        <ele>425</ele>
        <time>2022-08-13T06:38:24Z</time>
      </trkpt>
      <trkpt lat="43.78386" lon="5.63809">
        <ele>425</ele>
        <time>2022-08-13T06:38:26Z</time>
      </trkpt>
      <trkpt lat="43.78386" lon="5.63816">
        <ele>426</ele>
        <time>2022-08-13T06:38:28Z</time>
      </trkpt>
      <trkpt lat="43.78387" lon="5.63823">
        <ele>426</ele>
        <time>2022-08-13T06:38:30Z</time>
      </trkpt>
      <trkpt lat="43.78389" lon="5.63829">
        <ele>426</ele>
        <time>2022-08-13T06:38:32Z</time>
      </trkpt>
      <trkpt lat="43.78392" lon="5.63838">
        <ele>426</ele>
        <time>2022-08-13T06:38:35Z</time>
      </trkpt>
      <trkpt lat="43.78394" lon="5.63844">
        <ele>426</ele>
        <time>2022-08-13T06:38:37Z</time>
      </trkpt>
      <trkpt lat="43.78397" lon="5.6385">
        <ele>426</ele>
        <time>2022-08-13T06:38:39Z</time>
      </trkpt>
      <trkpt lat="43.784" lon="5.63856">
        <ele>427</ele>
        <time>2022-08-13T06:38:41Z</time>
      </trkpt>
      <trkpt lat="43.78403" lon="5.63862">
        <ele>428</ele>
        <time>2022-08-13T06:38:43Z</time>
      </trkpt>
      <trkpt lat="43.78407" lon="5.63868">
        <ele>429</ele>
        <time>2022-08-13T06:38:45Z</time>
      </trkpt>
      <trkpt lat="43.78412" lon="5.63873">
        <ele>430</ele>
        <time>2022-08-13T06:38:47Z</time>
      </trkpt>
      <trkpt lat="43.78416" lon="5.63877">
        <ele>430</ele>
        <time>2022-08-13T06:38:49Z</time>
      </trkpt>
      <trkpt lat="43.78421" lon="5.63882">
        <ele>430</ele>
        <time>2022-08-13T06:38:51Z</time>
      </trkpt>
      <trkpt lat="43.78425" lon="5.63888">
        <ele>431</ele>
        <time>2022-08-13T06:38:53Z</time>
      </trkpt>
      <trkpt lat="43.7843" lon="5.63894">
        <ele>431</ele>
        <time>2022-08-13T06:38:55Z</time>
      </trkpt>
      <trkpt lat="43.78433" lon="5.639">
        <ele>431</ele>
        <time>2022-08-13T06:38:57Z</time>
      </trkpt>
      <trkpt lat="43.78437" lon="5.63906">
        <ele>431</ele>
        <time>2022-08-13T06:38:59Z</time>
      </trkpt>
      <trkpt lat="43.7844" lon="5.63913">
        <ele>432</ele>
        <time>2022-08-13T06:39:01Z</time>
      </trkpt>
      <trkpt lat="43.78442" lon="5.6392">
        <ele>432</ele>
        <time>2022-08-13T06:39:03Z</time>
      </trkpt>
      <trkpt lat="43.78443" lon="5.63928">
        <ele>431</ele>
        <time>2022-08-13T06:39:05Z</time>
      </trkpt>
      <trkpt lat="43.78444" lon="5.63937">
        <ele>431</ele>
        <time>2022-08-13T06:39:07Z</time>
      </trkpt>
      <trkpt lat="43.78445" lon="5.63945">
        <ele>430</ele>
        <time>2022-08-13T06:39:09Z</time>
      </trkpt>
      <trkpt lat="43.78445" lon="5.63955">
        <ele>429</ele>
        <time>2022-08-13T06:39:12Z</time>
      </trkpt>
      <trkpt lat="43.78446" lon="5.63965">
        <ele>428</ele>
        <time>2022-08-13T06:39:14Z</time>
      </trkpt>
      <trkpt lat="43.78449" lon="5.63975">
        <ele>428</ele>
        <time>2022-08-13T06:39:16Z</time>
      </trkpt>
      <trkpt lat="43.7845" lon="5.63986">
        <ele>427</ele>
        <time>2022-08-13T06:39:18Z</time>
      </trkpt>
      <trkpt lat="43.78451" lon="5.63994">
        <ele>427</ele>
        <time>2022-08-13T06:39:19Z</time>
      </trkpt>
      <trkpt lat="43.78453" lon="5.64001">
        <ele>427</ele>
        <time>2022-08-13T06:39:20Z</time>
      </trkpt>
      <trkpt lat="43.78454" lon="5.64008">
        <ele>427</ele>
        <time>2022-08-13T06:39:21Z</time>
      </trkpt>
      <trkpt lat="43.78454" lon="5.64015">
        <ele>427</ele>
        <time>2022-08-13T06:39:22Z</time>
      </trkpt>
      <trkpt lat="43.78456" lon="5.64022">
        <ele>426</ele>
        <time>2022-08-13T06:39:23Z</time>
      </trkpt>
      <trkpt lat="43.78457" lon="5.64028">
        <ele>426</ele>
        <time>2022-08-13T06:39:24Z</time>
      </trkpt>
      <trkpt lat="43.78459" lon="5.64035">
        <ele>426</ele>
        <time>2022-08-13T06:39:25Z</time>
      </trkpt>
      <trkpt lat="43.7846" lon="5.64041">
        <ele>426</ele>
        <time>2022-08-13T06:39:26Z</time>
      </trkpt>
      <trkpt lat="43.78464" lon="5.64051">
        <ele>426</ele>
        <time>2022-08-13T06:39:28Z</time>
      </trkpt>
      <trkpt lat="43.78465" lon="5.64063">
        <ele>427</ele>
        <time>2022-08-13T06:39:30Z</time>
      </trkpt>
      <trkpt lat="43.78464" lon="5.6407">
        <ele>427</ele>
        <time>2022-08-13T06:39:31Z</time>
      </trkpt>
      <trkpt lat="43.78462" lon="5.64077">
        <ele>427</ele>
        <time>2022-08-13T06:39:32Z</time>
      </trkpt>
      <trkpt lat="43.7846" lon="5.64084">
        <ele>427</ele>
        <time>2022-08-13T06:39:33Z</time>
      </trkpt>
      <trkpt lat="43.78458" lon="5.64091">
        <ele>427</ele>
        <time>2022-08-13T06:39:34Z</time>
      </trkpt>
      <trkpt lat="43.78456" lon="5.64098">
        <ele>427</ele>
        <time>2022-08-13T06:39:35Z</time>
      </trkpt>
      <trkpt lat="43.78454" lon="5.64105">
        <ele>427</ele>
        <time>2022-08-13T06:39:36Z</time>
      </trkpt>
      <trkpt lat="43.78452" lon="5.64113">
        <ele>427</ele>
        <time>2022-08-13T06:39:37Z</time>
      </trkpt>
      <trkpt lat="43.78449" lon="5.6412">
        <ele>427</ele>
        <time>2022-08-13T06:39:38Z</time>
      </trkpt>
      <trkpt lat="43.78447" lon="5.64127">
        <ele>426</ele>
        <time>2022-08-13T06:39:39Z</time>
      </trkpt>
      <trkpt lat="43.78444" lon="5.64133">
        <ele>426</ele>
        <time>2022-08-13T06:39:40Z</time>
      </trkpt>
      <trkpt lat="43.78442" lon="5.64139">
        <ele>426</ele>
        <time>2022-08-13T06:39:41Z</time>
      </trkpt>
      <trkpt lat="43.78439" lon="5.64151">
        <ele>426</ele>
        <time>2022-08-13T06:39:43Z</time>
      </trkpt>
      <trkpt lat="43.78439" lon="5.64162">
        <ele>427</ele>
        <time>2022-08-13T06:39:45Z</time>
      </trkpt>
      <trkpt lat="43.78442" lon="5.64173">
        <ele>427</ele>
        <time>2022-08-13T06:39:47Z</time>
      </trkpt>
      <trkpt lat="43.78445" lon="5.6418">
        <ele>427</ele>
        <time>2022-08-13T06:39:49Z</time>
      </trkpt>
      <trkpt lat="43.78449" lon="5.6419">
        <ele>426</ele>
        <time>2022-08-13T06:39:51Z</time>
      </trkpt>
      <trkpt lat="43.7845" lon="5.64197">
        <ele>426</ele>
        <time>2022-08-13T06:39:52Z</time>
      </trkpt>
      <trkpt lat="43.78452" lon="5.64207">
        <ele>425</ele>
        <time>2022-08-13T06:39:54Z</time>
      </trkpt>
      <trkpt lat="43.78452" lon="5.64218">
        <ele>425</ele>
        <time>2022-08-13T06:39:56Z</time>
      </trkpt>
      <trkpt lat="43.78453" lon="5.64229">
        <ele>425</ele>
        <time>2022-08-13T06:39:58Z</time>
      </trkpt>
      <trkpt lat="43.78453" lon="5.64241">
        <ele>424</ele>
        <time>2022-08-13T06:40:00Z</time>
      </trkpt>
      <trkpt lat="43.78454" lon="5.64253">
        <ele>424</ele>
        <time>2022-08-13T06:40:02Z</time>
      </trkpt>
      <trkpt lat="43.78454" lon="5.64265">
        <ele>423</ele>
        <time>2022-08-13T06:40:04Z</time>
      </trkpt>
      <trkpt lat="43.78453" lon="5.64277">
        <ele>423</ele>
        <time>2022-08-13T06:40:06Z</time>
      </trkpt>
      <trkpt lat="43.78451" lon="5.64288">
        <ele>423</ele>
        <time>2022-08-13T06:40:08Z</time>
      </trkpt>
      <trkpt lat="43.78448" lon="5.64299">
        <ele>423</ele>
        <time>2022-08-13T06:40:10Z</time>
      </trkpt>
      <trkpt lat="43.78445" lon="5.6431">
        <ele>424</ele>
        <time>2022-08-13T06:40:12Z</time>
      </trkpt>
      <trkpt lat="43.78442" lon="5.6432">
        <ele>425</ele>
        <time>2022-08-13T06:40:14Z</time>
      </trkpt>
      <trkpt lat="43.78439" lon="5.64331">
        <ele>426</ele>
        <time>2022-08-13T06:40:16Z</time>
      </trkpt>
      <trkpt lat="43.78435" lon="5.64341">
        <ele>426</ele>
        <time>2022-08-13T06:40:18Z</time>
      </trkpt>
      <trkpt lat="43.78432" lon="5.64351">
        <ele>427</ele>
        <time>2022-08-13T06:40:20Z</time>
      </trkpt>
      <trkpt lat="43.78429" lon="5.64361">
        <ele>427</ele>
        <time>2022-08-13T06:40:22Z</time>
      </trkpt>
      <trkpt lat="43.78428" lon="5.64371">
        <ele>428</ele>
        <time>2022-08-13T06:40:24Z</time>
      </trkpt>
      <trkpt lat="43.78426" lon="5.64381">
        <ele>428</ele>
        <time>2022-08-13T06:40:26Z</time>
      </trkpt>
      <trkpt lat="43.78423" lon="5.64392">
        <ele>429</ele>
        <time>2022-08-13T06:40:28Z</time>
      </trkpt>
      <trkpt lat="43.78421" lon="5.64402">
        <ele>429</ele>
        <time>2022-08-13T06:40:30Z</time>
      </trkpt>
      <trkpt lat="43.78418" lon="5.64411">
        <ele>430</ele>
        <time>2022-08-13T06:40:32Z</time>
      </trkpt>
      <trkpt lat="43.78415" lon="5.64421">
        <ele>430</ele>
        <time>2022-08-13T06:40:34Z</time>
      </trkpt>
      <trkpt lat="43.78413" lon="5.6443">
        <ele>430</ele>
        <time>2022-08-13T06:40:36Z</time>
      </trkpt>
      <trkpt lat="43.78411" lon="5.6444">
        <ele>430</ele>
        <time>2022-08-13T06:40:38Z</time>
      </trkpt>
      <trkpt lat="43.78408" lon="5.6445">
        <ele>431</ele>
        <time>2022-08-13T06:40:40Z</time>
      </trkpt>
      <trkpt lat="43.78406" lon="5.64459">
        <ele>431</ele>
        <time>2022-08-13T06:40:42Z</time>
      </trkpt>
      <trkpt lat="43.78403" lon="5.64468">
        <ele>432</ele>
        <time>2022-08-13T06:40:44Z</time>
      </trkpt>
      <trkpt lat="43.78399" lon="5.64476">
        <ele>432</ele>
        <time>2022-08-13T06:40:46Z</time>
      </trkpt>
      <trkpt lat="43.78395" lon="5.64484">
        <ele>433</ele>
        <time>2022-08-13T06:40:48Z</time>
      </trkpt>
      <trkpt lat="43.78391" lon="5.64491">
        <ele>433</ele>
        <time>2022-08-13T06:40:50Z</time>
      </trkpt>
      <trkpt lat="43.78386" lon="5.64498">
        <ele>433</ele>
        <time>2022-08-13T06:40:52Z</time>
      </trkpt>
      <trkpt lat="43.78381" lon="5.64504">
        <ele>433</ele>
        <time>2022-08-13T06:40:54Z</time>
      </trkpt>
      <trkpt lat="43.78375" lon="5.6451">
        <ele>434</ele>
        <time>2022-08-13T06:40:56Z</time>
      </trkpt>
      <trkpt lat="43.78371" lon="5.64515">
        <ele>434</ele>
        <time>2022-08-13T06:40:58Z</time>
      </trkpt>
      <trkpt lat="43.78366" lon="5.64519">
        <ele>434</ele>
        <time>2022-08-13T06:41:00Z</time>
      </trkpt>
      <trkpt lat="43.78362" lon="5.64525">
        <ele>435</ele>
        <time>2022-08-13T06:41:02Z</time>
      </trkpt>
      <trkpt lat="43.78359" lon="5.64532">
        <ele>436</ele>
        <time>2022-08-13T06:41:04Z</time>
      </trkpt>
      <trkpt lat="43.78355" lon="5.6454">
        <ele>436</ele>
        <time>2022-08-13T06:41:06Z</time>
      </trkpt>
      <trkpt lat="43.78353" lon="5.64549">
        <ele>436</ele>
        <time>2022-08-13T06:41:08Z</time>
      </trkpt>
      <trkpt lat="43.7835" lon="5.64557">
        <ele>436</ele>
        <time>2022-08-13T06:41:10Z</time>
      </trkpt>
      <trkpt lat="43.78349" lon="5.64566">
        <ele>436</ele>
        <time>2022-08-13T06:41:12Z</time>
      </trkpt>
      <trkpt lat="43.78346" lon="5.64574">
        <ele>436</ele>
        <time>2022-08-13T06:41:14Z</time>
      </trkpt>
      <trkpt lat="43.78344" lon="5.64583">
        <ele>436</ele>
        <time>2022-08-13T06:41:16Z</time>
      </trkpt>
      <trkpt lat="43.78342" lon="5.64591">
        <ele>436</ele>
        <time>2022-08-13T06:41:18Z</time>
      </trkpt>
      <trkpt lat="43.7834" lon="5.64599">
        <ele>436</ele>
        <time>2022-08-13T06:41:20Z</time>
      </trkpt>
      <trkpt lat="43.78338" lon="5.64605">
        <ele>436</ele>
        <time>2022-08-13T06:41:22Z</time>
      </trkpt>
      <trkpt lat="43.78338" lon="5.64612">
        <ele>436</ele>
        <time>2022-08-13T06:41:24Z</time>
      </trkpt>
      <trkpt lat="43.78337" lon="5.6462">
        <ele>435</ele>
        <time>2022-08-13T06:41:26Z</time>
      </trkpt>
      <trkpt lat="43.78336" lon="5.64626">
        <ele>435</ele>
        <time>2022-08-13T06:41:28Z</time>
      </trkpt>
      <trkpt lat="43.78336" lon="5.64634">
        <ele>434</ele>
        <time>2022-08-13T06:41:30Z</time>
      </trkpt>
      <trkpt lat="43.78335" lon="5.64642">
        <ele>434</ele>
        <time>2022-08-13T06:41:32Z</time>
      </trkpt>
      <trkpt lat="43.78335" lon="5.6465">
        <ele>434</ele>
        <time>2022-08-13T06:41:34Z</time>
      </trkpt>
      <trkpt lat="43.78335" lon="5.64659">
        <ele>435</ele>
        <time>2022-08-13T06:41:36Z</time>
      </trkpt>
      <trkpt lat="43.78335" lon="5.64667">
        <ele>436</ele>
        <time>2022-08-13T06:41:38Z</time>
      </trkpt>
      <trkpt lat="43.78336" lon="5.64675">
        <ele>436</ele>
        <time>2022-08-13T06:41:40Z</time>
      </trkpt>
      <trkpt lat="43.78336" lon="5.64684">
        <ele>437</ele>
        <time>2022-08-13T06:41:42Z</time>
      </trkpt>
      <trkpt lat="43.78336" lon="5.6469">
        <ele>438</ele>
        <time>2022-08-13T06:41:44Z</time>
      </trkpt>
      <trkpt lat="43.78336" lon="5.64697">
        <ele>438</ele>
        <time>2022-08-13T06:41:46Z</time>
      </trkpt>
      <trkpt lat="43.78336" lon="5.64705">
        <ele>439</ele>
        <time>2022-08-13T06:41:48Z</time>
      </trkpt>
      <trkpt lat="43.78339" lon="5.6471">
        <ele>440</ele>
        <time>2022-08-13T06:41:50Z</time>
      </trkpt>
      <trkpt lat="43.78343" lon="5.64714">
        <ele>441</ele>
        <time>2022-08-13T06:41:52Z</time>
      </trkpt>
      <trkpt lat="43.78346" lon="5.6472">
        <ele>442</ele>
        <time>2022-08-13T06:41:54Z</time>
      </trkpt>
      <trkpt lat="43.78348" lon="5.64726">
        <ele>443</ele>
        <time>2022-08-13T06:41:56Z</time>
      </trkpt>
      <trkpt lat="43.78351" lon="5.64732">
        <ele>443</ele>
        <time>2022-08-13T06:41:58Z</time>
      </trkpt>
      <trkpt lat="43.78354" lon="5.64737">
        <ele>443</ele>
        <time>2022-08-13T06:42:00Z</time>
      </trkpt>
      <trkpt lat="43.78356" lon="5.64742">
        <ele>443</ele>
        <time>2022-08-13T06:42:02Z</time>
      </trkpt>
      <trkpt lat="43.78357" lon="5.64749">
        <ele>443</ele>
        <time>2022-08-13T06:42:04Z</time>
      </trkpt>
      <trkpt lat="43.78351" lon="5.64749">
        <ele>443</ele>
        <time>2022-08-13T06:42:09Z</time>
      </trkpt>
      <trkpt lat="43.78347" lon="5.64747">
        <ele>443</ele>
        <time>2022-08-13T06:42:18Z</time>
      </trkpt>
      <trkpt lat="43.78341" lon="5.64746">
        <ele>444</ele>
        <time>2022-08-13T06:42:21Z</time>
      </trkpt>
      <trkpt lat="43.78337" lon="5.64748">
        <ele>444</ele>
        <time>2022-08-13T06:42:24Z</time>
      </trkpt>
      <trkpt lat="43.78333" lon="5.64754">
        <ele>445</ele>
        <time>2022-08-13T06:42:27Z</time>
      </trkpt>
      <trkpt lat="43.78327" lon="5.64756">
        <ele>446</ele>
        <time>2022-08-13T06:42:30Z</time>
      </trkpt>
      <trkpt lat="43.78322" lon="5.64757">
        <ele>447</ele>
        <time>2022-08-13T06:42:32Z</time>
      </trkpt>
      <trkpt lat="43.78317" lon="5.64758">
        <ele>448</ele>
        <time>2022-08-13T06:42:36Z</time>
      </trkpt>
      <trkpt lat="43.78314" lon="5.64763">
        <ele>449</ele>
        <time>2022-08-13T06:42:43Z</time>
      </trkpt>
      <trkpt lat="43.7831" lon="5.6477">
        <ele>450</ele>
        <time>2022-08-13T06:42:48Z</time>
      </trkpt>
      <trkpt lat="43.78305" lon="5.64773">
        <ele>452</ele>
        <time>2022-08-13T06:42:51Z</time>
      </trkpt>
      <trkpt lat="43.783" lon="5.64774">
        <ele>453</ele>
        <time>2022-08-13T06:42:53Z</time>
      </trkpt>
      <trkpt lat="43.78294" lon="5.64772">
        <ele>454</ele>
        <time>2022-08-13T06:42:56Z</time>
      </trkpt>
      <trkpt lat="43.78289" lon="5.64773">
        <ele>454</ele>
        <time>2022-08-13T06:42:59Z</time>
      </trkpt>
      <trkpt lat="43.78283" lon="5.64772">
        <ele>455</ele>
        <time>2022-08-13T06:43:02Z</time>
      </trkpt>
      <trkpt lat="43.78279" lon="5.64775">
        <ele>454</ele>
        <time>2022-08-13T06:43:05Z</time>
      </trkpt>
      <trkpt lat="43.78276" lon="5.64782">
        <ele>454</ele>
        <time>2022-08-13T06:43:08Z</time>
      </trkpt>
      <trkpt lat="43.78273" lon="5.64786">
        <ele>454</ele>
        <time>2022-08-13T06:43:10Z</time>
      </trkpt>
      <trkpt lat="43.78269" lon="5.6479">
        <ele>454</ele>
        <time>2022-08-13T06:43:12Z</time>
      </trkpt>
      <trkpt lat="43.78262" lon="5.64794">
        <ele>454</ele>
        <time>2022-08-13T06:43:15Z</time>
      </trkpt>
      <trkpt lat="43.78257" lon="5.64796">
        <ele>454</ele>
        <time>2022-08-13T06:43:17Z</time>
      </trkpt>
      <trkpt lat="43.78252" lon="5.64798">
        <ele>455</ele>
        <time>2022-08-13T06:43:19Z</time>
      </trkpt>
      <trkpt lat="43.78247" lon="5.64801">
        <ele>455</ele>
        <time>2022-08-13T06:43:22Z</time>
      </trkpt>
      <trkpt lat="43.78241" lon="5.64803">
        <ele>456</ele>
        <time>2022-08-13T06:43:25Z</time>
      </trkpt>
      <trkpt lat="43.78236" lon="5.64806">
        <ele>457</ele>
        <time>2022-08-13T06:43:28Z</time>
      </trkpt>
      <trkpt lat="43.78231" lon="5.6481">
        <ele>459</ele>
        <time>2022-08-13T06:43:32Z</time>
      </trkpt>
      <trkpt lat="43.78225" lon="5.64811">
        <ele>461</ele>
        <time>2022-08-13T06:43:35Z</time>
      </trkpt>
      <trkpt lat="43.7822" lon="5.64812">
        <ele>462</ele>
        <time>2022-08-13T06:43:38Z</time>
      </trkpt>
      <trkpt lat="43.78214" lon="5.64813">
        <ele>463</ele>
        <time>2022-08-13T06:43:41Z</time>
      </trkpt>
      <trkpt lat="43.78208" lon="5.64816">
        <ele>463</ele>
        <time>2022-08-13T06:43:44Z</time>
      </trkpt>
      <trkpt lat="43.78204" lon="5.6482">
        <ele>461</ele>
        <time>2022-08-13T06:43:47Z</time>
      </trkpt>
      <trkpt lat="43.78199" lon="5.64826">
        <ele>460</ele>
        <time>2022-08-13T06:43:50Z</time>
      </trkpt>
      <trkpt lat="43.78194" lon="5.64828">
        <ele>459</ele>
        <time>2022-08-13T06:43:52Z</time>
      </trkpt>
      <trkpt lat="43.7819" lon="5.6483">
        <ele>459</ele>
        <time>2022-08-13T06:43:54Z</time>
      </trkpt>
      <trkpt lat="43.78187" lon="5.64835">
        <ele>459</ele>
        <time>2022-08-13T06:43:56Z</time>
      </trkpt>
      <trkpt lat="43.78184" lon="5.64842">
        <ele>460</ele>
        <time>2022-08-13T06:43:59Z</time>
      </trkpt>
      <trkpt lat="43.7818" lon="5.64846">
        <ele>461</ele>
        <time>2022-08-13T06:44:02Z</time>
      </trkpt>
      <trkpt lat="43.78174" lon="5.64849">
        <ele>462</ele>
        <time>2022-08-13T06:44:05Z</time>
      </trkpt>
      <trkpt lat="43.78169" lon="5.64852">
        <ele>461</ele>
        <time>2022-08-13T06:44:08Z</time>
      </trkpt>
      <trkpt lat="43.78164" lon="5.64857">
        <ele>461</ele>
        <time>2022-08-13T06:44:11Z</time>
      </trkpt>
      <trkpt lat="43.7816" lon="5.6486">
        <ele>461</ele>
        <time>2022-08-13T06:44:14Z</time>
      </trkpt>
      <trkpt lat="43.78155" lon="5.64863">
        <ele>461</ele>
        <time>2022-08-13T06:44:17Z</time>
      </trkpt>
      <trkpt lat="43.78151" lon="5.64866">
        <ele>461</ele>
        <time>2022-08-13T06:44:19Z</time>
      </trkpt>
      <trkpt lat="43.78147" lon="5.64869">
        <ele>461</ele>
        <time>2022-08-13T06:44:21Z</time>
      </trkpt>
      <trkpt lat="43.78142" lon="5.6487">
        <ele>460</ele>
        <time>2022-08-13T06:44:23Z</time>
      </trkpt>
      <trkpt lat="43.78136" lon="5.6487">
        <ele>458</ele>
        <time>2022-08-13T06:44:26Z</time>
      </trkpt>
      <trkpt lat="43.78132" lon="5.64872">
        <ele>457</ele>
        <time>2022-08-13T06:44:29Z</time>
      </trkpt>
      <trkpt lat="43.78116" lon="5.6489">
        <ele>461</ele>
        <time>2022-08-13T06:46:19Z</time>
      </trkpt>
      <trkpt lat="43.78111" lon="5.64894">
        <ele>461</ele>
        <time>2022-08-13T06:46:21Z</time>
      </trkpt>
      <trkpt lat="43.78105" lon="5.64898">
        <ele>462</ele>
        <time>2022-08-13T06:46:23Z</time>
      </trkpt>
      <trkpt lat="43.78099" lon="5.64903">
        <ele>462</ele>
        <time>2022-08-13T06:46:25Z</time>
      </trkpt>
      <trkpt lat="43.78093" lon="5.64909">
        <ele>462</ele>
        <time>2022-08-13T06:46:27Z</time>
      </trkpt>
      <trkpt lat="43.78087" lon="5.64915">
        <ele>462</ele>
        <time>2022-08-13T06:46:29Z</time>
      </trkpt>
      <trkpt lat="43.7808" lon="5.64918">
        <ele>462</ele>
        <time>2022-08-13T06:46:31Z</time>
      </trkpt>
      <trkpt lat="43.78073" lon="5.64919">
        <ele>463</ele>
        <time>2022-08-13T06:46:33Z</time>
      </trkpt>
      <trkpt lat="43.78066" lon="5.64922">
        <ele>463</ele>
        <time>2022-08-13T06:46:35Z</time>
      </trkpt>
      <trkpt lat="43.78059" lon="5.64927">
        <ele>463</ele>
        <time>2022-08-13T06:46:37Z</time>
      </trkpt>
      <trkpt lat="43.78054" lon="5.64934">
        <ele>462</ele>
        <time>2022-08-13T06:46:39Z</time>
      </trkpt>
      <trkpt lat="43.78049" lon="5.6494">
        <ele>461</ele>
        <time>2022-08-13T06:46:41Z</time>
      </trkpt>
      <trkpt lat="43.78044" lon="5.64947">
        <ele>460</ele>
        <time>2022-08-13T06:46:43Z</time>
      </trkpt>
      <trkpt lat="43.78039" lon="5.64952">
        <ele>459</ele>
        <time>2022-08-13T06:46:45Z</time>
      </trkpt>
      <trkpt lat="43.78033" lon="5.64957">
        <ele>458</ele>
        <time>2022-08-13T06:46:47Z</time>
      </trkpt>
      <trkpt lat="43.78028" lon="5.64963">
        <ele>458</ele>
        <time>2022-08-13T06:46:49Z</time>
      </trkpt>
      <trkpt lat="43.78022" lon="5.64967">
        <ele>458</ele>
        <time>2022-08-13T06:46:51Z</time>
      </trkpt>
      <trkpt lat="43.78017" lon="5.64971">
        <ele>459</ele>
        <time>2022-08-13T06:46:53Z</time>
      </trkpt>
      <trkpt lat="43.78009" lon="5.64974">
        <ele>460</ele>
        <time>2022-08-13T06:46:55Z</time>
      </trkpt>
      <trkpt lat="43.78003" lon="5.64975">
        <ele>461</ele>
        <time>2022-08-13T06:46:57Z</time>
      </trkpt>
      <trkpt lat="43.77999" lon="5.64977">
        <ele>462</ele>
        <time>2022-08-13T06:46:59Z</time>
      </trkpt>
      <trkpt lat="43.77994" lon="5.64981">
        <ele>463</ele>
        <time>2022-08-13T06:47:01Z</time>
      </trkpt>
      <trkpt lat="43.77989" lon="5.64989">
        <ele>464</ele>
        <time>2022-08-13T06:47:03Z</time>
      </trkpt>
      <trkpt lat="43.77987" lon="5.64999">
        <ele>464</ele>
        <time>2022-08-13T06:47:05Z</time>
      </trkpt>
      <trkpt lat="43.77985" lon="5.65008">
        <ele>465</ele>
        <time>2022-08-13T06:47:07Z</time>
      </trkpt>
      <trkpt lat="43.77981" lon="5.65013">
        <ele>465</ele>
        <time>2022-08-13T06:47:09Z</time>
      </trkpt>
      <trkpt lat="43.77976" lon="5.65012">
        <ele>466</ele>
        <time>2022-08-13T06:47:11Z</time>
      </trkpt>
      <trkpt lat="43.77973" lon="5.65005">
        <ele>466</ele>
        <time>2022-08-13T06:47:13Z</time>
      </trkpt>
      <trkpt lat="43.77972" lon="5.64994">
        <ele>467</ele>
        <time>2022-08-13T06:47:15Z</time>
      </trkpt>
      <trkpt lat="43.7797" lon="5.64988">
        <ele>467</ele>
        <time>2022-08-13T06:47:16Z</time>
      </trkpt>
      <trkpt lat="43.77969" lon="5.64975">
        <ele>467</ele>
        <time>2022-08-13T06:47:18Z</time>
      </trkpt>
      <trkpt lat="43.77969" lon="5.64968">
        <ele>467</ele>
        <time>2022-08-13T06:47:19Z</time>
      </trkpt>
      <trkpt lat="43.77974" lon="5.64966">
        <ele>467</ele>
        <time>2022-08-13T06:47:20Z</time>
      </trkpt>
      <trkpt lat="43.77982" lon="5.64959">
        <ele>466</ele>
        <time>2022-08-13T06:47:22Z</time>
      </trkpt>
      <trkpt lat="43.77984" lon="5.64946">
        <ele>466</ele>
        <time>2022-08-13T06:47:24Z</time>
      </trkpt>
      <trkpt lat="43.77983" lon="5.64938">
        <ele>465</ele>
        <time>2022-08-13T06:47:25Z</time>
      </trkpt>
      <trkpt lat="43.77979" lon="5.6493">
        <ele>465</ele>
        <time>2022-08-13T06:47:26Z</time>
      </trkpt>
      <trkpt lat="43.77976" lon="5.64923">
        <ele>464</ele>
        <time>2022-08-13T06:47:27Z</time>
      </trkpt>
      <trkpt lat="43.77972" lon="5.64915">
        <ele>464</ele>
        <time>2022-08-13T06:47:28Z</time>
      </trkpt>
      <trkpt lat="43.77968" lon="5.64907">
        <ele>463</ele>
        <time>2022-08-13T06:47:29Z</time>
      </trkpt>
      <trkpt lat="43.77965" lon="5.64899">
        <ele>462</ele>
        <time>2022-08-13T06:47:30Z</time>
      </trkpt>
      <trkpt lat="43.77961" lon="5.6489">
        <ele>462</ele>
        <time>2022-08-13T06:47:31Z</time>
      </trkpt>
      <trkpt lat="43.77957" lon="5.64882">
        <ele>462</ele>
        <time>2022-08-13T06:47:32Z</time>
      </trkpt>
      <trkpt lat="43.77953" lon="5.64876">
        <ele>462</ele>
        <time>2022-08-13T06:47:33Z</time>
      </trkpt>
      <trkpt lat="43.77949" lon="5.64868">
        <ele>462</ele>
        <time>2022-08-13T06:47:34Z</time>
      </trkpt>
      <trkpt lat="43.77945" lon="5.6486">
        <ele>462</ele>
        <time>2022-08-13T06:47:35Z</time>
      </trkpt>
      <trkpt lat="43.77941" lon="5.64851">
        <ele>462</ele>
        <time>2022-08-13T06:47:36Z</time>
      </trkpt>
      <trkpt lat="43.77937" lon="5.64843">
        <ele>462</ele>
        <time>2022-08-13T06:47:37Z</time>
      </trkpt>
      <trkpt lat="43.77934" lon="5.64837">
        <ele>462</ele>
        <time>2022-08-13T06:47:38Z</time>
      </trkpt>
      <trkpt lat="43.77931" lon="5.6483">
        <ele>461</ele>
        <time>2022-08-13T06:47:39Z</time>
      </trkpt>
      <trkpt lat="43.77925" lon="5.64822">
        <ele>461</ele>
        <time>2022-08-13T06:47:41Z</time>
      </trkpt>
      <trkpt lat="43.77921" lon="5.6483">
        <ele>461</ele>
        <time>2022-08-13T06:47:44Z</time>
      </trkpt>
      <trkpt lat="43.77921" lon="5.6484">
        <ele>461</ele>
        <time>2022-08-13T06:47:46Z</time>
      </trkpt>
      <trkpt lat="43.77918" lon="5.6485">
        <ele>461</ele>
        <time>2022-08-13T06:47:48Z</time>
      </trkpt>
      <trkpt lat="43.77913" lon="5.64856">
        <ele>461</ele>
        <time>2022-08-13T06:47:50Z</time>
      </trkpt>
      <trkpt lat="43.77908" lon="5.64863">
        <ele>462</ele>
        <time>2022-08-13T06:47:52Z</time>
      </trkpt>
      <trkpt lat="43.77902" lon="5.6487">
        <ele>461</ele>
        <time>2022-08-13T06:47:54Z</time>
      </trkpt>
      <trkpt lat="43.77897" lon="5.64874">
        <ele>461</ele>
        <time>2022-08-13T06:47:56Z</time>
      </trkpt>
      <trkpt lat="43.7789" lon="5.64878">
        <ele>461</ele>
        <time>2022-08-13T06:47:58Z</time>
      </trkpt>
      <trkpt lat="43.77884" lon="5.64882">
        <ele>461</ele>
        <time>2022-08-13T06:48:00Z</time>
      </trkpt>
      <trkpt lat="43.77878" lon="5.64886">
        <ele>462</ele>
        <time>2022-08-13T06:48:02Z</time>
      </trkpt>
      <trkpt lat="43.77871" lon="5.6489">
        <ele>462</ele>
        <time>2022-08-13T06:48:04Z</time>
      </trkpt>
      <trkpt lat="43.77866" lon="5.64894">
        <ele>463</ele>
        <time>2022-08-13T06:48:06Z</time>
      </trkpt>
      <trkpt lat="43.7786" lon="5.64898">
        <ele>463</ele>
        <time>2022-08-13T06:48:08Z</time>
      </trkpt>
      <trkpt lat="43.77853" lon="5.64901">
        <ele>463</ele>
        <time>2022-08-13T06:48:10Z</time>
      </trkpt>
      <trkpt lat="43.77848" lon="5.64907">
        <ele>464</ele>
        <time>2022-08-13T06:48:12Z</time>
      </trkpt>
      <trkpt lat="43.77844" lon="5.64913">
        <ele>464</ele>
        <time>2022-08-13T06:48:14Z</time>
      </trkpt>
      <trkpt lat="43.77839" lon="5.64921">
        <ele>464</ele>
        <time>2022-08-13T06:48:16Z</time>
      </trkpt>
      <trkpt lat="43.77837" lon="5.64931">
        <ele>463</ele>
        <time>2022-08-13T06:48:18Z</time>
      </trkpt>
      <trkpt lat="43.77836" lon="5.64942">
        <ele>463</ele>
        <time>2022-08-13T06:48:20Z</time>
      </trkpt>
      <trkpt lat="43.77837" lon="5.64954">
        <ele>463</ele>
        <time>2022-08-13T06:48:22Z</time>
      </trkpt>
      <trkpt lat="43.77836" lon="5.64964">
        <ele>462</ele>
        <time>2022-08-13T06:48:24Z</time>
      </trkpt>
      <trkpt lat="43.77836" lon="5.64974">
        <ele>462</ele>
        <time>2022-08-13T06:48:26Z</time>
      </trkpt>
      <trkpt lat="43.77839" lon="5.64984">
        <ele>462</ele>
        <time>2022-08-13T06:48:27Z</time>
      </trkpt>
      <trkpt lat="43.7784" lon="5.64991">
        <ele>462</ele>
        <time>2022-08-13T06:48:28Z</time>
      </trkpt>
      <trkpt lat="43.7784" lon="5.65002">
        <ele>462</ele>
        <time>2022-08-13T06:48:30Z</time>
      </trkpt>
      <trkpt lat="43.77839" lon="5.65013">
        <ele>463</ele>
        <time>2022-08-13T06:48:32Z</time>
      </trkpt>
      <trkpt lat="43.77837" lon="5.65022">
        <ele>463</ele>
        <time>2022-08-13T06:48:34Z</time>
      </trkpt>
      <trkpt lat="43.77838" lon="5.65029">
        <ele>463</ele>
        <time>2022-08-13T06:48:35Z</time>
      </trkpt>
      <trkpt lat="43.77837" lon="5.65041">
        <ele>464</ele>
        <time>2022-08-13T06:48:37Z</time>
      </trkpt>
      <trkpt lat="43.77835" lon="5.65051">
        <ele>465</ele>
        <time>2022-08-13T06:48:39Z</time>
      </trkpt>
      <trkpt lat="43.77831" lon="5.65061">
        <ele>466</ele>
        <time>2022-08-13T06:48:41Z</time>
      </trkpt>
      <trkpt lat="43.77826" lon="5.65072">
        <ele>466</ele>
        <time>2022-08-13T06:48:43Z</time>
      </trkpt>
      <trkpt lat="43.77821" lon="5.65079">
        <ele>467</ele>
        <time>2022-08-13T06:48:45Z</time>
      </trkpt>
      <trkpt lat="43.77815" lon="5.65085">
        <ele>467</ele>
        <time>2022-08-13T06:48:47Z</time>
      </trkpt>
      <trkpt lat="43.77811" lon="5.65092">
        <ele>467</ele>
        <time>2022-08-13T06:48:49Z</time>
      </trkpt>
      <trkpt lat="43.77808" lon="5.651">
        <ele>468</ele>
        <time>2022-08-13T06:48:51Z</time>
      </trkpt>
      <trkpt lat="43.77803" lon="5.65105">
        <ele>467</ele>
        <time>2022-08-13T06:48:53Z</time>
      </trkpt>
      <trkpt lat="43.77795" lon="5.65106">
        <ele>467</ele>
        <time>2022-08-13T06:48:55Z</time>
      </trkpt>
      <trkpt lat="43.77787" lon="5.65105">
        <ele>468</ele>
        <time>2022-08-13T06:48:57Z</time>
      </trkpt>
      <trkpt lat="43.7778" lon="5.65104">
        <ele>468</ele>
        <time>2022-08-13T06:48:59Z</time>
      </trkpt>
      <trkpt lat="43.77772" lon="5.65104">
        <ele>467</ele>
        <time>2022-08-13T06:49:01Z</time>
      </trkpt>
      <trkpt lat="43.77765" lon="5.65102">
        <ele>468</ele>
        <time>2022-08-13T06:49:03Z</time>
      </trkpt>
      <trkpt lat="43.77758" lon="5.65099">
        <ele>467</ele>
        <time>2022-08-13T06:49:05Z</time>
      </trkpt>
      <trkpt lat="43.77753" lon="5.65095">
        <ele>467</ele>
        <time>2022-08-13T06:49:07Z</time>
      </trkpt>
      <trkpt lat="43.77748" lon="5.65091">
        <ele>466</ele>
        <time>2022-08-13T06:49:09Z</time>
      </trkpt>
      <trkpt lat="43.77744" lon="5.65086">
        <ele>466</ele>
        <time>2022-08-13T06:49:11Z</time>
      </trkpt>
      <trkpt lat="43.77741" lon="5.65082">
        <ele>467</ele>
        <time>2022-08-13T06:49:13Z</time>
      </trkpt>
      <trkpt lat="43.77736" lon="5.6508">
        <ele>467</ele>
        <time>2022-08-13T06:49:15Z</time>
      </trkpt>
      <trkpt lat="43.7773" lon="5.65082">
        <ele>468</ele>
        <time>2022-08-13T06:49:18Z</time>
      </trkpt>
      <trkpt lat="43.77727" lon="5.65088">
        <ele>469</ele>
        <time>2022-08-13T06:49:20Z</time>
      </trkpt>
      <trkpt lat="43.77725" lon="5.65094">
        <ele>469</ele>
        <time>2022-08-13T06:49:22Z</time>
      </trkpt>
      <trkpt lat="43.77723" lon="5.651">
        <ele>470</ele>
        <time>2022-08-13T06:49:24Z</time>
      </trkpt>
      <trkpt lat="43.7772" lon="5.65106">
        <ele>470</ele>
        <time>2022-08-13T06:49:26Z</time>
      </trkpt>
      <trkpt lat="43.77716" lon="5.65113">
        <ele>470</ele>
        <time>2022-08-13T06:49:29Z</time>
      </trkpt>
      <trkpt lat="43.77713" lon="5.65119">
        <ele>471</ele>
        <time>2022-08-13T06:49:31Z</time>
      </trkpt>
      <trkpt lat="43.7771" lon="5.65125">
        <ele>471</ele>
        <time>2022-08-13T06:49:33Z</time>
      </trkpt>
      <trkpt lat="43.77705" lon="5.65132">
        <ele>471</ele>
        <time>2022-08-13T06:49:35Z</time>
      </trkpt>
      <trkpt lat="43.77702" lon="5.65139">
        <ele>472</ele>
        <time>2022-08-13T06:49:38Z</time>
      </trkpt>
      <trkpt lat="43.77698" lon="5.65146">
        <ele>474</ele>
        <time>2022-08-13T06:49:41Z</time>
      </trkpt>
      <trkpt lat="43.77694" lon="5.65152">
        <ele>475</ele>
        <time>2022-08-13T06:49:43Z</time>
      </trkpt>
      <trkpt lat="43.77691" lon="5.65157">
        <ele>475</ele>
        <time>2022-08-13T06:49:45Z</time>
      </trkpt>
      <trkpt lat="43.77689" lon="5.65162">
        <ele>476</ele>
        <time>2022-08-13T06:49:47Z</time>
      </trkpt>
      <trkpt lat="43.77685" lon="5.65168">
        <ele>476</ele>
        <time>2022-08-13T06:49:49Z</time>
      </trkpt>
      <trkpt lat="43.77683" lon="5.65174">
        <ele>475</ele>
        <time>2022-08-13T06:49:51Z</time>
      </trkpt>
      <trkpt lat="43.77681" lon="5.65181">
        <ele>475</ele>
        <time>2022-08-13T06:49:53Z</time>
      </trkpt>
      <trkpt lat="43.77678" lon="5.65187">
        <ele>476</ele>
        <time>2022-08-13T06:49:55Z</time>
      </trkpt>
      <trkpt lat="43.77675" lon="5.65194">
        <ele>476</ele>
        <time>2022-08-13T06:49:57Z</time>
      </trkpt>
      <trkpt lat="43.77671" lon="5.65199">
        <ele>477</ele>
        <time>2022-08-13T06:49:59Z</time>
      </trkpt>
      <trkpt lat="43.77666" lon="5.65204">
        <ele>477</ele>
        <time>2022-08-13T06:50:01Z</time>
      </trkpt>
      <trkpt lat="43.77662" lon="5.65208">
        <ele>477</ele>
        <time>2022-08-13T06:50:03Z</time>
      </trkpt>
      <trkpt lat="43.77659" lon="5.65215">
        <ele>477</ele>
        <time>2022-08-13T06:50:06Z</time>
      </trkpt>
      <trkpt lat="43.77656" lon="5.65221">
        <ele>476</ele>
        <time>2022-08-13T06:50:08Z</time>
      </trkpt>
      <trkpt lat="43.77653" lon="5.65226">
        <ele>476</ele>
        <time>2022-08-13T06:50:10Z</time>
      </trkpt>
      <trkpt lat="43.77649" lon="5.65231">
        <ele>476</ele>
        <time>2022-08-13T06:50:12Z</time>
      </trkpt>
      <trkpt lat="43.77645" lon="5.65236">
        <ele>477</ele>
        <time>2022-08-13T06:50:14Z</time>
      </trkpt>
      <trkpt lat="43.77641" lon="5.65242">
        <ele>478</ele>
        <time>2022-08-13T06:50:16Z</time>
      </trkpt>
      <trkpt lat="43.77636" lon="5.65247">
        <ele>479</ele>
        <time>2022-08-13T06:50:18Z</time>
      </trkpt>
      <trkpt lat="43.77631" lon="5.65252">
        <ele>480</ele>
        <time>2022-08-13T06:50:21Z</time>
      </trkpt>
      <trkpt lat="43.77626" lon="5.65257">
        <ele>481</ele>
        <time>2022-08-13T06:50:23Z</time>
      </trkpt>
      <trkpt lat="43.77625" lon="5.65264">
        <ele>482</ele>
        <time>2022-08-13T06:50:25Z</time>
      </trkpt>
      <trkpt lat="43.77623" lon="5.65271">
        <ele>483</ele>
        <time>2022-08-13T06:50:28Z</time>
      </trkpt>
      <trkpt lat="43.77624" lon="5.65278">
        <ele>484</ele>
        <time>2022-08-13T06:50:31Z</time>
      </trkpt>
      <trkpt lat="43.77625" lon="5.65284">
        <ele>485</ele>
        <time>2022-08-13T06:50:33Z</time>
      </trkpt>
      <trkpt lat="43.77627" lon="5.65292">
        <ele>486</ele>
        <time>2022-08-13T06:50:37Z</time>
      </trkpt>
      <trkpt lat="43.77625" lon="5.65298">
        <ele>487</ele>
        <time>2022-08-13T06:50:39Z</time>
      </trkpt>
      <trkpt lat="43.77624" lon="5.65307">
        <ele>487</ele>
        <time>2022-08-13T06:50:42Z</time>
      </trkpt>
      <trkpt lat="43.77623" lon="5.65314">
        <ele>488</ele>
        <time>2022-08-13T06:50:45Z</time>
      </trkpt>
      <trkpt lat="43.77624" lon="5.65323">
        <ele>488</ele>
        <time>2022-08-13T06:50:48Z</time>
      </trkpt>
      <trkpt lat="43.77626" lon="5.6533">
        <ele>488</ele>
        <time>2022-08-13T06:50:50Z</time>
      </trkpt>
      <trkpt lat="43.77628" lon="5.65336">
        <ele>488</ele>
        <time>2022-08-13T06:50:52Z</time>
      </trkpt>
      <trkpt lat="43.77629" lon="5.65343">
        <ele>488</ele>
        <time>2022-08-13T06:50:54Z</time>
      </trkpt>
      <trkpt lat="43.7763" lon="5.65351">
        <ele>487</ele>
        <time>2022-08-13T06:50:57Z</time>
      </trkpt>
      <trkpt lat="43.7763" lon="5.6536">
        <ele>486</ele>
        <time>2022-08-13T06:51:00Z</time>
      </trkpt>
      <trkpt lat="43.77631" lon="5.65368">
        <ele>486</ele>
        <time>2022-08-13T06:51:02Z</time>
      </trkpt>
      <trkpt lat="43.77633" lon="5.65374">
        <ele>486</ele>
        <time>2022-08-13T06:51:04Z</time>
      </trkpt>
      <trkpt lat="43.77634" lon="5.6538">
        <ele>485</ele>
        <time>2022-08-13T06:51:06Z</time>
      </trkpt>
      <trkpt lat="43.77636" lon="5.65388">
        <ele>484</ele>
        <time>2022-08-13T06:51:08Z</time>
      </trkpt>
      <trkpt lat="43.77636" lon="5.65395">
        <ele>484</ele>
        <time>2022-08-13T06:51:10Z</time>
      </trkpt>
      <trkpt lat="43.77634" lon="5.65401">
        <ele>484</ele>
        <time>2022-08-13T06:51:12Z</time>
      </trkpt>
      <trkpt lat="43.77631" lon="5.65406">
        <ele>483</ele>
        <time>2022-08-13T06:51:14Z</time>
      </trkpt>
      <trkpt lat="43.77626" lon="5.65411">
        <ele>484</ele>
        <time>2022-08-13T06:51:17Z</time>
      </trkpt>
      <trkpt lat="43.77622" lon="5.65416">
        <ele>485</ele>
        <time>2022-08-13T06:51:20Z</time>
      </trkpt>
      <trkpt lat="43.77615" lon="5.6542">
        <ele>487</ele>
        <time>2022-08-13T06:51:23Z</time>
      </trkpt>
      <trkpt lat="43.7761" lon="5.6542">
        <ele>488</ele>
        <time>2022-08-13T06:51:25Z</time>
      </trkpt>
      <trkpt lat="43.77606" lon="5.65417">
        <ele>490</ele>
        <time>2022-08-13T06:51:27Z</time>
      </trkpt>
      <trkpt lat="43.77603" lon="5.65412">
        <ele>492</ele>
        <time>2022-08-13T06:51:29Z</time>
      </trkpt>
      <trkpt lat="43.776" lon="5.65407">
        <ele>492</ele>
        <time>2022-08-13T06:51:31Z</time>
      </trkpt>
      <trkpt lat="43.77595" lon="5.65403">
        <ele>494</ele>
        <time>2022-08-13T06:51:33Z</time>
      </trkpt>
      <trkpt lat="43.7759" lon="5.65398">
        <ele>494</ele>
        <time>2022-08-13T06:51:35Z</time>
      </trkpt>
      <trkpt lat="43.77585" lon="5.65394">
        <ele>495</ele>
        <time>2022-08-13T06:51:37Z</time>
      </trkpt>
      <trkpt lat="43.7758" lon="5.65389">
        <ele>496</ele>
        <time>2022-08-13T06:51:39Z</time>
      </trkpt>
      <trkpt lat="43.77575" lon="5.65384">
        <ele>497</ele>
        <time>2022-08-13T06:51:41Z</time>
      </trkpt>
      <trkpt lat="43.77569" lon="5.65378">
        <ele>499</ele>
        <time>2022-08-13T06:51:43Z</time>
      </trkpt>
      <trkpt lat="43.77563" lon="5.65373">
        <ele>500</ele>
        <time>2022-08-13T06:51:45Z</time>
      </trkpt>
      <trkpt lat="43.77556" lon="5.65369">
        <ele>501</ele>
        <time>2022-08-13T06:51:47Z</time>
      </trkpt>
      <trkpt lat="43.77548" lon="5.65365">
        <ele>501</ele>
        <time>2022-08-13T06:51:49Z</time>
      </trkpt>
      <trkpt lat="43.77544" lon="5.65361">
        <ele>502</ele>
        <time>2022-08-13T06:51:50Z</time>
      </trkpt>
      <trkpt lat="43.77541" lon="5.65357">
        <ele>502</ele>
        <time>2022-08-13T06:51:51Z</time>
      </trkpt>
      <trkpt lat="43.77536" lon="5.65354">
        <ele>502</ele>
        <time>2022-08-13T06:51:52Z</time>
      </trkpt>
      <trkpt lat="43.77533" lon="5.65349">
        <ele>502</ele>
        <time>2022-08-13T06:51:53Z</time>
      </trkpt>
      <trkpt lat="43.77526" lon="5.65343">
        <ele>503</ele>
        <time>2022-08-13T06:51:55Z</time>
      </trkpt>
      <trkpt lat="43.77519" lon="5.65335">
        <ele>504</ele>
        <time>2022-08-13T06:51:57Z</time>
      </trkpt>
      <trkpt lat="43.77515" lon="5.6533">
        <ele>504</ele>
        <time>2022-08-13T06:51:58Z</time>
      </trkpt>
      <trkpt lat="43.77509" lon="5.65325">
        <ele>504</ele>
        <time>2022-08-13T06:52:00Z</time>
      </trkpt>
      <trkpt lat="43.77502" lon="5.65319">
        <ele>505</ele>
        <time>2022-08-13T06:52:02Z</time>
      </trkpt>
      <trkpt lat="43.77494" lon="5.65315">
        <ele>505</ele>
        <time>2022-08-13T06:52:04Z</time>
      </trkpt>
      <trkpt lat="43.7749" lon="5.65311">
        <ele>504</ele>
        <time>2022-08-13T06:52:05Z</time>
      </trkpt>
      <trkpt lat="43.77484" lon="5.65304">
        <ele>505</ele>
        <time>2022-08-13T06:52:07Z</time>
      </trkpt>
      <trkpt lat="43.7748" lon="5.65299">
        <ele>505</ele>
        <time>2022-08-13T06:52:08Z</time>
      </trkpt>
      <trkpt lat="43.77477" lon="5.65293">
        <ele>505</ele>
        <time>2022-08-13T06:52:09Z</time>
      </trkpt>
      <trkpt lat="43.77473" lon="5.65289">
        <ele>505</ele>
        <time>2022-08-13T06:52:10Z</time>
      </trkpt>
      <trkpt lat="43.77469" lon="5.65284">
        <ele>504</ele>
        <time>2022-08-13T06:52:11Z</time>
      </trkpt>
      <trkpt lat="43.77464" lon="5.65281">
        <ele>504</ele>
        <time>2022-08-13T06:52:12Z</time>
      </trkpt>
      <trkpt lat="43.77459" lon="5.65277">
        <ele>503</ele>
        <time>2022-08-13T06:52:13Z</time>
      </trkpt>
      <trkpt lat="43.77455" lon="5.65273">
        <ele>504</ele>
        <time>2022-08-13T06:52:14Z</time>
      </trkpt>
      <trkpt lat="43.77451" lon="5.65268">
        <ele>504</ele>
        <time>2022-08-13T06:52:15Z</time>
      </trkpt>
      <trkpt lat="43.77447" lon="5.65265">
        <ele>504</ele>
        <time>2022-08-13T06:52:16Z</time>
      </trkpt>
      <trkpt lat="43.77442" lon="5.6526">
        <ele>504</ele>
        <time>2022-08-13T06:52:17Z</time>
      </trkpt>
      <trkpt lat="43.77438" lon="5.65256">
        <ele>504</ele>
        <time>2022-08-13T06:52:18Z</time>
      </trkpt>
      <trkpt lat="43.7743" lon="5.65248">
        <ele>504</ele>
        <time>2022-08-13T06:52:20Z</time>
      </trkpt>
      <trkpt lat="43.77424" lon="5.65244">
        <ele>504</ele>
        <time>2022-08-13T06:52:21Z</time>
      </trkpt>
      <trkpt lat="43.77419" lon="5.65244">
        <ele>504</ele>
        <time>2022-08-13T06:52:22Z</time>
      </trkpt>
      <trkpt lat="43.77413" lon="5.65248">
        <ele>504</ele>
        <time>2022-08-13T06:52:23Z</time>
      </trkpt>
      <trkpt lat="43.77408" lon="5.65254">
        <ele>503</ele>
        <time>2022-08-13T06:52:24Z</time>
      </trkpt>
      <trkpt lat="43.77403" lon="5.65263">
        <ele>503</ele>
        <time>2022-08-13T06:52:25Z</time>
      </trkpt>
      <trkpt lat="43.77399" lon="5.6527">
        <ele>503</ele>
        <time>2022-08-13T06:52:26Z</time>
      </trkpt>
      <trkpt lat="43.77394" lon="5.65276">
        <ele>502</ele>
        <time>2022-08-13T06:52:27Z</time>
      </trkpt>
      <trkpt lat="43.77388" lon="5.65282">
        <ele>502</ele>
        <time>2022-08-13T06:52:28Z</time>
      </trkpt>
      <trkpt lat="43.77381" lon="5.65284">
        <ele>502</ele>
        <time>2022-08-13T06:52:29Z</time>
      </trkpt>
      <trkpt lat="43.77374" lon="5.65283">
        <ele>502</ele>
        <time>2022-08-13T06:52:30Z</time>
      </trkpt>
      <trkpt lat="43.77368" lon="5.65277">
        <ele>502</ele>
        <time>2022-08-13T06:52:31Z</time>
      </trkpt>
      <trkpt lat="43.77371" lon="5.65265">
        <ele>502</ele>
        <time>2022-08-13T06:52:33Z</time>
      </trkpt>
      <trkpt lat="43.77371" lon="5.65259">
        <ele>502</ele>
        <time>2022-08-13T06:52:34Z</time>
      </trkpt>
      <trkpt lat="43.77372" lon="5.65253">
        <ele>502</ele>
        <time>2022-08-13T06:52:35Z</time>
      </trkpt>
      <trkpt lat="43.77372" lon="5.65245">
        <ele>501</ele>
        <time>2022-08-13T06:52:36Z</time>
      </trkpt>
      <trkpt lat="43.77372" lon="5.65239">
        <ele>501</ele>
        <time>2022-08-13T06:52:37Z</time>
      </trkpt>
      <trkpt lat="43.77373" lon="5.65232">
        <ele>501</ele>
        <time>2022-08-13T06:52:38Z</time>
      </trkpt>
      <trkpt lat="43.77374" lon="5.65226">
        <ele>500</ele>
        <time>2022-08-13T06:52:39Z</time>
      </trkpt>
      <trkpt lat="43.77375" lon="5.65219">
        <ele>499</ele>
        <time>2022-08-13T06:52:40Z</time>
      </trkpt>
      <trkpt lat="43.77377" lon="5.65207">
        <ele>498</ele>
        <time>2022-08-13T06:52:42Z</time>
      </trkpt>
      <trkpt lat="43.77378" lon="5.652">
        <ele>496</ele>
        <time>2022-08-13T06:52:43Z</time>
      </trkpt>
      <trkpt lat="43.77379" lon="5.65194">
        <ele>495</ele>
        <time>2022-08-13T06:52:44Z</time>
      </trkpt>
      <trkpt lat="43.7738" lon="5.65179">
        <ele>492</ele>
        <time>2022-08-13T06:52:46Z</time>
      </trkpt>
      <trkpt lat="43.77379" lon="5.65165">
        <ele>490</ele>
        <time>2022-08-13T06:52:48Z</time>
      </trkpt>
      <trkpt lat="43.77379" lon="5.65157">
        <ele>488</ele>
        <time>2022-08-13T06:52:49Z</time>
      </trkpt>
      <trkpt lat="43.77381" lon="5.65151">
        <ele>487</ele>
        <time>2022-08-13T06:52:50Z</time>
      </trkpt>
      <trkpt lat="43.77385" lon="5.65142">
        <ele>485</ele>
        <time>2022-08-13T06:52:52Z</time>
      </trkpt>
      <trkpt lat="43.77388" lon="5.65139">
        <ele>485</ele>
        <time>2022-08-13T06:52:56Z</time>
      </trkpt>
      <trkpt lat="43.77394" lon="5.6514">
        <ele>484</ele>
        <time>2022-08-13T06:53:09Z</time>
      </trkpt>
      <trkpt lat="43.77398" lon="5.65134">
        <ele>484</ele>
        <time>2022-08-13T06:53:12Z</time>
      </trkpt>
      <trkpt lat="43.77402" lon="5.65127">
        <ele>484</ele>
        <time>2022-08-13T06:53:14Z</time>
      </trkpt>
      <trkpt lat="43.77408" lon="5.6512">
        <ele>484</ele>
        <time>2022-08-13T06:53:16Z</time>
      </trkpt>
      <trkpt lat="43.77411" lon="5.65116">
        <ele>484</ele>
        <time>2022-08-13T06:53:17Z</time>
      </trkpt>
      <trkpt lat="43.77417" lon="5.65108">
        <ele>484</ele>
        <time>2022-08-13T06:53:19Z</time>
      </trkpt>
      <trkpt lat="43.77424" lon="5.651">
        <ele>484</ele>
        <time>2022-08-13T06:53:21Z</time>
      </trkpt>
      <trkpt lat="43.77427" lon="5.65091">
        <ele>484</ele>
        <time>2022-08-13T06:53:22Z</time>
      </trkpt>
      <trkpt lat="43.77434" lon="5.65084">
        <ele>483</ele>
        <time>2022-08-13T06:53:24Z</time>
      </trkpt>
      <trkpt lat="43.77439" lon="5.65079">
        <ele>483</ele>
        <time>2022-08-13T06:53:25Z</time>
      </trkpt>
      <trkpt lat="43.77443" lon="5.65075">
        <ele>484</ele>
        <time>2022-08-13T06:53:26Z</time>
      </trkpt>
      <trkpt lat="43.77448" lon="5.65069">
        <ele>484</ele>
        <time>2022-08-13T06:53:27Z</time>
      </trkpt>
      <trkpt lat="43.77454" lon="5.65063">
        <ele>484</ele>
        <time>2022-08-13T06:53:28Z</time>
      </trkpt>
      <trkpt lat="43.77459" lon="5.65055">
        <ele>485</ele>
        <time>2022-08-13T06:53:29Z</time>
      </trkpt>
      <trkpt lat="43.77463" lon="5.65049">
        <ele>485</ele>
        <time>2022-08-13T06:53:30Z</time>
      </trkpt>
      <trkpt lat="43.77468" lon="5.65045">
        <ele>485</ele>
        <time>2022-08-13T06:53:31Z</time>
      </trkpt>
      <trkpt lat="43.77473" lon="5.65041">
        <ele>485</ele>
        <time>2022-08-13T06:53:32Z</time>
      </trkpt>
      <trkpt lat="43.77479" lon="5.65038">
        <ele>485</ele>
        <time>2022-08-13T06:53:33Z</time>
      </trkpt>
      <trkpt lat="43.77483" lon="5.65033">
        <ele>485</ele>
        <time>2022-08-13T06:53:34Z</time>
      </trkpt>
      <trkpt lat="43.77488" lon="5.6503">
        <ele>485</ele>
        <time>2022-08-13T06:53:35Z</time>
      </trkpt>
      <trkpt lat="43.77494" lon="5.65023">
        <ele>485</ele>
        <time>2022-08-13T06:53:37Z</time>
      </trkpt>
      <trkpt lat="43.775" lon="5.6502">
        <ele>486</ele>
        <time>2022-08-13T06:53:38Z</time>
      </trkpt>
      <trkpt lat="43.77506" lon="5.65015">
        <ele>486</ele>
        <time>2022-08-13T06:53:39Z</time>
      </trkpt>
      <trkpt lat="43.77511" lon="5.65012">
        <ele>486</ele>
        <time>2022-08-13T06:53:40Z</time>
      </trkpt>
      <trkpt lat="43.77517" lon="5.65008">
        <ele>486</ele>
        <time>2022-08-13T06:53:41Z</time>
      </trkpt>
      <trkpt lat="43.77521" lon="5.65004">
        <ele>485</ele>
        <time>2022-08-13T06:53:42Z</time>
      </trkpt>
      <trkpt lat="43.77526" lon="5.65002">
        <ele>485</ele>
        <time>2022-08-13T06:53:43Z</time>
      </trkpt>
      <trkpt lat="43.77532" lon="5.64998">
        <ele>484</ele>
        <time>2022-08-13T06:53:44Z</time>
      </trkpt>
      <trkpt lat="43.77536" lon="5.64992">
        <ele>484</ele>
        <time>2022-08-13T06:53:45Z</time>
      </trkpt>
      <trkpt lat="43.77541" lon="5.64987">
        <ele>483</ele>
        <time>2022-08-13T06:53:46Z</time>
      </trkpt>
      <trkpt lat="43.77546" lon="5.64983">
        <ele>483</ele>
        <time>2022-08-13T06:53:47Z</time>
      </trkpt>
      <trkpt lat="43.77553" lon="5.64977">
        <ele>482</ele>
        <time>2022-08-13T06:53:49Z</time>
      </trkpt>
      <trkpt lat="43.77559" lon="5.64973">
        <ele>481</ele>
        <time>2022-08-13T06:53:50Z</time>
      </trkpt>
      <trkpt lat="43.77565" lon="5.6497">
        <ele>481</ele>
        <time>2022-08-13T06:53:51Z</time>
      </trkpt>
      <trkpt lat="43.77572" lon="5.64966">
        <ele>480</ele>
        <time>2022-08-13T06:53:53Z</time>
      </trkpt>
      <trkpt lat="43.77576" lon="5.64963">
        <ele>479</ele>
        <time>2022-08-13T06:53:54Z</time>
      </trkpt>
      <trkpt lat="43.77582" lon="5.64963">
        <ele>478</ele>
        <time>2022-08-13T06:53:55Z</time>
      </trkpt>
      <trkpt lat="43.77589" lon="5.64958">
        <ele>478</ele>
        <time>2022-08-13T06:53:56Z</time>
      </trkpt>
      <trkpt lat="43.77595" lon="5.64952">
        <ele>476</ele>
        <time>2022-08-13T06:53:57Z</time>
      </trkpt>
      <trkpt lat="43.77602" lon="5.64949">
        <ele>474</ele>
        <time>2022-08-13T06:53:58Z</time>
      </trkpt>
      <trkpt lat="43.77609" lon="5.64946">
        <ele>474</ele>
        <time>2022-08-13T06:53:59Z</time>
      </trkpt>
      <trkpt lat="43.77617" lon="5.64943">
        <ele>473</ele>
        <time>2022-08-13T06:54:00Z</time>
      </trkpt>
      <trkpt lat="43.77625" lon="5.6494">
        <ele>472</ele>
        <time>2022-08-13T06:54:01Z</time>
      </trkpt>
      <trkpt lat="43.77632" lon="5.64935">
        <ele>473</ele>
        <time>2022-08-13T06:54:02Z</time>
      </trkpt>
      <trkpt lat="43.77639" lon="5.64929">
        <ele>473</ele>
        <time>2022-08-13T06:54:03Z</time>
      </trkpt>
      <trkpt lat="43.77645" lon="5.64924">
        <ele>473</ele>
        <time>2022-08-13T06:54:04Z</time>
      </trkpt>
      <trkpt lat="43.77654" lon="5.64921">
        <ele>473</ele>
        <time>2022-08-13T06:54:05Z</time>
      </trkpt>
      <trkpt lat="43.7766" lon="5.64915">
        <ele>474</ele>
        <time>2022-08-13T06:54:06Z</time>
      </trkpt>
      <trkpt lat="43.77666" lon="5.64908">
        <ele>473</ele>
        <time>2022-08-13T06:54:07Z</time>
      </trkpt>
      <trkpt lat="43.77672" lon="5.64901">
        <ele>472</ele>
        <time>2022-08-13T06:54:08Z</time>
      </trkpt>
      <trkpt lat="43.77677" lon="5.64891">
        <ele>471</ele>
        <time>2022-08-13T06:54:09Z</time>
      </trkpt>
      <trkpt lat="43.77684" lon="5.64881">
        <ele>469</ele>
        <time>2022-08-13T06:54:10Z</time>
      </trkpt>
      <trkpt lat="43.77689" lon="5.64871">
        <ele>468</ele>
        <time>2022-08-13T06:54:11Z</time>
      </trkpt>
      <trkpt lat="43.77692" lon="5.64859">
        <ele>466</ele>
        <time>2022-08-13T06:54:12Z</time>
      </trkpt>
      <trkpt lat="43.77693" lon="5.64848">
        <ele>465</ele>
        <time>2022-08-13T06:54:13Z</time>
      </trkpt>
      <trkpt lat="43.77693" lon="5.64837">
        <ele>465</ele>
        <time>2022-08-13T06:54:14Z</time>
      </trkpt>
      <trkpt lat="43.77691" lon="5.64829">
        <ele>465</ele>
        <time>2022-08-13T06:54:15Z</time>
      </trkpt>
      <trkpt lat="43.77688" lon="5.64819">
        <ele>465</ele>
        <time>2022-08-13T06:54:16Z</time>
      </trkpt>
      <trkpt lat="43.77688" lon="5.6481">
        <ele>465</ele>
        <time>2022-08-13T06:54:17Z</time>
      </trkpt>
      <trkpt lat="43.77685" lon="5.64801">
        <ele>464</ele>
        <time>2022-08-13T06:54:18Z</time>
      </trkpt>
      <trkpt lat="43.77683" lon="5.64794">
        <ele>464</ele>
        <time>2022-08-13T06:54:19Z</time>
      </trkpt>
      <trkpt lat="43.7768" lon="5.64784">
        <ele>464</ele>
        <time>2022-08-13T06:54:20Z</time>
      </trkpt>
      <trkpt lat="43.77678" lon="5.64777">
        <ele>464</ele>
        <time>2022-08-13T06:54:21Z</time>
      </trkpt>
      <trkpt lat="43.77677" lon="5.64771">
        <ele>464</ele>
        <time>2022-08-13T06:54:22Z</time>
      </trkpt>
      <trkpt lat="43.77675" lon="5.64764">
        <ele>464</ele>
        <time>2022-08-13T06:54:23Z</time>
      </trkpt>
      <trkpt lat="43.77673" lon="5.64757">
        <ele>464</ele>
        <time>2022-08-13T06:54:24Z</time>
      </trkpt>
      <trkpt lat="43.7767" lon="5.64752">
        <ele>463</ele>
        <time>2022-08-13T06:54:25Z</time>
      </trkpt>
      <trkpt lat="43.7767" lon="5.64745">
        <ele>463</ele>
        <time>2022-08-13T06:54:26Z</time>
      </trkpt>
      <trkpt lat="43.77666" lon="5.64741">
        <ele>463</ele>
        <time>2022-08-13T06:54:27Z</time>
      </trkpt>
      <trkpt lat="43.77664" lon="5.64734">
        <ele>463</ele>
        <time>2022-08-13T06:54:28Z</time>
      </trkpt>
      <trkpt lat="43.77662" lon="5.64728">
        <ele>463</ele>
        <time>2022-08-13T06:54:29Z</time>
      </trkpt>
      <trkpt lat="43.77661" lon="5.64714">
        <ele>463</ele>
        <time>2022-08-13T06:54:31Z</time>
      </trkpt>
      <trkpt lat="43.77659" lon="5.64706">
        <ele>464</ele>
        <time>2022-08-13T06:54:32Z</time>
      </trkpt>
      <trkpt lat="43.77657" lon="5.64697">
        <ele>464</ele>
        <time>2022-08-13T06:54:33Z</time>
      </trkpt>
      <trkpt lat="43.77654" lon="5.64688">
        <ele>463</ele>
        <time>2022-08-13T06:54:34Z</time>
      </trkpt>
      <trkpt lat="43.77654" lon="5.64675">
        <ele>463</ele>
        <time>2022-08-13T06:54:35Z</time>
      </trkpt>
      <trkpt lat="43.77654" lon="5.64664">
        <ele>463</ele>
        <time>2022-08-13T06:54:36Z</time>
      </trkpt>
      <trkpt lat="43.77653" lon="5.64654">
        <ele>464</ele>
        <time>2022-08-13T06:54:37Z</time>
      </trkpt>
      <trkpt lat="43.77653" lon="5.64645">
        <ele>464</ele>
        <time>2022-08-13T06:54:38Z</time>
      </trkpt>
      <trkpt lat="43.77653" lon="5.64636">
        <ele>464</ele>
        <time>2022-08-13T06:54:39Z</time>
      </trkpt>
      <trkpt lat="43.77652" lon="5.64628">
        <ele>465</ele>
        <time>2022-08-13T06:54:40Z</time>
      </trkpt>
      <trkpt lat="43.77652" lon="5.6462">
        <ele>465</ele>
        <time>2022-08-13T06:54:41Z</time>
      </trkpt>
      <trkpt lat="43.77652" lon="5.64613">
        <ele>464</ele>
        <time>2022-08-13T06:54:42Z</time>
      </trkpt>
      <trkpt lat="43.77652" lon="5.64607">
        <ele>464</ele>
        <time>2022-08-13T06:54:43Z</time>
      </trkpt>
      <trkpt lat="43.77651" lon="5.646">
        <ele>464</ele>
        <time>2022-08-13T06:54:44Z</time>
      </trkpt>
      <trkpt lat="43.77651" lon="5.6459">
        <ele>464</ele>
        <time>2022-08-13T06:54:46Z</time>
      </trkpt>
      <trkpt lat="43.77651" lon="5.64583">
        <ele>464</ele>
        <time>2022-08-13T06:54:48Z</time>
      </trkpt>
      <trkpt lat="43.77647" lon="5.64582">
        <ele>464</ele>
        <time>2022-08-13T06:54:50Z</time>
      </trkpt>
      <trkpt lat="43.77642" lon="5.64584">
        <ele>464</ele>
        <time>2022-08-13T06:54:52Z</time>
      </trkpt>
      <trkpt lat="43.77637" lon="5.64585">
        <ele>464</ele>
        <time>2022-08-13T06:55:07Z</time>
      </trkpt>
      <trkpt lat="43.77632" lon="5.64587">
        <ele>464</ele>
        <time>2022-08-13T06:55:09Z</time>
      </trkpt>
      <trkpt lat="43.77628" lon="5.64589">
        <ele>465</ele>
        <time>2022-08-13T06:55:11Z</time>
      </trkpt>
      <trkpt lat="43.77624" lon="5.64591">
        <ele>465</ele>
        <time>2022-08-13T06:55:13Z</time>
      </trkpt>
      <trkpt lat="43.77619" lon="5.64593">
        <ele>466</ele>
        <time>2022-08-13T06:55:15Z</time>
      </trkpt>
      <trkpt lat="43.77614" lon="5.64595">
        <ele>467</ele>
        <time>2022-08-13T06:55:17Z</time>
      </trkpt>
      <trkpt lat="43.77609" lon="5.64596">
        <ele>467</ele>
        <time>2022-08-13T06:55:19Z</time>
      </trkpt>
      <trkpt lat="43.77605" lon="5.64597">
        <ele>467</ele>
        <time>2022-08-13T06:55:21Z</time>
      </trkpt>
      <trkpt lat="43.77599" lon="5.646">
        <ele>467</ele>
        <time>2022-08-13T06:55:24Z</time>
      </trkpt>
      <trkpt lat="43.77594" lon="5.64601">
        <ele>466</ele>
        <time>2022-08-13T06:55:27Z</time>
      </trkpt>
      <trkpt lat="43.77589" lon="5.64602">
        <ele>466</ele>
        <time>2022-08-13T06:55:30Z</time>
      </trkpt>
      <trkpt lat="43.77583" lon="5.64604">
        <ele>466</ele>
        <time>2022-08-13T06:55:33Z</time>
      </trkpt>
      <trkpt lat="43.77576" lon="5.64607">
        <ele>466</ele>
        <time>2022-08-13T06:55:36Z</time>
      </trkpt>
      <trkpt lat="43.7757" lon="5.64609">
        <ele>466</ele>
        <time>2022-08-13T06:55:39Z</time>
      </trkpt>
      <trkpt lat="43.77564" lon="5.64613">
        <ele>467</ele>
        <time>2022-08-13T06:55:42Z</time>
      </trkpt>
      <trkpt lat="43.77558" lon="5.64616">
        <ele>468</ele>
        <time>2022-08-13T06:55:45Z</time>
      </trkpt>
      <trkpt lat="43.77552" lon="5.6462">
        <ele>468</ele>
        <time>2022-08-13T06:55:48Z</time>
      </trkpt>
      <trkpt lat="43.77547" lon="5.64623">
        <ele>470</ele>
        <time>2022-08-13T06:55:51Z</time>
      </trkpt>
      <trkpt lat="43.77541" lon="5.64627">
        <ele>471</ele>
        <time>2022-08-13T06:55:54Z</time>
      </trkpt>
      <trkpt lat="43.77535" lon="5.6463">
        <ele>472</ele>
        <time>2022-08-13T06:55:57Z</time>
      </trkpt>
      <trkpt lat="43.77531" lon="5.64632">
        <ele>473</ele>
        <time>2022-08-13T06:55:59Z</time>
      </trkpt>
      <trkpt lat="43.77527" lon="5.64635">
        <ele>473</ele>
        <time>2022-08-13T06:56:01Z</time>
      </trkpt>
      <trkpt lat="43.77522" lon="5.64638">
        <ele>474</ele>
        <time>2022-08-13T06:56:04Z</time>
      </trkpt>
      <trkpt lat="43.77517" lon="5.64641">
        <ele>474</ele>
        <time>2022-08-13T06:56:07Z</time>
      </trkpt>
      <trkpt lat="43.77512" lon="5.64645">
        <ele>475</ele>
        <time>2022-08-13T06:56:11Z</time>
      </trkpt>
      <trkpt lat="43.77507" lon="5.64648">
        <ele>476</ele>
        <time>2022-08-13T06:56:14Z</time>
      </trkpt>
      <trkpt lat="43.77502" lon="5.64652">
        <ele>477</ele>
        <time>2022-08-13T06:56:17Z</time>
      </trkpt>
      <trkpt lat="43.77496" lon="5.64655">
        <ele>478</ele>
        <time>2022-08-13T06:56:20Z</time>
      </trkpt>
      <trkpt lat="43.77491" lon="5.64659">
        <ele>478</ele>
        <time>2022-08-13T06:56:23Z</time>
      </trkpt>
      <trkpt lat="43.77486" lon="5.64662">
        <ele>478</ele>
        <time>2022-08-13T06:56:25Z</time>
      </trkpt>
      <trkpt lat="43.77481" lon="5.64666">
        <ele>478</ele>
        <time>2022-08-13T06:56:28Z</time>
      </trkpt>
      <trkpt lat="43.77476" lon="5.64669">
        <ele>478</ele>
        <time>2022-08-13T06:56:31Z</time>
      </trkpt>
      <trkpt lat="43.77471" lon="5.64672">
        <ele>477</ele>
        <time>2022-08-13T06:56:34Z</time>
      </trkpt>
      <trkpt lat="43.77466" lon="5.64677">
        <ele>476</ele>
        <time>2022-08-13T06:56:37Z</time>
      </trkpt>
      <trkpt lat="43.77461" lon="5.64681">
        <ele>476</ele>
        <time>2022-08-13T06:56:40Z</time>
      </trkpt>
      <trkpt lat="43.77456" lon="5.64684">
        <ele>477</ele>
        <time>2022-08-13T06:56:43Z</time>
      </trkpt>
      <trkpt lat="43.7745" lon="5.64686">
        <ele>478</ele>
        <time>2022-08-13T06:56:46Z</time>
      </trkpt>
      <trkpt lat="43.77444" lon="5.64685">
        <ele>478</ele>
        <time>2022-08-13T06:56:49Z</time>
      </trkpt>
      <trkpt lat="43.77438" lon="5.64686">
        <ele>479</ele>
        <time>2022-08-13T06:56:52Z</time>
      </trkpt>
      <trkpt lat="43.77433" lon="5.64688">
        <ele>480</ele>
        <time>2022-08-13T06:56:55Z</time>
      </trkpt>
      <trkpt lat="43.77428" lon="5.64691">
        <ele>480</ele>
        <time>2022-08-13T06:56:58Z</time>
      </trkpt>
      <trkpt lat="43.77423" lon="5.64692">
        <ele>480</ele>
        <time>2022-08-13T06:57:01Z</time>
      </trkpt>
      <trkpt lat="43.77419" lon="5.64694">
        <ele>482</ele>
        <time>2022-08-13T06:57:05Z</time>
      </trkpt>
      <trkpt lat="43.77414" lon="5.64698">
        <ele>484</ele>
        <time>2022-08-13T06:57:08Z</time>
      </trkpt>
      <trkpt lat="43.77409" lon="5.64703">
        <ele>485</ele>
        <time>2022-08-13T06:57:11Z</time>
      </trkpt>
      <trkpt lat="43.77403" lon="5.64707">
        <ele>487</ele>
        <time>2022-08-13T06:57:14Z</time>
      </trkpt>
      <trkpt lat="43.77398" lon="5.6471">
        <ele>490</ele>
        <time>2022-08-13T06:57:17Z</time>
      </trkpt>
      <trkpt lat="43.77393" lon="5.6471">
        <ele>492</ele>
        <time>2022-08-13T06:57:20Z</time>
      </trkpt>
      <trkpt lat="43.77387" lon="5.64711">
        <ele>494</ele>
        <time>2022-08-13T06:57:23Z</time>
      </trkpt>
      <trkpt lat="43.77382" lon="5.64712">
        <ele>497</ele>
        <time>2022-08-13T06:57:26Z</time>
      </trkpt>
      <trkpt lat="43.77377" lon="5.64713">
        <ele>499</ele>
        <time>2022-08-13T06:57:29Z</time>
      </trkpt>
      <trkpt lat="43.77372" lon="5.64717">
        <ele>500</ele>
        <time>2022-08-13T06:57:33Z</time>
      </trkpt>
      <trkpt lat="43.77366" lon="5.64722">
        <ele>500</ele>
        <time>2022-08-13T06:57:36Z</time>
      </trkpt>
      <trkpt lat="43.77361" lon="5.64725">
        <ele>499</ele>
        <time>2022-08-13T06:57:39Z</time>
      </trkpt>
      <trkpt lat="43.77356" lon="5.64729">
        <ele>499</ele>
        <time>2022-08-13T06:57:42Z</time>
      </trkpt>
      <trkpt lat="43.77351" lon="5.64733">
        <ele>498</ele>
        <time>2022-08-13T06:57:45Z</time>
      </trkpt>
      <trkpt lat="43.77348" lon="5.64736">
        <ele>497</ele>
        <time>2022-08-13T06:57:47Z</time>
      </trkpt>
      <trkpt lat="43.77343" lon="5.6474">
        <ele>497</ele>
        <time>2022-08-13T06:57:49Z</time>
      </trkpt>
      <trkpt lat="43.77339" lon="5.64742">
        <ele>497</ele>
        <time>2022-08-13T06:57:51Z</time>
      </trkpt>
      <trkpt lat="43.77333" lon="5.64746">
        <ele>497</ele>
        <time>2022-08-13T06:57:54Z</time>
      </trkpt>
      <trkpt lat="43.77329" lon="5.64751">
        <ele>496</ele>
        <time>2022-08-13T06:57:57Z</time>
      </trkpt>
      <trkpt lat="43.77323" lon="5.64755">
        <ele>497</ele>
        <time>2022-08-13T06:58:00Z</time>
      </trkpt>
      <trkpt lat="43.77319" lon="5.64759">
        <ele>497</ele>
        <time>2022-08-13T06:58:03Z</time>
      </trkpt>
      <trkpt lat="43.77316" lon="5.64763">
        <ele>498</ele>
        <time>2022-08-13T06:58:06Z</time>
      </trkpt>
      <trkpt lat="43.77311" lon="5.64768">
        <ele>499</ele>
        <time>2022-08-13T06:58:09Z</time>
      </trkpt>
      <trkpt lat="43.77306" lon="5.64771">
        <ele>500</ele>
        <time>2022-08-13T06:58:12Z</time>
      </trkpt>
      <trkpt lat="43.77302" lon="5.64776">
        <ele>501</ele>
        <time>2022-08-13T06:58:15Z</time>
      </trkpt>
      <trkpt lat="43.77299" lon="5.64781">
        <ele>501</ele>
        <time>2022-08-13T06:58:18Z</time>
      </trkpt>
      <trkpt lat="43.77295" lon="5.64786">
        <ele>502</ele>
        <time>2022-08-13T06:58:21Z</time>
      </trkpt>
      <trkpt lat="43.77291" lon="5.6479">
        <ele>502</ele>
        <time>2022-08-13T06:58:24Z</time>
      </trkpt>
      <trkpt lat="43.77285" lon="5.64794">
        <ele>503</ele>
        <time>2022-08-13T06:58:27Z</time>
      </trkpt>
      <trkpt lat="43.77282" lon="5.64799">
        <ele>503</ele>
        <time>2022-08-13T06:58:29Z</time>
      </trkpt>
      <trkpt lat="43.77278" lon="5.64806">
        <ele>503</ele>
        <time>2022-08-13T06:58:32Z</time>
      </trkpt>
      <trkpt lat="43.77273" lon="5.64811">
        <ele>504</ele>
        <time>2022-08-13T06:58:35Z</time>
      </trkpt>
      <trkpt lat="43.77268" lon="5.64815">
        <ele>504</ele>
        <time>2022-08-13T06:58:38Z</time>
      </trkpt>
      <trkpt lat="43.77263" lon="5.64819">
        <ele>506</ele>
        <time>2022-08-13T06:58:41Z</time>
      </trkpt>
      <trkpt lat="43.77259" lon="5.64826">
        <ele>507</ele>
        <time>2022-08-13T06:58:44Z</time>
      </trkpt>
      <trkpt lat="43.77255" lon="5.64832">
        <ele>509</ele>
        <time>2022-08-13T06:58:47Z</time>
      </trkpt>
      <trkpt lat="43.77251" lon="5.64838">
        <ele>511</ele>
        <time>2022-08-13T06:58:50Z</time>
      </trkpt>
      <trkpt lat="43.77247" lon="5.64841">
        <ele>512</ele>
        <time>2022-08-13T06:58:53Z</time>
      </trkpt>
      <trkpt lat="43.77243" lon="5.64845">
        <ele>512</ele>
        <time>2022-08-13T06:58:56Z</time>
      </trkpt>
      <trkpt lat="43.77238" lon="5.6485">
        <ele>512</ele>
        <time>2022-08-13T06:58:59Z</time>
      </trkpt>
      <trkpt lat="43.77234" lon="5.64854">
        <ele>512</ele>
        <time>2022-08-13T06:59:02Z</time>
      </trkpt>
      <trkpt lat="43.77229" lon="5.6486">
        <ele>512</ele>
        <time>2022-08-13T06:59:05Z</time>
      </trkpt>
      <trkpt lat="43.77225" lon="5.64864">
        <ele>513</ele>
        <time>2022-08-13T06:59:08Z</time>
      </trkpt>
      <trkpt lat="43.7722" lon="5.64869">
        <ele>513</ele>
        <time>2022-08-13T06:59:11Z</time>
      </trkpt>
      <trkpt lat="43.77216" lon="5.64875">
        <ele>514</ele>
        <time>2022-08-13T06:59:14Z</time>
      </trkpt>
      <trkpt lat="43.7721" lon="5.6488">
        <ele>514</ele>
        <time>2022-08-13T06:59:17Z</time>
      </trkpt>
      <trkpt lat="43.77205" lon="5.64884">
        <ele>514</ele>
        <time>2022-08-13T06:59:20Z</time>
      </trkpt>
      <trkpt lat="43.77202" lon="5.64889">
        <ele>513</ele>
        <time>2022-08-13T06:59:22Z</time>
      </trkpt>
      <trkpt lat="43.77196" lon="5.64894">
        <ele>513</ele>
        <time>2022-08-13T06:59:25Z</time>
      </trkpt>
      <trkpt lat="43.77193" lon="5.64898">
        <ele>512</ele>
        <time>2022-08-13T06:59:27Z</time>
      </trkpt>
      <trkpt lat="43.77188" lon="5.64904">
        <ele>512</ele>
        <time>2022-08-13T06:59:30Z</time>
      </trkpt>
      <trkpt lat="43.77183" lon="5.64907">
        <ele>512</ele>
        <time>2022-08-13T06:59:33Z</time>
      </trkpt>
      <trkpt lat="43.77179" lon="5.64911">
        <ele>512</ele>
        <time>2022-08-13T06:59:36Z</time>
      </trkpt>
      <trkpt lat="43.77173" lon="5.64916">
        <ele>512</ele>
        <time>2022-08-13T06:59:39Z</time>
      </trkpt>
      <trkpt lat="43.77167" lon="5.64919">
        <ele>511</ele>
        <time>2022-08-13T06:59:42Z</time>
      </trkpt>
      <trkpt lat="43.77163" lon="5.64925">
        <ele>512</ele>
        <time>2022-08-13T06:59:45Z</time>
      </trkpt>
      <trkpt lat="43.7716" lon="5.6493">
        <ele>513</ele>
        <time>2022-08-13T06:59:48Z</time>
      </trkpt>
      <trkpt lat="43.77157" lon="5.64936">
        <ele>515</ele>
        <time>2022-08-13T06:59:50Z</time>
      </trkpt>
      <trkpt lat="43.77154" lon="5.64945">
        <ele>516</ele>
        <time>2022-08-13T06:59:53Z</time>
      </trkpt>
      <trkpt lat="43.77153" lon="5.64951">
        <ele>518</ele>
        <time>2022-08-13T06:59:55Z</time>
      </trkpt>
      <trkpt lat="43.7715" lon="5.64959">
        <ele>519</ele>
        <time>2022-08-13T06:59:58Z</time>
      </trkpt>
      <trkpt lat="43.7715" lon="5.64968">
        <ele>521</ele>
        <time>2022-08-13T07:00:01Z</time>
      </trkpt>
      <trkpt lat="43.7715" lon="5.64975">
        <ele>522</ele>
        <time>2022-08-13T07:00:03Z</time>
      </trkpt>
      <trkpt lat="43.77149" lon="5.64983">
        <ele>524</ele>
        <time>2022-08-13T07:00:06Z</time>
      </trkpt>
      <trkpt lat="43.77148" lon="5.6499">
        <ele>526</ele>
        <time>2022-08-13T07:00:08Z</time>
      </trkpt>
      <trkpt lat="43.77146" lon="5.64998">
        <ele>528</ele>
        <time>2022-08-13T07:00:11Z</time>
      </trkpt>
      <trkpt lat="43.77144" lon="5.65006">
        <ele>529</ele>
        <time>2022-08-13T07:00:14Z</time>
      </trkpt>
      <trkpt lat="43.7714" lon="5.65013">
        <ele>530</ele>
        <time>2022-08-13T07:00:17Z</time>
      </trkpt>
      <trkpt lat="43.77136" lon="5.65018">
        <ele>531</ele>
        <time>2022-08-13T07:00:20Z</time>
      </trkpt>
      <trkpt lat="43.77131" lon="5.65024">
        <ele>531</ele>
        <time>2022-08-13T07:00:23Z</time>
      </trkpt>
      <trkpt lat="43.77126" lon="5.6503">
        <ele>532</ele>
        <time>2022-08-13T07:00:26Z</time>
      </trkpt>
      <trkpt lat="43.77121" lon="5.65037">
        <ele>533</ele>
        <time>2022-08-13T07:00:29Z</time>
      </trkpt>
      <trkpt lat="43.77118" lon="5.65044">
        <ele>534</ele>
        <time>2022-08-13T07:00:32Z</time>
      </trkpt>
      <trkpt lat="43.77115" lon="5.65052">
        <ele>534</ele>
        <time>2022-08-13T07:00:35Z</time>
      </trkpt>
      <trkpt lat="43.77112" lon="5.6506">
        <ele>535</ele>
        <time>2022-08-13T07:00:38Z</time>
      </trkpt>
      <trkpt lat="43.77109" lon="5.65066">
        <ele>535</ele>
        <time>2022-08-13T07:00:40Z</time>
      </trkpt>
      <trkpt lat="43.77107" lon="5.65072">
        <ele>534</ele>
        <time>2022-08-13T07:00:42Z</time>
      </trkpt>
      <trkpt lat="43.77105" lon="5.6508">
        <ele>534</ele>
        <time>2022-08-13T07:00:45Z</time>
      </trkpt>
      <trkpt lat="43.77102" lon="5.65086">
        <ele>534</ele>
        <time>2022-08-13T07:00:47Z</time>
      </trkpt>
      <trkpt lat="43.771" lon="5.65093">
        <ele>534</ele>
        <time>2022-08-13T07:00:49Z</time>
      </trkpt>
      <trkpt lat="43.77098" lon="5.65099">
        <ele>535</ele>
        <time>2022-08-13T07:00:51Z</time>
      </trkpt>
      <trkpt lat="43.77096" lon="5.65104">
        <ele>536</ele>
        <time>2022-08-13T07:00:53Z</time>
      </trkpt>
      <trkpt lat="43.77094" lon="5.6511">
        <ele>536</ele>
        <time>2022-08-13T07:00:55Z</time>
      </trkpt>
      <trkpt lat="43.77088" lon="5.6511">
        <ele>536</ele>
        <time>2022-08-13T07:00:58Z</time>
      </trkpt>
      <trkpt lat="43.77104" lon="5.65009">
        <ele>534</ele>
        <time>2022-08-13T07:02:43Z</time>
      </trkpt>
      <trkpt lat="43.77105" lon="5.64999">
        <ele>534</ele>
        <time>2022-08-13T07:02:45Z</time>
      </trkpt>
      <trkpt lat="43.77107" lon="5.64989">
        <ele>534</ele>
        <time>2022-08-13T07:02:47Z</time>
      </trkpt>
      <trkpt lat="43.77108" lon="5.64977">
        <ele>534</ele>
        <time>2022-08-13T07:02:49Z</time>
      </trkpt>
      <trkpt lat="43.77109" lon="5.64968">
        <ele>534</ele>
        <time>2022-08-13T07:02:51Z</time>
      </trkpt>
      <trkpt lat="43.77109" lon="5.64959">
        <ele>533</ele>
        <time>2022-08-13T07:02:53Z</time>
      </trkpt>
      <trkpt lat="43.77108" lon="5.64949">
        <ele>533</ele>
        <time>2022-08-13T07:02:55Z</time>
      </trkpt>
      <trkpt lat="43.77108" lon="5.64939">
        <ele>533</ele>
        <time>2022-08-13T07:02:57Z</time>
      </trkpt>
      <trkpt lat="43.77109" lon="5.64929">
        <ele>533</ele>
        <time>2022-08-13T07:02:59Z</time>
      </trkpt>
      <trkpt lat="43.77111" lon="5.64919">
        <ele>533</ele>
        <time>2022-08-13T07:03:01Z</time>
      </trkpt>
      <trkpt lat="43.77113" lon="5.64908">
        <ele>532</ele>
        <time>2022-08-13T07:03:03Z</time>
      </trkpt>
      <trkpt lat="43.77116" lon="5.64902">
        <ele>532</ele>
        <time>2022-08-13T07:03:04Z</time>
      </trkpt>
      <trkpt lat="43.77122" lon="5.64893">
        <ele>532</ele>
        <time>2022-08-13T07:03:06Z</time>
      </trkpt>
      <trkpt lat="43.77127" lon="5.64889">
        <ele>532</ele>
        <time>2022-08-13T07:03:07Z</time>
      </trkpt>
      <trkpt lat="43.77131" lon="5.64884">
        <ele>532</ele>
        <time>2022-08-13T07:03:08Z</time>
      </trkpt>
      <trkpt lat="43.77135" lon="5.6488">
        <ele>533</ele>
        <time>2022-08-13T07:03:09Z</time>
      </trkpt>
      <trkpt lat="43.77139" lon="5.64874">
        <ele>534</ele>
        <time>2022-08-13T07:03:10Z</time>
      </trkpt>
      <trkpt lat="43.77142" lon="5.64869">
        <ele>534</ele>
        <time>2022-08-13T07:03:11Z</time>
      </trkpt>
      <trkpt lat="43.77146" lon="5.64866">
        <ele>535</ele>
        <time>2022-08-13T07:03:12Z</time>
      </trkpt>
      <trkpt lat="43.77148" lon="5.6486">
        <ele>535</ele>
        <time>2022-08-13T07:03:13Z</time>
      </trkpt>
      <trkpt lat="43.77149" lon="5.64851">
        <ele>535</ele>
        <time>2022-08-13T07:03:14Z</time>
      </trkpt>
      <trkpt lat="43.77154" lon="5.64841">
        <ele>535</ele>
        <time>2022-08-13T07:03:16Z</time>
      </trkpt>
      <trkpt lat="43.77156" lon="5.64835">
        <ele>534</ele>
        <time>2022-08-13T07:03:17Z</time>
      </trkpt>
      <trkpt lat="43.7716" lon="5.64824">
        <ele>534</ele>
        <time>2022-08-13T07:03:19Z</time>
      </trkpt>
      <trkpt lat="43.77163" lon="5.64814">
        <ele>534</ele>
        <time>2022-08-13T07:03:21Z</time>
      </trkpt>
      <trkpt lat="43.77166" lon="5.64805">
        <ele>535</ele>
        <time>2022-08-13T07:03:23Z</time>
      </trkpt>
      <trkpt lat="43.77167" lon="5.64799">
        <ele>535</ele>
        <time>2022-08-13T07:03:24Z</time>
      </trkpt>
      <trkpt lat="43.7717" lon="5.64788">
        <ele>536</ele>
        <time>2022-08-13T07:03:26Z</time>
      </trkpt>
      <trkpt lat="43.77172" lon="5.64778">
        <ele>536</ele>
        <time>2022-08-13T07:03:28Z</time>
      </trkpt>
      <trkpt lat="43.77172" lon="5.64768">
        <ele>535</ele>
        <time>2022-08-13T07:03:30Z</time>
      </trkpt>
      <trkpt lat="43.77173" lon="5.64758">
        <ele>534</ele>
        <time>2022-08-13T07:03:32Z</time>
      </trkpt>
      <trkpt lat="43.77176" lon="5.64748">
        <ele>534</ele>
        <time>2022-08-13T07:03:34Z</time>
      </trkpt>
      <trkpt lat="43.77178" lon="5.64739">
        <ele>533</ele>
        <time>2022-08-13T07:03:36Z</time>
      </trkpt>
      <trkpt lat="43.7718" lon="5.6473">
        <ele>533</ele>
        <time>2022-08-13T07:03:38Z</time>
      </trkpt>
      <trkpt lat="43.77181" lon="5.64721">
        <ele>533</ele>
        <time>2022-08-13T07:03:40Z</time>
      </trkpt>
      <trkpt lat="43.77182" lon="5.64711">
        <ele>533</ele>
        <time>2022-08-13T07:03:42Z</time>
      </trkpt>
      <trkpt lat="43.77181" lon="5.64702">
        <ele>533</ele>
        <time>2022-08-13T07:03:44Z</time>
      </trkpt>
      <trkpt lat="43.77179" lon="5.64694">
        <ele>533</ele>
        <time>2022-08-13T07:03:46Z</time>
      </trkpt>
      <trkpt lat="43.77175" lon="5.64685">
        <ele>533</ele>
        <time>2022-08-13T07:03:48Z</time>
      </trkpt>
      <trkpt lat="43.77172" lon="5.64677">
        <ele>533</ele>
        <time>2022-08-13T07:03:50Z</time>
      </trkpt>
      <trkpt lat="43.77166" lon="5.64666">
        <ele>532</ele>
        <time>2022-08-13T07:03:52Z</time>
      </trkpt>
      <trkpt lat="43.77159" lon="5.64659">
        <ele>532</ele>
        <time>2022-08-13T07:03:54Z</time>
      </trkpt>
      <trkpt lat="43.77153" lon="5.64656">
        <ele>531</ele>
        <time>2022-08-13T07:03:55Z</time>
      </trkpt>
      <trkpt lat="43.77147" lon="5.64654">
        <ele>530</ele>
        <time>2022-08-13T07:03:56Z</time>
      </trkpt>
      <trkpt lat="43.77141" lon="5.6465">
        <ele>530</ele>
        <time>2022-08-13T07:03:57Z</time>
      </trkpt>
      <trkpt lat="43.77135" lon="5.64646">
        <ele>529</ele>
        <time>2022-08-13T07:03:58Z</time>
      </trkpt>
      <trkpt lat="43.77129" lon="5.64642">
        <ele>529</ele>
        <time>2022-08-13T07:03:59Z</time>
      </trkpt>
      <trkpt lat="43.77124" lon="5.64639">
        <ele>528</ele>
        <time>2022-08-13T07:04:00Z</time>
      </trkpt>
      <trkpt lat="43.77121" lon="5.64634">
        <ele>527</ele>
        <time>2022-08-13T07:04:02Z</time>
      </trkpt>
      <trkpt lat="43.77118" lon="5.64626">
        <ele>526</ele>
        <time>2022-08-13T07:04:04Z</time>
      </trkpt>
      <trkpt lat="43.77112" lon="5.64625">
        <ele>525</ele>
        <time>2022-08-13T07:04:06Z</time>
      </trkpt>
      <trkpt lat="43.77104" lon="5.64625">
        <ele>525</ele>
        <time>2022-08-13T07:04:08Z</time>
      </trkpt>
      <trkpt lat="43.77099" lon="5.64625">
        <ele>525</ele>
        <time>2022-08-13T07:04:09Z</time>
      </trkpt>
      <trkpt lat="43.77094" lon="5.64625">
        <ele>525</ele>
        <time>2022-08-13T07:04:10Z</time>
      </trkpt>
      <trkpt lat="43.77089" lon="5.64624">
        <ele>525</ele>
        <time>2022-08-13T07:04:11Z</time>
      </trkpt>
      <trkpt lat="43.77084" lon="5.64624">
        <ele>525</ele>
        <time>2022-08-13T07:04:12Z</time>
      </trkpt>
      <trkpt lat="43.77076" lon="5.64622">
        <ele>525</ele>
        <time>2022-08-13T07:04:14Z</time>
      </trkpt>
      <trkpt lat="43.77068" lon="5.64621">
        <ele>525</ele>
        <time>2022-08-13T07:04:16Z</time>
      </trkpt>
      <trkpt lat="43.77061" lon="5.64619">
        <ele>525</ele>
        <time>2022-08-13T07:04:18Z</time>
      </trkpt>
      <trkpt lat="43.77054" lon="5.64619">
        <ele>525</ele>
        <time>2022-08-13T07:04:20Z</time>
      </trkpt>
      <trkpt lat="43.77047" lon="5.64622">
        <ele>525</ele>
        <time>2022-08-13T07:04:22Z</time>
      </trkpt>
      <trkpt lat="43.7704" lon="5.64624">
        <ele>526</ele>
        <time>2022-08-13T07:04:24Z</time>
      </trkpt>
      <trkpt lat="43.77033" lon="5.64625">
        <ele>527</ele>
        <time>2022-08-13T07:04:26Z</time>
      </trkpt>
      <trkpt lat="43.77028" lon="5.64621">
        <ele>528</ele>
        <time>2022-08-13T07:04:28Z</time>
      </trkpt>
      <trkpt lat="43.77025" lon="5.64612">
        <ele>529</ele>
        <time>2022-08-13T07:04:30Z</time>
      </trkpt>
      <trkpt lat="43.77024" lon="5.64603">
        <ele>530</ele>
        <time>2022-08-13T07:04:32Z</time>
      </trkpt>
      <trkpt lat="43.77024" lon="5.64594">
        <ele>532</ele>
        <time>2022-08-13T07:04:34Z</time>
      </trkpt>
      <trkpt lat="43.77024" lon="5.64585">
        <ele>533</ele>
        <time>2022-08-13T07:04:36Z</time>
      </trkpt>
      <trkpt lat="43.77024" lon="5.64577">
        <ele>535</ele>
        <time>2022-08-13T07:04:38Z</time>
      </trkpt>
      <trkpt lat="43.77023" lon="5.64568">
        <ele>536</ele>
        <time>2022-08-13T07:04:40Z</time>
      </trkpt>
      <trkpt lat="43.77022" lon="5.6456">
        <ele>537</ele>
        <time>2022-08-13T07:04:42Z</time>
      </trkpt>
      <trkpt lat="43.77019" lon="5.64552">
        <ele>537</ele>
        <time>2022-08-13T07:04:44Z</time>
      </trkpt>
      <trkpt lat="43.77014" lon="5.64546">
        <ele>537</ele>
        <time>2022-08-13T07:04:46Z</time>
      </trkpt>
      <trkpt lat="43.77008" lon="5.64544">
        <ele>537</ele>
        <time>2022-08-13T07:04:48Z</time>
      </trkpt>
      <trkpt lat="43.77002" lon="5.64543">
        <ele>537</ele>
        <time>2022-08-13T07:04:50Z</time>
      </trkpt>
      <trkpt lat="43.76995" lon="5.64544">
        <ele>537</ele>
        <time>2022-08-13T07:04:52Z</time>
      </trkpt>
      <trkpt lat="43.76987" lon="5.64548">
        <ele>537</ele>
        <time>2022-08-13T07:04:54Z</time>
      </trkpt>
      <trkpt lat="43.76982" lon="5.64552">
        <ele>537</ele>
        <time>2022-08-13T07:04:55Z</time>
      </trkpt>
      <trkpt lat="43.76976" lon="5.64553">
        <ele>537</ele>
        <time>2022-08-13T07:04:56Z</time>
      </trkpt>
      <trkpt lat="43.76969" lon="5.64554">
        <ele>537</ele>
        <time>2022-08-13T07:04:57Z</time>
      </trkpt>
      <trkpt lat="43.76962" lon="5.64557">
        <ele>536</ele>
        <time>2022-08-13T07:04:58Z</time>
      </trkpt>
      <trkpt lat="43.76954" lon="5.64559">
        <ele>535</ele>
        <time>2022-08-13T07:04:59Z</time>
      </trkpt>
      <trkpt lat="43.76945" lon="5.64562">
        <ele>534</ele>
        <time>2022-08-13T07:05:00Z</time>
      </trkpt>
      <trkpt lat="43.76935" lon="5.64564">
        <ele>532</ele>
        <time>2022-08-13T07:05:01Z</time>
      </trkpt>
      <trkpt lat="43.76925" lon="5.64567">
        <ele>531</ele>
        <time>2022-08-13T07:05:02Z</time>
      </trkpt>
      <trkpt lat="43.76918" lon="5.64569">
        <ele>530</ele>
        <time>2022-08-13T07:05:03Z</time>
      </trkpt>
      <trkpt lat="43.7691" lon="5.64571">
        <ele>528</ele>
        <time>2022-08-13T07:05:04Z</time>
      </trkpt>
      <trkpt lat="43.76902" lon="5.64575">
        <ele>528</ele>
        <time>2022-08-13T07:05:05Z</time>
      </trkpt>
      <trkpt lat="43.76894" lon="5.64582">
        <ele>527</ele>
        <time>2022-08-13T07:05:06Z</time>
      </trkpt>
      <trkpt lat="43.76886" lon="5.64588">
        <ele>526</ele>
        <time>2022-08-13T07:05:07Z</time>
      </trkpt>
      <trkpt lat="43.76879" lon="5.64593">
        <ele>526</ele>
        <time>2022-08-13T07:05:08Z</time>
      </trkpt>
      <trkpt lat="43.76873" lon="5.64596">
        <ele>525</ele>
        <time>2022-08-13T07:05:09Z</time>
      </trkpt>
      <trkpt lat="43.76866" lon="5.64596">
        <ele>524</ele>
        <time>2022-08-13T07:05:11Z</time>
      </trkpt>
      <trkpt lat="43.76861" lon="5.64588">
        <ele>523</ele>
        <time>2022-08-13T07:05:13Z</time>
      </trkpt>
      <trkpt lat="43.7686" lon="5.64578">
        <ele>523</ele>
        <time>2022-08-13T07:05:15Z</time>
      </trkpt>
      <trkpt lat="43.76862" lon="5.64572">
        <ele>523</ele>
        <time>2022-08-13T07:05:16Z</time>
      </trkpt>
      <trkpt lat="43.76865" lon="5.64565">
        <ele>522</ele>
        <time>2022-08-13T07:05:18Z</time>
      </trkpt>
      <trkpt lat="43.76868" lon="5.64557">
        <ele>521</ele>
        <time>2022-08-13T07:05:20Z</time>
      </trkpt>
      <trkpt lat="43.76873" lon="5.64549">
        <ele>521</ele>
        <time>2022-08-13T07:05:22Z</time>
      </trkpt>
      <trkpt lat="43.76877" lon="5.64541">
        <ele>520</ele>
        <time>2022-08-13T07:05:24Z</time>
      </trkpt>
      <trkpt lat="43.7688" lon="5.64532">
        <ele>519</ele>
        <time>2022-08-13T07:05:26Z</time>
      </trkpt>
      <trkpt lat="43.76883" lon="5.64524">
        <ele>519</ele>
        <time>2022-08-13T07:05:28Z</time>
      </trkpt>
      <trkpt lat="43.76888" lon="5.64517">
        <ele>517</ele>
        <time>2022-08-13T07:05:30Z</time>
      </trkpt>
      <trkpt lat="43.76892" lon="5.6451">
        <ele>516</ele>
        <time>2022-08-13T07:05:32Z</time>
      </trkpt>
      <trkpt lat="43.76897" lon="5.64504">
        <ele>516</ele>
        <time>2022-08-13T07:05:34Z</time>
      </trkpt>
      <trkpt lat="43.76902" lon="5.64497">
        <ele>516</ele>
        <time>2022-08-13T07:05:36Z</time>
      </trkpt>
      <trkpt lat="43.76906" lon="5.6449">
        <ele>516</ele>
        <time>2022-08-13T07:05:38Z</time>
      </trkpt>
      <trkpt lat="43.76909" lon="5.64484">
        <ele>517</ele>
        <time>2022-08-13T07:05:40Z</time>
      </trkpt>
      <trkpt lat="43.7691" lon="5.64476">
        <ele>517</ele>
        <time>2022-08-13T07:05:42Z</time>
      </trkpt>
      <trkpt lat="43.76911" lon="5.64468">
        <ele>518</ele>
        <time>2022-08-13T07:05:44Z</time>
      </trkpt>
      <trkpt lat="43.76913" lon="5.6446">
        <ele>518</ele>
        <time>2022-08-13T07:05:46Z</time>
      </trkpt>
      <trkpt lat="43.76915" lon="5.64452">
        <ele>518</ele>
        <time>2022-08-13T07:05:48Z</time>
      </trkpt>
      <trkpt lat="43.76918" lon="5.64444">
        <ele>518</ele>
        <time>2022-08-13T07:05:50Z</time>
      </trkpt>
      <trkpt lat="43.76921" lon="5.64439">
        <ele>518</ele>
        <time>2022-08-13T07:05:52Z</time>
      </trkpt>
      <trkpt lat="43.76924" lon="5.64433">
        <ele>517</ele>
        <time>2022-08-13T07:05:54Z</time>
      </trkpt>
      <trkpt lat="43.76926" lon="5.64426">
        <ele>517</ele>
        <time>2022-08-13T07:05:56Z</time>
      </trkpt>
      <trkpt lat="43.76926" lon="5.64419">
        <ele>517</ele>
        <time>2022-08-13T07:05:58Z</time>
      </trkpt>
      <trkpt lat="43.76927" lon="5.64412">
        <ele>518</ele>
        <time>2022-08-13T07:06:00Z</time>
      </trkpt>
      <trkpt lat="43.7693" lon="5.64405">
        <ele>518</ele>
        <time>2022-08-13T07:06:02Z</time>
      </trkpt>
      <trkpt lat="43.76932" lon="5.64399">
        <ele>519</ele>
        <time>2022-08-13T07:06:04Z</time>
      </trkpt>
      <trkpt lat="43.76933" lon="5.64392">
        <ele>519</ele>
        <time>2022-08-13T07:06:06Z</time>
      </trkpt>
      <trkpt lat="43.76934" lon="5.64385">
        <ele>519</ele>
        <time>2022-08-13T07:06:08Z</time>
      </trkpt>
      <trkpt lat="43.76936" lon="5.64378">
        <ele>519</ele>
        <time>2022-08-13T07:06:10Z</time>
      </trkpt>
      <trkpt lat="43.76938" lon="5.6437">
        <ele>519</ele>
        <time>2022-08-13T07:06:12Z</time>
      </trkpt>
      <trkpt lat="43.7694" lon="5.64362">
        <ele>520</ele>
        <time>2022-08-13T07:06:14Z</time>
      </trkpt>
      <trkpt lat="43.76942" lon="5.64356">
        <ele>520</ele>
        <time>2022-08-13T07:06:16Z</time>
      </trkpt>
      <trkpt lat="43.76942" lon="5.64349">
        <ele>521</ele>
        <time>2022-08-13T07:06:18Z</time>
      </trkpt>
      <trkpt lat="43.76941" lon="5.64341">
        <ele>521</ele>
        <time>2022-08-13T07:06:20Z</time>
      </trkpt>
      <trkpt lat="43.76939" lon="5.64335">
        <ele>521</ele>
        <time>2022-08-13T07:06:22Z</time>
      </trkpt>
      <trkpt lat="43.76938" lon="5.64328">
        <ele>521</ele>
        <time>2022-08-13T07:06:24Z</time>
      </trkpt>
      <trkpt lat="43.76939" lon="5.64319">
        <ele>521</ele>
        <time>2022-08-13T07:06:27Z</time>
      </trkpt>
      <trkpt lat="43.76939" lon="5.64313">
        <ele>521</ele>
        <time>2022-08-13T07:06:29Z</time>
      </trkpt>
      <trkpt lat="43.76937" lon="5.64307">
        <ele>522</ele>
        <time>2022-08-13T07:06:31Z</time>
      </trkpt>
      <trkpt lat="43.76936" lon="5.643">
        <ele>522</ele>
        <time>2022-08-13T07:06:33Z</time>
      </trkpt>
      <trkpt lat="43.76934" lon="5.64293">
        <ele>522</ele>
        <time>2022-08-13T07:06:35Z</time>
      </trkpt>
      <trkpt lat="43.76934" lon="5.64286">
        <ele>523</ele>
        <time>2022-08-13T07:06:37Z</time>
      </trkpt>
      <trkpt lat="43.76933" lon="5.6428">
        <ele>524</ele>
        <time>2022-08-13T07:06:39Z</time>
      </trkpt>
      <trkpt lat="43.76933" lon="5.64273">
        <ele>525</ele>
        <time>2022-08-13T07:06:41Z</time>
      </trkpt>
      <trkpt lat="43.76932" lon="5.64266">
        <ele>525</ele>
        <time>2022-08-13T07:06:43Z</time>
      </trkpt>
      <trkpt lat="43.76933" lon="5.64258">
        <ele>525</ele>
        <time>2022-08-13T07:06:45Z</time>
      </trkpt>
      <trkpt lat="43.76934" lon="5.6425">
        <ele>525</ele>
        <time>2022-08-13T07:06:47Z</time>
      </trkpt>
      <trkpt lat="43.76937" lon="5.64242">
        <ele>525</ele>
        <time>2022-08-13T07:06:50Z</time>
      </trkpt>
      <trkpt lat="43.76939" lon="5.64237">
        <ele>524</ele>
        <time>2022-08-13T07:06:52Z</time>
      </trkpt>
      <trkpt lat="43.7694" lon="5.6423">
        <ele>524</ele>
        <time>2022-08-13T07:06:54Z</time>
      </trkpt>
      <trkpt lat="43.76941" lon="5.64223">
        <ele>524</ele>
        <time>2022-08-13T07:06:56Z</time>
      </trkpt>
      <trkpt lat="43.76939" lon="5.64215">
        <ele>524</ele>
        <time>2022-08-13T07:06:58Z</time>
      </trkpt>
      <trkpt lat="43.76938" lon="5.64207">
        <ele>524</ele>
        <time>2022-08-13T07:07:00Z</time>
      </trkpt>
      <trkpt lat="43.76938" lon="5.64197">
        <ele>523</ele>
        <time>2022-08-13T07:07:02Z</time>
      </trkpt>
      <trkpt lat="43.76937" lon="5.64187">
        <ele>524</ele>
        <time>2022-08-13T07:07:04Z</time>
      </trkpt>
      <trkpt lat="43.76937" lon="5.64175">
        <ele>524</ele>
        <time>2022-08-13T07:07:06Z</time>
      </trkpt>
      <trkpt lat="43.76936" lon="5.64168">
        <ele>525</ele>
        <time>2022-08-13T07:07:07Z</time>
      </trkpt>
      <trkpt lat="43.76935" lon="5.64161">
        <ele>525</ele>
        <time>2022-08-13T07:07:08Z</time>
      </trkpt>
      <trkpt lat="43.76934" lon="5.64155">
        <ele>525</ele>
        <time>2022-08-13T07:07:09Z</time>
      </trkpt>
      <trkpt lat="43.76931" lon="5.64141">
        <ele>525</ele>
        <time>2022-08-13T07:07:11Z</time>
      </trkpt>
      <trkpt lat="43.76931" lon="5.64132">
        <ele>524</ele>
        <time>2022-08-13T07:07:12Z</time>
      </trkpt>
      <trkpt lat="43.7693" lon="5.64125">
        <ele>524</ele>
        <time>2022-08-13T07:07:13Z</time>
      </trkpt>
      <trkpt lat="43.7693" lon="5.64117">
        <ele>524</ele>
        <time>2022-08-13T07:07:14Z</time>
      </trkpt>
      <trkpt lat="43.7693" lon="5.64109">
        <ele>524</ele>
        <time>2022-08-13T07:07:15Z</time>
      </trkpt>
      <trkpt lat="43.7693" lon="5.64103">
        <ele>525</ele>
        <time>2022-08-13T07:07:16Z</time>
      </trkpt>
      <trkpt lat="43.7693" lon="5.64094">
        <ele>525</ele>
        <time>2022-08-13T07:07:17Z</time>
      </trkpt>
      <trkpt lat="43.7693" lon="5.64085">
        <ele>525</ele>
        <time>2022-08-13T07:07:18Z</time>
      </trkpt>
      <trkpt lat="43.7693" lon="5.64077">
        <ele>524</ele>
        <time>2022-08-13T07:07:19Z</time>
      </trkpt>
      <trkpt lat="43.76929" lon="5.64068">
        <ele>524</ele>
        <time>2022-08-13T07:07:20Z</time>
      </trkpt>
      <trkpt lat="43.76929" lon="5.6406">
        <ele>523</ele>
        <time>2022-08-13T07:07:21Z</time>
      </trkpt>
      <trkpt lat="43.76928" lon="5.64051">
        <ele>522</ele>
        <time>2022-08-13T07:07:22Z</time>
      </trkpt>
      <trkpt lat="43.76927" lon="5.64037">
        <ele>522</ele>
        <time>2022-08-13T07:07:24Z</time>
      </trkpt>
      <trkpt lat="43.76925" lon="5.64028">
        <ele>521</ele>
        <time>2022-08-13T07:07:25Z</time>
      </trkpt>
      <trkpt lat="43.76923" lon="5.6402">
        <ele>521</ele>
        <time>2022-08-13T07:07:26Z</time>
      </trkpt>
      <trkpt lat="43.76918" lon="5.64013">
        <ele>520</ele>
        <time>2022-08-13T07:07:27Z</time>
      </trkpt>
      <trkpt lat="43.76914" lon="5.64006">
        <ele>520</ele>
        <time>2022-08-13T07:07:28Z</time>
      </trkpt>
      <trkpt lat="43.7691" lon="5.64">
        <ele>521</ele>
        <time>2022-08-13T07:07:29Z</time>
      </trkpt>
      <trkpt lat="43.76905" lon="5.63995">
        <ele>521</ele>
        <time>2022-08-13T07:07:30Z</time>
      </trkpt>
      <trkpt lat="43.76902" lon="5.63989">
        <ele>521</ele>
        <time>2022-08-13T07:07:31Z</time>
      </trkpt>
      <trkpt lat="43.76898" lon="5.63983">
        <ele>521</ele>
        <time>2022-08-13T07:07:32Z</time>
      </trkpt>
      <trkpt lat="43.76896" lon="5.63971">
        <ele>521</ele>
        <time>2022-08-13T07:07:34Z</time>
      </trkpt>
      <trkpt lat="43.76895" lon="5.63965">
        <ele>521</ele>
        <time>2022-08-13T07:07:35Z</time>
      </trkpt>
      <trkpt lat="43.76893" lon="5.63959">
        <ele>521</ele>
        <time>2022-08-13T07:07:36Z</time>
      </trkpt>
      <trkpt lat="43.76891" lon="5.63953">
        <ele>521</ele>
        <time>2022-08-13T07:07:37Z</time>
      </trkpt>
      <trkpt lat="43.76888" lon="5.63947">
        <ele>522</ele>
        <time>2022-08-13T07:07:38Z</time>
      </trkpt>
      <trkpt lat="43.76886" lon="5.63942">
        <ele>522</ele>
        <time>2022-08-13T07:07:39Z</time>
      </trkpt>
      <trkpt lat="43.76882" lon="5.63937">
        <ele>522</ele>
        <time>2022-08-13T07:07:40Z</time>
      </trkpt>
      <trkpt lat="43.76879" lon="5.63933">
        <ele>522</ele>
        <time>2022-08-13T07:07:41Z</time>
      </trkpt>
      <trkpt lat="43.76875" lon="5.63929">
        <ele>523</ele>
        <time>2022-08-13T07:07:42Z</time>
      </trkpt>
      <trkpt lat="43.7687" lon="5.63917">
        <ele>523</ele>
        <time>2022-08-13T07:07:44Z</time>
      </trkpt>
      <trkpt lat="43.76869" lon="5.63911">
        <ele>523</ele>
        <time>2022-08-13T07:07:45Z</time>
      </trkpt>
      <trkpt lat="43.7687" lon="5.63904">
        <ele>523</ele>
        <time>2022-08-13T07:07:46Z</time>
      </trkpt>
      <trkpt lat="43.76872" lon="5.63897">
        <ele>523</ele>
        <time>2022-08-13T07:07:47Z</time>
      </trkpt>
      <trkpt lat="43.76874" lon="5.63891">
        <ele>522</ele>
        <time>2022-08-13T07:07:48Z</time>
      </trkpt>
      <trkpt lat="43.76878" lon="5.63887">
        <ele>521</ele>
        <time>2022-08-13T07:07:49Z</time>
      </trkpt>
      <trkpt lat="43.76881" lon="5.63882">
        <ele>520</ele>
        <time>2022-08-13T07:07:50Z</time>
      </trkpt>
      <trkpt lat="43.76882" lon="5.63873">
        <ele>519</ele>
        <time>2022-08-13T07:07:51Z</time>
      </trkpt>
      <trkpt lat="43.76882" lon="5.63866">
        <ele>518</ele>
        <time>2022-08-13T07:07:52Z</time>
      </trkpt>
      <trkpt lat="43.76881" lon="5.63857">
        <ele>517</ele>
        <time>2022-08-13T07:07:53Z</time>
      </trkpt>
      <trkpt lat="43.76881" lon="5.63848">
        <ele>517</ele>
        <time>2022-08-13T07:07:54Z</time>
      </trkpt>
      <trkpt lat="43.76881" lon="5.63841">
        <ele>517</ele>
        <time>2022-08-13T07:07:55Z</time>
      </trkpt>
      <trkpt lat="43.7688" lon="5.63834">
        <ele>518</ele>
        <time>2022-08-13T07:07:56Z</time>
      </trkpt>
      <trkpt lat="43.76879" lon="5.63826">
        <ele>518</ele>
        <time>2022-08-13T07:07:57Z</time>
      </trkpt>
      <trkpt lat="43.76877" lon="5.63818">
        <ele>519</ele>
        <time>2022-08-13T07:07:58Z</time>
      </trkpt>
      <trkpt lat="43.76875" lon="5.63811">
        <ele>519</ele>
        <time>2022-08-13T07:07:59Z</time>
      </trkpt>
      <trkpt lat="43.76872" lon="5.63803">
        <ele>520</ele>
        <time>2022-08-13T07:08:00Z</time>
      </trkpt>
      <trkpt lat="43.76868" lon="5.63796">
        <ele>520</ele>
        <time>2022-08-13T07:08:01Z</time>
      </trkpt>
      <trkpt lat="43.76866" lon="5.63787">
        <ele>520</ele>
        <time>2022-08-13T07:08:02Z</time>
      </trkpt>
      <trkpt lat="43.76864" lon="5.63779">
        <ele>521</ele>
        <time>2022-08-13T07:08:03Z</time>
      </trkpt>
      <trkpt lat="43.76864" lon="5.63773">
        <ele>521</ele>
        <time>2022-08-13T07:08:04Z</time>
      </trkpt>
      <trkpt lat="43.76865" lon="5.63766">
        <ele>521</ele>
        <time>2022-08-13T07:08:05Z</time>
      </trkpt>
      <trkpt lat="43.76862" lon="5.63758">
        <ele>522</ele>
        <time>2022-08-13T07:08:06Z</time>
      </trkpt>
      <trkpt lat="43.76859" lon="5.63744">
        <ele>523</ele>
        <time>2022-08-13T07:08:08Z</time>
      </trkpt>
      <trkpt lat="43.76856" lon="5.63736">
        <ele>523</ele>
        <time>2022-08-13T07:08:09Z</time>
      </trkpt>
      <trkpt lat="43.76853" lon="5.63728">
        <ele>523</ele>
        <time>2022-08-13T07:08:10Z</time>
      </trkpt>
      <trkpt lat="43.7685" lon="5.63722">
        <ele>523</ele>
        <time>2022-08-13T07:08:11Z</time>
      </trkpt>
      <trkpt lat="43.76847" lon="5.63714">
        <ele>523</ele>
        <time>2022-08-13T07:08:12Z</time>
      </trkpt>
      <trkpt lat="43.76845" lon="5.63706">
        <ele>523</ele>
        <time>2022-08-13T07:08:13Z</time>
      </trkpt>
      <trkpt lat="43.76844" lon="5.63697">
        <ele>524</ele>
        <time>2022-08-13T07:08:14Z</time>
      </trkpt>
      <trkpt lat="43.76843" lon="5.63689">
        <ele>524</ele>
        <time>2022-08-13T07:08:15Z</time>
      </trkpt>
      <trkpt lat="43.76843" lon="5.6368">
        <ele>524</ele>
        <time>2022-08-13T07:08:16Z</time>
      </trkpt>
      <trkpt lat="43.76841" lon="5.63671">
        <ele>524</ele>
        <time>2022-08-13T07:08:17Z</time>
      </trkpt>
      <trkpt lat="43.76839" lon="5.63661">
        <ele>523</ele>
        <time>2022-08-13T07:08:18Z</time>
      </trkpt>
      <trkpt lat="43.76834" lon="5.63653">
        <ele>522</ele>
        <time>2022-08-13T07:08:19Z</time>
      </trkpt>
      <trkpt lat="43.76831" lon="5.63645">
        <ele>521</ele>
        <time>2022-08-13T07:08:20Z</time>
      </trkpt>
      <trkpt lat="43.76826" lon="5.6364">
        <ele>520</ele>
        <time>2022-08-13T07:08:21Z</time>
      </trkpt>
      <trkpt lat="43.76821" lon="5.63635">
        <ele>520</ele>
        <time>2022-08-13T07:08:22Z</time>
      </trkpt>
      <trkpt lat="43.76817" lon="5.63627">
        <ele>519</ele>
        <time>2022-08-13T07:08:23Z</time>
      </trkpt>
      <trkpt lat="43.76814" lon="5.63618">
        <ele>519</ele>
        <time>2022-08-13T07:08:24Z</time>
      </trkpt>
      <trkpt lat="43.7681" lon="5.6361">
        <ele>519</ele>
        <time>2022-08-13T07:08:25Z</time>
      </trkpt>
      <trkpt lat="43.76807" lon="5.636">
        <ele>518</ele>
        <time>2022-08-13T07:08:26Z</time>
      </trkpt>
      <trkpt lat="43.76806" lon="5.63592">
        <ele>518</ele>
        <time>2022-08-13T07:08:27Z</time>
      </trkpt>
      <trkpt lat="43.76803" lon="5.63584">
        <ele>518</ele>
        <time>2022-08-13T07:08:28Z</time>
      </trkpt>
      <trkpt lat="43.76801" lon="5.63575">
        <ele>517</ele>
        <time>2022-08-13T07:08:29Z</time>
      </trkpt>
      <trkpt lat="43.76799" lon="5.63566">
        <ele>517</ele>
        <time>2022-08-13T07:08:30Z</time>
      </trkpt>
      <trkpt lat="43.76797" lon="5.63558">
        <ele>517</ele>
        <time>2022-08-13T07:08:31Z</time>
      </trkpt>
      <trkpt lat="43.76794" lon="5.63548">
        <ele>516</ele>
        <time>2022-08-13T07:08:32Z</time>
      </trkpt>
      <trkpt lat="43.76793" lon="5.63538">
        <ele>516</ele>
        <time>2022-08-13T07:08:33Z</time>
      </trkpt>
      <trkpt lat="43.76792" lon="5.6353">
        <ele>515</ele>
        <time>2022-08-13T07:08:34Z</time>
      </trkpt>
      <trkpt lat="43.76791" lon="5.63522">
        <ele>514</ele>
        <time>2022-08-13T07:08:35Z</time>
      </trkpt>
      <trkpt lat="43.7679" lon="5.63514">
        <ele>514</ele>
        <time>2022-08-13T07:08:36Z</time>
      </trkpt>
      <trkpt lat="43.76786" lon="5.63506">
        <ele>513</ele>
        <time>2022-08-13T07:08:37Z</time>
      </trkpt>
      <trkpt lat="43.76782" lon="5.63498">
        <ele>513</ele>
        <time>2022-08-13T07:08:38Z</time>
      </trkpt>
      <trkpt lat="43.76778" lon="5.63493">
        <ele>513</ele>
        <time>2022-08-13T07:08:39Z</time>
      </trkpt>
      <trkpt lat="43.76773" lon="5.63487">
        <ele>513</ele>
        <time>2022-08-13T07:08:40Z</time>
      </trkpt>
      <trkpt lat="43.76772" lon="5.63479">
        <ele>513</ele>
        <time>2022-08-13T07:08:41Z</time>
      </trkpt>
      <trkpt lat="43.76766" lon="5.63474">
        <ele>513</ele>
        <time>2022-08-13T07:08:42Z</time>
      </trkpt>
      <trkpt lat="43.76762" lon="5.63467">
        <ele>513</ele>
        <time>2022-08-13T07:08:43Z</time>
      </trkpt>
      <trkpt lat="43.76758" lon="5.63462">
        <ele>513</ele>
        <time>2022-08-13T07:08:44Z</time>
      </trkpt>
      <trkpt lat="43.76753" lon="5.63456">
        <ele>513</ele>
        <time>2022-08-13T07:08:45Z</time>
      </trkpt>
      <trkpt lat="43.76748" lon="5.63449">
        <ele>512</ele>
        <time>2022-08-13T07:08:46Z</time>
      </trkpt>
      <trkpt lat="43.76744" lon="5.63442">
        <ele>512</ele>
        <time>2022-08-13T07:08:47Z</time>
      </trkpt>
      <trkpt lat="43.76741" lon="5.63434">
        <ele>512</ele>
        <time>2022-08-13T07:08:48Z</time>
      </trkpt>
      <trkpt lat="43.76737" lon="5.63427">
        <ele>512</ele>
        <time>2022-08-13T07:08:49Z</time>
      </trkpt>
      <trkpt lat="43.76731" lon="5.63421">
        <ele>512</ele>
        <time>2022-08-13T07:08:50Z</time>
      </trkpt>
      <trkpt lat="43.76725" lon="5.63422">
        <ele>512</ele>
        <time>2022-08-13T07:08:51Z</time>
      </trkpt>
      <trkpt lat="43.76724" lon="5.63414">
        <ele>511</ele>
        <time>2022-08-13T07:08:53Z</time>
      </trkpt>
      <trkpt lat="43.76727" lon="5.63409">
        <ele>511</ele>
        <time>2022-08-13T07:08:54Z</time>
      </trkpt>
      <trkpt lat="43.76725" lon="5.63403">
        <ele>511</ele>
        <time>2022-08-13T07:08:55Z</time>
      </trkpt>
      <trkpt lat="43.76723" lon="5.63396">
        <ele>511</ele>
        <time>2022-08-13T07:08:56Z</time>
      </trkpt>
      <trkpt lat="43.76719" lon="5.63388">
        <ele>510</ele>
        <time>2022-08-13T07:08:58Z</time>
      </trkpt>
      <trkpt lat="43.76719" lon="5.63379">
        <ele>510</ele>
        <time>2022-08-13T07:09:00Z</time>
      </trkpt>
      <trkpt lat="43.76719" lon="5.6337">
        <ele>509</ele>
        <time>2022-08-13T07:09:02Z</time>
      </trkpt>
      <trkpt lat="43.7672" lon="5.63359">
        <ele>509</ele>
        <time>2022-08-13T07:09:04Z</time>
      </trkpt>
      <trkpt lat="43.76721" lon="5.63347">
        <ele>509</ele>
        <time>2022-08-13T07:09:06Z</time>
      </trkpt>
      <trkpt lat="43.76723" lon="5.6334">
        <ele>509</ele>
        <time>2022-08-13T07:09:07Z</time>
      </trkpt>
      <trkpt lat="43.76724" lon="5.6333">
        <ele>509</ele>
        <time>2022-08-13T07:09:09Z</time>
      </trkpt>
      <trkpt lat="43.76729" lon="5.63326">
        <ele>510</ele>
        <time>2022-08-13T07:09:12Z</time>
      </trkpt>
      <trkpt lat="43.7673" lon="5.63319">
        <ele>509</ele>
        <time>2022-08-13T07:09:16Z</time>
      </trkpt>
      <trkpt lat="43.76724" lon="5.63315">
        <ele>508</ele>
        <time>2022-08-13T07:09:20Z</time>
      </trkpt>
      <trkpt lat="43.76723" lon="5.63309">
        <ele>509</ele>
        <time>2022-08-13T07:09:22Z</time>
      </trkpt>
      <trkpt lat="43.76729" lon="5.63307">
        <ele>509</ele>
        <time>2022-08-13T07:09:23Z</time>
      </trkpt>
      <trkpt lat="43.7673" lon="5.63297">
        <ele>509</ele>
        <time>2022-08-13T07:09:25Z</time>
      </trkpt>
      <trkpt lat="43.76733" lon="5.63288">
        <ele>510</ele>
        <time>2022-08-13T07:09:27Z</time>
      </trkpt>
      <trkpt lat="43.76738" lon="5.63281">
        <ele>510</ele>
        <time>2022-08-13T07:09:29Z</time>
      </trkpt>
      <trkpt lat="43.76739" lon="5.63271">
        <ele>509</ele>
        <time>2022-08-13T07:09:31Z</time>
      </trkpt>
      <trkpt lat="43.76739" lon="5.63262">
        <ele>509</ele>
        <time>2022-08-13T07:09:33Z</time>
      </trkpt>
      <trkpt lat="43.76738" lon="5.63253">
        <ele>509</ele>
        <time>2022-08-13T07:09:35Z</time>
      </trkpt>
      <trkpt lat="43.76737" lon="5.63243">
        <ele>509</ele>
        <time>2022-08-13T07:09:37Z</time>
      </trkpt>
      <trkpt lat="43.76735" lon="5.63235">
        <ele>509</ele>
        <time>2022-08-13T07:09:39Z</time>
      </trkpt>
      <trkpt lat="43.76734" lon="5.63228">
        <ele>509</ele>
        <time>2022-08-13T07:09:41Z</time>
      </trkpt>
      <trkpt lat="43.76733" lon="5.6322">
        <ele>508</ele>
        <time>2022-08-13T07:09:43Z</time>
      </trkpt>
      <trkpt lat="43.76733" lon="5.6321">
        <ele>508</ele>
        <time>2022-08-13T07:09:45Z</time>
      </trkpt>
      <trkpt lat="43.76733" lon="5.63199">
        <ele>508</ele>
        <time>2022-08-13T07:09:47Z</time>
      </trkpt>
      <trkpt lat="43.76733" lon="5.63187">
        <ele>508</ele>
        <time>2022-08-13T07:09:49Z</time>
      </trkpt>
      <trkpt lat="43.76732" lon="5.63177">
        <ele>508</ele>
        <time>2022-08-13T07:09:51Z</time>
      </trkpt>
      <trkpt lat="43.76727" lon="5.63169">
        <ele>508</ele>
        <time>2022-08-13T07:09:53Z</time>
      </trkpt>
      <trkpt lat="43.7672" lon="5.63163">
        <ele>508</ele>
        <time>2022-08-13T07:09:55Z</time>
      </trkpt>
      <trkpt lat="43.76711" lon="5.63157">
        <ele>508</ele>
        <time>2022-08-13T07:09:57Z</time>
      </trkpt>
      <trkpt lat="43.76706" lon="5.63152">
        <ele>507</ele>
        <time>2022-08-13T07:09:58Z</time>
      </trkpt>
      <trkpt lat="43.76702" lon="5.63151">
        <ele>506</ele>
        <time>2022-08-13T07:09:59Z</time>
      </trkpt>
      <trkpt lat="43.76695" lon="5.63147">
        <ele>505</ele>
        <time>2022-08-13T07:10:01Z</time>
      </trkpt>
      <trkpt lat="43.76691" lon="5.63145">
        <ele>503</ele>
        <time>2022-08-13T07:10:02Z</time>
      </trkpt>
      <trkpt lat="43.76687" lon="5.6314">
        <ele>502</ele>
        <time>2022-08-13T07:10:04Z</time>
      </trkpt>
      <trkpt lat="43.76687" lon="5.6314">
        <ele>502</ele>
        <time>2022-08-13T07:10:30Z</time>
      </trkpt>
      <trkpt lat="43.7666" lon="5.63122">
        <ele>502</ele>
        <time>2022-08-13T07:11:11Z</time>
      </trkpt>
      <trkpt lat="43.76653" lon="5.63119">
        <ele>501</ele>
        <time>2022-08-13T07:11:13Z</time>
      </trkpt>
      <trkpt lat="43.76646" lon="5.63113">
        <ele>500</ele>
        <time>2022-08-13T07:11:15Z</time>
      </trkpt>
      <trkpt lat="43.76639" lon="5.6311">
        <ele>500</ele>
        <time>2022-08-13T07:11:17Z</time>
      </trkpt>
      <trkpt lat="43.76633" lon="5.63103">
        <ele>499</ele>
        <time>2022-08-13T07:11:19Z</time>
      </trkpt>
      <trkpt lat="43.76626" lon="5.63097">
        <ele>499</ele>
        <time>2022-08-13T07:11:21Z</time>
      </trkpt>
      <trkpt lat="43.76624" lon="5.6309">
        <ele>498</ele>
        <time>2022-08-13T07:11:22Z</time>
      </trkpt>
      <trkpt lat="43.76621" lon="5.63085">
        <ele>498</ele>
        <time>2022-08-13T07:11:23Z</time>
      </trkpt>
      <trkpt lat="43.76619" lon="5.63079">
        <ele>498</ele>
        <time>2022-08-13T07:11:24Z</time>
      </trkpt>
      <trkpt lat="43.76617" lon="5.63073">
        <ele>497</ele>
        <time>2022-08-13T07:11:25Z</time>
      </trkpt>
      <trkpt lat="43.76615" lon="5.63062">
        <ele>497</ele>
        <time>2022-08-13T07:11:27Z</time>
      </trkpt>
      <trkpt lat="43.76613" lon="5.63055">
        <ele>497</ele>
        <time>2022-08-13T07:11:28Z</time>
      </trkpt>
      <trkpt lat="43.76612" lon="5.63048">
        <ele>497</ele>
        <time>2022-08-13T07:11:29Z</time>
      </trkpt>
      <trkpt lat="43.7661" lon="5.63041">
        <ele>497</ele>
        <time>2022-08-13T07:11:31Z</time>
      </trkpt>
      <trkpt lat="43.76603" lon="5.63034">
        <ele>497</ele>
        <time>2022-08-13T07:11:33Z</time>
      </trkpt>
      <trkpt lat="43.76596" lon="5.6303">
        <ele>497</ele>
        <time>2022-08-13T07:11:35Z</time>
      </trkpt>
      <trkpt lat="43.7659" lon="5.63022">
        <ele>497</ele>
        <time>2022-08-13T07:11:37Z</time>
      </trkpt>
      <trkpt lat="43.76584" lon="5.63013">
        <ele>496</ele>
        <time>2022-08-13T07:11:39Z</time>
      </trkpt>
      <trkpt lat="43.76582" lon="5.63006">
        <ele>495</ele>
        <time>2022-08-13T07:11:40Z</time>
      </trkpt>
      <trkpt lat="43.7658" lon="5.62994">
        <ele>494</ele>
        <time>2022-08-13T07:11:42Z</time>
      </trkpt>
      <trkpt lat="43.76579" lon="5.62987">
        <ele>493</ele>
        <time>2022-08-13T07:11:43Z</time>
      </trkpt>
      <trkpt lat="43.76577" lon="5.6298">
        <ele>493</ele>
        <time>2022-08-13T07:11:44Z</time>
      </trkpt>
      <trkpt lat="43.76576" lon="5.62973">
        <ele>492</ele>
        <time>2022-08-13T07:11:45Z</time>
      </trkpt>
      <trkpt lat="43.76574" lon="5.62965">
        <ele>491</ele>
        <time>2022-08-13T07:11:46Z</time>
      </trkpt>
      <trkpt lat="43.76574" lon="5.62957">
        <ele>490</ele>
        <time>2022-08-13T07:11:47Z</time>
      </trkpt>
      <trkpt lat="43.76573" lon="5.62949">
        <ele>490</ele>
        <time>2022-08-13T07:11:48Z</time>
      </trkpt>
      <trkpt lat="43.76572" lon="5.62942">
        <ele>489</ele>
        <time>2022-08-13T07:11:49Z</time>
      </trkpt>
      <trkpt lat="43.76573" lon="5.6293">
        <ele>488</ele>
        <time>2022-08-13T07:11:51Z</time>
      </trkpt>
      <trkpt lat="43.76574" lon="5.62924">
        <ele>487</ele>
        <time>2022-08-13T07:11:52Z</time>
      </trkpt>
      <trkpt lat="43.76579" lon="5.62916">
        <ele>487</ele>
        <time>2022-08-13T07:11:54Z</time>
      </trkpt>
      <trkpt lat="43.76576" lon="5.62911">
        <ele>486</ele>
        <time>2022-08-13T07:11:55Z</time>
      </trkpt>
      <trkpt lat="43.7657" lon="5.62906">
        <ele>486</ele>
        <time>2022-08-13T07:11:57Z</time>
      </trkpt>
      <trkpt lat="43.76565" lon="5.62904">
        <ele>486</ele>
        <time>2022-08-13T07:11:58Z</time>
      </trkpt>
      <trkpt lat="43.76561" lon="5.62905">
        <ele>486</ele>
        <time>2022-08-13T07:11:59Z</time>
      </trkpt>
      <trkpt lat="43.76552" lon="5.62904">
        <ele>485</ele>
        <time>2022-08-13T07:12:01Z</time>
      </trkpt>
      <trkpt lat="43.76548" lon="5.62899">
        <ele>485</ele>
        <time>2022-08-13T07:12:02Z</time>
      </trkpt>
      <trkpt lat="43.76545" lon="5.62895">
        <ele>485</ele>
        <time>2022-08-13T07:12:03Z</time>
      </trkpt>
      <trkpt lat="43.76542" lon="5.62889">
        <ele>484</ele>
        <time>2022-08-13T07:12:04Z</time>
      </trkpt>
      <trkpt lat="43.76537" lon="5.62886">
        <ele>484</ele>
        <time>2022-08-13T07:12:05Z</time>
      </trkpt>
      <trkpt lat="43.76533" lon="5.62884">
        <ele>483</ele>
        <time>2022-08-13T07:12:06Z</time>
      </trkpt>
      <trkpt lat="43.76529" lon="5.62879">
        <ele>483</ele>
        <time>2022-08-13T07:12:07Z</time>
      </trkpt>
      <trkpt lat="43.76527" lon="5.62872">
        <ele>483</ele>
        <time>2022-08-13T07:12:08Z</time>
      </trkpt>
      <trkpt lat="43.76525" lon="5.62866">
        <ele>483</ele>
        <time>2022-08-13T07:12:09Z</time>
      </trkpt>
      <trkpt lat="43.76524" lon="5.62859">
        <ele>482</ele>
        <time>2022-08-13T07:12:10Z</time>
      </trkpt>
      <trkpt lat="43.76523" lon="5.62849">
        <ele>482</ele>
        <time>2022-08-13T07:12:12Z</time>
      </trkpt>
      <trkpt lat="43.76522" lon="5.62843">
        <ele>481</ele>
        <time>2022-08-13T07:12:13Z</time>
      </trkpt>
      <trkpt lat="43.76522" lon="5.62837">
        <ele>481</ele>
        <time>2022-08-13T07:12:14Z</time>
      </trkpt>
      <trkpt lat="43.76523" lon="5.62831">
        <ele>480</ele>
        <time>2022-08-13T07:12:15Z</time>
      </trkpt>
      <trkpt lat="43.76522" lon="5.62824">
        <ele>480</ele>
        <time>2022-08-13T07:12:16Z</time>
      </trkpt>
      <trkpt lat="43.76518" lon="5.62814">
        <ele>480</ele>
        <time>2022-08-13T07:12:18Z</time>
      </trkpt>
      <trkpt lat="43.76513" lon="5.62806">
        <ele>479</ele>
        <time>2022-08-13T07:12:20Z</time>
      </trkpt>
      <trkpt lat="43.76513" lon="5.62799">
        <ele>478</ele>
        <time>2022-08-13T07:12:21Z</time>
      </trkpt>
      <trkpt lat="43.76511" lon="5.6279">
        <ele>478</ele>
        <time>2022-08-13T07:12:22Z</time>
      </trkpt>
      <trkpt lat="43.76511" lon="5.62783">
        <ele>477</ele>
        <time>2022-08-13T07:12:23Z</time>
      </trkpt>
      <trkpt lat="43.76511" lon="5.62775">
        <ele>476</ele>
        <time>2022-08-13T07:12:24Z</time>
      </trkpt>
      <trkpt lat="43.7651" lon="5.62767">
        <ele>476</ele>
        <time>2022-08-13T07:12:25Z</time>
      </trkpt>
      <trkpt lat="43.7651" lon="5.6276">
        <ele>476</ele>
        <time>2022-08-13T07:12:26Z</time>
      </trkpt>
      <trkpt lat="43.76509" lon="5.62753">
        <ele>476</ele>
        <time>2022-08-13T07:12:27Z</time>
      </trkpt>
      <trkpt lat="43.7651" lon="5.62745">
        <ele>477</ele>
        <time>2022-08-13T07:12:28Z</time>
      </trkpt>
      <trkpt lat="43.76511" lon="5.62738">
        <ele>477</ele>
        <time>2022-08-13T07:12:29Z</time>
      </trkpt>
      <trkpt lat="43.76514" lon="5.62731">
        <ele>477</ele>
        <time>2022-08-13T07:12:30Z</time>
      </trkpt>
      <trkpt lat="43.76517" lon="5.62724">
        <ele>477</ele>
        <time>2022-08-13T07:12:31Z</time>
      </trkpt>
      <trkpt lat="43.7652" lon="5.62718">
        <ele>477</ele>
        <time>2022-08-13T07:12:32Z</time>
      </trkpt>
      <trkpt lat="43.76525" lon="5.62709">
        <ele>477</ele>
        <time>2022-08-13T07:12:34Z</time>
      </trkpt>
      <trkpt lat="43.76527" lon="5.62702">
        <ele>477</ele>
        <time>2022-08-13T07:12:35Z</time>
      </trkpt>
      <trkpt lat="43.76529" lon="5.62694">
        <ele>478</ele>
        <time>2022-08-13T07:12:36Z</time>
      </trkpt>
      <trkpt lat="43.76533" lon="5.62684">
        <ele>477</ele>
        <time>2022-08-13T07:12:38Z</time>
      </trkpt>
      <trkpt lat="43.76536" lon="5.6268">
        <ele>477</ele>
        <time>2022-08-13T07:12:39Z</time>
      </trkpt>
      <trkpt lat="43.76542" lon="5.62671">
        <ele>477</ele>
        <time>2022-08-13T07:12:41Z</time>
      </trkpt>
      <trkpt lat="43.76542" lon="5.62661">
        <ele>478</ele>
        <time>2022-08-13T07:12:43Z</time>
      </trkpt>
      <trkpt lat="43.76543" lon="5.62654">
        <ele>477</ele>
        <time>2022-08-13T07:12:45Z</time>
      </trkpt>
      <trkpt lat="43.76541" lon="5.62645">
        <ele>477</ele>
        <time>2022-08-13T07:12:47Z</time>
      </trkpt>
      <trkpt lat="43.76544" lon="5.62637">
        <ele>477</ele>
        <time>2022-08-13T07:12:49Z</time>
      </trkpt>
      <trkpt lat="43.76547" lon="5.62628">
        <ele>476</ele>
        <time>2022-08-13T07:12:51Z</time>
      </trkpt>
      <trkpt lat="43.76545" lon="5.6262">
        <ele>476</ele>
        <time>2022-08-13T07:12:53Z</time>
      </trkpt>
      <trkpt lat="43.76538" lon="5.62613">
        <ele>476</ele>
        <time>2022-08-13T07:12:55Z</time>
      </trkpt>
      <trkpt lat="43.76533" lon="5.62604">
        <ele>477</ele>
        <time>2022-08-13T07:12:57Z</time>
      </trkpt>
      <trkpt lat="43.7653" lon="5.62593">
        <ele>476</ele>
        <time>2022-08-13T07:12:59Z</time>
      </trkpt>
      <trkpt lat="43.76531" lon="5.62581">
        <ele>475</ele>
        <time>2022-08-13T07:13:01Z</time>
      </trkpt>
      <trkpt lat="43.76531" lon="5.62573">
        <ele>475</ele>
        <time>2022-08-13T07:13:02Z</time>
      </trkpt>
      <trkpt lat="43.76532" lon="5.62564">
        <ele>474</ele>
        <time>2022-08-13T07:13:03Z</time>
      </trkpt>
      <trkpt lat="43.76532" lon="5.62557">
        <ele>473</ele>
        <time>2022-08-13T07:13:04Z</time>
      </trkpt>
      <trkpt lat="43.76531" lon="5.62545">
        <ele>473</ele>
        <time>2022-08-13T07:13:06Z</time>
      </trkpt>
      <trkpt lat="43.76527" lon="5.62533">
        <ele>471</ele>
        <time>2022-08-13T07:13:08Z</time>
      </trkpt>
      <trkpt lat="43.76525" lon="5.62525">
        <ele>470</ele>
        <time>2022-08-13T07:13:09Z</time>
      </trkpt>
      <trkpt lat="43.76524" lon="5.62517">
        <ele>469</ele>
        <time>2022-08-13T07:13:10Z</time>
      </trkpt>
      <trkpt lat="43.76522" lon="5.62509">
        <ele>468</ele>
        <time>2022-08-13T07:13:11Z</time>
      </trkpt>
      <trkpt lat="43.76521" lon="5.62501">
        <ele>467</ele>
        <time>2022-08-13T07:13:12Z</time>
      </trkpt>
      <trkpt lat="43.76519" lon="5.62495">
        <ele>467</ele>
        <time>2022-08-13T07:13:13Z</time>
      </trkpt>
      <trkpt lat="43.76518" lon="5.62488">
        <ele>466</ele>
        <time>2022-08-13T07:13:14Z</time>
      </trkpt>
      <trkpt lat="43.76515" lon="5.62482">
        <ele>465</ele>
        <time>2022-08-13T07:13:15Z</time>
      </trkpt>
      <trkpt lat="43.76516" lon="5.62471">
        <ele>465</ele>
        <time>2022-08-13T07:13:17Z</time>
      </trkpt>
      <trkpt lat="43.76514" lon="5.62459">
        <ele>464</ele>
        <time>2022-08-13T07:13:19Z</time>
      </trkpt>
      <trkpt lat="43.76514" lon="5.62452">
        <ele>464</ele>
        <time>2022-08-13T07:13:20Z</time>
      </trkpt>
      <trkpt lat="43.76513" lon="5.6244">
        <ele>464</ele>
        <time>2022-08-13T07:13:22Z</time>
      </trkpt>
      <trkpt lat="43.7651" lon="5.62434">
        <ele>463</ele>
        <time>2022-08-13T07:13:23Z</time>
      </trkpt>
      <trkpt lat="43.76508" lon="5.62428">
        <ele>462</ele>
        <time>2022-08-13T07:13:24Z</time>
      </trkpt>
      <trkpt lat="43.76505" lon="5.62414">
        <ele>461</ele>
        <time>2022-08-13T07:13:26Z</time>
      </trkpt>
      <trkpt lat="43.76504" lon="5.62406">
        <ele>460</ele>
        <time>2022-08-13T07:13:27Z</time>
      </trkpt>
      <trkpt lat="43.76502" lon="5.62399">
        <ele>459</ele>
        <time>2022-08-13T07:13:28Z</time>
      </trkpt>
      <trkpt lat="43.765" lon="5.62391">
        <ele>458</ele>
        <time>2022-08-13T07:13:29Z</time>
      </trkpt>
      <trkpt lat="43.76499" lon="5.62384">
        <ele>457</ele>
        <time>2022-08-13T07:13:30Z</time>
      </trkpt>
      <trkpt lat="43.76498" lon="5.62376">
        <ele>456</ele>
        <time>2022-08-13T07:13:31Z</time>
      </trkpt>
      <trkpt lat="43.76499" lon="5.62369">
        <ele>456</ele>
        <time>2022-08-13T07:13:32Z</time>
      </trkpt>
      <trkpt lat="43.76502" lon="5.62358">
        <ele>455</ele>
        <time>2022-08-13T07:13:34Z</time>
      </trkpt>
      <trkpt lat="43.76503" lon="5.62351">
        <ele>454</ele>
        <time>2022-08-13T07:13:35Z</time>
      </trkpt>
      <trkpt lat="43.76503" lon="5.62344">
        <ele>453</ele>
        <time>2022-08-13T07:13:36Z</time>
      </trkpt>
      <trkpt lat="43.76504" lon="5.62336">
        <ele>452</ele>
        <time>2022-08-13T07:13:37Z</time>
      </trkpt>
      <trkpt lat="43.76505" lon="5.62328">
        <ele>452</ele>
        <time>2022-08-13T07:13:38Z</time>
      </trkpt>
      <trkpt lat="43.76507" lon="5.62322">
        <ele>452</ele>
        <time>2022-08-13T07:13:39Z</time>
      </trkpt>
      <trkpt lat="43.76512" lon="5.62316">
        <ele>452</ele>
        <time>2022-08-13T07:13:41Z</time>
      </trkpt>
      <trkpt lat="43.76511" lon="5.62309">
        <ele>452</ele>
        <time>2022-08-13T07:13:43Z</time>
      </trkpt>
      <trkpt lat="43.76509" lon="5.62301">
        <ele>453</ele>
        <time>2022-08-13T07:13:45Z</time>
      </trkpt>
      <trkpt lat="43.76511" lon="5.62294">
        <ele>454</ele>
        <time>2022-08-13T07:13:47Z</time>
      </trkpt>
      <trkpt lat="43.76514" lon="5.62285">
        <ele>455</ele>
        <time>2022-08-13T07:13:49Z</time>
      </trkpt>
      <trkpt lat="43.76515" lon="5.62273">
        <ele>456</ele>
        <time>2022-08-13T07:13:51Z</time>
      </trkpt>
      <trkpt lat="43.76514" lon="5.62259">
        <ele>456</ele>
        <time>2022-08-13T07:13:53Z</time>
      </trkpt>
      <trkpt lat="43.76516" lon="5.62248">
        <ele>455</ele>
        <time>2022-08-13T07:13:55Z</time>
      </trkpt>
      <trkpt lat="43.76518" lon="5.62241">
        <ele>455</ele>
        <time>2022-08-13T07:13:56Z</time>
      </trkpt>
      <trkpt lat="43.7652" lon="5.6223">
        <ele>454</ele>
        <time>2022-08-13T07:13:58Z</time>
      </trkpt>
      <trkpt lat="43.76519" lon="5.62217">
        <ele>454</ele>
        <time>2022-08-13T07:14:00Z</time>
      </trkpt>
      <trkpt lat="43.76519" lon="5.62209">
        <ele>453</ele>
        <time>2022-08-13T07:14:01Z</time>
      </trkpt>
      <trkpt lat="43.76516" lon="5.62202">
        <ele>453</ele>
        <time>2022-08-13T07:14:02Z</time>
      </trkpt>
      <trkpt lat="43.76515" lon="5.62194">
        <ele>452</ele>
        <time>2022-08-13T07:14:03Z</time>
      </trkpt>
      <trkpt lat="43.76515" lon="5.62187">
        <ele>452</ele>
        <time>2022-08-13T07:14:04Z</time>
      </trkpt>
      <trkpt lat="43.76516" lon="5.62179">
        <ele>451</ele>
        <time>2022-08-13T07:14:05Z</time>
      </trkpt>
      <trkpt lat="43.76516" lon="5.62173">
        <ele>451</ele>
        <time>2022-08-13T07:14:06Z</time>
      </trkpt>
      <trkpt lat="43.76516" lon="5.62165">
        <ele>451</ele>
        <time>2022-08-13T07:14:07Z</time>
      </trkpt>
      <trkpt lat="43.76516" lon="5.62157">
        <ele>451</ele>
        <time>2022-08-13T07:14:08Z</time>
      </trkpt>
      <trkpt lat="43.76514" lon="5.6215">
        <ele>451</ele>
        <time>2022-08-13T07:14:09Z</time>
      </trkpt>
      <trkpt lat="43.76512" lon="5.62143">
        <ele>452</ele>
        <time>2022-08-13T07:14:10Z</time>
      </trkpt>
      <trkpt lat="43.76511" lon="5.62133">
        <ele>452</ele>
        <time>2022-08-13T07:14:12Z</time>
      </trkpt>
      <trkpt lat="43.76507" lon="5.62124">
        <ele>452</ele>
        <time>2022-08-13T07:14:14Z</time>
      </trkpt>
      <trkpt lat="43.76507" lon="5.62117">
        <ele>452</ele>
        <time>2022-08-13T07:14:15Z</time>
      </trkpt>
      <trkpt lat="43.76508" lon="5.6211">
        <ele>451</ele>
        <time>2022-08-13T07:14:16Z</time>
      </trkpt>
      <trkpt lat="43.76503" lon="5.62107">
        <ele>451</ele>
        <time>2022-08-13T07:14:17Z</time>
      </trkpt>
      <trkpt lat="43.76499" lon="5.62101">
        <ele>451</ele>
        <time>2022-08-13T07:14:18Z</time>
      </trkpt>
      <trkpt lat="43.76496" lon="5.62097">
        <ele>450</ele>
        <time>2022-08-13T07:14:19Z</time>
      </trkpt>
      <trkpt lat="43.76495" lon="5.6209">
        <ele>450</ele>
        <time>2022-08-13T07:14:20Z</time>
      </trkpt>
      <trkpt lat="43.76494" lon="5.62083">
        <ele>450</ele>
        <time>2022-08-13T07:14:21Z</time>
      </trkpt>
      <trkpt lat="43.7649" lon="5.62076">
        <ele>449</ele>
        <time>2022-08-13T07:14:22Z</time>
      </trkpt>
      <trkpt lat="43.76491" lon="5.62067">
        <ele>449</ele>
        <time>2022-08-13T07:14:23Z</time>
      </trkpt>
      <trkpt lat="43.76493" lon="5.62056">
        <ele>448</ele>
        <time>2022-08-13T07:14:24Z</time>
      </trkpt>
      <trkpt lat="43.76492" lon="5.62045">
        <ele>448</ele>
        <time>2022-08-13T07:14:26Z</time>
      </trkpt>
      <trkpt lat="43.76491" lon="5.62038">
        <ele>447</ele>
        <time>2022-08-13T07:14:27Z</time>
      </trkpt>
      <trkpt lat="43.76485" lon="5.62029">
        <ele>447</ele>
        <time>2022-08-13T07:14:29Z</time>
      </trkpt>
      <trkpt lat="43.76484" lon="5.62023">
        <ele>448</ele>
        <time>2022-08-13T07:14:30Z</time>
      </trkpt>
      <trkpt lat="43.76482" lon="5.62016">
        <ele>449</ele>
        <time>2022-08-13T07:14:31Z</time>
      </trkpt>
      <trkpt lat="43.76481" lon="5.62009">
        <ele>449</ele>
        <time>2022-08-13T07:14:32Z</time>
      </trkpt>
      <trkpt lat="43.7648" lon="5.62">
        <ele>449</ele>
        <time>2022-08-13T07:14:34Z</time>
      </trkpt>
      <trkpt lat="43.76478" lon="5.61994">
        <ele>448</ele>
        <time>2022-08-13T07:14:35Z</time>
      </trkpt>
      <trkpt lat="43.76476" lon="5.61986">
        <ele>448</ele>
        <time>2022-08-13T07:14:36Z</time>
      </trkpt>
      <trkpt lat="43.76473" lon="5.61978">
        <ele>448</ele>
        <time>2022-08-13T07:14:37Z</time>
      </trkpt>
      <trkpt lat="43.76471" lon="5.6197">
        <ele>447</ele>
        <time>2022-08-13T07:14:38Z</time>
      </trkpt>
      <trkpt lat="43.76469" lon="5.61962">
        <ele>447</ele>
        <time>2022-08-13T07:14:39Z</time>
      </trkpt>
      <trkpt lat="43.76466" lon="5.61955">
        <ele>447</ele>
        <time>2022-08-13T07:14:40Z</time>
      </trkpt>
      <trkpt lat="43.7647" lon="5.61947">
        <ele>446</ele>
        <time>2022-08-13T07:14:42Z</time>
      </trkpt>
      <trkpt lat="43.76471" lon="5.61936">
        <ele>446</ele>
        <time>2022-08-13T07:14:44Z</time>
      </trkpt>
      <trkpt lat="43.76469" lon="5.61923">
        <ele>446</ele>
        <time>2022-08-13T07:14:46Z</time>
      </trkpt>
      <trkpt lat="43.76469" lon="5.61916">
        <ele>445</ele>
        <time>2022-08-13T07:14:47Z</time>
      </trkpt>
      <trkpt lat="43.76468" lon="5.61908">
        <ele>445</ele>
        <time>2022-08-13T07:14:48Z</time>
      </trkpt>
      <trkpt lat="43.76466" lon="5.61901">
        <ele>445</ele>
        <time>2022-08-13T07:14:49Z</time>
      </trkpt>
      <trkpt lat="43.76465" lon="5.61893">
        <ele>445</ele>
        <time>2022-08-13T07:14:50Z</time>
      </trkpt>
      <trkpt lat="43.76465" lon="5.61885">
        <ele>445</ele>
        <time>2022-08-13T07:14:51Z</time>
      </trkpt>
      <trkpt lat="43.76465" lon="5.61877">
        <ele>444</ele>
        <time>2022-08-13T07:14:52Z</time>
      </trkpt>
      <trkpt lat="43.76465" lon="5.61869">
        <ele>443</ele>
        <time>2022-08-13T07:14:53Z</time>
      </trkpt>
      <trkpt lat="43.76465" lon="5.61861">
        <ele>443</ele>
        <time>2022-08-13T07:14:54Z</time>
      </trkpt>
      <trkpt lat="43.76465" lon="5.61853">
        <ele>442</ele>
        <time>2022-08-13T07:14:55Z</time>
      </trkpt>
      <trkpt lat="43.76465" lon="5.61844">
        <ele>442</ele>
        <time>2022-08-13T07:14:56Z</time>
      </trkpt>
      <trkpt lat="43.76466" lon="5.61835">
        <ele>441</ele>
        <time>2022-08-13T07:14:57Z</time>
      </trkpt>
      <trkpt lat="43.76465" lon="5.61826">
        <ele>441</ele>
        <time>2022-08-13T07:14:58Z</time>
      </trkpt>
      <trkpt lat="43.76463" lon="5.61819">
        <ele>440</ele>
        <time>2022-08-13T07:14:59Z</time>
      </trkpt>
      <trkpt lat="43.76462" lon="5.61809">
        <ele>439</ele>
        <time>2022-08-13T07:15:00Z</time>
      </trkpt>
      <trkpt lat="43.76461" lon="5.618">
        <ele>438</ele>
        <time>2022-08-13T07:15:01Z</time>
      </trkpt>
      <trkpt lat="43.7646" lon="5.61789">
        <ele>437</ele>
        <time>2022-08-13T07:15:02Z</time>
      </trkpt>
      <trkpt lat="43.7646" lon="5.61779">
        <ele>436</ele>
        <time>2022-08-13T07:15:03Z</time>
      </trkpt>
      <trkpt lat="43.76459" lon="5.61771">
        <ele>435</ele>
        <time>2022-08-13T07:15:04Z</time>
      </trkpt>
      <trkpt lat="43.76457" lon="5.61762">
        <ele>435</ele>
        <time>2022-08-13T07:15:05Z</time>
      </trkpt>
      <trkpt lat="43.76454" lon="5.61753">
        <ele>434</ele>
        <time>2022-08-13T07:15:07Z</time>
      </trkpt>
      <trkpt lat="43.76453" lon="5.61747">
        <ele>433</ele>
        <time>2022-08-13T07:15:09Z</time>
      </trkpt>
      <trkpt lat="43.76451" lon="5.61738">
        <ele>433</ele>
        <time>2022-08-13T07:15:12Z</time>
      </trkpt>
      <trkpt lat="43.76451" lon="5.61731">
        <ele>434</ele>
        <time>2022-08-13T07:15:14Z</time>
      </trkpt>
      <trkpt lat="43.7645" lon="5.61722">
        <ele>433</ele>
        <time>2022-08-13T07:15:16Z</time>
      </trkpt>
      <trkpt lat="43.76449" lon="5.61713">
        <ele>433</ele>
        <time>2022-08-13T07:15:18Z</time>
      </trkpt>
      <trkpt lat="43.76449" lon="5.61703">
        <ele>433</ele>
        <time>2022-08-13T07:15:20Z</time>
      </trkpt>
      <trkpt lat="43.7645" lon="5.61693">
        <ele>433</ele>
        <time>2022-08-13T07:15:22Z</time>
      </trkpt>
      <trkpt lat="43.7645" lon="5.61683">
        <ele>432</ele>
        <time>2022-08-13T07:15:24Z</time>
      </trkpt>
      <trkpt lat="43.76448" lon="5.61677">
        <ele>431</ele>
        <time>2022-08-13T07:15:26Z</time>
      </trkpt>
      <trkpt lat="43.76443" lon="5.6167">
        <ele>430</ele>
        <time>2022-08-13T07:15:28Z</time>
      </trkpt>
      <trkpt lat="43.7644" lon="5.61661">
        <ele>430</ele>
        <time>2022-08-13T07:15:30Z</time>
      </trkpt>
      <trkpt lat="43.7644" lon="5.6165">
        <ele>429</ele>
        <time>2022-08-13T07:15:32Z</time>
      </trkpt>
      <trkpt lat="43.7644" lon="5.61638">
        <ele>427</ele>
        <time>2022-08-13T07:15:34Z</time>
      </trkpt>
      <trkpt lat="43.76442" lon="5.61629">
        <ele>426</ele>
        <time>2022-08-13T07:15:36Z</time>
      </trkpt>
      <trkpt lat="43.76442" lon="5.6162">
        <ele>426</ele>
        <time>2022-08-13T07:15:38Z</time>
      </trkpt>
      <trkpt lat="43.7644" lon="5.61609">
        <ele>425</ele>
        <time>2022-08-13T07:15:40Z</time>
      </trkpt>
      <trkpt lat="43.7644" lon="5.61599">
        <ele>424</ele>
        <time>2022-08-13T07:15:42Z</time>
      </trkpt>
      <trkpt lat="43.76437" lon="5.61592">
        <ele>423</ele>
        <time>2022-08-13T07:15:44Z</time>
      </trkpt>
      <trkpt lat="43.76434" lon="5.61584">
        <ele>422</ele>
        <time>2022-08-13T07:15:46Z</time>
      </trkpt>
      <trkpt lat="43.76431" lon="5.61574">
        <ele>421</ele>
        <time>2022-08-13T07:15:48Z</time>
      </trkpt>
      <trkpt lat="43.7643" lon="5.61563">
        <ele>420</ele>
        <time>2022-08-13T07:15:50Z</time>
      </trkpt>
      <trkpt lat="43.7643" lon="5.61552">
        <ele>419</ele>
        <time>2022-08-13T07:15:52Z</time>
      </trkpt>
      <trkpt lat="43.76429" lon="5.61542">
        <ele>419</ele>
        <time>2022-08-13T07:15:54Z</time>
      </trkpt>
      <trkpt lat="43.76428" lon="5.61533">
        <ele>418</ele>
        <time>2022-08-13T07:15:56Z</time>
      </trkpt>
      <trkpt lat="43.76425" lon="5.61524">
        <ele>418</ele>
        <time>2022-08-13T07:15:58Z</time>
      </trkpt>
      <trkpt lat="43.76422" lon="5.61515">
        <ele>419</ele>
        <time>2022-08-13T07:16:00Z</time>
      </trkpt>
      <trkpt lat="43.76419" lon="5.61505">
        <ele>420</ele>
        <time>2022-08-13T07:16:02Z</time>
      </trkpt>
      <trkpt lat="43.76417" lon="5.61495">
        <ele>421</ele>
        <time>2022-08-13T07:16:04Z</time>
      </trkpt>
      <trkpt lat="43.76416" lon="5.61488">
        <ele>421</ele>
        <time>2022-08-13T07:16:06Z</time>
      </trkpt>
      <trkpt lat="43.76418" lon="5.61481">
        <ele>421</ele>
        <time>2022-08-13T07:16:08Z</time>
      </trkpt>
      <trkpt lat="43.76423" lon="5.61472">
        <ele>421</ele>
        <time>2022-08-13T07:16:10Z</time>
      </trkpt>
      <trkpt lat="43.76426" lon="5.61465">
        <ele>421</ele>
        <time>2022-08-13T07:16:12Z</time>
      </trkpt>
      <trkpt lat="43.76429" lon="5.61459">
        <ele>420</ele>
        <time>2022-08-13T07:16:14Z</time>
      </trkpt>
      <trkpt lat="43.76434" lon="5.61454">
        <ele>420</ele>
        <time>2022-08-13T07:16:16Z</time>
      </trkpt>
      <trkpt lat="43.76436" lon="5.61448">
        <ele>420</ele>
        <time>2022-08-13T07:16:18Z</time>
      </trkpt>
      <trkpt lat="43.76433" lon="5.61439">
        <ele>420</ele>
        <time>2022-08-13T07:16:20Z</time>
      </trkpt>
      <trkpt lat="43.76428" lon="5.61431">
        <ele>418</ele>
        <time>2022-08-13T07:16:22Z</time>
      </trkpt>
      <trkpt lat="43.76419" lon="5.61422">
        <ele>418</ele>
        <time>2022-08-13T07:16:24Z</time>
      </trkpt>
      <trkpt lat="43.76416" lon="5.61416">
        <ele>417</ele>
        <time>2022-08-13T07:16:25Z</time>
      </trkpt>
      <trkpt lat="43.76413" lon="5.6141">
        <ele>416</ele>
        <time>2022-08-13T07:16:26Z</time>
      </trkpt>
      <trkpt lat="43.7641" lon="5.61403">
        <ele>415</ele>
        <time>2022-08-13T07:16:27Z</time>
      </trkpt>
      <trkpt lat="43.76408" lon="5.61396">
        <ele>415</ele>
        <time>2022-08-13T07:16:28Z</time>
      </trkpt>
      <trkpt lat="43.76408" lon="5.61388">
        <ele>414</ele>
        <time>2022-08-13T07:16:29Z</time>
      </trkpt>
      <trkpt lat="43.76408" lon="5.6138">
        <ele>413</ele>
        <time>2022-08-13T07:16:30Z</time>
      </trkpt>
      <trkpt lat="43.76407" lon="5.61373">
        <ele>413</ele>
        <time>2022-08-13T07:16:31Z</time>
      </trkpt>
      <trkpt lat="43.76406" lon="5.61365">
        <ele>412</ele>
        <time>2022-08-13T07:16:32Z</time>
      </trkpt>
      <trkpt lat="43.76406" lon="5.61358">
        <ele>412</ele>
        <time>2022-08-13T07:16:33Z</time>
      </trkpt>
      <trkpt lat="43.76405" lon="5.61351">
        <ele>412</ele>
        <time>2022-08-13T07:16:34Z</time>
      </trkpt>
      <trkpt lat="43.76405" lon="5.61342">
        <ele>412</ele>
        <time>2022-08-13T07:16:35Z</time>
      </trkpt>
      <trkpt lat="43.76405" lon="5.61334">
        <ele>412</ele>
        <time>2022-08-13T07:16:36Z</time>
      </trkpt>
      <trkpt lat="43.76405" lon="5.61326">
        <ele>412</ele>
        <time>2022-08-13T07:16:37Z</time>
      </trkpt>
      <trkpt lat="43.76406" lon="5.61317">
        <ele>412</ele>
        <time>2022-08-13T07:16:38Z</time>
      </trkpt>
      <trkpt lat="43.76407" lon="5.61309">
        <ele>412</ele>
        <time>2022-08-13T07:16:39Z</time>
      </trkpt>
      <trkpt lat="43.76408" lon="5.61303">
        <ele>412</ele>
        <time>2022-08-13T07:16:40Z</time>
      </trkpt>
      <trkpt lat="43.76408" lon="5.61295">
        <ele>412</ele>
        <time>2022-08-13T07:16:41Z</time>
      </trkpt>
      <trkpt lat="43.76407" lon="5.61287">
        <ele>412</ele>
        <time>2022-08-13T07:16:42Z</time>
      </trkpt>
      <trkpt lat="43.76408" lon="5.61279">
        <ele>411</ele>
        <time>2022-08-13T07:16:43Z</time>
      </trkpt>
      <trkpt lat="43.76407" lon="5.61273">
        <ele>411</ele>
        <time>2022-08-13T07:16:44Z</time>
      </trkpt>
      <trkpt lat="43.76407" lon="5.61264">
        <ele>410</ele>
        <time>2022-08-13T07:16:45Z</time>
      </trkpt>
      <trkpt lat="43.76405" lon="5.61254">
        <ele>410</ele>
        <time>2022-08-13T07:16:46Z</time>
      </trkpt>
      <trkpt lat="43.76406" lon="5.61246">
        <ele>410</ele>
        <time>2022-08-13T07:16:47Z</time>
      </trkpt>
      <trkpt lat="43.76409" lon="5.61238">
        <ele>409</ele>
        <time>2022-08-13T07:16:49Z</time>
      </trkpt>
      <trkpt lat="43.76407" lon="5.61228">
        <ele>410</ele>
        <time>2022-08-13T07:16:51Z</time>
      </trkpt>
      <trkpt lat="43.76411" lon="5.61217">
        <ele>411</ele>
        <time>2022-08-13T07:16:53Z</time>
      </trkpt>
      <trkpt lat="43.76412" lon="5.6121">
        <ele>412</ele>
        <time>2022-08-13T07:16:54Z</time>
      </trkpt>
      <trkpt lat="43.76412" lon="5.61203">
        <ele>412</ele>
        <time>2022-08-13T07:16:55Z</time>
      </trkpt>
      <trkpt lat="43.76411" lon="5.61192">
        <ele>413</ele>
        <time>2022-08-13T07:16:57Z</time>
      </trkpt>
      <trkpt lat="43.76413" lon="5.61185">
        <ele>413</ele>
        <time>2022-08-13T07:16:58Z</time>
      </trkpt>
      <trkpt lat="43.76413" lon="5.61177">
        <ele>413</ele>
        <time>2022-08-13T07:16:59Z</time>
      </trkpt>
      <trkpt lat="43.76412" lon="5.6117">
        <ele>413</ele>
        <time>2022-08-13T07:17:00Z</time>
      </trkpt>
      <trkpt lat="43.76411" lon="5.61157">
        <ele>413</ele>
        <time>2022-08-13T07:17:02Z</time>
      </trkpt>
      <trkpt lat="43.76411" lon="5.61144">
        <ele>413</ele>
        <time>2022-08-13T07:17:04Z</time>
      </trkpt>
      <trkpt lat="43.76408" lon="5.61132">
        <ele>413</ele>
        <time>2022-08-13T07:17:06Z</time>
      </trkpt>
      <trkpt lat="43.76405" lon="5.61125">
        <ele>412</ele>
        <time>2022-08-13T07:17:07Z</time>
      </trkpt>
      <trkpt lat="43.76402" lon="5.61121">
        <ele>411</ele>
        <time>2022-08-13T07:17:08Z</time>
      </trkpt>
      <trkpt lat="43.76397" lon="5.61118">
        <ele>410</ele>
        <time>2022-08-13T07:17:09Z</time>
      </trkpt>
      <trkpt lat="43.76392" lon="5.61117">
        <ele>409</ele>
        <time>2022-08-13T07:17:10Z</time>
      </trkpt>
      <trkpt lat="43.76383" lon="5.61114">
        <ele>409</ele>
        <time>2022-08-13T07:17:12Z</time>
      </trkpt>
      <trkpt lat="43.7638" lon="5.61107">
        <ele>409</ele>
        <time>2022-08-13T07:17:13Z</time>
      </trkpt>
      <trkpt lat="43.76378" lon="5.611">
        <ele>409</ele>
        <time>2022-08-13T07:17:14Z</time>
      </trkpt>
      <trkpt lat="43.76376" lon="5.61094">
        <ele>408</ele>
        <time>2022-08-13T07:17:15Z</time>
      </trkpt>
      <trkpt lat="43.76374" lon="5.61086">
        <ele>408</ele>
        <time>2022-08-13T07:17:16Z</time>
      </trkpt>
      <trkpt lat="43.76374" lon="5.6108">
        <ele>408</ele>
        <time>2022-08-13T07:17:17Z</time>
      </trkpt>
      <trkpt lat="43.76374" lon="5.61071">
        <ele>408</ele>
        <time>2022-08-13T07:17:18Z</time>
      </trkpt>
      <trkpt lat="43.76373" lon="5.61062">
        <ele>408</ele>
        <time>2022-08-13T07:17:19Z</time>
      </trkpt>
      <trkpt lat="43.76373" lon="5.61053">
        <ele>407</ele>
        <time>2022-08-13T07:17:20Z</time>
      </trkpt>
      <trkpt lat="43.76373" lon="5.61044">
        <ele>407</ele>
        <time>2022-08-13T07:17:21Z</time>
      </trkpt>
      <trkpt lat="43.76373" lon="5.61035">
        <ele>406</ele>
        <time>2022-08-13T07:17:22Z</time>
      </trkpt>
      <trkpt lat="43.76374" lon="5.61027">
        <ele>405</ele>
        <time>2022-08-13T07:17:23Z</time>
      </trkpt>
      <trkpt lat="43.76374" lon="5.61019">
        <ele>405</ele>
        <time>2022-08-13T07:17:24Z</time>
      </trkpt>
      <trkpt lat="43.76374" lon="5.61011">
        <ele>404</ele>
        <time>2022-08-13T07:17:25Z</time>
      </trkpt>
      <trkpt lat="43.76375" lon="5.61003">
        <ele>404</ele>
        <time>2022-08-13T07:17:26Z</time>
      </trkpt>
      <trkpt lat="43.76376" lon="5.60996">
        <ele>403</ele>
        <time>2022-08-13T07:17:27Z</time>
      </trkpt>
      <trkpt lat="43.76377" lon="5.60988">
        <ele>403</ele>
        <time>2022-08-13T07:17:28Z</time>
      </trkpt>
      <trkpt lat="43.76379" lon="5.6098">
        <ele>403</ele>
        <time>2022-08-13T07:17:29Z</time>
      </trkpt>
      <trkpt lat="43.76381" lon="5.60972">
        <ele>403</ele>
        <time>2022-08-13T07:17:30Z</time>
      </trkpt>
      <trkpt lat="43.76381" lon="5.60965">
        <ele>403</ele>
        <time>2022-08-13T07:17:31Z</time>
      </trkpt>
      <trkpt lat="43.76381" lon="5.60957">
        <ele>403</ele>
        <time>2022-08-13T07:17:32Z</time>
      </trkpt>
      <trkpt lat="43.76381" lon="5.60949">
        <ele>403</ele>
        <time>2022-08-13T07:17:33Z</time>
      </trkpt>
      <trkpt lat="43.76381" lon="5.60942">
        <ele>403</ele>
        <time>2022-08-13T07:17:34Z</time>
      </trkpt>
      <trkpt lat="43.76381" lon="5.60935">
        <ele>404</ele>
        <time>2022-08-13T07:17:35Z</time>
      </trkpt>
      <trkpt lat="43.76382" lon="5.60923">
        <ele>404</ele>
        <time>2022-08-13T07:17:37Z</time>
      </trkpt>
      <trkpt lat="43.76383" lon="5.60916">
        <ele>404</ele>
        <time>2022-08-13T07:17:38Z</time>
      </trkpt>
      <trkpt lat="43.76385" lon="5.60905">
        <ele>405</ele>
        <time>2022-08-13T07:17:40Z</time>
      </trkpt>
      <trkpt lat="43.76383" lon="5.60896">
        <ele>405</ele>
        <time>2022-08-13T07:17:42Z</time>
      </trkpt>
      <trkpt lat="43.76384" lon="5.60887">
        <ele>405</ele>
        <time>2022-08-13T07:17:44Z</time>
      </trkpt>
      <trkpt lat="43.76385" lon="5.60879">
        <ele>405</ele>
        <time>2022-08-13T07:17:47Z</time>
      </trkpt>
      <trkpt lat="43.76385" lon="5.6087">
        <ele>404</ele>
        <time>2022-08-13T07:17:51Z</time>
      </trkpt>
      <trkpt lat="43.76386" lon="5.60863">
        <ele>404</ele>
        <time>2022-08-13T07:17:54Z</time>
      </trkpt>
      <trkpt lat="43.76386" lon="5.60856">
        <ele>403</ele>
        <time>2022-08-13T07:17:57Z</time>
      </trkpt>
      <trkpt lat="43.76387" lon="5.60846">
        <ele>403</ele>
        <time>2022-08-13T07:18:03Z</time>
      </trkpt>
      <trkpt lat="43.76388" lon="5.60837">
        <ele>402</ele>
        <time>2022-08-13T07:18:05Z</time>
      </trkpt>
      <trkpt lat="43.76388" lon="5.60829">
        <ele>402</ele>
        <time>2022-08-13T07:18:07Z</time>
      </trkpt>
      <trkpt lat="43.76387" lon="5.60821">
        <ele>401</ele>
        <time>2022-08-13T07:18:09Z</time>
      </trkpt>
      <trkpt lat="43.76386" lon="5.60812">
        <ele>400</ele>
        <time>2022-08-13T07:18:11Z</time>
      </trkpt>
      <trkpt lat="43.76387" lon="5.60802">
        <ele>400</ele>
        <time>2022-08-13T07:18:13Z</time>
      </trkpt>
      <trkpt lat="43.7639" lon="5.60795">
        <ele>401</ele>
        <time>2022-08-13T07:18:15Z</time>
      </trkpt>
      <trkpt lat="43.76391" lon="5.60785">
        <ele>401</ele>
        <time>2022-08-13T07:18:17Z</time>
      </trkpt>
      <trkpt lat="43.76388" lon="5.60775">
        <ele>402</ele>
        <time>2022-08-13T07:18:19Z</time>
      </trkpt>
      <trkpt lat="43.76385" lon="5.60765">
        <ele>402</ele>
        <time>2022-08-13T07:18:21Z</time>
      </trkpt>
      <trkpt lat="43.76383" lon="5.60749">
        <ele>402</ele>
        <time>2022-08-13T07:18:23Z</time>
      </trkpt>
      <trkpt lat="43.76381" lon="5.60743">
        <ele>402</ele>
        <time>2022-08-13T07:18:24Z</time>
      </trkpt>
      <trkpt lat="43.76379" lon="5.60736">
        <ele>402</ele>
        <time>2022-08-13T07:18:25Z</time>
      </trkpt>
      <trkpt lat="43.76378" lon="5.60728">
        <ele>402</ele>
        <time>2022-08-13T07:18:26Z</time>
      </trkpt>
      <trkpt lat="43.76377" lon="5.60722">
        <ele>402</ele>
        <time>2022-08-13T07:18:27Z</time>
      </trkpt>
      <trkpt lat="43.76376" lon="5.60713">
        <ele>402</ele>
        <time>2022-08-13T07:18:28Z</time>
      </trkpt>
      <trkpt lat="43.76375" lon="5.60707">
        <ele>402</ele>
        <time>2022-08-13T07:18:29Z</time>
      </trkpt>
      <trkpt lat="43.76373" lon="5.607">
        <ele>401</ele>
        <time>2022-08-13T07:18:30Z</time>
      </trkpt>
      <trkpt lat="43.76372" lon="5.60692">
        <ele>401</ele>
        <time>2022-08-13T07:18:31Z</time>
      </trkpt>
      <trkpt lat="43.76373" lon="5.60685">
        <ele>400</ele>
        <time>2022-08-13T07:18:32Z</time>
      </trkpt>
      <trkpt lat="43.76376" lon="5.60677">
        <ele>400</ele>
        <time>2022-08-13T07:18:33Z</time>
      </trkpt>
      <trkpt lat="43.76378" lon="5.60669">
        <ele>399</ele>
        <time>2022-08-13T07:18:34Z</time>
      </trkpt>
      <trkpt lat="43.76379" lon="5.60661">
        <ele>399</ele>
        <time>2022-08-13T07:18:35Z</time>
      </trkpt>
      <trkpt lat="43.76376" lon="5.60648">
        <ele>399</ele>
        <time>2022-08-13T07:18:37Z</time>
      </trkpt>
      <trkpt lat="43.76375" lon="5.60639">
        <ele>399</ele>
        <time>2022-08-13T07:18:38Z</time>
      </trkpt>
      <trkpt lat="43.76375" lon="5.6063">
        <ele>399</ele>
        <time>2022-08-13T07:18:39Z</time>
      </trkpt>
      <trkpt lat="43.76376" lon="5.60622">
        <ele>399</ele>
        <time>2022-08-13T07:18:40Z</time>
      </trkpt>
      <trkpt lat="43.76378" lon="5.60613">
        <ele>398</ele>
        <time>2022-08-13T07:18:41Z</time>
      </trkpt>
      <trkpt lat="43.76379" lon="5.60605">
        <ele>398</ele>
        <time>2022-08-13T07:18:42Z</time>
      </trkpt>
      <trkpt lat="43.76381" lon="5.60596">
        <ele>397</ele>
        <time>2022-08-13T07:18:43Z</time>
      </trkpt>
      <trkpt lat="43.76381" lon="5.60587">
        <ele>396</ele>
        <time>2022-08-13T07:18:44Z</time>
      </trkpt>
      <trkpt lat="43.7638" lon="5.60579">
        <ele>396</ele>
        <time>2022-08-13T07:18:45Z</time>
      </trkpt>
      <trkpt lat="43.76378" lon="5.60569">
        <ele>395</ele>
        <time>2022-08-13T07:18:46Z</time>
      </trkpt>
      <trkpt lat="43.76376" lon="5.60559">
        <ele>395</ele>
        <time>2022-08-13T07:18:47Z</time>
      </trkpt>
      <trkpt lat="43.76371" lon="5.60553">
        <ele>394</ele>
        <time>2022-08-13T07:18:48Z</time>
      </trkpt>
      <trkpt lat="43.76368" lon="5.60545">
        <ele>393</ele>
        <time>2022-08-13T07:18:49Z</time>
      </trkpt>
      <trkpt lat="43.76363" lon="5.60536">
        <ele>391</ele>
        <time>2022-08-13T07:18:50Z</time>
      </trkpt>
      <trkpt lat="43.76361" lon="5.60525">
        <ele>390</ele>
        <time>2022-08-13T07:18:51Z</time>
      </trkpt>
      <trkpt lat="43.76359" lon="5.60516">
        <ele>388</ele>
        <time>2022-08-13T07:18:52Z</time>
      </trkpt>
      <trkpt lat="43.7636" lon="5.60504">
        <ele>388</ele>
        <time>2022-08-13T07:18:53Z</time>
      </trkpt>
      <trkpt lat="43.76358" lon="5.60494">
        <ele>387</ele>
        <time>2022-08-13T07:18:54Z</time>
      </trkpt>
      <trkpt lat="43.76357" lon="5.60485">
        <ele>387</ele>
        <time>2022-08-13T07:18:55Z</time>
      </trkpt>
      <trkpt lat="43.76355" lon="5.60476">
        <ele>387</ele>
        <time>2022-08-13T07:18:56Z</time>
      </trkpt>
      <trkpt lat="43.76354" lon="5.60468">
        <ele>387</ele>
        <time>2022-08-13T07:18:57Z</time>
      </trkpt>
      <trkpt lat="43.76352" lon="5.6046">
        <ele>387</ele>
        <time>2022-08-13T07:18:58Z</time>
      </trkpt>
      <trkpt lat="43.76352" lon="5.60452">
        <ele>386</ele>
        <time>2022-08-13T07:18:59Z</time>
      </trkpt>
      <trkpt lat="43.76351" lon="5.60443">
        <ele>386</ele>
        <time>2022-08-13T07:19:00Z</time>
      </trkpt>
      <trkpt lat="43.7635" lon="5.60435">
        <ele>386</ele>
        <time>2022-08-13T07:19:01Z</time>
      </trkpt>
      <trkpt lat="43.76349" lon="5.60425">
        <ele>385</ele>
        <time>2022-08-13T07:19:02Z</time>
      </trkpt>
      <trkpt lat="43.76348" lon="5.60415">
        <ele>385</ele>
        <time>2022-08-13T07:19:03Z</time>
      </trkpt>
      <trkpt lat="43.76349" lon="5.60409">
        <ele>384</ele>
        <time>2022-08-13T07:19:04Z</time>
      </trkpt>
      <trkpt lat="43.7635" lon="5.60401">
        <ele>383</ele>
        <time>2022-08-13T07:19:05Z</time>
      </trkpt>
      <trkpt lat="43.7635" lon="5.60394">
        <ele>383</ele>
        <time>2022-08-13T07:19:06Z</time>
      </trkpt>
      <trkpt lat="43.76347" lon="5.60388">
        <ele>383</ele>
        <time>2022-08-13T07:19:07Z</time>
      </trkpt>
      <trkpt lat="43.76343" lon="5.60382">
        <ele>382</ele>
        <time>2022-08-13T07:19:08Z</time>
      </trkpt>
      <trkpt lat="43.76342" lon="5.60373">
        <ele>382</ele>
        <time>2022-08-13T07:19:09Z</time>
      </trkpt>
      <trkpt lat="43.76341" lon="5.60365">
        <ele>382</ele>
        <time>2022-08-13T07:19:10Z</time>
      </trkpt>
      <trkpt lat="43.76342" lon="5.60356">
        <ele>382</ele>
        <time>2022-08-13T07:19:11Z</time>
      </trkpt>
      <trkpt lat="43.76342" lon="5.60346">
        <ele>382</ele>
        <time>2022-08-13T07:19:12Z</time>
      </trkpt>
      <trkpt lat="43.76342" lon="5.60337">
        <ele>381</ele>
        <time>2022-08-13T07:19:13Z</time>
      </trkpt>
      <trkpt lat="43.76344" lon="5.60327">
        <ele>381</ele>
        <time>2022-08-13T07:19:14Z</time>
      </trkpt>
      <trkpt lat="43.76342" lon="5.60316">
        <ele>380</ele>
        <time>2022-08-13T07:19:15Z</time>
      </trkpt>
      <trkpt lat="43.76342" lon="5.60307">
        <ele>379</ele>
        <time>2022-08-13T07:19:16Z</time>
      </trkpt>
      <trkpt lat="43.76341" lon="5.60295">
        <ele>379</ele>
        <time>2022-08-13T07:19:17Z</time>
      </trkpt>
      <trkpt lat="43.7634" lon="5.60285">
        <ele>378</ele>
        <time>2022-08-13T07:19:18Z</time>
      </trkpt>
      <trkpt lat="43.76339" lon="5.60276">
        <ele>377</ele>
        <time>2022-08-13T07:19:19Z</time>
      </trkpt>
      <trkpt lat="43.76338" lon="5.60265">
        <ele>377</ele>
        <time>2022-08-13T07:19:20Z</time>
      </trkpt>
      <trkpt lat="43.76338" lon="5.60254">
        <ele>377</ele>
        <time>2022-08-13T07:19:21Z</time>
      </trkpt>
      <trkpt lat="43.76337" lon="5.60243">
        <ele>376</ele>
        <time>2022-08-13T07:19:22Z</time>
      </trkpt>
      <trkpt lat="43.76335" lon="5.60234">
        <ele>377</ele>
        <time>2022-08-13T07:19:23Z</time>
      </trkpt>
      <trkpt lat="43.76332" lon="5.60226">
        <ele>377</ele>
        <time>2022-08-13T07:19:24Z</time>
      </trkpt>
      <trkpt lat="43.76331" lon="5.60218">
        <ele>376</ele>
        <time>2022-08-13T07:19:25Z</time>
      </trkpt>
      <trkpt lat="43.76333" lon="5.6021">
        <ele>374</ele>
        <time>2022-08-13T07:19:26Z</time>
      </trkpt>
      <trkpt lat="43.76333" lon="5.60203">
        <ele>373</ele>
        <time>2022-08-13T07:19:27Z</time>
      </trkpt>
      <trkpt lat="43.7633" lon="5.60195">
        <ele>371</ele>
        <time>2022-08-13T07:19:28Z</time>
      </trkpt>
      <trkpt lat="43.76326" lon="5.60188">
        <ele>370</ele>
        <time>2022-08-13T07:19:29Z</time>
      </trkpt>
      <trkpt lat="43.76322" lon="5.6018">
        <ele>370</ele>
        <time>2022-08-13T07:19:30Z</time>
      </trkpt>
      <trkpt lat="43.7632" lon="5.60171">
        <ele>369</ele>
        <time>2022-08-13T07:19:31Z</time>
      </trkpt>
      <trkpt lat="43.7632" lon="5.60161">
        <ele>369</ele>
        <time>2022-08-13T07:19:32Z</time>
      </trkpt>
      <trkpt lat="43.76322" lon="5.60153">
        <ele>369</ele>
        <time>2022-08-13T07:19:33Z</time>
      </trkpt>
      <trkpt lat="43.76321" lon="5.60144">
        <ele>369</ele>
        <time>2022-08-13T07:19:34Z</time>
      </trkpt>
      <trkpt lat="43.76322" lon="5.60136">
        <ele>369</ele>
        <time>2022-08-13T07:19:35Z</time>
      </trkpt>
      <trkpt lat="43.76323" lon="5.60127">
        <ele>369</ele>
        <time>2022-08-13T07:19:36Z</time>
      </trkpt>
      <trkpt lat="43.76325" lon="5.60117">
        <ele>369</ele>
        <time>2022-08-13T07:19:37Z</time>
      </trkpt>
      <trkpt lat="43.76321" lon="5.60106">
        <ele>368</ele>
        <time>2022-08-13T07:19:38Z</time>
      </trkpt>
      <trkpt lat="43.76321" lon="5.60095">
        <ele>368</ele>
        <time>2022-08-13T07:19:39Z</time>
      </trkpt>
      <trkpt lat="43.76322" lon="5.60083">
        <ele>368</ele>
        <time>2022-08-13T07:19:40Z</time>
      </trkpt>
      <trkpt lat="43.76325" lon="5.60072">
        <ele>369</ele>
        <time>2022-08-13T07:19:41Z</time>
      </trkpt>
      <trkpt lat="43.76328" lon="5.60062">
        <ele>369</ele>
        <time>2022-08-13T07:19:42Z</time>
      </trkpt>
      <trkpt lat="43.76331" lon="5.60053">
        <ele>369</ele>
        <time>2022-08-13T07:19:43Z</time>
      </trkpt>
      <trkpt lat="43.76331" lon="5.60046">
        <ele>369</ele>
        <time>2022-08-13T07:19:44Z</time>
      </trkpt>
      <trkpt lat="43.76331" lon="5.60037">
        <ele>368</ele>
        <time>2022-08-13T07:19:45Z</time>
      </trkpt>
      <trkpt lat="43.7633" lon="5.6003">
        <ele>368</ele>
        <time>2022-08-13T07:19:46Z</time>
      </trkpt>
      <trkpt lat="43.76331" lon="5.60022">
        <ele>368</ele>
        <time>2022-08-13T07:19:47Z</time>
      </trkpt>
      <trkpt lat="43.76331" lon="5.60015">
        <ele>367</ele>
        <time>2022-08-13T07:19:48Z</time>
      </trkpt>
      <trkpt lat="43.76331" lon="5.60009">
        <ele>367</ele>
        <time>2022-08-13T07:19:49Z</time>
      </trkpt>
      <trkpt lat="43.76331" lon="5.60001">
        <ele>366</ele>
        <time>2022-08-13T07:19:50Z</time>
      </trkpt>
      <trkpt lat="43.7633" lon="5.59993">
        <ele>365</ele>
        <time>2022-08-13T07:19:51Z</time>
      </trkpt>
      <trkpt lat="43.76331" lon="5.59985">
        <ele>364</ele>
        <time>2022-08-13T07:19:52Z</time>
      </trkpt>
      <trkpt lat="43.76332" lon="5.59975">
        <ele>363</ele>
        <time>2022-08-13T07:19:53Z</time>
      </trkpt>
      <trkpt lat="43.76333" lon="5.59966">
        <ele>362</ele>
        <time>2022-08-13T07:19:54Z</time>
      </trkpt>
      <trkpt lat="43.76334" lon="5.59956">
        <ele>362</ele>
        <time>2022-08-13T07:19:55Z</time>
      </trkpt>
      <trkpt lat="43.76334" lon="5.59946">
        <ele>363</ele>
        <time>2022-08-13T07:19:56Z</time>
      </trkpt>
      <trkpt lat="43.76336" lon="5.59935">
        <ele>363</ele>
        <time>2022-08-13T07:19:57Z</time>
      </trkpt>
      <trkpt lat="43.76336" lon="5.59927">
        <ele>364</ele>
        <time>2022-08-13T07:19:58Z</time>
      </trkpt>
      <trkpt lat="43.76336" lon="5.59917">
        <ele>364</ele>
        <time>2022-08-13T07:19:59Z</time>
      </trkpt>
      <trkpt lat="43.76338" lon="5.59908">
        <ele>364</ele>
        <time>2022-08-13T07:20:00Z</time>
      </trkpt>
      <trkpt lat="43.76339" lon="5.59898">
        <ele>365</ele>
        <time>2022-08-13T07:20:01Z</time>
      </trkpt>
      <trkpt lat="43.7634" lon="5.59888">
        <ele>365</ele>
        <time>2022-08-13T07:20:02Z</time>
      </trkpt>
      <trkpt lat="43.76341" lon="5.5988">
        <ele>366</ele>
        <time>2022-08-13T07:20:03Z</time>
      </trkpt>
      <trkpt lat="43.76341" lon="5.59871">
        <ele>366</ele>
        <time>2022-08-13T07:20:04Z</time>
      </trkpt>
      <trkpt lat="43.76343" lon="5.59861">
        <ele>366</ele>
        <time>2022-08-13T07:20:05Z</time>
      </trkpt>
      <trkpt lat="43.76345" lon="5.59853">
        <ele>366</ele>
        <time>2022-08-13T07:20:06Z</time>
      </trkpt>
      <trkpt lat="43.7635" lon="5.59846">
        <ele>366</ele>
        <time>2022-08-13T07:20:07Z</time>
      </trkpt>
      <trkpt lat="43.76354" lon="5.59839">
        <ele>366</ele>
        <time>2022-08-13T07:20:08Z</time>
      </trkpt>
      <trkpt lat="43.76357" lon="5.59833">
        <ele>366</ele>
        <time>2022-08-13T07:20:09Z</time>
      </trkpt>
      <trkpt lat="43.76359" lon="5.59823">
        <ele>367</ele>
        <time>2022-08-13T07:20:10Z</time>
      </trkpt>
      <trkpt lat="43.76362" lon="5.59817">
        <ele>367</ele>
        <time>2022-08-13T07:20:11Z</time>
      </trkpt>
      <trkpt lat="43.76364" lon="5.59811">
        <ele>368</ele>
        <time>2022-08-13T07:20:12Z</time>
      </trkpt>
      <trkpt lat="43.76367" lon="5.59804">
        <ele>368</ele>
        <time>2022-08-13T07:20:13Z</time>
      </trkpt>
      <trkpt lat="43.7637" lon="5.59798">
        <ele>368</ele>
        <time>2022-08-13T07:20:15Z</time>
      </trkpt>
      <trkpt lat="43.7637" lon="5.59791">
        <ele>368</ele>
        <time>2022-08-13T07:20:19Z</time>
      </trkpt>
      <trkpt lat="43.7637" lon="5.5979">
        <ele>368</ele>
        <time>2022-08-13T07:20:46Z</time>
      </trkpt>
      <trkpt lat="43.76364" lon="5.59736">
        <ele>370</ele>
        <time>2022-08-13T07:23:52Z</time>
      </trkpt>
      <trkpt lat="43.76361" lon="5.59725">
        <ele>370</ele>
        <time>2022-08-13T07:23:54Z</time>
      </trkpt>
      <trkpt lat="43.76357" lon="5.59715">
        <ele>369</ele>
        <time>2022-08-13T07:23:56Z</time>
      </trkpt>
      <trkpt lat="43.76347" lon="5.5971">
        <ele>367</ele>
        <time>2022-08-13T07:23:58Z</time>
      </trkpt>
      <trkpt lat="43.76342" lon="5.59706">
        <ele>366</ele>
        <time>2022-08-13T07:23:59Z</time>
      </trkpt>
      <trkpt lat="43.76338" lon="5.59702">
        <ele>365</ele>
        <time>2022-08-13T07:24:00Z</time>
      </trkpt>
      <trkpt lat="43.76332" lon="5.59704">
        <ele>364</ele>
        <time>2022-08-13T07:24:02Z</time>
      </trkpt>
      <trkpt lat="43.76325" lon="5.59705">
        <ele>363</ele>
        <time>2022-08-13T07:24:04Z</time>
      </trkpt>
      <trkpt lat="43.76319" lon="5.59706">
        <ele>362</ele>
        <time>2022-08-13T07:24:06Z</time>
      </trkpt>
      <trkpt lat="43.76312" lon="5.59704">
        <ele>362</ele>
        <time>2022-08-13T07:24:08Z</time>
      </trkpt>
      <trkpt lat="43.76307" lon="5.59704">
        <ele>361</ele>
        <time>2022-08-13T07:24:09Z</time>
      </trkpt>
      <trkpt lat="43.763" lon="5.59707">
        <ele>361</ele>
        <time>2022-08-13T07:24:11Z</time>
      </trkpt>
      <trkpt lat="43.76295" lon="5.59708">
        <ele>361</ele>
        <time>2022-08-13T07:24:13Z</time>
      </trkpt>
      <trkpt lat="43.76289" lon="5.59707">
        <ele>360</ele>
        <time>2022-08-13T07:24:15Z</time>
      </trkpt>
      <trkpt lat="43.7628" lon="5.59706">
        <ele>360</ele>
        <time>2022-08-13T07:24:17Z</time>
      </trkpt>
      <trkpt lat="43.76272" lon="5.59708">
        <ele>360</ele>
        <time>2022-08-13T07:24:19Z</time>
      </trkpt>
      <trkpt lat="43.76267" lon="5.59709">
        <ele>360</ele>
        <time>2022-08-13T07:24:20Z</time>
      </trkpt>
      <trkpt lat="43.76262" lon="5.59709">
        <ele>360</ele>
        <time>2022-08-13T07:24:21Z</time>
      </trkpt>
      <trkpt lat="43.76255" lon="5.59708">
        <ele>359</ele>
        <time>2022-08-13T07:24:23Z</time>
      </trkpt>
      <trkpt lat="43.76248" lon="5.59711">
        <ele>359</ele>
        <time>2022-08-13T07:24:25Z</time>
      </trkpt>
      <trkpt lat="43.76242" lon="5.59717">
        <ele>359</ele>
        <time>2022-08-13T07:24:27Z</time>
      </trkpt>
      <trkpt lat="43.76239" lon="5.59723">
        <ele>358</ele>
        <time>2022-08-13T07:24:29Z</time>
      </trkpt>
      <trkpt lat="43.76233" lon="5.59718">
        <ele>358</ele>
        <time>2022-08-13T07:24:33Z</time>
      </trkpt>
      <trkpt lat="43.76229" lon="5.59713">
        <ele>357</ele>
        <time>2022-08-13T07:24:35Z</time>
      </trkpt>
      <trkpt lat="43.76226" lon="5.59706">
        <ele>356</ele>
        <time>2022-08-13T07:24:38Z</time>
      </trkpt>
      <trkpt lat="43.76226" lon="5.59699">
        <ele>354</ele>
        <time>2022-08-13T07:24:40Z</time>
      </trkpt>
      <trkpt lat="43.76229" lon="5.59694">
        <ele>352</ele>
        <time>2022-08-13T07:24:42Z</time>
      </trkpt>
      <trkpt lat="43.76232" lon="5.59683">
        <ele>350</ele>
        <time>2022-08-13T07:24:44Z</time>
      </trkpt>
      <trkpt lat="43.76234" lon="5.59676">
        <ele>348</ele>
        <time>2022-08-13T07:24:46Z</time>
      </trkpt>
      <trkpt lat="43.76238" lon="5.5967">
        <ele>346</ele>
        <time>2022-08-13T07:24:48Z</time>
      </trkpt>
      <trkpt lat="43.76236" lon="5.59661">
        <ele>345</ele>
        <time>2022-08-13T07:24:50Z</time>
      </trkpt>
      <trkpt lat="43.76235" lon="5.59653">
        <ele>345</ele>
        <time>2022-08-13T07:24:53Z</time>
      </trkpt>
      <trkpt lat="43.76236" lon="5.59644">
        <ele>345</ele>
        <time>2022-08-13T07:24:55Z</time>
      </trkpt>
      <trkpt lat="43.76238" lon="5.59638">
        <ele>344</ele>
        <time>2022-08-13T07:24:56Z</time>
      </trkpt>
      <trkpt lat="43.76241" lon="5.5963">
        <ele>343</ele>
        <time>2022-08-13T07:24:58Z</time>
      </trkpt>
      <trkpt lat="43.76247" lon="5.59624">
        <ele>342</ele>
        <time>2022-08-13T07:25:00Z</time>
      </trkpt>
      <trkpt lat="43.7625" lon="5.59618">
        <ele>340</ele>
        <time>2022-08-13T07:25:11Z</time>
      </trkpt>
      <trkpt lat="43.76251" lon="5.59611">
        <ele>339</ele>
        <time>2022-08-13T07:25:13Z</time>
      </trkpt>
      <trkpt lat="43.76254" lon="5.59604">
        <ele>338</ele>
        <time>2022-08-13T07:25:15Z</time>
      </trkpt>
      <trkpt lat="43.76257" lon="5.59599">
        <ele>337</ele>
        <time>2022-08-13T07:25:17Z</time>
      </trkpt>
      <trkpt lat="43.76262" lon="5.59595">
        <ele>336</ele>
        <time>2022-08-13T07:25:19Z</time>
      </trkpt>
      <trkpt lat="43.76262" lon="5.59589">
        <ele>335</ele>
        <time>2022-08-13T07:25:21Z</time>
      </trkpt>
      <trkpt lat="43.76261" lon="5.59582">
        <ele>334</ele>
        <time>2022-08-13T07:25:23Z</time>
      </trkpt>
      <trkpt lat="43.7626" lon="5.59576">
        <ele>333</ele>
        <time>2022-08-13T07:25:24Z</time>
      </trkpt>
      <trkpt lat="43.76254" lon="5.59575">
        <ele>331</ele>
        <time>2022-08-13T07:25:26Z</time>
      </trkpt>
      <trkpt lat="43.76249" lon="5.5957">
        <ele>330</ele>
        <time>2022-08-13T07:25:28Z</time>
      </trkpt>
      <trkpt lat="43.76244" lon="5.59566">
        <ele>328</ele>
        <time>2022-08-13T07:25:30Z</time>
      </trkpt>
      <trkpt lat="43.76237" lon="5.59561">
        <ele>327</ele>
        <time>2022-08-13T07:25:32Z</time>
      </trkpt>
      <trkpt lat="43.76232" lon="5.59562">
        <ele>326</ele>
        <time>2022-08-13T07:25:34Z</time>
      </trkpt>
      <trkpt lat="43.76228" lon="5.59558">
        <ele>326</ele>
        <time>2022-08-13T07:25:37Z</time>
      </trkpt>
      <trkpt lat="43.76226" lon="5.59553">
        <ele>325</ele>
        <time>2022-08-13T07:25:44Z</time>
      </trkpt>
      <trkpt lat="43.76225" lon="5.59546">
        <ele>324</ele>
        <time>2022-08-13T07:25:54Z</time>
      </trkpt>
      <trkpt lat="43.76228" lon="5.59541">
        <ele>324</ele>
        <time>2022-08-13T07:26:07Z</time>
      </trkpt>
      <trkpt lat="43.76231" lon="5.59535">
        <ele>324</ele>
        <time>2022-08-13T07:26:13Z</time>
      </trkpt>
      <trkpt lat="43.76234" lon="5.5953">
        <ele>324</ele>
        <time>2022-08-13T07:26:16Z</time>
      </trkpt>
      <trkpt lat="43.76238" lon="5.59523">
        <ele>324</ele>
        <time>2022-08-13T07:26:19Z</time>
      </trkpt>
      <trkpt lat="43.76242" lon="5.59518">
        <ele>325</ele>
        <time>2022-08-13T07:26:22Z</time>
      </trkpt>
      <trkpt lat="43.76245" lon="5.59514">
        <ele>325</ele>
        <time>2022-08-13T07:26:25Z</time>
      </trkpt>
      <trkpt lat="43.76249" lon="5.59509">
        <ele>326</ele>
        <time>2022-08-13T07:26:28Z</time>
      </trkpt>
      <trkpt lat="43.76254" lon="5.59503">
        <ele>326</ele>
        <time>2022-08-13T07:26:31Z</time>
      </trkpt>
      <trkpt lat="43.76257" lon="5.59498">
        <ele>326</ele>
        <time>2022-08-13T07:26:34Z</time>
      </trkpt>
      <trkpt lat="43.7626" lon="5.59492">
        <ele>327</ele>
        <time>2022-08-13T07:26:36Z</time>
      </trkpt>
      <trkpt lat="43.76262" lon="5.59486">
        <ele>328</ele>
        <time>2022-08-13T07:26:39Z</time>
      </trkpt>
      <trkpt lat="43.76265" lon="5.5948">
        <ele>328</ele>
        <time>2022-08-13T07:26:42Z</time>
      </trkpt>
      <trkpt lat="43.76268" lon="5.59474">
        <ele>330</ele>
        <time>2022-08-13T07:26:46Z</time>
      </trkpt>
      <trkpt lat="43.7627" lon="5.59468">
        <ele>332</ele>
        <time>2022-08-13T07:26:49Z</time>
      </trkpt>
      <trkpt lat="43.76271" lon="5.59461">
        <ele>333</ele>
        <time>2022-08-13T07:26:52Z</time>
      </trkpt>
      <trkpt lat="43.76271" lon="5.59453">
        <ele>334</ele>
        <time>2022-08-13T07:26:55Z</time>
      </trkpt>
      <trkpt lat="43.76273" lon="5.59447">
        <ele>335</ele>
        <time>2022-08-13T07:26:59Z</time>
      </trkpt>
      <trkpt lat="43.76277" lon="5.5944">
        <ele>336</ele>
        <time>2022-08-13T07:27:02Z</time>
      </trkpt>
      <trkpt lat="43.76281" lon="5.59434">
        <ele>337</ele>
        <time>2022-08-13T07:27:05Z</time>
      </trkpt>
      <trkpt lat="43.76284" lon="5.59427">
        <ele>339</ele>
        <time>2022-08-13T07:27:08Z</time>
      </trkpt>
      <trkpt lat="43.76288" lon="5.5942">
        <ele>340</ele>
        <time>2022-08-13T07:27:11Z</time>
      </trkpt>
      <trkpt lat="43.76289" lon="5.59413">
        <ele>341</ele>
        <time>2022-08-13T07:27:13Z</time>
      </trkpt>
      <trkpt lat="43.76291" lon="5.59405">
        <ele>342</ele>
        <time>2022-08-13T07:27:16Z</time>
      </trkpt>
      <trkpt lat="43.76292" lon="5.59398">
        <ele>343</ele>
        <time>2022-08-13T07:27:18Z</time>
      </trkpt>
      <trkpt lat="43.76295" lon="5.59391">
        <ele>343</ele>
        <time>2022-08-13T07:27:20Z</time>
      </trkpt>
      <trkpt lat="43.76298" lon="5.59384">
        <ele>344</ele>
        <time>2022-08-13T07:27:22Z</time>
      </trkpt>
      <trkpt lat="43.76301" lon="5.59376">
        <ele>344</ele>
        <time>2022-08-13T07:27:25Z</time>
      </trkpt>
      <trkpt lat="43.76304" lon="5.59371">
        <ele>344</ele>
        <time>2022-08-13T07:27:27Z</time>
      </trkpt>
      <trkpt lat="43.76308" lon="5.59363">
        <ele>344</ele>
        <time>2022-08-13T07:27:30Z</time>
      </trkpt>
      <trkpt lat="43.76311" lon="5.59356">
        <ele>343</ele>
        <time>2022-08-13T07:27:32Z</time>
      </trkpt>
      <trkpt lat="43.76313" lon="5.59349">
        <ele>342</ele>
        <time>2022-08-13T07:27:34Z</time>
      </trkpt>
      <trkpt lat="43.76317" lon="5.59343">
        <ele>341</ele>
        <time>2022-08-13T07:27:36Z</time>
      </trkpt>
      <trkpt lat="43.76321" lon="5.59336">
        <ele>341</ele>
        <time>2022-08-13T07:27:38Z</time>
      </trkpt>
      <trkpt lat="43.76326" lon="5.59326">
        <ele>341</ele>
        <time>2022-08-13T07:27:40Z</time>
      </trkpt>
      <trkpt lat="43.76328" lon="5.5932">
        <ele>341</ele>
        <time>2022-08-13T07:27:41Z</time>
      </trkpt>
      <trkpt lat="43.76332" lon="5.5931">
        <ele>341</ele>
        <time>2022-08-13T07:27:43Z</time>
      </trkpt>
      <trkpt lat="43.76334" lon="5.59301">
        <ele>340</ele>
        <time>2022-08-13T07:27:45Z</time>
      </trkpt>
      <trkpt lat="43.76336" lon="5.59292">
        <ele>339</ele>
        <time>2022-08-13T07:27:47Z</time>
      </trkpt>
      <trkpt lat="43.76337" lon="5.59284">
        <ele>339</ele>
        <time>2022-08-13T07:27:49Z</time>
      </trkpt>
      <trkpt lat="43.7634" lon="5.59273">
        <ele>339</ele>
        <time>2022-08-13T07:27:51Z</time>
      </trkpt>
      <trkpt lat="43.76344" lon="5.59264">
        <ele>340</ele>
        <time>2022-08-13T07:27:53Z</time>
      </trkpt>
      <trkpt lat="43.76347" lon="5.59254">
        <ele>340</ele>
        <time>2022-08-13T07:27:55Z</time>
      </trkpt>
      <trkpt lat="43.7635" lon="5.59246">
        <ele>341</ele>
        <time>2022-08-13T07:27:57Z</time>
      </trkpt>
      <trkpt lat="43.76353" lon="5.59238">
        <ele>341</ele>
        <time>2022-08-13T07:27:59Z</time>
      </trkpt>
      <trkpt lat="43.76354" lon="5.5923">
        <ele>342</ele>
        <time>2022-08-13T07:28:01Z</time>
      </trkpt>
      <trkpt lat="43.76354" lon="5.59223">
        <ele>341</ele>
        <time>2022-08-13T07:28:03Z</time>
      </trkpt>
      <trkpt lat="43.76353" lon="5.59216">
        <ele>341</ele>
        <time>2022-08-13T07:28:05Z</time>
      </trkpt>
      <trkpt lat="43.76352" lon="5.59209">
        <ele>341</ele>
        <time>2022-08-13T07:28:07Z</time>
      </trkpt>
      <trkpt lat="43.76351" lon="5.59202">
        <ele>341</ele>
        <time>2022-08-13T07:28:09Z</time>
      </trkpt>
      <trkpt lat="43.7635" lon="5.59194">
        <ele>340</ele>
        <time>2022-08-13T07:28:11Z</time>
      </trkpt>
      <trkpt lat="43.76349" lon="5.59187">
        <ele>341</ele>
        <time>2022-08-13T07:28:13Z</time>
      </trkpt>
      <trkpt lat="43.76346" lon="5.59179">
        <ele>341</ele>
        <time>2022-08-13T07:28:15Z</time>
      </trkpt>
      <trkpt lat="43.76344" lon="5.59172">
        <ele>341</ele>
        <time>2022-08-13T07:28:17Z</time>
      </trkpt>
      <trkpt lat="43.7634" lon="5.59168">
        <ele>341</ele>
        <time>2022-08-13T07:28:46Z</time>
      </trkpt>
      <trkpt lat="43.76337" lon="5.59162">
        <ele>341</ele>
        <time>2022-08-13T07:28:48Z</time>
      </trkpt>
      <trkpt lat="43.76334" lon="5.59154">
        <ele>340</ele>
        <time>2022-08-13T07:28:50Z</time>
      </trkpt>
      <trkpt lat="43.76328" lon="5.59144">
        <ele>340</ele>
        <time>2022-08-13T07:28:52Z</time>
      </trkpt>
      <trkpt lat="43.76323" lon="5.59138">
        <ele>340</ele>
        <time>2022-08-13T07:28:54Z</time>
      </trkpt>
      <trkpt lat="43.76319" lon="5.59132">
        <ele>340</ele>
        <time>2022-08-13T07:28:57Z</time>
      </trkpt>
      <trkpt lat="43.76322" lon="5.59126">
        <ele>340</ele>
        <time>2022-08-13T07:29:00Z</time>
      </trkpt>
      <trkpt lat="43.7633" lon="5.5913">
        <ele>340</ele>
        <time>2022-08-13T07:29:02Z</time>
      </trkpt>
      <trkpt lat="43.76336" lon="5.59134">
        <ele>340</ele>
        <time>2022-08-13T07:29:03Z</time>
      </trkpt>
      <trkpt lat="43.76341" lon="5.59136">
        <ele>340</ele>
        <time>2022-08-13T07:29:04Z</time>
      </trkpt>
      <trkpt lat="43.76347" lon="5.59141">
        <ele>339</ele>
        <time>2022-08-13T07:29:05Z</time>
      </trkpt>
      <trkpt lat="43.76354" lon="5.59145">
        <ele>338</ele>
        <time>2022-08-13T07:29:06Z</time>
      </trkpt>
      <trkpt lat="43.76361" lon="5.5915">
        <ele>337</ele>
        <time>2022-08-13T07:29:07Z</time>
      </trkpt>
      <trkpt lat="43.76369" lon="5.59155">
        <ele>336</ele>
        <time>2022-08-13T07:29:08Z</time>
      </trkpt>
      <trkpt lat="43.76378" lon="5.59161">
        <ele>335</ele>
        <time>2022-08-13T07:29:09Z</time>
      </trkpt>
      <trkpt lat="43.76386" lon="5.59167">
        <ele>334</ele>
        <time>2022-08-13T07:29:10Z</time>
      </trkpt>
      <trkpt lat="43.76392" lon="5.5917">
        <ele>332</ele>
        <time>2022-08-13T07:29:11Z</time>
      </trkpt>
      <trkpt lat="43.76397" lon="5.59172">
        <ele>330</ele>
        <time>2022-08-13T07:29:12Z</time>
      </trkpt>
      <trkpt lat="43.76405" lon="5.59167">
        <ele>328</ele>
        <time>2022-08-13T07:29:14Z</time>
      </trkpt>
      <trkpt lat="43.76409" lon="5.59161">
        <ele>326</ele>
        <time>2022-08-13T07:29:15Z</time>
      </trkpt>
      <trkpt lat="43.76414" lon="5.59153">
        <ele>324</ele>
        <time>2022-08-13T07:29:16Z</time>
      </trkpt>
      <trkpt lat="43.76417" lon="5.59144">
        <ele>323</ele>
        <time>2022-08-13T07:29:17Z</time>
      </trkpt>
      <trkpt lat="43.76421" lon="5.59133">
        <ele>321</ele>
        <time>2022-08-13T07:29:18Z</time>
      </trkpt>
      <trkpt lat="43.76426" lon="5.59124">
        <ele>320</ele>
        <time>2022-08-13T07:29:19Z</time>
      </trkpt>
      <trkpt lat="43.76432" lon="5.59113">
        <ele>320</ele>
        <time>2022-08-13T07:29:20Z</time>
      </trkpt>
      <trkpt lat="43.76437" lon="5.59102">
        <ele>319</ele>
        <time>2022-08-13T07:29:21Z</time>
      </trkpt>
      <trkpt lat="43.7644" lon="5.59094">
        <ele>318</ele>
        <time>2022-08-13T07:29:22Z</time>
      </trkpt>
      <trkpt lat="43.76444" lon="5.5909">
        <ele>318</ele>
        <time>2022-08-13T07:29:24Z</time>
      </trkpt>
      <trkpt lat="43.76447" lon="5.59083">
        <ele>317</ele>
        <time>2022-08-13T07:29:26Z</time>
      </trkpt>
      <trkpt lat="43.76444" lon="5.59075">
        <ele>317</ele>
        <time>2022-08-13T07:29:29Z</time>
      </trkpt>
      <trkpt lat="43.76442" lon="5.59068">
        <ele>316</ele>
        <time>2022-08-13T07:29:31Z</time>
      </trkpt>
      <trkpt lat="43.76442" lon="5.59061">
        <ele>316</ele>
        <time>2022-08-13T07:29:34Z</time>
      </trkpt>
      <trkpt lat="43.76441" lon="5.59053">
        <ele>316</ele>
        <time>2022-08-13T07:29:36Z</time>
      </trkpt>
      <trkpt lat="43.76439" lon="5.59047">
        <ele>315</ele>
        <time>2022-08-13T07:29:38Z</time>
      </trkpt>
      <trkpt lat="43.76438" lon="5.59039">
        <ele>315</ele>
        <time>2022-08-13T07:29:41Z</time>
      </trkpt>
      <trkpt lat="43.76437" lon="5.59032">
        <ele>314</ele>
        <time>2022-08-13T07:29:44Z</time>
      </trkpt>
      <trkpt lat="43.76439" lon="5.59025">
        <ele>314</ele>
        <time>2022-08-13T07:29:46Z</time>
      </trkpt>
      <trkpt lat="43.76439" lon="5.59017">
        <ele>314</ele>
        <time>2022-08-13T07:29:48Z</time>
      </trkpt>
      <trkpt lat="43.76439" lon="5.59005">
        <ele>314</ele>
        <time>2022-08-13T07:29:50Z</time>
      </trkpt>
      <trkpt lat="43.7644" lon="5.58996">
        <ele>313</ele>
        <time>2022-08-13T07:29:52Z</time>
      </trkpt>
      <trkpt lat="43.76442" lon="5.58989">
        <ele>312</ele>
        <time>2022-08-13T07:29:54Z</time>
      </trkpt>
      <trkpt lat="43.76445" lon="5.58982">
        <ele>310</ele>
        <time>2022-08-13T07:29:57Z</time>
      </trkpt>
      <trkpt lat="43.76444" lon="5.58974">
        <ele>309</ele>
        <time>2022-08-13T07:29:59Z</time>
      </trkpt>
      <trkpt lat="43.76442" lon="5.58964">
        <ele>308</ele>
        <time>2022-08-13T07:30:01Z</time>
      </trkpt>
      <trkpt lat="43.76442" lon="5.58956">
        <ele>308</ele>
        <time>2022-08-13T07:30:03Z</time>
      </trkpt>
      <trkpt lat="43.76444" lon="5.58945">
        <ele>307</ele>
        <time>2022-08-13T07:30:05Z</time>
      </trkpt>
      <trkpt lat="43.76444" lon="5.58938">
        <ele>307</ele>
        <time>2022-08-13T07:30:06Z</time>
      </trkpt>
      <trkpt lat="43.76444" lon="5.58932">
        <ele>307</ele>
        <time>2022-08-13T07:30:07Z</time>
      </trkpt>
      <trkpt lat="43.7644" lon="5.58921">
        <ele>308</ele>
        <time>2022-08-13T07:30:09Z</time>
      </trkpt>
      <trkpt lat="43.76439" lon="5.58912">
        <ele>308</ele>
        <time>2022-08-13T07:30:11Z</time>
      </trkpt>
      <trkpt lat="43.76438" lon="5.589">
        <ele>308</ele>
        <time>2022-08-13T07:30:13Z</time>
      </trkpt>
      <trkpt lat="43.76438" lon="5.58893">
        <ele>308</ele>
        <time>2022-08-13T07:30:14Z</time>
      </trkpt>
      <trkpt lat="43.76438" lon="5.58882">
        <ele>308</ele>
        <time>2022-08-13T07:30:16Z</time>
      </trkpt>
      <trkpt lat="43.76437" lon="5.58872">
        <ele>308</ele>
        <time>2022-08-13T07:30:18Z</time>
      </trkpt>
      <trkpt lat="43.76437" lon="5.58862">
        <ele>308</ele>
        <time>2022-08-13T07:30:20Z</time>
      </trkpt>
      <trkpt lat="43.76437" lon="5.58854">
        <ele>308</ele>
        <time>2022-08-13T07:30:22Z</time>
      </trkpt>
      <trkpt lat="43.76432" lon="5.58849">
        <ele>309</ele>
        <time>2022-08-13T07:30:25Z</time>
      </trkpt>
      <trkpt lat="43.76428" lon="5.5885">
        <ele>309</ele>
        <time>2022-08-13T07:30:27Z</time>
      </trkpt>
      <trkpt lat="43.76422" lon="5.58846">
        <ele>310</ele>
        <time>2022-08-13T07:30:30Z</time>
      </trkpt>
      <trkpt lat="43.7642" lon="5.5884">
        <ele>311</ele>
        <time>2022-08-13T07:30:33Z</time>
      </trkpt>
      <trkpt lat="43.76417" lon="5.58834">
        <ele>314</ele>
        <time>2022-08-13T07:30:51Z</time>
      </trkpt>
      <trkpt lat="43.7642" lon="5.58828">
        <ele>316</ele>
        <time>2022-08-13T07:30:57Z</time>
      </trkpt>
      <trkpt lat="43.76421" lon="5.5882">
        <ele>319</ele>
        <time>2022-08-13T07:31:01Z</time>
      </trkpt>
      <trkpt lat="43.76421" lon="5.58813">
        <ele>321</ele>
        <time>2022-08-13T07:31:03Z</time>
      </trkpt>
      <trkpt lat="43.76421" lon="5.58805">
        <ele>322</ele>
        <time>2022-08-13T07:31:05Z</time>
      </trkpt>
      <trkpt lat="43.7642" lon="5.58797">
        <ele>322</ele>
        <time>2022-08-13T07:31:07Z</time>
      </trkpt>
      <trkpt lat="43.76422" lon="5.58785">
        <ele>321</ele>
        <time>2022-08-13T07:31:09Z</time>
      </trkpt>
      <trkpt lat="43.76423" lon="5.58779">
        <ele>321</ele>
        <time>2022-08-13T07:31:10Z</time>
      </trkpt>
      <trkpt lat="43.76424" lon="5.58767">
        <ele>320</ele>
        <time>2022-08-13T07:31:11Z</time>
      </trkpt>
      <trkpt lat="43.76424" lon="5.5876">
        <ele>320</ele>
        <time>2022-08-13T07:31:12Z</time>
      </trkpt>
      <trkpt lat="43.76421" lon="5.58752">
        <ele>319</ele>
        <time>2022-08-13T07:31:14Z</time>
      </trkpt>
      <trkpt lat="43.7642" lon="5.58741">
        <ele>318</ele>
        <time>2022-08-13T07:31:16Z</time>
      </trkpt>
      <trkpt lat="43.76417" lon="5.58731">
        <ele>317</ele>
        <time>2022-08-13T07:31:18Z</time>
      </trkpt>
      <trkpt lat="43.76415" lon="5.58719">
        <ele>316</ele>
        <time>2022-08-13T07:31:20Z</time>
      </trkpt>
      <trkpt lat="43.76413" lon="5.58713">
        <ele>316</ele>
        <time>2022-08-13T07:31:21Z</time>
      </trkpt>
      <trkpt lat="43.76412" lon="5.58706">
        <ele>315</ele>
        <time>2022-08-13T07:31:22Z</time>
      </trkpt>
      <trkpt lat="43.76408" lon="5.58696">
        <ele>315</ele>
        <time>2022-08-13T07:31:24Z</time>
      </trkpt>
      <trkpt lat="43.76405" lon="5.58688">
        <ele>315</ele>
        <time>2022-08-13T07:31:27Z</time>
      </trkpt>
      <trkpt lat="43.76402" lon="5.58681">
        <ele>314</ele>
        <time>2022-08-13T07:31:29Z</time>
      </trkpt>
      <trkpt lat="43.764" lon="5.58674">
        <ele>313</ele>
        <time>2022-08-13T07:31:31Z</time>
      </trkpt>
      <trkpt lat="43.764" lon="5.58666">
        <ele>313</ele>
        <time>2022-08-13T07:31:34Z</time>
      </trkpt>
      <trkpt lat="43.76398" lon="5.58658">
        <ele>311</ele>
        <time>2022-08-13T07:31:36Z</time>
      </trkpt>
      <trkpt lat="43.76394" lon="5.5865">
        <ele>311</ele>
        <time>2022-08-13T07:31:38Z</time>
      </trkpt>
      <trkpt lat="43.7639" lon="5.58643">
        <ele>310</ele>
        <time>2022-08-13T07:31:40Z</time>
      </trkpt>
      <trkpt lat="43.76387" lon="5.58633">
        <ele>309</ele>
        <time>2022-08-13T07:31:42Z</time>
      </trkpt>
      <trkpt lat="43.76382" lon="5.58624">
        <ele>309</ele>
        <time>2022-08-13T07:31:44Z</time>
      </trkpt>
      <trkpt lat="43.76378" lon="5.58621">
        <ele>309</ele>
        <time>2022-08-13T07:31:47Z</time>
      </trkpt>
      <trkpt lat="43.76373" lon="5.58622">
        <ele>308</ele>
        <time>2022-08-13T07:32:05Z</time>
      </trkpt>
      <trkpt lat="43.76368" lon="5.58617">
        <ele>307</ele>
        <time>2022-08-13T07:32:08Z</time>
      </trkpt>
      <trkpt lat="43.76364" lon="5.58612">
        <ele>307</ele>
        <time>2022-08-13T07:32:10Z</time>
      </trkpt>
      <trkpt lat="43.76359" lon="5.58609">
        <ele>307</ele>
        <time>2022-08-13T07:32:12Z</time>
      </trkpt>
      <trkpt lat="43.76352" lon="5.5861">
        <ele>307</ele>
        <time>2022-08-13T07:32:15Z</time>
      </trkpt>
      <trkpt lat="43.76346" lon="5.58608">
        <ele>307</ele>
        <time>2022-08-13T07:32:17Z</time>
      </trkpt>
      <trkpt lat="43.76341" lon="5.58605">
        <ele>308</ele>
        <time>2022-08-13T07:32:19Z</time>
      </trkpt>
      <trkpt lat="43.76335" lon="5.58603">
        <ele>308</ele>
        <time>2022-08-13T07:32:21Z</time>
      </trkpt>
      <trkpt lat="43.7633" lon="5.58601">
        <ele>308</ele>
        <time>2022-08-13T07:32:23Z</time>
      </trkpt>
      <trkpt lat="43.76325" lon="5.586">
        <ele>309</ele>
        <time>2022-08-13T07:32:25Z</time>
      </trkpt>
      <trkpt lat="43.76319" lon="5.58599">
        <ele>309</ele>
        <time>2022-08-13T07:32:28Z</time>
      </trkpt>
      <trkpt lat="43.76313" lon="5.58599">
        <ele>310</ele>
        <time>2022-08-13T07:32:31Z</time>
      </trkpt>
      <trkpt lat="43.76308" lon="5.586">
        <ele>311</ele>
        <time>2022-08-13T07:32:34Z</time>
      </trkpt>
      <trkpt lat="43.76303" lon="5.58602">
        <ele>313</ele>
        <time>2022-08-13T07:32:36Z</time>
      </trkpt>
      <trkpt lat="43.76297" lon="5.58603">
        <ele>314</ele>
        <time>2022-08-13T07:32:39Z</time>
      </trkpt>
      <trkpt lat="43.7629" lon="5.58605">
        <ele>315</ele>
        <time>2022-08-13T07:32:42Z</time>
      </trkpt>
      <trkpt lat="43.76286" lon="5.58606">
        <ele>316</ele>
        <time>2022-08-13T07:32:44Z</time>
      </trkpt>
      <trkpt lat="43.76279" lon="5.58608">
        <ele>317</ele>
        <time>2022-08-13T07:32:47Z</time>
      </trkpt>
      <trkpt lat="43.76272" lon="5.58609">
        <ele>317</ele>
        <time>2022-08-13T07:32:50Z</time>
      </trkpt>
      <trkpt lat="43.76266" lon="5.58612">
        <ele>318</ele>
        <time>2022-08-13T07:32:53Z</time>
      </trkpt>
      <trkpt lat="43.7626" lon="5.58611">
        <ele>317</ele>
        <time>2022-08-13T07:32:56Z</time>
      </trkpt>
      <trkpt lat="43.76254" lon="5.58612">
        <ele>317</ele>
        <time>2022-08-13T07:32:59Z</time>
      </trkpt>
      <trkpt lat="43.76249" lon="5.58613">
        <ele>317</ele>
        <time>2022-08-13T07:33:01Z</time>
      </trkpt>
      <trkpt lat="43.76243" lon="5.58615">
        <ele>317</ele>
        <time>2022-08-13T07:33:04Z</time>
      </trkpt>
      <trkpt lat="43.76237" lon="5.58613">
        <ele>318</ele>
        <time>2022-08-13T07:33:07Z</time>
      </trkpt>
      <trkpt lat="43.76231" lon="5.58614">
        <ele>318</ele>
        <time>2022-08-13T07:33:10Z</time>
      </trkpt>
      <trkpt lat="43.76228" lon="5.58622">
        <ele>318</ele>
        <time>2022-08-13T07:33:13Z</time>
      </trkpt>
      <trkpt lat="43.76224" lon="5.58628">
        <ele>319</ele>
        <time>2022-08-13T07:33:16Z</time>
      </trkpt>
      <trkpt lat="43.7622" lon="5.58635">
        <ele>319</ele>
        <time>2022-08-13T07:33:19Z</time>
      </trkpt>
      <trkpt lat="43.76215" lon="5.58641">
        <ele>320</ele>
        <time>2022-08-13T07:33:22Z</time>
      </trkpt>
      <trkpt lat="43.76212" lon="5.58647">
        <ele>320</ele>
        <time>2022-08-13T07:33:25Z</time>
      </trkpt>
      <trkpt lat="43.76208" lon="5.58653">
        <ele>321</ele>
        <time>2022-08-13T07:33:28Z</time>
      </trkpt>
      <trkpt lat="43.76204" lon="5.58659">
        <ele>322</ele>
        <time>2022-08-13T07:33:31Z</time>
      </trkpt>
      <trkpt lat="43.762" lon="5.58664">
        <ele>323</ele>
        <time>2022-08-13T07:33:34Z</time>
      </trkpt>
      <trkpt lat="43.76196" lon="5.58669">
        <ele>323</ele>
        <time>2022-08-13T07:33:37Z</time>
      </trkpt>
      <trkpt lat="43.76193" lon="5.58676">
        <ele>324</ele>
        <time>2022-08-13T07:33:40Z</time>
      </trkpt>
      <trkpt lat="43.76189" lon="5.58681">
        <ele>324</ele>
        <time>2022-08-13T07:33:43Z</time>
      </trkpt>
      <trkpt lat="43.76185" lon="5.58687">
        <ele>324</ele>
        <time>2022-08-13T07:33:46Z</time>
      </trkpt>
      <trkpt lat="43.76181" lon="5.58692">
        <ele>325</ele>
        <time>2022-08-13T07:33:49Z</time>
      </trkpt>
      <trkpt lat="43.76178" lon="5.58699">
        <ele>325</ele>
        <time>2022-08-13T07:33:52Z</time>
      </trkpt>
      <trkpt lat="43.76174" lon="5.58705">
        <ele>325</ele>
        <time>2022-08-13T07:33:55Z</time>
      </trkpt>
      <trkpt lat="43.76169" lon="5.58711">
        <ele>324</ele>
        <time>2022-08-13T07:33:58Z</time>
      </trkpt>
      <trkpt lat="43.76165" lon="5.58716">
        <ele>324</ele>
        <time>2022-08-13T07:34:01Z</time>
      </trkpt>
      <trkpt lat="43.76161" lon="5.58722">
        <ele>324</ele>
        <time>2022-08-13T07:34:04Z</time>
      </trkpt>
      <trkpt lat="43.76156" lon="5.58728">
        <ele>324</ele>
        <time>2022-08-13T07:34:07Z</time>
      </trkpt>
      <trkpt lat="43.76151" lon="5.58734">
        <ele>325</ele>
        <time>2022-08-13T07:34:10Z</time>
      </trkpt>
      <trkpt lat="43.76146" lon="5.58739">
        <ele>326</ele>
        <time>2022-08-13T07:34:13Z</time>
      </trkpt>
      <trkpt lat="43.7614" lon="5.5874">
        <ele>326</ele>
        <time>2022-08-13T07:34:16Z</time>
      </trkpt>
      <trkpt lat="43.76134" lon="5.58739">
        <ele>327</ele>
        <time>2022-08-13T07:34:19Z</time>
      </trkpt>
      <trkpt lat="43.76129" lon="5.58735">
        <ele>328</ele>
        <time>2022-08-13T07:34:22Z</time>
      </trkpt>
      <trkpt lat="43.76126" lon="5.58729">
        <ele>329</ele>
        <time>2022-08-13T07:34:25Z</time>
      </trkpt>
      <trkpt lat="43.76122" lon="5.58722">
        <ele>330</ele>
        <time>2022-08-13T07:34:28Z</time>
      </trkpt>
      <trkpt lat="43.76119" lon="5.58714">
        <ele>330</ele>
        <time>2022-08-13T07:34:31Z</time>
      </trkpt>
      <trkpt lat="43.76116" lon="5.58705">
        <ele>331</ele>
        <time>2022-08-13T07:34:34Z</time>
      </trkpt>
      <trkpt lat="43.76115" lon="5.58697">
        <ele>331</ele>
        <time>2022-08-13T07:34:37Z</time>
      </trkpt>
      <trkpt lat="43.76114" lon="5.58689">
        <ele>331</ele>
        <time>2022-08-13T07:34:40Z</time>
      </trkpt>
      <trkpt lat="43.76115" lon="5.58681">
        <ele>331</ele>
        <time>2022-08-13T07:34:43Z</time>
      </trkpt>
      <trkpt lat="43.76116" lon="5.58675">
        <ele>331</ele>
        <time>2022-08-13T07:34:45Z</time>
      </trkpt>
      <trkpt lat="43.76118" lon="5.58669">
        <ele>331</ele>
        <time>2022-08-13T07:34:47Z</time>
      </trkpt>
      <trkpt lat="43.7612" lon="5.58661">
        <ele>331</ele>
        <time>2022-08-13T07:34:50Z</time>
      </trkpt>
      <trkpt lat="43.76121" lon="5.58654">
        <ele>331</ele>
        <time>2022-08-13T07:34:53Z</time>
      </trkpt>
      <trkpt lat="43.76123" lon="5.58647">
        <ele>331</ele>
        <time>2022-08-13T07:34:56Z</time>
      </trkpt>
      <trkpt lat="43.76125" lon="5.5864">
        <ele>331</ele>
        <time>2022-08-13T07:34:59Z</time>
      </trkpt>
      <trkpt lat="43.76127" lon="5.58634">
        <ele>331</ele>
        <time>2022-08-13T07:35:01Z</time>
      </trkpt>
      <trkpt lat="43.76127" lon="5.58626">
        <ele>331</ele>
        <time>2022-08-13T07:35:04Z</time>
      </trkpt>
      <trkpt lat="43.76125" lon="5.58618">
        <ele>332</ele>
        <time>2022-08-13T07:35:07Z</time>
      </trkpt>
      <trkpt lat="43.76123" lon="5.58609">
        <ele>331</ele>
        <time>2022-08-13T07:35:10Z</time>
      </trkpt>
      <trkpt lat="43.76122" lon="5.58603">
        <ele>331</ele>
        <time>2022-08-13T07:35:12Z</time>
      </trkpt>
      <trkpt lat="43.76119" lon="5.58596">
        <ele>331</ele>
        <time>2022-08-13T07:35:15Z</time>
      </trkpt>
      <trkpt lat="43.76115" lon="5.58589">
        <ele>331</ele>
        <time>2022-08-13T07:35:18Z</time>
      </trkpt>
      <trkpt lat="43.7611" lon="5.58585">
        <ele>332</ele>
        <time>2022-08-13T07:35:21Z</time>
      </trkpt>
      <trkpt lat="43.76106" lon="5.58582">
        <ele>332</ele>
        <time>2022-08-13T07:35:23Z</time>
      </trkpt>
      <trkpt lat="43.76099" lon="5.58582">
        <ele>333</ele>
        <time>2022-08-13T07:35:26Z</time>
      </trkpt>
      <trkpt lat="43.76096" lon="5.58589">
        <ele>333</ele>
        <time>2022-08-13T07:35:29Z</time>
      </trkpt>
      <trkpt lat="43.76096" lon="5.58599">
        <ele>333</ele>
        <time>2022-08-13T07:35:32Z</time>
      </trkpt>
      <trkpt lat="43.76097" lon="5.58606">
        <ele>333</ele>
        <time>2022-08-13T07:35:34Z</time>
      </trkpt>
      <trkpt lat="43.76098" lon="5.58612">
        <ele>334</ele>
        <time>2022-08-13T07:35:36Z</time>
      </trkpt>
      <trkpt lat="43.76099" lon="5.58621">
        <ele>335</ele>
        <time>2022-08-13T07:35:39Z</time>
      </trkpt>
      <trkpt lat="43.761" lon="5.58628">
        <ele>335</ele>
        <time>2022-08-13T07:35:41Z</time>
      </trkpt>
      <trkpt lat="43.76099" lon="5.58634">
        <ele>336</ele>
        <time>2022-08-13T07:35:43Z</time>
      </trkpt>
      <trkpt lat="43.76097" lon="5.58641">
        <ele>337</ele>
        <time>2022-08-13T07:35:45Z</time>
      </trkpt>
      <trkpt lat="43.76094" lon="5.58646">
        <ele>338</ele>
        <time>2022-08-13T07:35:47Z</time>
      </trkpt>
      <trkpt lat="43.7609" lon="5.5865">
        <ele>338</ele>
        <time>2022-08-13T07:35:49Z</time>
      </trkpt>
      <trkpt lat="43.76086" lon="5.58654">
        <ele>338</ele>
        <time>2022-08-13T07:35:51Z</time>
      </trkpt>
      <trkpt lat="43.76082" lon="5.58659">
        <ele>338</ele>
        <time>2022-08-13T07:35:54Z</time>
      </trkpt>
      <trkpt lat="43.76078" lon="5.58665">
        <ele>338</ele>
        <time>2022-08-13T07:35:56Z</time>
      </trkpt>
      <trkpt lat="43.76075" lon="5.58669">
        <ele>338</ele>
        <time>2022-08-13T07:35:58Z</time>
      </trkpt>
      <trkpt lat="43.76071" lon="5.58674">
        <ele>338</ele>
        <time>2022-08-13T07:36:00Z</time>
      </trkpt>
      <trkpt lat="43.76068" lon="5.58678">
        <ele>339</ele>
        <time>2022-08-13T07:36:02Z</time>
      </trkpt>
      <trkpt lat="43.76064" lon="5.58683">
        <ele>340</ele>
        <time>2022-08-13T07:36:04Z</time>
      </trkpt>
      <trkpt lat="43.7606" lon="5.58687">
        <ele>340</ele>
        <time>2022-08-13T07:36:06Z</time>
      </trkpt>
      <trkpt lat="43.76057" lon="5.58692">
        <ele>340</ele>
        <time>2022-08-13T07:36:08Z</time>
      </trkpt>
      <trkpt lat="43.76053" lon="5.58697">
        <ele>340</ele>
        <time>2022-08-13T07:36:10Z</time>
      </trkpt>
      <trkpt lat="43.7605" lon="5.58702">
        <ele>341</ele>
        <time>2022-08-13T07:36:12Z</time>
      </trkpt>
      <trkpt lat="43.76047" lon="5.58707">
        <ele>341</ele>
        <time>2022-08-13T07:36:14Z</time>
      </trkpt>
      <trkpt lat="43.76045" lon="5.58713">
        <ele>341</ele>
        <time>2022-08-13T07:36:16Z</time>
      </trkpt>
      <trkpt lat="43.76043" lon="5.58719">
        <ele>342</ele>
        <time>2022-08-13T07:36:18Z</time>
      </trkpt>
      <trkpt lat="43.76041" lon="5.58728">
        <ele>342</ele>
        <time>2022-08-13T07:36:21Z</time>
      </trkpt>
      <trkpt lat="43.76041" lon="5.58734">
        <ele>343</ele>
        <time>2022-08-13T07:36:23Z</time>
      </trkpt>
      <trkpt lat="43.76041" lon="5.58741">
        <ele>344</ele>
        <time>2022-08-13T07:36:25Z</time>
      </trkpt>
      <trkpt lat="43.76042" lon="5.58747">
        <ele>345</ele>
        <time>2022-08-13T07:36:27Z</time>
      </trkpt>
      <trkpt lat="43.76046" lon="5.58753">
        <ele>346</ele>
        <time>2022-08-13T07:36:30Z</time>
      </trkpt>
      <trkpt lat="43.76049" lon="5.58758">
        <ele>346</ele>
        <time>2022-08-13T07:36:32Z</time>
      </trkpt>
      <trkpt lat="43.76053" lon="5.58763">
        <ele>346</ele>
        <time>2022-08-13T07:36:34Z</time>
      </trkpt>
      <trkpt lat="43.76057" lon="5.58767">
        <ele>347</ele>
        <time>2022-08-13T07:36:36Z</time>
      </trkpt>
      <trkpt lat="43.76061" lon="5.58771">
        <ele>347</ele>
        <time>2022-08-13T07:36:38Z</time>
      </trkpt>
      <trkpt lat="43.76064" lon="5.58775">
        <ele>347</ele>
        <time>2022-08-13T07:36:40Z</time>
      </trkpt>
      <trkpt lat="43.76067" lon="5.5878">
        <ele>348</ele>
        <time>2022-08-13T07:36:42Z</time>
      </trkpt>
      <trkpt lat="43.7607" lon="5.58785">
        <ele>348</ele>
        <time>2022-08-13T07:36:44Z</time>
      </trkpt>
      <trkpt lat="43.76075" lon="5.58792">
        <ele>349</ele>
        <time>2022-08-13T07:36:47Z</time>
      </trkpt>
      <trkpt lat="43.76077" lon="5.58797">
        <ele>349</ele>
        <time>2022-08-13T07:36:49Z</time>
      </trkpt>
      <trkpt lat="43.76079" lon="5.58804">
        <ele>350</ele>
        <time>2022-08-13T07:36:51Z</time>
      </trkpt>
      <trkpt lat="43.76081" lon="5.5881">
        <ele>350</ele>
        <time>2022-08-13T07:36:53Z</time>
      </trkpt>
      <trkpt lat="43.76082" lon="5.58819">
        <ele>351</ele>
        <time>2022-08-13T07:36:56Z</time>
      </trkpt>
      <trkpt lat="43.76081" lon="5.58828">
        <ele>351</ele>
        <time>2022-08-13T07:36:59Z</time>
      </trkpt>
      <trkpt lat="43.7608" lon="5.58834">
        <ele>351</ele>
        <time>2022-08-13T07:37:01Z</time>
      </trkpt>
      <trkpt lat="43.76078" lon="5.58842">
        <ele>351</ele>
        <time>2022-08-13T07:37:04Z</time>
      </trkpt>
      <trkpt lat="43.76075" lon="5.5885">
        <ele>351</ele>
        <time>2022-08-13T07:37:07Z</time>
      </trkpt>
      <trkpt lat="43.76073" lon="5.58855">
        <ele>351</ele>
        <time>2022-08-13T07:37:09Z</time>
      </trkpt>
      <trkpt lat="43.76071" lon="5.58861">
        <ele>352</ele>
        <time>2022-08-13T07:37:11Z</time>
      </trkpt>
      <trkpt lat="43.76069" lon="5.5887">
        <ele>352</ele>
        <time>2022-08-13T07:37:14Z</time>
      </trkpt>
      <trkpt lat="43.76067" lon="5.58876">
        <ele>352</ele>
        <time>2022-08-13T07:37:16Z</time>
      </trkpt>
      <trkpt lat="43.76065" lon="5.58883">
        <ele>353</ele>
        <time>2022-08-13T07:37:18Z</time>
      </trkpt>
      <trkpt lat="43.76065" lon="5.5889">
        <ele>353</ele>
        <time>2022-08-13T07:37:20Z</time>
      </trkpt>
      <trkpt lat="43.76064" lon="5.58898">
        <ele>353</ele>
        <time>2022-08-13T07:37:23Z</time>
      </trkpt>
      <trkpt lat="43.76064" lon="5.58907">
        <ele>353</ele>
        <time>2022-08-13T07:37:26Z</time>
      </trkpt>
      <trkpt lat="43.76066" lon="5.58914">
        <ele>353</ele>
        <time>2022-08-13T07:37:29Z</time>
      </trkpt>
      <trkpt lat="43.76068" lon="5.5892">
        <ele>353</ele>
        <time>2022-08-13T07:37:32Z</time>
      </trkpt>
      <trkpt lat="43.76069" lon="5.58927">
        <ele>354</ele>
        <time>2022-08-13T07:37:35Z</time>
      </trkpt>
      <trkpt lat="43.76069" lon="5.58936">
        <ele>354</ele>
        <time>2022-08-13T07:37:38Z</time>
      </trkpt>
      <trkpt lat="43.7607" lon="5.58944">
        <ele>354</ele>
        <time>2022-08-13T07:37:41Z</time>
      </trkpt>
      <trkpt lat="43.76072" lon="5.58953">
        <ele>354</ele>
        <time>2022-08-13T07:37:44Z</time>
      </trkpt>
      <trkpt lat="43.76072" lon="5.58962">
        <ele>354</ele>
        <time>2022-08-13T07:37:47Z</time>
      </trkpt>
      <trkpt lat="43.76071" lon="5.58971">
        <ele>354</ele>
        <time>2022-08-13T07:37:50Z</time>
      </trkpt>
      <trkpt lat="43.76071" lon="5.58978">
        <ele>355</ele>
        <time>2022-08-13T07:37:52Z</time>
      </trkpt>
      <trkpt lat="43.7607" lon="5.58987">
        <ele>355</ele>
        <time>2022-08-13T07:37:55Z</time>
      </trkpt>
      <trkpt lat="43.76069" lon="5.58993">
        <ele>356</ele>
        <time>2022-08-13T07:37:57Z</time>
      </trkpt>
      <trkpt lat="43.76067" lon="5.58999">
        <ele>356</ele>
        <time>2022-08-13T07:37:59Z</time>
      </trkpt>
      <trkpt lat="43.76067" lon="5.59008">
        <ele>357</ele>
        <time>2022-08-13T07:38:02Z</time>
      </trkpt>
      <trkpt lat="43.76067" lon="5.59017">
        <ele>358</ele>
        <time>2022-08-13T07:38:05Z</time>
      </trkpt>
      <trkpt lat="43.76066" lon="5.59024">
        <ele>359</ele>
        <time>2022-08-13T07:38:07Z</time>
      </trkpt>
      <trkpt lat="43.76066" lon="5.59033">
        <ele>359</ele>
        <time>2022-08-13T07:38:10Z</time>
      </trkpt>
      <trkpt lat="43.76067" lon="5.59041">
        <ele>360</ele>
        <time>2022-08-13T07:38:13Z</time>
      </trkpt>
      <trkpt lat="43.76068" lon="5.59049">
        <ele>360</ele>
        <time>2022-08-13T07:38:16Z</time>
      </trkpt>
      <trkpt lat="43.7607" lon="5.59057">
        <ele>360</ele>
        <time>2022-08-13T07:38:19Z</time>
      </trkpt>
      <trkpt lat="43.76073" lon="5.59062">
        <ele>361</ele>
        <time>2022-08-13T07:38:21Z</time>
      </trkpt>
      <trkpt lat="43.76075" lon="5.59068">
        <ele>361</ele>
        <time>2022-08-13T07:38:23Z</time>
      </trkpt>
      <trkpt lat="43.76077" lon="5.59075">
        <ele>361</ele>
        <time>2022-08-13T07:38:25Z</time>
      </trkpt>
      <trkpt lat="43.76079" lon="5.59081">
        <ele>362</ele>
        <time>2022-08-13T07:38:27Z</time>
      </trkpt>
      <trkpt lat="43.76081" lon="5.59087">
        <ele>362</ele>
        <time>2022-08-13T07:38:29Z</time>
      </trkpt>
      <trkpt lat="43.76083" lon="5.59095">
        <ele>362</ele>
        <time>2022-08-13T07:38:32Z</time>
      </trkpt>
      <trkpt lat="43.76086" lon="5.59104">
        <ele>363</ele>
        <time>2022-08-13T07:38:35Z</time>
      </trkpt>
      <trkpt lat="43.76088" lon="5.59111">
        <ele>363</ele>
        <time>2022-08-13T07:38:38Z</time>
      </trkpt>
      <trkpt lat="43.76092" lon="5.59118">
        <ele>363</ele>
        <time>2022-08-13T07:38:41Z</time>
      </trkpt>
      <trkpt lat="43.76096" lon="5.59125">
        <ele>364</ele>
        <time>2022-08-13T07:38:44Z</time>
      </trkpt>
      <trkpt lat="43.76101" lon="5.59131">
        <ele>364</ele>
        <time>2022-08-13T07:38:47Z</time>
      </trkpt>
      <trkpt lat="43.76107" lon="5.59135">
        <ele>365</ele>
        <time>2022-08-13T07:38:50Z</time>
      </trkpt>
      <trkpt lat="43.76114" lon="5.59138">
        <ele>365</ele>
        <time>2022-08-13T07:38:53Z</time>
      </trkpt>
      <trkpt lat="43.76118" lon="5.59139">
        <ele>366</ele>
        <time>2022-08-13T07:38:55Z</time>
      </trkpt>
      <trkpt lat="43.76125" lon="5.5914">
        <ele>367</ele>
        <time>2022-08-13T07:38:58Z</time>
      </trkpt>
      <trkpt lat="43.76131" lon="5.5914">
        <ele>368</ele>
        <time>2022-08-13T07:39:01Z</time>
      </trkpt>
      <trkpt lat="43.76136" lon="5.59139">
        <ele>368</ele>
        <time>2022-08-13T07:39:03Z</time>
      </trkpt>
      <trkpt lat="43.7614" lon="5.59138">
        <ele>369</ele>
        <time>2022-08-13T07:39:05Z</time>
      </trkpt>
      <trkpt lat="43.76146" lon="5.59138">
        <ele>370</ele>
        <time>2022-08-13T07:39:08Z</time>
      </trkpt>
      <trkpt lat="43.76152" lon="5.59144">
        <ele>371</ele>
        <time>2022-08-13T07:39:11Z</time>
      </trkpt>
      <trkpt lat="43.76153" lon="5.5915">
        <ele>371</ele>
        <time>2022-08-13T07:39:13Z</time>
      </trkpt>
      <trkpt lat="43.76152" lon="5.59157">
        <ele>372</ele>
        <time>2022-08-13T07:39:15Z</time>
      </trkpt>
      <trkpt lat="43.7615" lon="5.59164">
        <ele>372</ele>
        <time>2022-08-13T07:39:17Z</time>
      </trkpt>
      <trkpt lat="43.76148" lon="5.59171">
        <ele>372</ele>
        <time>2022-08-13T07:39:19Z</time>
      </trkpt>
      <trkpt lat="43.76148" lon="5.59177">
        <ele>372</ele>
        <time>2022-08-13T07:39:21Z</time>
      </trkpt>
      <trkpt lat="43.76146" lon="5.59184">
        <ele>372</ele>
        <time>2022-08-13T07:39:23Z</time>
      </trkpt>
      <trkpt lat="43.76144" lon="5.59191">
        <ele>372</ele>
        <time>2022-08-13T07:39:25Z</time>
      </trkpt>
      <trkpt lat="43.76143" lon="5.59198">
        <ele>372</ele>
        <time>2022-08-13T07:39:27Z</time>
      </trkpt>
      <trkpt lat="43.7614" lon="5.59206">
        <ele>371</ele>
        <time>2022-08-13T07:39:30Z</time>
      </trkpt>
      <trkpt lat="43.76137" lon="5.59212">
        <ele>371</ele>
        <time>2022-08-13T07:39:33Z</time>
      </trkpt>
      <trkpt lat="43.76132" lon="5.59213">
        <ele>370</ele>
        <time>2022-08-13T07:39:39Z</time>
      </trkpt>
      <trkpt lat="43.76047" lon="5.5921">
        <ele>377</ele>
        <time>2022-08-13T07:42:52Z</time>
      </trkpt>
      <trkpt lat="43.76041" lon="5.59211">
        <ele>378</ele>
        <time>2022-08-13T07:42:55Z</time>
      </trkpt>
      <trkpt lat="43.76035" lon="5.59212">
        <ele>379</ele>
        <time>2022-08-13T07:42:58Z</time>
      </trkpt>
      <trkpt lat="43.76031" lon="5.59212">
        <ele>380</ele>
        <time>2022-08-13T07:43:00Z</time>
      </trkpt>
      <trkpt lat="43.76026" lon="5.59212">
        <ele>381</ele>
        <time>2022-08-13T07:43:02Z</time>
      </trkpt>
      <trkpt lat="43.7602" lon="5.59212">
        <ele>382</ele>
        <time>2022-08-13T07:43:05Z</time>
      </trkpt>
      <trkpt lat="43.76014" lon="5.59213">
        <ele>382</ele>
        <time>2022-08-13T07:43:08Z</time>
      </trkpt>
      <trkpt lat="43.76007" lon="5.59214">
        <ele>382</ele>
        <time>2022-08-13T07:43:11Z</time>
      </trkpt>
      <trkpt lat="43.76001" lon="5.59213">
        <ele>382</ele>
        <time>2022-08-13T07:43:14Z</time>
      </trkpt>
      <trkpt lat="43.75996" lon="5.59211">
        <ele>382</ele>
        <time>2022-08-13T07:43:17Z</time>
      </trkpt>
      <trkpt lat="43.7599" lon="5.59211">
        <ele>383</ele>
        <time>2022-08-13T07:43:20Z</time>
      </trkpt>
      <trkpt lat="43.75985" lon="5.59208">
        <ele>383</ele>
        <time>2022-08-13T07:43:23Z</time>
      </trkpt>
      <trkpt lat="43.75979" lon="5.59206">
        <ele>384</ele>
        <time>2022-08-13T07:43:26Z</time>
      </trkpt>
      <trkpt lat="43.75973" lon="5.59204">
        <ele>385</ele>
        <time>2022-08-13T07:43:29Z</time>
      </trkpt>
      <trkpt lat="43.75967" lon="5.59204">
        <ele>386</ele>
        <time>2022-08-13T07:43:32Z</time>
      </trkpt>
      <trkpt lat="43.75961" lon="5.59203">
        <ele>387</ele>
        <time>2022-08-13T07:43:35Z</time>
      </trkpt>
      <trkpt lat="43.75956" lon="5.59201">
        <ele>388</ele>
        <time>2022-08-13T07:43:38Z</time>
      </trkpt>
      <trkpt lat="43.75951" lon="5.59198">
        <ele>389</ele>
        <time>2022-08-13T07:43:41Z</time>
      </trkpt>
      <trkpt lat="43.75945" lon="5.59195">
        <ele>389</ele>
        <time>2022-08-13T07:43:44Z</time>
      </trkpt>
      <trkpt lat="43.75939" lon="5.59192">
        <ele>390</ele>
        <time>2022-08-13T07:43:47Z</time>
      </trkpt>
      <trkpt lat="43.75934" lon="5.59188">
        <ele>390</ele>
        <time>2022-08-13T07:43:50Z</time>
      </trkpt>
      <trkpt lat="43.75929" lon="5.59184">
        <ele>391</ele>
        <time>2022-08-13T07:43:53Z</time>
      </trkpt>
      <trkpt lat="43.75924" lon="5.5918">
        <ele>391</ele>
        <time>2022-08-13T07:43:56Z</time>
      </trkpt>
      <trkpt lat="43.75919" lon="5.59175">
        <ele>391</ele>
        <time>2022-08-13T07:43:59Z</time>
      </trkpt>
      <trkpt lat="43.75915" lon="5.5917">
        <ele>392</ele>
        <time>2022-08-13T07:44:02Z</time>
      </trkpt>
      <trkpt lat="43.75909" lon="5.59167">
        <ele>392</ele>
        <time>2022-08-13T07:44:05Z</time>
      </trkpt>
      <trkpt lat="43.75904" lon="5.59163">
        <ele>393</ele>
        <time>2022-08-13T07:44:08Z</time>
      </trkpt>
      <trkpt lat="43.75898" lon="5.5916">
        <ele>393</ele>
        <time>2022-08-13T07:44:11Z</time>
      </trkpt>
      <trkpt lat="43.75893" lon="5.59157">
        <ele>393</ele>
        <time>2022-08-13T07:44:14Z</time>
      </trkpt>
      <trkpt lat="43.75887" lon="5.59154">
        <ele>393</ele>
        <time>2022-08-13T07:44:17Z</time>
      </trkpt>
      <trkpt lat="43.75881" lon="5.5915">
        <ele>394</ele>
        <time>2022-08-13T07:44:20Z</time>
      </trkpt>
      <trkpt lat="43.75876" lon="5.59148">
        <ele>394</ele>
        <time>2022-08-13T07:44:23Z</time>
      </trkpt>
      <trkpt lat="43.75869" lon="5.59149">
        <ele>394</ele>
        <time>2022-08-13T07:44:26Z</time>
      </trkpt>
      <trkpt lat="43.75863" lon="5.5915">
        <ele>394</ele>
        <time>2022-08-13T07:44:29Z</time>
      </trkpt>
      <trkpt lat="43.75857" lon="5.59152">
        <ele>395</ele>
        <time>2022-08-13T07:44:32Z</time>
      </trkpt>
      <trkpt lat="43.75851" lon="5.59157">
        <ele>395</ele>
        <time>2022-08-13T07:44:35Z</time>
      </trkpt>
      <trkpt lat="43.75847" lon="5.5916">
        <ele>396</ele>
        <time>2022-08-13T07:44:38Z</time>
      </trkpt>
      <trkpt lat="43.75841" lon="5.59165">
        <ele>396</ele>
        <time>2022-08-13T07:44:41Z</time>
      </trkpt>
      <trkpt lat="43.75838" lon="5.59169">
        <ele>396</ele>
        <time>2022-08-13T07:44:43Z</time>
      </trkpt>
      <trkpt lat="43.75834" lon="5.59173">
        <ele>397</ele>
        <time>2022-08-13T07:44:45Z</time>
      </trkpt>
      <trkpt lat="43.75831" lon="5.5918">
        <ele>397</ele>
        <time>2022-08-13T07:44:48Z</time>
      </trkpt>
      <trkpt lat="43.75826" lon="5.59187">
        <ele>398</ele>
        <time>2022-08-13T07:44:51Z</time>
      </trkpt>
      <trkpt lat="43.75822" lon="5.59192">
        <ele>399</ele>
        <time>2022-08-13T07:44:54Z</time>
      </trkpt>
      <trkpt lat="43.75818" lon="5.59196">
        <ele>399</ele>
        <time>2022-08-13T07:44:56Z</time>
      </trkpt>
      <trkpt lat="43.75813" lon="5.59201">
        <ele>400</ele>
        <time>2022-08-13T07:44:59Z</time>
      </trkpt>
      <trkpt lat="43.7581" lon="5.59206">
        <ele>401</ele>
        <time>2022-08-13T07:45:02Z</time>
      </trkpt>
      <trkpt lat="43.75805" lon="5.5921">
        <ele>401</ele>
        <time>2022-08-13T07:45:05Z</time>
      </trkpt>
      <trkpt lat="43.758" lon="5.59215">
        <ele>401</ele>
        <time>2022-08-13T07:45:08Z</time>
      </trkpt>
      <trkpt lat="43.75796" lon="5.5922">
        <ele>402</ele>
        <time>2022-08-13T07:45:11Z</time>
      </trkpt>
      <trkpt lat="43.75792" lon="5.59223">
        <ele>402</ele>
        <time>2022-08-13T07:45:13Z</time>
      </trkpt>
      <trkpt lat="43.75787" lon="5.59227">
        <ele>402</ele>
        <time>2022-08-13T07:45:15Z</time>
      </trkpt>
      <trkpt lat="43.75782" lon="5.59231">
        <ele>402</ele>
        <time>2022-08-13T07:45:18Z</time>
      </trkpt>
      <trkpt lat="43.75777" lon="5.59235">
        <ele>403</ele>
        <time>2022-08-13T07:45:20Z</time>
      </trkpt>
      <trkpt lat="43.75773" lon="5.59239">
        <ele>403</ele>
        <time>2022-08-13T07:45:22Z</time>
      </trkpt>
      <trkpt lat="43.75769" lon="5.59245">
        <ele>404</ele>
        <time>2022-08-13T07:45:24Z</time>
      </trkpt>
      <trkpt lat="43.75765" lon="5.59252">
        <ele>404</ele>
        <time>2022-08-13T07:45:26Z</time>
      </trkpt>
      <trkpt lat="43.75761" lon="5.59258">
        <ele>404</ele>
        <time>2022-08-13T07:45:28Z</time>
      </trkpt>
      <trkpt lat="43.75758" lon="5.59264">
        <ele>405</ele>
        <time>2022-08-13T07:45:30Z</time>
      </trkpt>
      <trkpt lat="43.75755" lon="5.59271">
        <ele>406</ele>
        <time>2022-08-13T07:45:32Z</time>
      </trkpt>
      <trkpt lat="43.75752" lon="5.59277">
        <ele>407</ele>
        <time>2022-08-13T07:45:34Z</time>
      </trkpt>
      <trkpt lat="43.75748" lon="5.59283">
        <ele>407</ele>
        <time>2022-08-13T07:45:36Z</time>
      </trkpt>
      <trkpt lat="43.75745" lon="5.5929">
        <ele>408</ele>
        <time>2022-08-13T07:45:38Z</time>
      </trkpt>
      <trkpt lat="43.75741" lon="5.59298">
        <ele>407</ele>
        <time>2022-08-13T07:45:40Z</time>
      </trkpt>
      <trkpt lat="43.75737" lon="5.5931">
        <ele>407</ele>
        <time>2022-08-13T07:45:42Z</time>
      </trkpt>
      <trkpt lat="43.75732" lon="5.5932">
        <ele>406</ele>
        <time>2022-08-13T07:45:44Z</time>
      </trkpt>
      <trkpt lat="43.75729" lon="5.59326">
        <ele>405</ele>
        <time>2022-08-13T07:45:45Z</time>
      </trkpt>
      <trkpt lat="43.75726" lon="5.59333">
        <ele>404</ele>
        <time>2022-08-13T07:45:46Z</time>
      </trkpt>
      <trkpt lat="43.75722" lon="5.5934">
        <ele>404</ele>
        <time>2022-08-13T07:45:47Z</time>
      </trkpt>
      <trkpt lat="43.75718" lon="5.59346">
        <ele>404</ele>
        <time>2022-08-13T07:45:48Z</time>
      </trkpt>
      <trkpt lat="43.75714" lon="5.59352">
        <ele>403</ele>
        <time>2022-08-13T07:45:49Z</time>
      </trkpt>
      <trkpt lat="43.7571" lon="5.59358">
        <ele>403</ele>
        <time>2022-08-13T07:45:50Z</time>
      </trkpt>
      <trkpt lat="43.75706" lon="5.59364">
        <ele>403</ele>
        <time>2022-08-13T07:45:51Z</time>
      </trkpt>
      <trkpt lat="43.75701" lon="5.5937">
        <ele>403</ele>
        <time>2022-08-13T07:45:52Z</time>
      </trkpt>
      <trkpt lat="43.75697" lon="5.59375">
        <ele>403</ele>
        <time>2022-08-13T07:45:53Z</time>
      </trkpt>
      <trkpt lat="43.75691" lon="5.59379">
        <ele>403</ele>
        <time>2022-08-13T07:45:54Z</time>
      </trkpt>
      <trkpt lat="43.75686" lon="5.59382">
        <ele>403</ele>
        <time>2022-08-13T07:45:55Z</time>
      </trkpt>
      <trkpt lat="43.75681" lon="5.59385">
        <ele>403</ele>
        <time>2022-08-13T07:45:56Z</time>
      </trkpt>
      <trkpt lat="43.75672" lon="5.59389">
        <ele>403</ele>
        <time>2022-08-13T07:45:58Z</time>
      </trkpt>
      <trkpt lat="43.75664" lon="5.59389">
        <ele>403</ele>
        <time>2022-08-13T07:46:00Z</time>
      </trkpt>
      <trkpt lat="43.75656" lon="5.59392">
        <ele>402</ele>
        <time>2022-08-13T07:46:02Z</time>
      </trkpt>
      <trkpt lat="43.75651" lon="5.59393">
        <ele>402</ele>
        <time>2022-08-13T07:46:03Z</time>
      </trkpt>
      <trkpt lat="43.75646" lon="5.59396">
        <ele>401</ele>
        <time>2022-08-13T07:46:05Z</time>
      </trkpt>
      <trkpt lat="43.75639" lon="5.59401">
        <ele>401</ele>
        <time>2022-08-13T07:46:07Z</time>
      </trkpt>
      <trkpt lat="43.75633" lon="5.59407">
        <ele>400</ele>
        <time>2022-08-13T07:46:09Z</time>
      </trkpt>
      <trkpt lat="43.75628" lon="5.59414">
        <ele>400</ele>
        <time>2022-08-13T07:46:11Z</time>
      </trkpt>
      <trkpt lat="43.75622" lon="5.59421">
        <ele>400</ele>
        <time>2022-08-13T07:46:13Z</time>
      </trkpt>
      <trkpt lat="43.75617" lon="5.59428">
        <ele>400</ele>
        <time>2022-08-13T07:46:15Z</time>
      </trkpt>
      <trkpt lat="43.7561" lon="5.59434">
        <ele>400</ele>
        <time>2022-08-13T07:46:17Z</time>
      </trkpt>
      <trkpt lat="43.75604" lon="5.59438">
        <ele>400</ele>
        <time>2022-08-13T07:46:19Z</time>
      </trkpt>
      <trkpt lat="43.75598" lon="5.59443">
        <ele>401</ele>
        <time>2022-08-13T07:46:21Z</time>
      </trkpt>
      <trkpt lat="43.75592" lon="5.59448">
        <ele>401</ele>
        <time>2022-08-13T07:46:23Z</time>
      </trkpt>
      <trkpt lat="43.75588" lon="5.59453">
        <ele>402</ele>
        <time>2022-08-13T07:46:25Z</time>
      </trkpt>
      <trkpt lat="43.75584" lon="5.5946">
        <ele>402</ele>
        <time>2022-08-13T07:46:27Z</time>
      </trkpt>
      <trkpt lat="43.7558" lon="5.59468">
        <ele>402</ele>
        <time>2022-08-13T07:46:29Z</time>
      </trkpt>
      <trkpt lat="43.75577" lon="5.59476">
        <ele>402</ele>
        <time>2022-08-13T07:46:31Z</time>
      </trkpt>
      <trkpt lat="43.75574" lon="5.59484">
        <ele>402</ele>
        <time>2022-08-13T07:46:33Z</time>
      </trkpt>
      <trkpt lat="43.7557" lon="5.59492">
        <ele>402</ele>
        <time>2022-08-13T07:46:35Z</time>
      </trkpt>
      <trkpt lat="43.75565" lon="5.595">
        <ele>403</ele>
        <time>2022-08-13T07:46:37Z</time>
      </trkpt>
      <trkpt lat="43.7556" lon="5.59506">
        <ele>403</ele>
        <time>2022-08-13T07:46:39Z</time>
      </trkpt>
      <trkpt lat="43.75556" lon="5.59512">
        <ele>404</ele>
        <time>2022-08-13T07:46:41Z</time>
      </trkpt>
      <trkpt lat="43.75551" lon="5.59515">
        <ele>404</ele>
        <time>2022-08-13T07:46:43Z</time>
      </trkpt>
      <trkpt lat="43.75546" lon="5.59518">
        <ele>404</ele>
        <time>2022-08-13T07:46:45Z</time>
      </trkpt>
      <trkpt lat="43.75542" lon="5.59522">
        <ele>404</ele>
        <time>2022-08-13T07:46:47Z</time>
      </trkpt>
      <trkpt lat="43.75538" lon="5.59525">
        <ele>404</ele>
        <time>2022-08-13T07:46:49Z</time>
      </trkpt>
      <trkpt lat="43.75534" lon="5.59529">
        <ele>405</ele>
        <time>2022-08-13T07:46:51Z</time>
      </trkpt>
      <trkpt lat="43.75529" lon="5.59532">
        <ele>406</ele>
        <time>2022-08-13T07:46:53Z</time>
      </trkpt>
      <trkpt lat="43.75525" lon="5.59535">
        <ele>407</ele>
        <time>2022-08-13T07:46:55Z</time>
      </trkpt>
      <trkpt lat="43.7552" lon="5.59537">
        <ele>408</ele>
        <time>2022-08-13T07:46:57Z</time>
      </trkpt>
      <trkpt lat="43.75515" lon="5.59538">
        <ele>408</ele>
        <time>2022-08-13T07:46:59Z</time>
      </trkpt>
      <trkpt lat="43.75509" lon="5.59539">
        <ele>409</ele>
        <time>2022-08-13T07:47:01Z</time>
      </trkpt>
      <trkpt lat="43.75504" lon="5.5954">
        <ele>410</ele>
        <time>2022-08-13T07:47:03Z</time>
      </trkpt>
      <trkpt lat="43.75499" lon="5.5954">
        <ele>411</ele>
        <time>2022-08-13T07:47:05Z</time>
      </trkpt>
      <trkpt lat="43.75494" lon="5.59539">
        <ele>411</ele>
        <time>2022-08-13T07:47:07Z</time>
      </trkpt>
      <trkpt lat="43.75489" lon="5.59538">
        <ele>412</ele>
        <time>2022-08-13T07:47:09Z</time>
      </trkpt>
      <trkpt lat="43.75485" lon="5.59538">
        <ele>412</ele>
        <time>2022-08-13T07:47:11Z</time>
      </trkpt>
      <trkpt lat="43.75478" lon="5.59538">
        <ele>412</ele>
        <time>2022-08-13T07:47:14Z</time>
      </trkpt>
      <trkpt lat="43.75473" lon="5.59536">
        <ele>412</ele>
        <time>2022-08-13T07:47:16Z</time>
      </trkpt>
      <trkpt lat="43.75468" lon="5.59537">
        <ele>412</ele>
        <time>2022-08-13T07:47:18Z</time>
      </trkpt>
      <trkpt lat="43.75464" lon="5.59537">
        <ele>412</ele>
        <time>2022-08-13T07:47:20Z</time>
      </trkpt>
      <trkpt lat="43.75459" lon="5.59539">
        <ele>412</ele>
        <time>2022-08-13T07:47:22Z</time>
      </trkpt>
      <trkpt lat="43.75454" lon="5.5954">
        <ele>413</ele>
        <time>2022-08-13T07:47:24Z</time>
      </trkpt>
      <trkpt lat="43.75449" lon="5.59542">
        <ele>413</ele>
        <time>2022-08-13T07:47:27Z</time>
      </trkpt>
      <trkpt lat="43.75443" lon="5.59544">
        <ele>413</ele>
        <time>2022-08-13T07:47:30Z</time>
      </trkpt>
      <trkpt lat="43.75438" lon="5.59546">
        <ele>413</ele>
        <time>2022-08-13T07:47:33Z</time>
      </trkpt>
      <trkpt lat="43.75432" lon="5.5955">
        <ele>413</ele>
        <time>2022-08-13T07:47:36Z</time>
      </trkpt>
      <trkpt lat="43.75427" lon="5.59554">
        <ele>413</ele>
        <time>2022-08-13T07:47:39Z</time>
      </trkpt>
      <trkpt lat="43.75423" lon="5.59556">
        <ele>414</ele>
        <time>2022-08-13T07:47:41Z</time>
      </trkpt>
      <trkpt lat="43.75418" lon="5.59559">
        <ele>415</ele>
        <time>2022-08-13T07:47:43Z</time>
      </trkpt>
      <trkpt lat="43.75411" lon="5.59561">
        <ele>416</ele>
        <time>2022-08-13T07:47:46Z</time>
      </trkpt>
      <trkpt lat="43.75407" lon="5.5956">
        <ele>417</ele>
        <time>2022-08-13T07:47:48Z</time>
      </trkpt>
      <trkpt lat="43.75401" lon="5.59555">
        <ele>418</ele>
        <time>2022-08-13T07:47:51Z</time>
      </trkpt>
      <trkpt lat="43.75397" lon="5.5955">
        <ele>419</ele>
        <time>2022-08-13T07:47:54Z</time>
      </trkpt>
      <trkpt lat="43.75393" lon="5.59545">
        <ele>419</ele>
        <time>2022-08-13T07:47:57Z</time>
      </trkpt>
      <trkpt lat="43.7539" lon="5.59538">
        <ele>419</ele>
        <time>2022-08-13T07:48:00Z</time>
      </trkpt>
      <trkpt lat="43.75388" lon="5.5953">
        <ele>420</ele>
        <time>2022-08-13T07:48:03Z</time>
      </trkpt>
      <trkpt lat="43.75387" lon="5.59523">
        <ele>420</ele>
        <time>2022-08-13T07:48:06Z</time>
      </trkpt>
      <trkpt lat="43.75388" lon="5.59515">
        <ele>420</ele>
        <time>2022-08-13T07:48:09Z</time>
      </trkpt>
      <trkpt lat="43.75386" lon="5.59508">
        <ele>420</ele>
        <time>2022-08-13T07:48:12Z</time>
      </trkpt>
      <trkpt lat="43.75383" lon="5.59502">
        <ele>420</ele>
        <time>2022-08-13T07:48:15Z</time>
      </trkpt>
      <trkpt lat="43.7538" lon="5.59496">
        <ele>420</ele>
        <time>2022-08-13T07:48:18Z</time>
      </trkpt>
      <trkpt lat="43.75377" lon="5.5949">
        <ele>421</ele>
        <time>2022-08-13T07:48:21Z</time>
      </trkpt>
      <trkpt lat="43.75372" lon="5.59485">
        <ele>421</ele>
        <time>2022-08-13T07:48:24Z</time>
      </trkpt>
      <trkpt lat="43.75367" lon="5.5948">
        <ele>422</ele>
        <time>2022-08-13T07:48:27Z</time>
      </trkpt>
      <trkpt lat="43.75363" lon="5.59476">
        <ele>423</ele>
        <time>2022-08-13T07:48:30Z</time>
      </trkpt>
      <trkpt lat="43.75358" lon="5.59474">
        <ele>424</ele>
        <time>2022-08-13T07:48:33Z</time>
      </trkpt>
      <trkpt lat="43.75353" lon="5.59473">
        <ele>426</ele>
        <time>2022-08-13T07:48:36Z</time>
      </trkpt>
      <trkpt lat="43.75348" lon="5.59472">
        <ele>427</ele>
        <time>2022-08-13T07:48:39Z</time>
      </trkpt>
      <trkpt lat="43.75342" lon="5.59469">
        <ele>429</ele>
        <time>2022-08-13T07:48:44Z</time>
      </trkpt>
      <trkpt lat="43.75338" lon="5.59469">
        <ele>431</ele>
        <time>2022-08-13T07:48:48Z</time>
      </trkpt>
      <trkpt lat="43.75332" lon="5.59467">
        <ele>432</ele>
        <time>2022-08-13T07:48:52Z</time>
      </trkpt>
      <trkpt lat="43.75327" lon="5.59465">
        <ele>433</ele>
        <time>2022-08-13T07:48:55Z</time>
      </trkpt>
      <trkpt lat="43.75321" lon="5.59463">
        <ele>434</ele>
        <time>2022-08-13T07:48:58Z</time>
      </trkpt>
      <trkpt lat="43.75314" lon="5.59464">
        <ele>435</ele>
        <time>2022-08-13T07:49:01Z</time>
      </trkpt>
      <trkpt lat="43.75309" lon="5.59464">
        <ele>436</ele>
        <time>2022-08-13T07:49:04Z</time>
      </trkpt>
      <trkpt lat="43.75303" lon="5.59465">
        <ele>436</ele>
        <time>2022-08-13T07:49:07Z</time>
      </trkpt>
      <trkpt lat="43.75296" lon="5.59464">
        <ele>437</ele>
        <time>2022-08-13T07:49:10Z</time>
      </trkpt>
      <trkpt lat="43.7529" lon="5.59464">
        <ele>437</ele>
        <time>2022-08-13T07:49:13Z</time>
      </trkpt>
      <trkpt lat="43.75285" lon="5.59463">
        <ele>437</ele>
        <time>2022-08-13T07:49:16Z</time>
      </trkpt>
      <trkpt lat="43.75279" lon="5.59461">
        <ele>436</ele>
        <time>2022-08-13T07:49:19Z</time>
      </trkpt>
      <trkpt lat="43.75274" lon="5.59458">
        <ele>436</ele>
        <time>2022-08-13T07:49:22Z</time>
      </trkpt>
      <trkpt lat="43.75268" lon="5.59456">
        <ele>436</ele>
        <time>2022-08-13T07:49:25Z</time>
      </trkpt>
      <trkpt lat="43.75263" lon="5.59456">
        <ele>436</ele>
        <time>2022-08-13T07:49:28Z</time>
      </trkpt>
      <trkpt lat="43.75257" lon="5.59459">
        <ele>436</ele>
        <time>2022-08-13T07:49:31Z</time>
      </trkpt>
      <trkpt lat="43.75253" lon="5.5946">
        <ele>436</ele>
        <time>2022-08-13T07:49:33Z</time>
      </trkpt>
      <trkpt lat="43.75247" lon="5.59461">
        <ele>436</ele>
        <time>2022-08-13T07:49:35Z</time>
      </trkpt>
      <trkpt lat="43.75241" lon="5.59462">
        <ele>436</ele>
        <time>2022-08-13T07:49:37Z</time>
      </trkpt>
      <trkpt lat="43.75234" lon="5.59464">
        <ele>435</ele>
        <time>2022-08-13T07:49:39Z</time>
      </trkpt>
      <trkpt lat="43.75226" lon="5.59467">
        <ele>435</ele>
        <time>2022-08-13T07:49:41Z</time>
      </trkpt>
      <trkpt lat="43.75217" lon="5.59469">
        <ele>434</ele>
        <time>2022-08-13T07:49:43Z</time>
      </trkpt>
      <trkpt lat="43.75208" lon="5.59471">
        <ele>434</ele>
        <time>2022-08-13T07:49:45Z</time>
      </trkpt>
      <trkpt lat="43.75203" lon="5.59468">
        <ele>434</ele>
        <time>2022-08-13T07:49:46Z</time>
      </trkpt>
      <trkpt lat="43.75199" lon="5.59466">
        <ele>434</ele>
        <time>2022-08-13T07:49:47Z</time>
      </trkpt>
      <trkpt lat="43.75193" lon="5.59461">
        <ele>433</ele>
        <time>2022-08-13T07:49:49Z</time>
      </trkpt>
      <trkpt lat="43.75192" lon="5.59455">
        <ele>433</ele>
        <time>2022-08-13T07:49:51Z</time>
      </trkpt>
      <trkpt lat="43.75189" lon="5.59448">
        <ele>434</ele>
        <time>2022-08-13T07:49:53Z</time>
      </trkpt>
      <trkpt lat="43.75187" lon="5.59442">
        <ele>434</ele>
        <time>2022-08-13T07:49:55Z</time>
      </trkpt>
      <trkpt lat="43.75184" lon="5.59435">
        <ele>435</ele>
        <time>2022-08-13T07:49:58Z</time>
      </trkpt>
      <trkpt lat="43.7518" lon="5.59427">
        <ele>436</ele>
        <time>2022-08-13T07:50:01Z</time>
      </trkpt>
      <trkpt lat="43.75179" lon="5.59419">
        <ele>437</ele>
        <time>2022-08-13T07:50:04Z</time>
      </trkpt>
      <trkpt lat="43.75176" lon="5.59411">
        <ele>439</ele>
        <time>2022-08-13T07:50:07Z</time>
      </trkpt>
      <trkpt lat="43.75174" lon="5.59404">
        <ele>440</ele>
        <time>2022-08-13T07:50:10Z</time>
      </trkpt>
      <trkpt lat="43.75174" lon="5.59396">
        <ele>440</ele>
        <time>2022-08-13T07:50:13Z</time>
      </trkpt>
      <trkpt lat="43.75173" lon="5.59387">
        <ele>441</ele>
        <time>2022-08-13T07:50:16Z</time>
      </trkpt>
      <trkpt lat="43.7517" lon="5.59382">
        <ele>442</ele>
        <time>2022-08-13T07:50:19Z</time>
      </trkpt>
      <trkpt lat="43.75167" lon="5.59373">
        <ele>443</ele>
        <time>2022-08-13T07:50:22Z</time>
      </trkpt>
      <trkpt lat="43.75163" lon="5.5937">
        <ele>444</ele>
        <time>2022-08-13T07:50:24Z</time>
      </trkpt>
      <trkpt lat="43.75159" lon="5.59366">
        <ele>445</ele>
        <time>2022-08-13T07:50:26Z</time>
      </trkpt>
      <trkpt lat="43.75154" lon="5.59364">
        <ele>445</ele>
        <time>2022-08-13T07:50:28Z</time>
      </trkpt>
      <trkpt lat="43.75149" lon="5.59361">
        <ele>445</ele>
        <time>2022-08-13T07:50:30Z</time>
      </trkpt>
      <trkpt lat="43.75144" lon="5.59359">
        <ele>445</ele>
        <time>2022-08-13T07:50:32Z</time>
      </trkpt>
      <trkpt lat="43.75138" lon="5.59356">
        <ele>444</ele>
        <time>2022-08-13T07:50:34Z</time>
      </trkpt>
      <trkpt lat="43.75131" lon="5.59354">
        <ele>444</ele>
        <time>2022-08-13T07:50:36Z</time>
      </trkpt>
      <trkpt lat="43.75124" lon="5.59353">
        <ele>444</ele>
        <time>2022-08-13T07:50:38Z</time>
      </trkpt>
      <trkpt lat="43.75118" lon="5.59355">
        <ele>443</ele>
        <time>2022-08-13T07:50:40Z</time>
      </trkpt>
      <trkpt lat="43.75111" lon="5.59358">
        <ele>443</ele>
        <time>2022-08-13T07:50:42Z</time>
      </trkpt>
      <trkpt lat="43.75105" lon="5.59363">
        <ele>443</ele>
        <time>2022-08-13T07:50:44Z</time>
      </trkpt>
      <trkpt lat="43.75098" lon="5.59369">
        <ele>443</ele>
        <time>2022-08-13T07:50:46Z</time>
      </trkpt>
      <trkpt lat="43.75094" lon="5.59372">
        <ele>444</ele>
        <time>2022-08-13T07:50:47Z</time>
      </trkpt>
      <trkpt lat="43.7509" lon="5.59375">
        <ele>444</ele>
        <time>2022-08-13T07:50:48Z</time>
      </trkpt>
      <trkpt lat="43.75084" lon="5.59377">
        <ele>444</ele>
        <time>2022-08-13T07:50:49Z</time>
      </trkpt>
      <trkpt lat="43.7508" lon="5.59378">
        <ele>444</ele>
        <time>2022-08-13T07:50:50Z</time>
      </trkpt>
      <trkpt lat="43.75074" lon="5.59378">
        <ele>444</ele>
        <time>2022-08-13T07:50:51Z</time>
      </trkpt>
      <trkpt lat="43.75069" lon="5.59378">
        <ele>443</ele>
        <time>2022-08-13T07:50:52Z</time>
      </trkpt>
      <trkpt lat="43.75064" lon="5.59377">
        <ele>443</ele>
        <time>2022-08-13T07:50:53Z</time>
      </trkpt>
      <trkpt lat="43.75059" lon="5.59377">
        <ele>443</ele>
        <time>2022-08-13T07:50:54Z</time>
      </trkpt>
      <trkpt lat="43.75054" lon="5.59378">
        <ele>442</ele>
        <time>2022-08-13T07:50:55Z</time>
      </trkpt>
      <trkpt lat="43.7505" lon="5.59378">
        <ele>442</ele>
        <time>2022-08-13T07:50:56Z</time>
      </trkpt>
      <trkpt lat="43.75041" lon="5.59382">
        <ele>441</ele>
        <time>2022-08-13T07:50:58Z</time>
      </trkpt>
      <trkpt lat="43.75036" lon="5.59383">
        <ele>441</ele>
        <time>2022-08-13T07:50:59Z</time>
      </trkpt>
      <trkpt lat="43.7503" lon="5.59382">
        <ele>440</ele>
        <time>2022-08-13T07:51:00Z</time>
      </trkpt>
      <trkpt lat="43.75024" lon="5.59373">
        <ele>439</ele>
        <time>2022-08-13T07:51:02Z</time>
      </trkpt>
      <trkpt lat="43.75024" lon="5.59362">
        <ele>439</ele>
        <time>2022-08-13T07:51:04Z</time>
      </trkpt>
      <trkpt lat="43.75025" lon="5.59351">
        <ele>438</ele>
        <time>2022-08-13T07:51:06Z</time>
      </trkpt>
      <trkpt lat="43.75026" lon="5.59338">
        <ele>438</ele>
        <time>2022-08-13T07:51:08Z</time>
      </trkpt>
      <trkpt lat="43.75027" lon="5.59327">
        <ele>438</ele>
        <time>2022-08-13T07:51:10Z</time>
      </trkpt>
      <trkpt lat="43.75026" lon="5.5932">
        <ele>438</ele>
        <time>2022-08-13T07:51:11Z</time>
      </trkpt>
      <trkpt lat="43.75026" lon="5.59314">
        <ele>438</ele>
        <time>2022-08-13T07:51:12Z</time>
      </trkpt>
      <trkpt lat="43.75025" lon="5.59303">
        <ele>439</ele>
        <time>2022-08-13T07:51:14Z</time>
      </trkpt>
      <trkpt lat="43.75024" lon="5.59293">
        <ele>440</ele>
        <time>2022-08-13T07:51:16Z</time>
      </trkpt>
      <trkpt lat="43.75022" lon="5.59283">
        <ele>441</ele>
        <time>2022-08-13T07:51:18Z</time>
      </trkpt>
      <trkpt lat="43.7502" lon="5.59274">
        <ele>442</ele>
        <time>2022-08-13T07:51:20Z</time>
      </trkpt>
      <trkpt lat="43.75018" lon="5.59266">
        <ele>442</ele>
        <time>2022-08-13T07:51:22Z</time>
      </trkpt>
      <trkpt lat="43.75013" lon="5.59259">
        <ele>443</ele>
        <time>2022-08-13T07:51:24Z</time>
      </trkpt>
      <trkpt lat="43.7501" lon="5.59254">
        <ele>444</ele>
        <time>2022-08-13T07:51:26Z</time>
      </trkpt>
      <trkpt lat="43.75008" lon="5.59248">
        <ele>444</ele>
        <time>2022-08-13T07:51:28Z</time>
      </trkpt>
      <trkpt lat="43.75005" lon="5.59241">
        <ele>445</ele>
        <time>2022-08-13T07:51:31Z</time>
      </trkpt>
      <trkpt lat="43.75004" lon="5.59235">
        <ele>446</ele>
        <time>2022-08-13T07:51:34Z</time>
      </trkpt>
      <trkpt lat="43.75003" lon="5.59227">
        <ele>447</ele>
        <time>2022-08-13T07:51:37Z</time>
      </trkpt>
      <trkpt lat="43.75" lon="5.59221">
        <ele>447</ele>
        <time>2022-08-13T07:51:39Z</time>
      </trkpt>
      <trkpt lat="43.74997" lon="5.59216">
        <ele>447</ele>
        <time>2022-08-13T07:51:41Z</time>
      </trkpt>
      <trkpt lat="43.74992" lon="5.59212">
        <ele>448</ele>
        <time>2022-08-13T07:51:43Z</time>
      </trkpt>
      <trkpt lat="43.74989" lon="5.59207">
        <ele>448</ele>
        <time>2022-08-13T07:51:45Z</time>
      </trkpt>
      <trkpt lat="43.74986" lon="5.59202">
        <ele>448</ele>
        <time>2022-08-13T07:51:47Z</time>
      </trkpt>
      <trkpt lat="43.74983" lon="5.59196">
        <ele>449</ele>
        <time>2022-08-13T07:51:49Z</time>
      </trkpt>
      <trkpt lat="43.74981" lon="5.59191">
        <ele>450</ele>
        <time>2022-08-13T07:51:51Z</time>
      </trkpt>
      <trkpt lat="43.74977" lon="5.59187">
        <ele>451</ele>
        <time>2022-08-13T07:51:53Z</time>
      </trkpt>
      <trkpt lat="43.74971" lon="5.59182">
        <ele>452</ele>
        <time>2022-08-13T07:51:56Z</time>
      </trkpt>
      <trkpt lat="43.74966" lon="5.59177">
        <ele>452</ele>
        <time>2022-08-13T07:51:59Z</time>
      </trkpt>
      <trkpt lat="43.74962" lon="5.59174">
        <ele>453</ele>
        <time>2022-08-13T07:52:01Z</time>
      </trkpt>
      <trkpt lat="43.74958" lon="5.5917">
        <ele>454</ele>
        <time>2022-08-13T07:52:03Z</time>
      </trkpt>
      <trkpt lat="43.74953" lon="5.59167">
        <ele>455</ele>
        <time>2022-08-13T07:52:06Z</time>
      </trkpt>
      <trkpt lat="43.74947" lon="5.59165">
        <ele>455</ele>
        <time>2022-08-13T07:52:10Z</time>
      </trkpt>
      <trkpt lat="43.74942" lon="5.59162">
        <ele>455</ele>
        <time>2022-08-13T07:52:13Z</time>
      </trkpt>
      <trkpt lat="43.74937" lon="5.59166">
        <ele>455</ele>
        <time>2022-08-13T07:52:16Z</time>
      </trkpt>
      <trkpt lat="43.74934" lon="5.59171">
        <ele>455</ele>
        <time>2022-08-13T07:52:18Z</time>
      </trkpt>
      <trkpt lat="43.74933" lon="5.59179">
        <ele>456</ele>
        <time>2022-08-13T07:52:21Z</time>
      </trkpt>
      <trkpt lat="43.74933" lon="5.59186">
        <ele>456</ele>
        <time>2022-08-13T07:52:24Z</time>
      </trkpt>
      <trkpt lat="43.74932" lon="5.59194">
        <ele>457</ele>
        <time>2022-08-13T07:52:27Z</time>
      </trkpt>
      <trkpt lat="43.7493" lon="5.59201">
        <ele>458</ele>
        <time>2022-08-13T07:52:30Z</time>
      </trkpt>
      <trkpt lat="43.74928" lon="5.59208">
        <ele>459</ele>
        <time>2022-08-13T07:52:33Z</time>
      </trkpt>
      <trkpt lat="43.74925" lon="5.59214">
        <ele>461</ele>
        <time>2022-08-13T07:52:36Z</time>
      </trkpt>
      <trkpt lat="43.74921" lon="5.59219">
        <ele>462</ele>
        <time>2022-08-13T07:52:39Z</time>
      </trkpt>
      <trkpt lat="43.74916" lon="5.59224">
        <ele>462</ele>
        <time>2022-08-13T07:52:42Z</time>
      </trkpt>
      <trkpt lat="43.74911" lon="5.59227">
        <ele>463</ele>
        <time>2022-08-13T07:52:45Z</time>
      </trkpt>
      <trkpt lat="43.74906" lon="5.59231">
        <ele>464</ele>
        <time>2022-08-13T07:52:48Z</time>
      </trkpt>
      <trkpt lat="43.74902" lon="5.59234">
        <ele>464</ele>
        <time>2022-08-13T07:52:51Z</time>
      </trkpt>
      <trkpt lat="43.74897" lon="5.59238">
        <ele>465</ele>
        <time>2022-08-13T07:52:54Z</time>
      </trkpt>
      <trkpt lat="43.74893" lon="5.59243">
        <ele>466</ele>
        <time>2022-08-13T07:52:57Z</time>
      </trkpt>
      <trkpt lat="43.74889" lon="5.59249">
        <ele>467</ele>
        <time>2022-08-13T07:53:00Z</time>
      </trkpt>
      <trkpt lat="43.74886" lon="5.59254">
        <ele>468</ele>
        <time>2022-08-13T07:53:03Z</time>
      </trkpt>
      <trkpt lat="43.74881" lon="5.59259">
        <ele>469</ele>
        <time>2022-08-13T07:53:06Z</time>
      </trkpt>
      <trkpt lat="43.74877" lon="5.59263">
        <ele>469</ele>
        <time>2022-08-13T07:53:09Z</time>
      </trkpt>
      <trkpt lat="43.74872" lon="5.59267">
        <ele>470</ele>
        <time>2022-08-13T07:53:12Z</time>
      </trkpt>
      <trkpt lat="43.74868" lon="5.59271">
        <ele>470</ele>
        <time>2022-08-13T07:53:15Z</time>
      </trkpt>
      <trkpt lat="43.74865" lon="5.59277">
        <ele>471</ele>
        <time>2022-08-13T07:53:18Z</time>
      </trkpt>
      <trkpt lat="43.7486" lon="5.59282">
        <ele>472</ele>
        <time>2022-08-13T07:53:21Z</time>
      </trkpt>
      <trkpt lat="43.74857" lon="5.59288">
        <ele>472</ele>
        <time>2022-08-13T07:53:24Z</time>
      </trkpt>
      <trkpt lat="43.74854" lon="5.59295">
        <ele>473</ele>
        <time>2022-08-13T07:53:27Z</time>
      </trkpt>
      <trkpt lat="43.74852" lon="5.59301">
        <ele>474</ele>
        <time>2022-08-13T07:53:30Z</time>
      </trkpt>
      <trkpt lat="43.74848" lon="5.59306">
        <ele>474</ele>
        <time>2022-08-13T07:53:33Z</time>
      </trkpt>
      <trkpt lat="43.74845" lon="5.59312">
        <ele>475</ele>
        <time>2022-08-13T07:53:36Z</time>
      </trkpt>
      <trkpt lat="43.74842" lon="5.59317">
        <ele>475</ele>
        <time>2022-08-13T07:53:39Z</time>
      </trkpt>
      <trkpt lat="43.74839" lon="5.59324">
        <ele>475</ele>
        <time>2022-08-13T07:53:42Z</time>
      </trkpt>
      <trkpt lat="43.74836" lon="5.5933">
        <ele>476</ele>
        <time>2022-08-13T07:53:45Z</time>
      </trkpt>
      <trkpt lat="43.74834" lon="5.59337">
        <ele>476</ele>
        <time>2022-08-13T07:53:48Z</time>
      </trkpt>
      <trkpt lat="43.74832" lon="5.59343">
        <ele>477</ele>
        <time>2022-08-13T07:53:51Z</time>
      </trkpt>
      <trkpt lat="43.7483" lon="5.5935">
        <ele>478</ele>
        <time>2022-08-13T07:53:54Z</time>
      </trkpt>
      <trkpt lat="43.74829" lon="5.59358">
        <ele>479</ele>
        <time>2022-08-13T07:53:57Z</time>
      </trkpt>
      <trkpt lat="43.74828" lon="5.59365">
        <ele>480</ele>
        <time>2022-08-13T07:54:00Z</time>
      </trkpt>
      <trkpt lat="43.74827" lon="5.59372">
        <ele>482</ele>
        <time>2022-08-13T07:54:03Z</time>
      </trkpt>
      <trkpt lat="43.74828" lon="5.5938">
        <ele>483</ele>
        <time>2022-08-13T07:54:06Z</time>
      </trkpt>
      <trkpt lat="43.74831" lon="5.59385">
        <ele>484</ele>
        <time>2022-08-13T07:54:08Z</time>
      </trkpt>
      <trkpt lat="43.74833" lon="5.59393">
        <ele>485</ele>
        <time>2022-08-13T07:54:11Z</time>
      </trkpt>
      <trkpt lat="43.74833" lon="5.594">
        <ele>485</ele>
        <time>2022-08-13T07:54:14Z</time>
      </trkpt>
      <trkpt lat="43.74834" lon="5.59408">
        <ele>486</ele>
        <time>2022-08-13T07:54:17Z</time>
      </trkpt>
      <trkpt lat="43.74834" lon="5.59416">
        <ele>486</ele>
        <time>2022-08-13T07:54:20Z</time>
      </trkpt>
      <trkpt lat="43.74834" lon="5.59425">
        <ele>486</ele>
        <time>2022-08-13T07:54:23Z</time>
      </trkpt>
      <trkpt lat="43.74833" lon="5.59433">
        <ele>487</ele>
        <time>2022-08-13T07:54:26Z</time>
      </trkpt>
      <trkpt lat="43.74832" lon="5.59441">
        <ele>487</ele>
        <time>2022-08-13T07:54:29Z</time>
      </trkpt>
      <trkpt lat="43.74831" lon="5.59448">
        <ele>487</ele>
        <time>2022-08-13T07:54:32Z</time>
      </trkpt>
      <trkpt lat="43.74829" lon="5.59456">
        <ele>487</ele>
        <time>2022-08-13T07:54:35Z</time>
      </trkpt>
      <trkpt lat="43.74827" lon="5.59464">
        <ele>488</ele>
        <time>2022-08-13T07:54:38Z</time>
      </trkpt>
      <trkpt lat="43.74825" lon="5.59471">
        <ele>489</ele>
        <time>2022-08-13T07:54:41Z</time>
      </trkpt>
      <trkpt lat="43.74823" lon="5.59478">
        <ele>489</ele>
        <time>2022-08-13T07:54:44Z</time>
      </trkpt>
      <trkpt lat="43.74822" lon="5.59485">
        <ele>490</ele>
        <time>2022-08-13T07:54:47Z</time>
      </trkpt>
      <trkpt lat="43.7482" lon="5.59493">
        <ele>490</ele>
        <time>2022-08-13T07:54:50Z</time>
      </trkpt>
      <trkpt lat="43.74819" lon="5.595">
        <ele>491</ele>
        <time>2022-08-13T07:54:53Z</time>
      </trkpt>
      <trkpt lat="43.74819" lon="5.59507">
        <ele>491</ele>
        <time>2022-08-13T07:54:56Z</time>
      </trkpt>
      <trkpt lat="43.74807" lon="5.59542">
        <ele>489</ele>
        <time>2022-08-13T08:01:45Z</time>
      </trkpt>
      <trkpt lat="43.74805" lon="5.59549">
        <ele>489</ele>
        <time>2022-08-13T08:01:48Z</time>
      </trkpt>
      <trkpt lat="43.74803" lon="5.59557">
        <ele>490</ele>
        <time>2022-08-13T08:01:51Z</time>
      </trkpt>
      <trkpt lat="43.74802" lon="5.59566">
        <ele>489</ele>
        <time>2022-08-13T08:01:54Z</time>
      </trkpt>
      <trkpt lat="43.74802" lon="5.59572">
        <ele>490</ele>
        <time>2022-08-13T08:01:56Z</time>
      </trkpt>
      <trkpt lat="43.74801" lon="5.59579">
        <ele>490</ele>
        <time>2022-08-13T08:01:58Z</time>
      </trkpt>
      <trkpt lat="43.748" lon="5.59585">
        <ele>490</ele>
        <time>2022-08-13T08:02:00Z</time>
      </trkpt>
      <trkpt lat="43.74799" lon="5.59591">
        <ele>490</ele>
        <time>2022-08-13T08:02:02Z</time>
      </trkpt>
      <trkpt lat="43.74797" lon="5.596">
        <ele>490</ele>
        <time>2022-08-13T08:02:05Z</time>
      </trkpt>
      <trkpt lat="43.74794" lon="5.59608">
        <ele>491</ele>
        <time>2022-08-13T08:02:08Z</time>
      </trkpt>
      <trkpt lat="43.74792" lon="5.59613">
        <ele>491</ele>
        <time>2022-08-13T08:02:10Z</time>
      </trkpt>
      <trkpt lat="43.74787" lon="5.59619">
        <ele>491</ele>
        <time>2022-08-13T08:02:13Z</time>
      </trkpt>
      <trkpt lat="43.74783" lon="5.59624">
        <ele>492</ele>
        <time>2022-08-13T08:02:15Z</time>
      </trkpt>
      <trkpt lat="43.7478" lon="5.59629">
        <ele>492</ele>
        <time>2022-08-13T08:02:17Z</time>
      </trkpt>
      <trkpt lat="43.74775" lon="5.59636">
        <ele>493</ele>
        <time>2022-08-13T08:02:19Z</time>
      </trkpt>
      <trkpt lat="43.74771" lon="5.59642">
        <ele>493</ele>
        <time>2022-08-13T08:02:21Z</time>
      </trkpt>
      <trkpt lat="43.74767" lon="5.5965">
        <ele>493</ele>
        <time>2022-08-13T08:02:23Z</time>
      </trkpt>
      <trkpt lat="43.74762" lon="5.59661">
        <ele>493</ele>
        <time>2022-08-13T08:02:25Z</time>
      </trkpt>
      <trkpt lat="43.74759" lon="5.59667">
        <ele>493</ele>
        <time>2022-08-13T08:02:26Z</time>
      </trkpt>
      <trkpt lat="43.74757" lon="5.59674">
        <ele>493</ele>
        <time>2022-08-13T08:02:27Z</time>
      </trkpt>
      <trkpt lat="43.74753" lon="5.59682">
        <ele>492</ele>
        <time>2022-08-13T08:02:28Z</time>
      </trkpt>
      <trkpt lat="43.74752" lon="5.5969">
        <ele>491</ele>
        <time>2022-08-13T08:02:29Z</time>
      </trkpt>
      <trkpt lat="43.74751" lon="5.59699">
        <ele>491</ele>
        <time>2022-08-13T08:02:30Z</time>
      </trkpt>
      <trkpt lat="43.74749" lon="5.59709">
        <ele>490</ele>
        <time>2022-08-13T08:02:31Z</time>
      </trkpt>
      <trkpt lat="43.74747" lon="5.5972">
        <ele>490</ele>
        <time>2022-08-13T08:02:32Z</time>
      </trkpt>
      <trkpt lat="43.74744" lon="5.5973">
        <ele>489</ele>
        <time>2022-08-13T08:02:33Z</time>
      </trkpt>
      <trkpt lat="43.74741" lon="5.59742">
        <ele>489</ele>
        <time>2022-08-13T08:02:34Z</time>
      </trkpt>
      <trkpt lat="43.74738" lon="5.59754">
        <ele>488</ele>
        <time>2022-08-13T08:02:35Z</time>
      </trkpt>
      <trkpt lat="43.74735" lon="5.59767">
        <ele>487</ele>
        <time>2022-08-13T08:02:36Z</time>
      </trkpt>
      <trkpt lat="43.74732" lon="5.5978">
        <ele>485</ele>
        <time>2022-08-13T08:02:37Z</time>
      </trkpt>
      <trkpt lat="43.74728" lon="5.59794">
        <ele>484</ele>
        <time>2022-08-13T08:02:38Z</time>
      </trkpt>
      <trkpt lat="43.74724" lon="5.5981">
        <ele>482</ele>
        <time>2022-08-13T08:02:39Z</time>
      </trkpt>
      <trkpt lat="43.74719" lon="5.59824">
        <ele>480</ele>
        <time>2022-08-13T08:02:40Z</time>
      </trkpt>
      <trkpt lat="43.74712" lon="5.59834">
        <ele>478</ele>
        <time>2022-08-13T08:02:41Z</time>
      </trkpt>
      <trkpt lat="43.74707" lon="5.59842">
        <ele>477</ele>
        <time>2022-08-13T08:02:42Z</time>
      </trkpt>
      <trkpt lat="43.74704" lon="5.59851">
        <ele>475</ele>
        <time>2022-08-13T08:02:43Z</time>
      </trkpt>
      <trkpt lat="43.74703" lon="5.59861">
        <ele>474</ele>
        <time>2022-08-13T08:02:44Z</time>
      </trkpt>
      <trkpt lat="43.74702" lon="5.59872">
        <ele>473</ele>
        <time>2022-08-13T08:02:45Z</time>
      </trkpt>
      <trkpt lat="43.74698" lon="5.59882">
        <ele>473</ele>
        <time>2022-08-13T08:02:46Z</time>
      </trkpt>
      <trkpt lat="43.74693" lon="5.5989">
        <ele>472</ele>
        <time>2022-08-13T08:02:47Z</time>
      </trkpt>
      <trkpt lat="43.74689" lon="5.59897">
        <ele>472</ele>
        <time>2022-08-13T08:02:48Z</time>
      </trkpt>
      <trkpt lat="43.74686" lon="5.59903">
        <ele>472</ele>
        <time>2022-08-13T08:02:49Z</time>
      </trkpt>
      <trkpt lat="43.74685" lon="5.5991">
        <ele>473</ele>
        <time>2022-08-13T08:02:50Z</time>
      </trkpt>
      <trkpt lat="43.74683" lon="5.59921">
        <ele>474</ele>
        <time>2022-08-13T08:02:52Z</time>
      </trkpt>
      <trkpt lat="43.7468" lon="5.5993">
        <ele>474</ele>
        <time>2022-08-13T08:02:54Z</time>
      </trkpt>
      <trkpt lat="43.74678" lon="5.59939">
        <ele>475</ele>
        <time>2022-08-13T08:02:56Z</time>
      </trkpt>
      <trkpt lat="43.74675" lon="5.59948">
        <ele>476</ele>
        <time>2022-08-13T08:02:58Z</time>
      </trkpt>
      <trkpt lat="43.74674" lon="5.59957">
        <ele>476</ele>
        <time>2022-08-13T08:03:00Z</time>
      </trkpt>
      <trkpt lat="43.74671" lon="5.59965">
        <ele>476</ele>
        <time>2022-08-13T08:03:03Z</time>
      </trkpt>
      <trkpt lat="43.74668" lon="5.5997">
        <ele>477</ele>
        <time>2022-08-13T08:03:05Z</time>
      </trkpt>
      <trkpt lat="43.74662" lon="5.59974">
        <ele>477</ele>
        <time>2022-08-13T08:03:08Z</time>
      </trkpt>
      <trkpt lat="43.74657" lon="5.59973">
        <ele>477</ele>
        <time>2022-08-13T08:03:10Z</time>
      </trkpt>
      <trkpt lat="43.74652" lon="5.5997">
        <ele>478</ele>
        <time>2022-08-13T08:03:13Z</time>
      </trkpt>
      <trkpt lat="43.74647" lon="5.59966">
        <ele>478</ele>
        <time>2022-08-13T08:03:16Z</time>
      </trkpt>
      <trkpt lat="43.74643" lon="5.5996">
        <ele>478</ele>
        <time>2022-08-13T08:03:19Z</time>
      </trkpt>
      <trkpt lat="43.7464" lon="5.59955">
        <ele>478</ele>
        <time>2022-08-13T08:03:22Z</time>
      </trkpt>
      <trkpt lat="43.74636" lon="5.59949">
        <ele>479</ele>
        <time>2022-08-13T08:03:25Z</time>
      </trkpt>
      <trkpt lat="43.74631" lon="5.59944">
        <ele>479</ele>
        <time>2022-08-13T08:03:28Z</time>
      </trkpt>
      <trkpt lat="43.74625" lon="5.59942">
        <ele>480</ele>
        <time>2022-08-13T08:03:31Z</time>
      </trkpt>
      <trkpt lat="43.7462" lon="5.5994">
        <ele>481</ele>
        <time>2022-08-13T08:03:34Z</time>
      </trkpt>
      <trkpt lat="43.74614" lon="5.59941">
        <ele>481</ele>
        <time>2022-08-13T08:03:37Z</time>
      </trkpt>
      <trkpt lat="43.74609" lon="5.59942">
        <ele>482</ele>
        <time>2022-08-13T08:03:40Z</time>
      </trkpt>
      <trkpt lat="43.74603" lon="5.59943">
        <ele>482</ele>
        <time>2022-08-13T08:03:43Z</time>
      </trkpt>
      <trkpt lat="43.74598" lon="5.59945">
        <ele>483</ele>
        <time>2022-08-13T08:03:46Z</time>
      </trkpt>
      <trkpt lat="43.74593" lon="5.59947">
        <ele>483</ele>
        <time>2022-08-13T08:03:49Z</time>
      </trkpt>
      <trkpt lat="43.74586" lon="5.59948">
        <ele>483</ele>
        <time>2022-08-13T08:03:52Z</time>
      </trkpt>
      <trkpt lat="43.74581" lon="5.59949">
        <ele>483</ele>
        <time>2022-08-13T08:03:54Z</time>
      </trkpt>
      <trkpt lat="43.74574" lon="5.59951">
        <ele>483</ele>
        <time>2022-08-13T08:03:56Z</time>
      </trkpt>
      <trkpt lat="43.74568" lon="5.59952">
        <ele>483</ele>
        <time>2022-08-13T08:03:58Z</time>
      </trkpt>
      <trkpt lat="43.74562" lon="5.59953">
        <ele>483</ele>
        <time>2022-08-13T08:04:00Z</time>
      </trkpt>
      <trkpt lat="43.74556" lon="5.59952">
        <ele>482</ele>
        <time>2022-08-13T08:04:02Z</time>
      </trkpt>
      <trkpt lat="43.74551" lon="5.59952">
        <ele>482</ele>
        <time>2022-08-13T08:04:04Z</time>
      </trkpt>
      <trkpt lat="43.74545" lon="5.59951">
        <ele>483</ele>
        <time>2022-08-13T08:04:06Z</time>
      </trkpt>
      <trkpt lat="43.74539" lon="5.5995">
        <ele>483</ele>
        <time>2022-08-13T08:04:08Z</time>
      </trkpt>
      <trkpt lat="43.74534" lon="5.5995">
        <ele>484</ele>
        <time>2022-08-13T08:04:10Z</time>
      </trkpt>
      <trkpt lat="43.74528" lon="5.59951">
        <ele>484</ele>
        <time>2022-08-13T08:04:12Z</time>
      </trkpt>
      <trkpt lat="43.74522" lon="5.59951">
        <ele>484</ele>
        <time>2022-08-13T08:04:14Z</time>
      </trkpt>
      <trkpt lat="43.74516" lon="5.59953">
        <ele>485</ele>
        <time>2022-08-13T08:04:16Z</time>
      </trkpt>
      <trkpt lat="43.7451" lon="5.59953">
        <ele>485</ele>
        <time>2022-08-13T08:04:18Z</time>
      </trkpt>
      <trkpt lat="43.74504" lon="5.59954">
        <ele>486</ele>
        <time>2022-08-13T08:04:20Z</time>
      </trkpt>
      <trkpt lat="43.74498" lon="5.59955">
        <ele>486</ele>
        <time>2022-08-13T08:04:22Z</time>
      </trkpt>
      <trkpt lat="43.74492" lon="5.59956">
        <ele>487</ele>
        <time>2022-08-13T08:04:24Z</time>
      </trkpt>
      <trkpt lat="43.74487" lon="5.59957">
        <ele>487</ele>
        <time>2022-08-13T08:04:26Z</time>
      </trkpt>
      <trkpt lat="43.7448" lon="5.59956">
        <ele>487</ele>
        <time>2022-08-13T08:04:28Z</time>
      </trkpt>
      <trkpt lat="43.74474" lon="5.59956">
        <ele>487</ele>
        <time>2022-08-13T08:04:30Z</time>
      </trkpt>
      <trkpt lat="43.74468" lon="5.59957">
        <ele>487</ele>
        <time>2022-08-13T08:04:32Z</time>
      </trkpt>
      <trkpt lat="43.7446" lon="5.59959">
        <ele>487</ele>
        <time>2022-08-13T08:04:34Z</time>
      </trkpt>
      <trkpt lat="43.74454" lon="5.59963">
        <ele>487</ele>
        <time>2022-08-13T08:04:36Z</time>
      </trkpt>
      <trkpt lat="43.74448" lon="5.59972">
        <ele>487</ele>
        <time>2022-08-13T08:04:38Z</time>
      </trkpt>
      <trkpt lat="43.74444" lon="5.59982">
        <ele>486</ele>
        <time>2022-08-13T08:04:40Z</time>
      </trkpt>
      <trkpt lat="43.74444" lon="5.59989">
        <ele>486</ele>
        <time>2022-08-13T08:04:41Z</time>
      </trkpt>
      <trkpt lat="43.74442" lon="5.59996">
        <ele>486</ele>
        <time>2022-08-13T08:04:42Z</time>
      </trkpt>
      <trkpt lat="43.74442" lon="5.60003">
        <ele>486</ele>
        <time>2022-08-13T08:04:43Z</time>
      </trkpt>
      <trkpt lat="43.74442" lon="5.6001">
        <ele>486</ele>
        <time>2022-08-13T08:04:44Z</time>
      </trkpt>
      <trkpt lat="43.74442" lon="5.60016">
        <ele>486</ele>
        <time>2022-08-13T08:04:45Z</time>
      </trkpt>
      <trkpt lat="43.74439" lon="5.60023">
        <ele>486</ele>
        <time>2022-08-13T08:04:46Z</time>
      </trkpt>
      <trkpt lat="43.74438" lon="5.60031">
        <ele>486</ele>
        <time>2022-08-13T08:04:47Z</time>
      </trkpt>
      <trkpt lat="43.74437" lon="5.60038">
        <ele>486</ele>
        <time>2022-08-13T08:04:48Z</time>
      </trkpt>
      <trkpt lat="43.74434" lon="5.60044">
        <ele>485</ele>
        <time>2022-08-13T08:04:49Z</time>
      </trkpt>
      <trkpt lat="43.74427" lon="5.60049">
        <ele>485</ele>
        <time>2022-08-13T08:04:51Z</time>
      </trkpt>
      <trkpt lat="43.74423" lon="5.60049">
        <ele>485</ele>
        <time>2022-08-13T08:04:52Z</time>
      </trkpt>
      <trkpt lat="43.74416" lon="5.60044">
        <ele>485</ele>
        <time>2022-08-13T08:04:54Z</time>
      </trkpt>
      <trkpt lat="43.74411" lon="5.6004">
        <ele>485</ele>
        <time>2022-08-13T08:04:55Z</time>
      </trkpt>
      <trkpt lat="43.74405" lon="5.60039">
        <ele>486</ele>
        <time>2022-08-13T08:04:57Z</time>
      </trkpt>
      <trkpt lat="43.74397" lon="5.6004">
        <ele>486</ele>
        <time>2022-08-13T08:04:59Z</time>
      </trkpt>
      <trkpt lat="43.74389" lon="5.60041">
        <ele>486</ele>
        <time>2022-08-13T08:05:01Z</time>
      </trkpt>
      <trkpt lat="43.74382" lon="5.60043">
        <ele>487</ele>
        <time>2022-08-13T08:05:03Z</time>
      </trkpt>
      <trkpt lat="43.74375" lon="5.60045">
        <ele>487</ele>
        <time>2022-08-13T08:05:05Z</time>
      </trkpt>
      <trkpt lat="43.74369" lon="5.60046">
        <ele>488</ele>
        <time>2022-08-13T08:05:07Z</time>
      </trkpt>
      <trkpt lat="43.74363" lon="5.60047">
        <ele>488</ele>
        <time>2022-08-13T08:05:09Z</time>
      </trkpt>
      <trkpt lat="43.74358" lon="5.60048">
        <ele>489</ele>
        <time>2022-08-13T08:05:11Z</time>
      </trkpt>
      <trkpt lat="43.74352" lon="5.6005">
        <ele>489</ele>
        <time>2022-08-13T08:05:13Z</time>
      </trkpt>
      <trkpt lat="43.74347" lon="5.60051">
        <ele>489</ele>
        <time>2022-08-13T08:05:15Z</time>
      </trkpt>
      <trkpt lat="43.74341" lon="5.60053">
        <ele>489</ele>
        <time>2022-08-13T08:05:17Z</time>
      </trkpt>
      <trkpt lat="43.74336" lon="5.60054">
        <ele>489</ele>
        <time>2022-08-13T08:05:19Z</time>
      </trkpt>
      <trkpt lat="43.7433" lon="5.60056">
        <ele>489</ele>
        <time>2022-08-13T08:05:21Z</time>
      </trkpt>
      <trkpt lat="43.74325" lon="5.60058">
        <ele>489</ele>
        <time>2022-08-13T08:05:23Z</time>
      </trkpt>
      <trkpt lat="43.7432" lon="5.6006">
        <ele>489</ele>
        <time>2022-08-13T08:05:25Z</time>
      </trkpt>
      <trkpt lat="43.74316" lon="5.60062">
        <ele>490</ele>
        <time>2022-08-13T08:05:27Z</time>
      </trkpt>
      <trkpt lat="43.7431" lon="5.60064">
        <ele>490</ele>
        <time>2022-08-13T08:05:29Z</time>
      </trkpt>
      <trkpt lat="43.74305" lon="5.60066">
        <ele>490</ele>
        <time>2022-08-13T08:05:31Z</time>
      </trkpt>
      <trkpt lat="43.743" lon="5.60069">
        <ele>490</ele>
        <time>2022-08-13T08:05:33Z</time>
      </trkpt>
      <trkpt lat="43.74296" lon="5.60072">
        <ele>490</ele>
        <time>2022-08-13T08:05:35Z</time>
      </trkpt>
      <trkpt lat="43.74291" lon="5.60075">
        <ele>491</ele>
        <time>2022-08-13T08:05:37Z</time>
      </trkpt>
      <trkpt lat="43.74287" lon="5.60078">
        <ele>491</ele>
        <time>2022-08-13T08:05:39Z</time>
      </trkpt>
      <trkpt lat="43.74283" lon="5.60082">
        <ele>492</ele>
        <time>2022-08-13T08:05:41Z</time>
      </trkpt>
      <trkpt lat="43.74279" lon="5.60086">
        <ele>492</ele>
        <time>2022-08-13T08:05:43Z</time>
      </trkpt>
      <trkpt lat="43.74276" lon="5.60091">
        <ele>493</ele>
        <time>2022-08-13T08:05:45Z</time>
      </trkpt>
      <trkpt lat="43.74273" lon="5.60095">
        <ele>493</ele>
        <time>2022-08-13T08:05:47Z</time>
      </trkpt>
      <trkpt lat="43.74268" lon="5.60102">
        <ele>494</ele>
        <time>2022-08-13T08:05:50Z</time>
      </trkpt>
      <trkpt lat="43.74265" lon="5.60107">
        <ele>495</ele>
        <time>2022-08-13T08:05:52Z</time>
      </trkpt>
      <trkpt lat="43.74261" lon="5.60112">
        <ele>496</ele>
        <time>2022-08-13T08:05:55Z</time>
      </trkpt>
      <trkpt lat="43.74257" lon="5.60119">
        <ele>497</ele>
        <time>2022-08-13T08:05:58Z</time>
      </trkpt>
      <trkpt lat="43.74254" lon="5.60126">
        <ele>498</ele>
        <time>2022-08-13T08:06:01Z</time>
      </trkpt>
      <trkpt lat="43.74251" lon="5.60134">
        <ele>499</ele>
        <time>2022-08-13T08:06:04Z</time>
      </trkpt>
      <trkpt lat="43.74248" lon="5.60141">
        <ele>500</ele>
        <time>2022-08-13T08:06:07Z</time>
      </trkpt>
      <trkpt lat="43.74245" lon="5.60149">
        <ele>501</ele>
        <time>2022-08-13T08:06:10Z</time>
      </trkpt>
      <trkpt lat="43.74242" lon="5.60157">
        <ele>502</ele>
        <time>2022-08-13T08:06:13Z</time>
      </trkpt>
      <trkpt lat="43.7424" lon="5.60164">
        <ele>504</ele>
        <time>2022-08-13T08:06:16Z</time>
      </trkpt>
      <trkpt lat="43.74238" lon="5.60172">
        <ele>505</ele>
        <time>2022-08-13T08:06:19Z</time>
      </trkpt>
      <trkpt lat="43.74237" lon="5.6018">
        <ele>506</ele>
        <time>2022-08-13T08:06:22Z</time>
      </trkpt>
      <trkpt lat="43.74235" lon="5.60189">
        <ele>507</ele>
        <time>2022-08-13T08:06:25Z</time>
      </trkpt>
      <trkpt lat="43.74233" lon="5.60195">
        <ele>507</ele>
        <time>2022-08-13T08:06:27Z</time>
      </trkpt>
      <trkpt lat="43.74232" lon="5.60202">
        <ele>508</ele>
        <time>2022-08-13T08:06:30Z</time>
      </trkpt>
      <trkpt lat="43.74232" lon="5.60209">
        <ele>508</ele>
        <time>2022-08-13T08:06:33Z</time>
      </trkpt>
      <trkpt lat="43.74231" lon="5.60215">
        <ele>508</ele>
        <time>2022-08-13T08:06:36Z</time>
      </trkpt>
      <trkpt lat="43.7423" lon="5.60222">
        <ele>508</ele>
        <time>2022-08-13T08:06:39Z</time>
      </trkpt>
      <trkpt lat="43.74229" lon="5.60229">
        <ele>507</ele>
        <time>2022-08-13T08:06:41Z</time>
      </trkpt>
      <trkpt lat="43.74228" lon="5.60237">
        <ele>506</ele>
        <time>2022-08-13T08:06:44Z</time>
      </trkpt>
      <trkpt lat="43.74228" lon="5.60243">
        <ele>505</ele>
        <time>2022-08-13T08:06:47Z</time>
      </trkpt>
      <trkpt lat="43.74226" lon="5.60251">
        <ele>504</ele>
        <time>2022-08-13T08:06:50Z</time>
      </trkpt>
      <trkpt lat="43.74225" lon="5.60257">
        <ele>504</ele>
        <time>2022-08-13T08:06:53Z</time>
      </trkpt>
      <trkpt lat="43.74223" lon="5.60265">
        <ele>504</ele>
        <time>2022-08-13T08:06:56Z</time>
      </trkpt>
      <trkpt lat="43.7422" lon="5.60272">
        <ele>505</ele>
        <time>2022-08-13T08:06:59Z</time>
      </trkpt>
      <trkpt lat="43.74218" lon="5.60279">
        <ele>505</ele>
        <time>2022-08-13T08:07:02Z</time>
      </trkpt>
      <trkpt lat="43.74215" lon="5.60286">
        <ele>506</ele>
        <time>2022-08-13T08:07:05Z</time>
      </trkpt>
      <trkpt lat="43.74212" lon="5.60293">
        <ele>507</ele>
        <time>2022-08-13T08:07:08Z</time>
      </trkpt>
      <trkpt lat="43.74208" lon="5.60299">
        <ele>508</ele>
        <time>2022-08-13T08:07:11Z</time>
      </trkpt>
      <trkpt lat="43.74205" lon="5.60306">
        <ele>509</ele>
        <time>2022-08-13T08:07:14Z</time>
      </trkpt>
      <trkpt lat="43.74202" lon="5.60311">
        <ele>510</ele>
        <time>2022-08-13T08:07:17Z</time>
      </trkpt>
      <trkpt lat="43.74198" lon="5.60317">
        <ele>510</ele>
        <time>2022-08-13T08:07:20Z</time>
      </trkpt>
      <trkpt lat="43.74194" lon="5.60324">
        <ele>510</ele>
        <time>2022-08-13T08:07:23Z</time>
      </trkpt>
      <trkpt lat="43.74189" lon="5.6033">
        <ele>510</ele>
        <time>2022-08-13T08:07:26Z</time>
      </trkpt>
      <trkpt lat="43.74185" lon="5.60335">
        <ele>510</ele>
        <time>2022-08-13T08:07:29Z</time>
      </trkpt>
      <trkpt lat="43.74181" lon="5.60341">
        <ele>510</ele>
        <time>2022-08-13T08:07:32Z</time>
      </trkpt>
      <trkpt lat="43.74177" lon="5.60347">
        <ele>511</ele>
        <time>2022-08-13T08:07:35Z</time>
      </trkpt>
      <trkpt lat="43.74173" lon="5.60353">
        <ele>512</ele>
        <time>2022-08-13T08:07:38Z</time>
      </trkpt>
      <trkpt lat="43.74169" lon="5.60358">
        <ele>512</ele>
        <time>2022-08-13T08:07:41Z</time>
      </trkpt>
      <trkpt lat="43.74164" lon="5.60363">
        <ele>513</ele>
        <time>2022-08-13T08:07:44Z</time>
      </trkpt>
      <trkpt lat="43.7416" lon="5.60367">
        <ele>514</ele>
        <time>2022-08-13T08:07:47Z</time>
      </trkpt>
      <trkpt lat="43.74156" lon="5.60372">
        <ele>514</ele>
        <time>2022-08-13T08:07:50Z</time>
      </trkpt>
      <trkpt lat="43.74154" lon="5.60379">
        <ele>515</ele>
        <time>2022-08-13T08:07:53Z</time>
      </trkpt>
      <trkpt lat="43.74153" lon="5.60387">
        <ele>516</ele>
        <time>2022-08-13T08:07:56Z</time>
      </trkpt>
      <trkpt lat="43.74154" lon="5.60394">
        <ele>516</ele>
        <time>2022-08-13T08:07:59Z</time>
      </trkpt>
      <trkpt lat="43.74155" lon="5.60402">
        <ele>516</ele>
        <time>2022-08-13T08:08:02Z</time>
      </trkpt>
      <trkpt lat="43.74159" lon="5.60408">
        <ele>516</ele>
        <time>2022-08-13T08:08:05Z</time>
      </trkpt>
      <trkpt lat="43.74164" lon="5.60414">
        <ele>516</ele>
        <time>2022-08-13T08:08:08Z</time>
      </trkpt>
      <trkpt lat="43.74169" lon="5.60419">
        <ele>516</ele>
        <time>2022-08-13T08:08:11Z</time>
      </trkpt>
      <trkpt lat="43.74173" lon="5.60422">
        <ele>516</ele>
        <time>2022-08-13T08:08:13Z</time>
      </trkpt>
      <trkpt lat="43.74177" lon="5.60425">
        <ele>516</ele>
        <time>2022-08-13T08:08:15Z</time>
      </trkpt>
      <trkpt lat="43.74181" lon="5.60428">
        <ele>516</ele>
        <time>2022-08-13T08:08:17Z</time>
      </trkpt>
      <trkpt lat="43.74185" lon="5.60432">
        <ele>515</ele>
        <time>2022-08-13T08:08:19Z</time>
      </trkpt>
      <trkpt lat="43.74189" lon="5.60436">
        <ele>515</ele>
        <time>2022-08-13T08:08:21Z</time>
      </trkpt>
      <trkpt lat="43.74194" lon="5.60441">
        <ele>515</ele>
        <time>2022-08-13T08:08:24Z</time>
      </trkpt>
      <trkpt lat="43.74199" lon="5.60446">
        <ele>516</ele>
        <time>2022-08-13T08:08:27Z</time>
      </trkpt>
      <trkpt lat="43.74204" lon="5.60451">
        <ele>516</ele>
        <time>2022-08-13T08:08:30Z</time>
      </trkpt>
      <trkpt lat="43.74208" lon="5.60457">
        <ele>517</ele>
        <time>2022-08-13T08:08:33Z</time>
      </trkpt>
      <trkpt lat="43.74212" lon="5.60463">
        <ele>517</ele>
        <time>2022-08-13T08:08:36Z</time>
      </trkpt>
      <trkpt lat="43.74217" lon="5.60468">
        <ele>518</ele>
        <time>2022-08-13T08:08:39Z</time>
      </trkpt>
      <trkpt lat="43.74223" lon="5.60474">
        <ele>519</ele>
        <time>2022-08-13T08:08:42Z</time>
      </trkpt>
      <trkpt lat="43.74228" lon="5.60479">
        <ele>519</ele>
        <time>2022-08-13T08:08:45Z</time>
      </trkpt>
      <trkpt lat="43.74231" lon="5.60483">
        <ele>520</ele>
        <time>2022-08-13T08:08:47Z</time>
      </trkpt>
      <trkpt lat="43.74235" lon="5.60487">
        <ele>520</ele>
        <time>2022-08-13T08:08:49Z</time>
      </trkpt>
      <trkpt lat="43.7424" lon="5.60492">
        <ele>520</ele>
        <time>2022-08-13T08:08:52Z</time>
      </trkpt>
      <trkpt lat="43.74246" lon="5.60498">
        <ele>520</ele>
        <time>2022-08-13T08:08:55Z</time>
      </trkpt>
      <trkpt lat="43.7425" lon="5.60503">
        <ele>520</ele>
        <time>2022-08-13T08:08:58Z</time>
      </trkpt>
      <trkpt lat="43.74255" lon="5.6051">
        <ele>521</ele>
        <time>2022-08-13T08:09:01Z</time>
      </trkpt>
      <trkpt lat="43.74258" lon="5.60514">
        <ele>521</ele>
        <time>2022-08-13T08:09:03Z</time>
      </trkpt>
      <trkpt lat="43.74262" lon="5.60518">
        <ele>521</ele>
        <time>2022-08-13T08:09:05Z</time>
      </trkpt>
      <trkpt lat="43.74266" lon="5.60523">
        <ele>521</ele>
        <time>2022-08-13T08:09:07Z</time>
      </trkpt>
      <trkpt lat="43.74269" lon="5.60528">
        <ele>521</ele>
        <time>2022-08-13T08:09:09Z</time>
      </trkpt>
      <trkpt lat="43.74273" lon="5.60533">
        <ele>521</ele>
        <time>2022-08-13T08:09:11Z</time>
      </trkpt>
      <trkpt lat="43.74276" lon="5.60539">
        <ele>520</ele>
        <time>2022-08-13T08:09:13Z</time>
      </trkpt>
      <trkpt lat="43.74278" lon="5.60544">
        <ele>520</ele>
        <time>2022-08-13T08:09:15Z</time>
      </trkpt>
      <trkpt lat="43.74282" lon="5.60551">
        <ele>519</ele>
        <time>2022-08-13T08:09:18Z</time>
      </trkpt>
      <trkpt lat="43.74286" lon="5.60557">
        <ele>519</ele>
        <time>2022-08-13T08:09:21Z</time>
      </trkpt>
      <trkpt lat="43.74289" lon="5.60565">
        <ele>519</ele>
        <time>2022-08-13T08:09:24Z</time>
      </trkpt>
      <trkpt lat="43.74292" lon="5.6057">
        <ele>518</ele>
        <time>2022-08-13T08:09:26Z</time>
      </trkpt>
      <trkpt lat="43.74294" lon="5.60576">
        <ele>518</ele>
        <time>2022-08-13T08:09:28Z</time>
      </trkpt>
      <trkpt lat="43.74297" lon="5.60584">
        <ele>518</ele>
        <time>2022-08-13T08:09:31Z</time>
      </trkpt>
      <trkpt lat="43.74301" lon="5.60591">
        <ele>517</ele>
        <time>2022-08-13T08:09:34Z</time>
      </trkpt>
      <trkpt lat="43.74305" lon="5.60599">
        <ele>517</ele>
        <time>2022-08-13T08:09:37Z</time>
      </trkpt>
      <trkpt lat="43.74307" lon="5.60604">
        <ele>517</ele>
        <time>2022-08-13T08:09:39Z</time>
      </trkpt>
      <trkpt lat="43.74311" lon="5.60611">
        <ele>517</ele>
        <time>2022-08-13T08:09:42Z</time>
      </trkpt>
      <trkpt lat="43.74316" lon="5.60618">
        <ele>517</ele>
        <time>2022-08-13T08:09:45Z</time>
      </trkpt>
      <trkpt lat="43.7432" lon="5.60625">
        <ele>518</ele>
        <time>2022-08-13T08:09:48Z</time>
      </trkpt>
      <trkpt lat="43.74324" lon="5.6063">
        <ele>519</ele>
        <time>2022-08-13T08:09:50Z</time>
      </trkpt>
      <trkpt lat="43.74328" lon="5.60636">
        <ele>519</ele>
        <time>2022-08-13T08:09:53Z</time>
      </trkpt>
      <trkpt lat="43.74333" lon="5.60641">
        <ele>519</ele>
        <time>2022-08-13T08:09:56Z</time>
      </trkpt>
      <trkpt lat="43.74338" lon="5.60646">
        <ele>520</ele>
        <time>2022-08-13T08:09:59Z</time>
      </trkpt>
      <trkpt lat="43.74343" lon="5.60651">
        <ele>520</ele>
        <time>2022-08-13T08:10:02Z</time>
      </trkpt>
      <trkpt lat="43.74347" lon="5.60655">
        <ele>520</ele>
        <time>2022-08-13T08:10:04Z</time>
      </trkpt>
      <trkpt lat="43.74351" lon="5.60658">
        <ele>520</ele>
        <time>2022-08-13T08:10:06Z</time>
      </trkpt>
      <trkpt lat="43.74355" lon="5.60662">
        <ele>520</ele>
        <time>2022-08-13T08:10:08Z</time>
      </trkpt>
      <trkpt lat="43.74358" lon="5.60667">
        <ele>521</ele>
        <time>2022-08-13T08:10:10Z</time>
      </trkpt>
      <trkpt lat="43.74361" lon="5.60672">
        <ele>521</ele>
        <time>2022-08-13T08:10:12Z</time>
      </trkpt>
      <trkpt lat="43.74363" lon="5.60678">
        <ele>521</ele>
        <time>2022-08-13T08:10:14Z</time>
      </trkpt>
      <trkpt lat="43.74365" lon="5.60684">
        <ele>522</ele>
        <time>2022-08-13T08:10:16Z</time>
      </trkpt>
      <trkpt lat="43.74365" lon="5.60691">
        <ele>522</ele>
        <time>2022-08-13T08:10:18Z</time>
      </trkpt>
      <trkpt lat="43.74364" lon="5.60698">
        <ele>522</ele>
        <time>2022-08-13T08:10:20Z</time>
      </trkpt>
      <trkpt lat="43.74361" lon="5.60704">
        <ele>523</ele>
        <time>2022-08-13T08:10:22Z</time>
      </trkpt>
      <trkpt lat="43.74355" lon="5.60709">
        <ele>523</ele>
        <time>2022-08-13T08:10:25Z</time>
      </trkpt>
      <trkpt lat="43.7435" lon="5.6071">
        <ele>524</ele>
        <time>2022-08-13T08:10:27Z</time>
      </trkpt>
      <trkpt lat="43.74345" lon="5.6071">
        <ele>524</ele>
        <time>2022-08-13T08:10:29Z</time>
      </trkpt>
      <trkpt lat="43.7434" lon="5.60708">
        <ele>525</ele>
        <time>2022-08-13T08:10:31Z</time>
      </trkpt>
      <trkpt lat="43.74334" lon="5.60706">
        <ele>525</ele>
        <time>2022-08-13T08:10:33Z</time>
      </trkpt>
      <trkpt lat="43.74328" lon="5.60705">
        <ele>526</ele>
        <time>2022-08-13T08:10:35Z</time>
      </trkpt>
      <trkpt lat="43.74323" lon="5.60706">
        <ele>526</ele>
        <time>2022-08-13T08:10:37Z</time>
      </trkpt>
      <trkpt lat="43.74317" lon="5.60709">
        <ele>527</ele>
        <time>2022-08-13T08:10:39Z</time>
      </trkpt>
      <trkpt lat="43.74313" lon="5.60713">
        <ele>527</ele>
        <time>2022-08-13T08:10:41Z</time>
      </trkpt>
      <trkpt lat="43.74308" lon="5.60719">
        <ele>527</ele>
        <time>2022-08-13T08:10:43Z</time>
      </trkpt>
      <trkpt lat="43.74304" lon="5.60725">
        <ele>528</ele>
        <time>2022-08-13T08:10:45Z</time>
      </trkpt>
      <trkpt lat="43.74299" lon="5.60731">
        <ele>528</ele>
        <time>2022-08-13T08:10:47Z</time>
      </trkpt>
      <trkpt lat="43.74293" lon="5.60735">
        <ele>528</ele>
        <time>2022-08-13T08:10:49Z</time>
      </trkpt>
      <trkpt lat="43.74287" lon="5.60735">
        <ele>528</ele>
        <time>2022-08-13T08:10:51Z</time>
      </trkpt>
      <trkpt lat="43.74281" lon="5.60733">
        <ele>528</ele>
        <time>2022-08-13T08:10:53Z</time>
      </trkpt>
      <trkpt lat="43.74275" lon="5.6073">
        <ele>529</ele>
        <time>2022-08-13T08:10:55Z</time>
      </trkpt>
      <trkpt lat="43.7427" lon="5.60725">
        <ele>529</ele>
        <time>2022-08-13T08:10:57Z</time>
      </trkpt>
      <trkpt lat="43.74264" lon="5.6072">
        <ele>530</ele>
        <time>2022-08-13T08:10:59Z</time>
      </trkpt>
      <trkpt lat="43.74259" lon="5.60713">
        <ele>530</ele>
        <time>2022-08-13T08:11:01Z</time>
      </trkpt>
      <trkpt lat="43.74253" lon="5.60708">
        <ele>531</ele>
        <time>2022-08-13T08:11:03Z</time>
      </trkpt>
      <trkpt lat="43.74248" lon="5.60702">
        <ele>531</ele>
        <time>2022-08-13T08:11:05Z</time>
      </trkpt>
      <trkpt lat="43.74241" lon="5.60696">
        <ele>532</ele>
        <time>2022-08-13T08:11:07Z</time>
      </trkpt>
      <trkpt lat="43.74235" lon="5.6069">
        <ele>532</ele>
        <time>2022-08-13T08:11:09Z</time>
      </trkpt>
      <trkpt lat="43.74229" lon="5.60685">
        <ele>532</ele>
        <time>2022-08-13T08:11:11Z</time>
      </trkpt>
      <trkpt lat="43.74222" lon="5.60681">
        <ele>532</ele>
        <time>2022-08-13T08:11:13Z</time>
      </trkpt>
      <trkpt lat="43.74216" lon="5.60677">
        <ele>532</ele>
        <time>2022-08-13T08:11:15Z</time>
      </trkpt>
      <trkpt lat="43.74209" lon="5.60674">
        <ele>532</ele>
        <time>2022-08-13T08:11:17Z</time>
      </trkpt>
      <trkpt lat="43.74201" lon="5.60672">
        <ele>532</ele>
        <time>2022-08-13T08:11:19Z</time>
      </trkpt>
      <trkpt lat="43.74194" lon="5.60672">
        <ele>533</ele>
        <time>2022-08-13T08:11:21Z</time>
      </trkpt>
      <trkpt lat="43.74186" lon="5.60672">
        <ele>533</ele>
        <time>2022-08-13T08:11:23Z</time>
      </trkpt>
      <trkpt lat="43.74179" lon="5.60673">
        <ele>534</ele>
        <time>2022-08-13T08:11:25Z</time>
      </trkpt>
      <trkpt lat="43.74172" lon="5.60675">
        <ele>534</ele>
        <time>2022-08-13T08:11:27Z</time>
      </trkpt>
      <trkpt lat="43.74165" lon="5.60678">
        <ele>534</ele>
        <time>2022-08-13T08:11:29Z</time>
      </trkpt>
      <trkpt lat="43.74157" lon="5.60682">
        <ele>534</ele>
        <time>2022-08-13T08:11:31Z</time>
      </trkpt>
      <trkpt lat="43.7415" lon="5.60686">
        <ele>534</ele>
        <time>2022-08-13T08:11:33Z</time>
      </trkpt>
      <trkpt lat="43.74143" lon="5.6069">
        <ele>534</ele>
        <time>2022-08-13T08:11:35Z</time>
      </trkpt>
      <trkpt lat="43.74135" lon="5.60696">
        <ele>534</ele>
        <time>2022-08-13T08:11:37Z</time>
      </trkpt>
      <trkpt lat="43.74129" lon="5.60701">
        <ele>534</ele>
        <time>2022-08-13T08:11:39Z</time>
      </trkpt>
      <trkpt lat="43.74122" lon="5.60707">
        <ele>534</ele>
        <time>2022-08-13T08:11:41Z</time>
      </trkpt>
      <trkpt lat="43.74116" lon="5.60714">
        <ele>534</ele>
        <time>2022-08-13T08:11:43Z</time>
      </trkpt>
      <trkpt lat="43.7411" lon="5.6072">
        <ele>535</ele>
        <time>2022-08-13T08:11:45Z</time>
      </trkpt>
      <trkpt lat="43.74104" lon="5.60727">
        <ele>535</ele>
        <time>2022-08-13T08:11:47Z</time>
      </trkpt>
      <trkpt lat="43.74099" lon="5.60735">
        <ele>536</ele>
        <time>2022-08-13T08:11:49Z</time>
      </trkpt>
      <trkpt lat="43.74094" lon="5.60743">
        <ele>536</ele>
        <time>2022-08-13T08:11:51Z</time>
      </trkpt>
      <trkpt lat="43.7409" lon="5.60752">
        <ele>537</ele>
        <time>2022-08-13T08:11:53Z</time>
      </trkpt>
      <trkpt lat="43.74086" lon="5.60761">
        <ele>537</ele>
        <time>2022-08-13T08:11:55Z</time>
      </trkpt>
      <trkpt lat="43.74083" lon="5.6077">
        <ele>537</ele>
        <time>2022-08-13T08:11:57Z</time>
      </trkpt>
      <trkpt lat="43.74079" lon="5.60779">
        <ele>537</ele>
        <time>2022-08-13T08:11:59Z</time>
      </trkpt>
      <trkpt lat="43.74077" lon="5.60788">
        <ele>537</ele>
        <time>2022-08-13T08:12:01Z</time>
      </trkpt>
      <trkpt lat="43.74073" lon="5.60797">
        <ele>538</ele>
        <time>2022-08-13T08:12:03Z</time>
      </trkpt>
      <trkpt lat="43.7407" lon="5.60806">
        <ele>538</ele>
        <time>2022-08-13T08:12:05Z</time>
      </trkpt>
      <trkpt lat="43.74067" lon="5.60815">
        <ele>539</ele>
        <time>2022-08-13T08:12:07Z</time>
      </trkpt>
      <trkpt lat="43.74064" lon="5.60823">
        <ele>539</ele>
        <time>2022-08-13T08:12:09Z</time>
      </trkpt>
      <trkpt lat="43.74061" lon="5.60831">
        <ele>539</ele>
        <time>2022-08-13T08:12:11Z</time>
      </trkpt>
      <trkpt lat="43.74057" lon="5.60838">
        <ele>539</ele>
        <time>2022-08-13T08:12:13Z</time>
      </trkpt>
      <trkpt lat="43.74052" lon="5.60845">
        <ele>539</ele>
        <time>2022-08-13T08:12:15Z</time>
      </trkpt>
      <trkpt lat="43.74048" lon="5.6085">
        <ele>539</ele>
        <time>2022-08-13T08:12:17Z</time>
      </trkpt>
      <trkpt lat="43.74043" lon="5.60855">
        <ele>539</ele>
        <time>2022-08-13T08:12:19Z</time>
      </trkpt>
      <trkpt lat="43.74039" lon="5.60861">
        <ele>539</ele>
        <time>2022-08-13T08:12:21Z</time>
      </trkpt>
      <trkpt lat="43.74035" lon="5.60867">
        <ele>539</ele>
        <time>2022-08-13T08:12:23Z</time>
      </trkpt>
      <trkpt lat="43.7403" lon="5.60873">
        <ele>540</ele>
        <time>2022-08-13T08:12:25Z</time>
      </trkpt>
      <trkpt lat="43.74025" lon="5.60879">
        <ele>540</ele>
        <time>2022-08-13T08:12:27Z</time>
      </trkpt>
      <trkpt lat="43.74021" lon="5.60884">
        <ele>540</ele>
        <time>2022-08-13T08:12:29Z</time>
      </trkpt>
      <trkpt lat="43.74016" lon="5.6089">
        <ele>540</ele>
        <time>2022-08-13T08:12:31Z</time>
      </trkpt>
      <trkpt lat="43.74011" lon="5.60896">
        <ele>541</ele>
        <time>2022-08-13T08:12:33Z</time>
      </trkpt>
      <trkpt lat="43.74006" lon="5.60902">
        <ele>541</ele>
        <time>2022-08-13T08:12:35Z</time>
      </trkpt>
      <trkpt lat="43.74002" lon="5.60908">
        <ele>541</ele>
        <time>2022-08-13T08:12:37Z</time>
      </trkpt>
      <trkpt lat="43.73997" lon="5.60914">
        <ele>541</ele>
        <time>2022-08-13T08:12:39Z</time>
      </trkpt>
      <trkpt lat="43.73992" lon="5.6092">
        <ele>541</ele>
        <time>2022-08-13T08:12:41Z</time>
      </trkpt>
      <trkpt lat="43.73988" lon="5.60927">
        <ele>541</ele>
        <time>2022-08-13T08:12:43Z</time>
      </trkpt>
      <trkpt lat="43.73985" lon="5.60934">
        <ele>541</ele>
        <time>2022-08-13T08:12:45Z</time>
      </trkpt>
      <trkpt lat="43.73981" lon="5.60941">
        <ele>541</ele>
        <time>2022-08-13T08:12:47Z</time>
      </trkpt>
      <trkpt lat="43.73977" lon="5.60949">
        <ele>542</ele>
        <time>2022-08-13T08:12:49Z</time>
      </trkpt>
      <trkpt lat="43.73974" lon="5.60957">
        <ele>542</ele>
        <time>2022-08-13T08:12:51Z</time>
      </trkpt>
      <trkpt lat="43.7397" lon="5.60964">
        <ele>542</ele>
        <time>2022-08-13T08:12:53Z</time>
      </trkpt>
      <trkpt lat="43.73967" lon="5.60972">
        <ele>542</ele>
        <time>2022-08-13T08:12:55Z</time>
      </trkpt>
      <trkpt lat="43.73964" lon="5.60979">
        <ele>542</ele>
        <time>2022-08-13T08:12:57Z</time>
      </trkpt>
      <trkpt lat="43.73961" lon="5.60987">
        <ele>542</ele>
        <time>2022-08-13T08:12:59Z</time>
      </trkpt>
      <trkpt lat="43.73959" lon="5.60995">
        <ele>542</ele>
        <time>2022-08-13T08:13:01Z</time>
      </trkpt>
      <trkpt lat="43.73956" lon="5.61004">
        <ele>543</ele>
        <time>2022-08-13T08:13:03Z</time>
      </trkpt>
      <trkpt lat="43.73954" lon="5.61012">
        <ele>543</ele>
        <time>2022-08-13T08:13:05Z</time>
      </trkpt>
      <trkpt lat="43.73951" lon="5.6102">
        <ele>543</ele>
        <time>2022-08-13T08:13:07Z</time>
      </trkpt>
      <trkpt lat="43.7395" lon="5.61029">
        <ele>543</ele>
        <time>2022-08-13T08:13:09Z</time>
      </trkpt>
      <trkpt lat="43.73948" lon="5.61038">
        <ele>543</ele>
        <time>2022-08-13T08:13:11Z</time>
      </trkpt>
      <trkpt lat="43.73946" lon="5.61046">
        <ele>543</ele>
        <time>2022-08-13T08:13:13Z</time>
      </trkpt>
      <trkpt lat="43.73945" lon="5.61053">
        <ele>543</ele>
        <time>2022-08-13T08:13:15Z</time>
      </trkpt>
      <trkpt lat="43.73944" lon="5.61062">
        <ele>543</ele>
        <time>2022-08-13T08:13:17Z</time>
      </trkpt>
      <trkpt lat="43.73943" lon="5.61071">
        <ele>543</ele>
        <time>2022-08-13T08:13:19Z</time>
      </trkpt>
      <trkpt lat="43.73943" lon="5.6108">
        <ele>543</ele>
        <time>2022-08-13T08:13:21Z</time>
      </trkpt>
      <trkpt lat="43.73943" lon="5.61088">
        <ele>543</ele>
        <time>2022-08-13T08:13:23Z</time>
      </trkpt>
      <trkpt lat="43.73943" lon="5.61097">
        <ele>543</ele>
        <time>2022-08-13T08:13:25Z</time>
      </trkpt>
      <trkpt lat="43.73942" lon="5.61106">
        <ele>542</ele>
        <time>2022-08-13T08:13:27Z</time>
      </trkpt>
      <trkpt lat="43.73943" lon="5.61115">
        <ele>542</ele>
        <time>2022-08-13T08:13:29Z</time>
      </trkpt>
      <trkpt lat="43.73943" lon="5.61124">
        <ele>542</ele>
        <time>2022-08-13T08:13:31Z</time>
      </trkpt>
      <trkpt lat="43.73945" lon="5.61132">
        <ele>541</ele>
        <time>2022-08-13T08:13:33Z</time>
      </trkpt>
      <trkpt lat="43.73946" lon="5.61141">
        <ele>541</ele>
        <time>2022-08-13T08:13:35Z</time>
      </trkpt>
      <trkpt lat="43.73949" lon="5.61149">
        <ele>541</ele>
        <time>2022-08-13T08:13:37Z</time>
      </trkpt>
      <trkpt lat="43.73953" lon="5.61156">
        <ele>541</ele>
        <time>2022-08-13T08:13:39Z</time>
      </trkpt>
      <trkpt lat="43.73956" lon="5.61163">
        <ele>541</ele>
        <time>2022-08-13T08:13:41Z</time>
      </trkpt>
      <trkpt lat="43.73961" lon="5.61169">
        <ele>541</ele>
        <time>2022-08-13T08:13:43Z</time>
      </trkpt>
      <trkpt lat="43.73966" lon="5.61174">
        <ele>542</ele>
        <time>2022-08-13T08:13:45Z</time>
      </trkpt>
      <trkpt lat="43.73972" lon="5.61179">
        <ele>542</ele>
        <time>2022-08-13T08:13:47Z</time>
      </trkpt>
      <trkpt lat="43.73978" lon="5.61183">
        <ele>542</ele>
        <time>2022-08-13T08:13:49Z</time>
      </trkpt>
      <trkpt lat="43.73985" lon="5.61186">
        <ele>542</ele>
        <time>2022-08-13T08:13:51Z</time>
      </trkpt>
      <trkpt lat="43.73991" lon="5.61188">
        <ele>542</ele>
        <time>2022-08-13T08:13:53Z</time>
      </trkpt>
      <trkpt lat="43.73999" lon="5.61188">
        <ele>542</ele>
        <time>2022-08-13T08:13:55Z</time>
      </trkpt>
      <trkpt lat="43.74006" lon="5.61188">
        <ele>542</ele>
        <time>2022-08-13T08:13:57Z</time>
      </trkpt>
      <trkpt lat="43.74012" lon="5.61187">
        <ele>542</ele>
        <time>2022-08-13T08:13:59Z</time>
      </trkpt>
      <trkpt lat="43.74019" lon="5.61186">
        <ele>543</ele>
        <time>2022-08-13T08:14:01Z</time>
      </trkpt>
      <trkpt lat="43.74026" lon="5.61187">
        <ele>543</ele>
        <time>2022-08-13T08:14:03Z</time>
      </trkpt>
      <trkpt lat="43.74033" lon="5.61187">
        <ele>543</ele>
        <time>2022-08-13T08:14:05Z</time>
      </trkpt>
      <trkpt lat="43.74039" lon="5.61189">
        <ele>544</ele>
        <time>2022-08-13T08:14:07Z</time>
      </trkpt>
      <trkpt lat="43.74044" lon="5.61194">
        <ele>544</ele>
        <time>2022-08-13T08:14:09Z</time>
      </trkpt>
      <trkpt lat="43.74048" lon="5.61201">
        <ele>544</ele>
        <time>2022-08-13T08:14:11Z</time>
      </trkpt>
      <trkpt lat="43.74051" lon="5.61209">
        <ele>544</ele>
        <time>2022-08-13T08:14:13Z</time>
      </trkpt>
      <trkpt lat="43.74054" lon="5.61217">
        <ele>544</ele>
        <time>2022-08-13T08:14:15Z</time>
      </trkpt>
      <trkpt lat="43.74056" lon="5.61225">
        <ele>544</ele>
        <time>2022-08-13T08:14:17Z</time>
      </trkpt>
      <trkpt lat="43.74058" lon="5.61233">
        <ele>544</ele>
        <time>2022-08-13T08:14:19Z</time>
      </trkpt>
      <trkpt lat="43.7406" lon="5.61241">
        <ele>544</ele>
        <time>2022-08-13T08:14:21Z</time>
      </trkpt>
      <trkpt lat="43.74062" lon="5.61249">
        <ele>544</ele>
        <time>2022-08-13T08:14:23Z</time>
      </trkpt>
      <trkpt lat="43.74065" lon="5.61258">
        <ele>544</ele>
        <time>2022-08-13T08:14:25Z</time>
      </trkpt>
      <trkpt lat="43.74067" lon="5.61266">
        <ele>544</ele>
        <time>2022-08-13T08:14:27Z</time>
      </trkpt>
      <trkpt lat="43.7407" lon="5.61274">
        <ele>544</ele>
        <time>2022-08-13T08:14:29Z</time>
      </trkpt>
      <trkpt lat="43.74074" lon="5.6128">
        <ele>544</ele>
        <time>2022-08-13T08:14:31Z</time>
      </trkpt>
      <trkpt lat="43.7408" lon="5.61286">
        <ele>544</ele>
        <time>2022-08-13T08:14:33Z</time>
      </trkpt>
      <trkpt lat="43.74086" lon="5.61286">
        <ele>544</ele>
        <time>2022-08-13T08:14:34Z</time>
      </trkpt>
      <trkpt lat="43.74091" lon="5.61288">
        <ele>543</ele>
        <time>2022-08-13T08:14:35Z</time>
      </trkpt>
      <trkpt lat="43.74098" lon="5.6129">
        <ele>542</ele>
        <time>2022-08-13T08:14:36Z</time>
      </trkpt>
      <trkpt lat="43.74106" lon="5.61292">
        <ele>541</ele>
        <time>2022-08-13T08:14:37Z</time>
      </trkpt>
      <trkpt lat="43.74113" lon="5.61292">
        <ele>539</ele>
        <time>2022-08-13T08:14:38Z</time>
      </trkpt>
      <trkpt lat="43.74122" lon="5.61292">
        <ele>538</ele>
        <time>2022-08-13T08:14:39Z</time>
      </trkpt>
      <trkpt lat="43.74131" lon="5.61292">
        <ele>537</ele>
        <time>2022-08-13T08:14:40Z</time>
      </trkpt>
      <trkpt lat="43.74139" lon="5.61293">
        <ele>536</ele>
        <time>2022-08-13T08:14:41Z</time>
      </trkpt>
      <trkpt lat="43.74149" lon="5.61295">
        <ele>535</ele>
        <time>2022-08-13T08:14:42Z</time>
      </trkpt>
      <trkpt lat="43.74158" lon="5.61297">
        <ele>534</ele>
        <time>2022-08-13T08:14:43Z</time>
      </trkpt>
      <trkpt lat="43.74167" lon="5.61301">
        <ele>533</ele>
        <time>2022-08-13T08:14:44Z</time>
      </trkpt>
      <trkpt lat="43.74176" lon="5.61305">
        <ele>532</ele>
        <time>2022-08-13T08:14:45Z</time>
      </trkpt>
      <trkpt lat="43.74184" lon="5.61309">
        <ele>531</ele>
        <time>2022-08-13T08:14:46Z</time>
      </trkpt>
      <trkpt lat="43.74194" lon="5.61313">
        <ele>531</ele>
        <time>2022-08-13T08:14:47Z</time>
      </trkpt>
      <trkpt lat="43.74204" lon="5.61316">
        <ele>531</ele>
        <time>2022-08-13T08:14:48Z</time>
      </trkpt>
      <trkpt lat="43.74212" lon="5.6132">
        <ele>530</ele>
        <time>2022-08-13T08:14:49Z</time>
      </trkpt>
      <trkpt lat="43.7422" lon="5.61324">
        <ele>530</ele>
        <time>2022-08-13T08:14:50Z</time>
      </trkpt>
      <trkpt lat="43.74228" lon="5.61329">
        <ele>530</ele>
        <time>2022-08-13T08:14:51Z</time>
      </trkpt>
      <trkpt lat="43.74236" lon="5.61334">
        <ele>529</ele>
        <time>2022-08-13T08:14:52Z</time>
      </trkpt>
      <trkpt lat="43.74242" lon="5.61338">
        <ele>528</ele>
        <time>2022-08-13T08:14:53Z</time>
      </trkpt>
      <trkpt lat="43.7425" lon="5.61343">
        <ele>527</ele>
        <time>2022-08-13T08:14:54Z</time>
      </trkpt>
      <trkpt lat="43.74258" lon="5.61346">
        <ele>527</ele>
        <time>2022-08-13T08:14:55Z</time>
      </trkpt>
      <trkpt lat="43.74265" lon="5.6135">
        <ele>526</ele>
        <time>2022-08-13T08:14:56Z</time>
      </trkpt>
      <trkpt lat="43.74271" lon="5.61354">
        <ele>526</ele>
        <time>2022-08-13T08:14:57Z</time>
      </trkpt>
      <trkpt lat="43.74277" lon="5.61359">
        <ele>526</ele>
        <time>2022-08-13T08:14:58Z</time>
      </trkpt>
      <trkpt lat="43.74283" lon="5.61365">
        <ele>526</ele>
        <time>2022-08-13T08:14:59Z</time>
      </trkpt>
      <trkpt lat="43.7429" lon="5.61369">
        <ele>526</ele>
        <time>2022-08-13T08:15:00Z</time>
      </trkpt>
      <trkpt lat="43.74297" lon="5.61372">
        <ele>526</ele>
        <time>2022-08-13T08:15:01Z</time>
      </trkpt>
      <trkpt lat="43.74305" lon="5.61376">
        <ele>526</ele>
        <time>2022-08-13T08:15:02Z</time>
      </trkpt>
      <trkpt lat="43.74312" lon="5.61378">
        <ele>526</ele>
        <time>2022-08-13T08:15:03Z</time>
      </trkpt>
      <trkpt lat="43.7432" lon="5.6138">
        <ele>526</ele>
        <time>2022-08-13T08:15:04Z</time>
      </trkpt>
      <trkpt lat="43.74329" lon="5.61383">
        <ele>526</ele>
        <time>2022-08-13T08:15:05Z</time>
      </trkpt>
      <trkpt lat="43.74337" lon="5.61386">
        <ele>526</ele>
        <time>2022-08-13T08:15:06Z</time>
      </trkpt>
      <trkpt lat="43.74345" lon="5.61388">
        <ele>526</ele>
        <time>2022-08-13T08:15:07Z</time>
      </trkpt>
      <trkpt lat="43.74353" lon="5.61389">
        <ele>526</ele>
        <time>2022-08-13T08:15:08Z</time>
      </trkpt>
      <trkpt lat="43.74363" lon="5.61391">
        <ele>526</ele>
        <time>2022-08-13T08:15:09Z</time>
      </trkpt>
      <trkpt lat="43.74373" lon="5.61393">
        <ele>526</ele>
        <time>2022-08-13T08:15:10Z</time>
      </trkpt>
      <trkpt lat="43.74382" lon="5.61397">
        <ele>525</ele>
        <time>2022-08-13T08:15:11Z</time>
      </trkpt>
      <trkpt lat="43.74392" lon="5.61399">
        <ele>524</ele>
        <time>2022-08-13T08:15:12Z</time>
      </trkpt>
      <trkpt lat="43.74402" lon="5.61402">
        <ele>524</ele>
        <time>2022-08-13T08:15:13Z</time>
      </trkpt>
      <trkpt lat="43.74413" lon="5.61403">
        <ele>523</ele>
        <time>2022-08-13T08:15:14Z</time>
      </trkpt>
      <trkpt lat="43.74422" lon="5.61406">
        <ele>523</ele>
        <time>2022-08-13T08:15:15Z</time>
      </trkpt>
      <trkpt lat="43.74432" lon="5.61411">
        <ele>523</ele>
        <time>2022-08-13T08:15:16Z</time>
      </trkpt>
      <trkpt lat="43.74442" lon="5.61418">
        <ele>522</ele>
        <time>2022-08-13T08:15:17Z</time>
      </trkpt>
      <trkpt lat="43.7445" lon="5.61426">
        <ele>522</ele>
        <time>2022-08-13T08:15:18Z</time>
      </trkpt>
      <trkpt lat="43.74459" lon="5.61433">
        <ele>521</ele>
        <time>2022-08-13T08:15:19Z</time>
      </trkpt>
      <trkpt lat="43.74469" lon="5.61438">
        <ele>520</ele>
        <time>2022-08-13T08:15:20Z</time>
      </trkpt>
      <trkpt lat="43.74479" lon="5.6144">
        <ele>519</ele>
        <time>2022-08-13T08:15:21Z</time>
      </trkpt>
      <trkpt lat="43.74488" lon="5.6144">
        <ele>518</ele>
        <time>2022-08-13T08:15:22Z</time>
      </trkpt>
      <trkpt lat="43.74497" lon="5.6144">
        <ele>518</ele>
        <time>2022-08-13T08:15:23Z</time>
      </trkpt>
      <trkpt lat="43.74507" lon="5.6144">
        <ele>518</ele>
        <time>2022-08-13T08:15:24Z</time>
      </trkpt>
      <trkpt lat="43.74515" lon="5.61443">
        <ele>518</ele>
        <time>2022-08-13T08:15:25Z</time>
      </trkpt>
      <trkpt lat="43.74524" lon="5.61446">
        <ele>518</ele>
        <time>2022-08-13T08:15:26Z</time>
      </trkpt>
      <trkpt lat="43.74534" lon="5.61448">
        <ele>519</ele>
        <time>2022-08-13T08:15:27Z</time>
      </trkpt>
      <trkpt lat="43.74543" lon="5.61447">
        <ele>519</ele>
        <time>2022-08-13T08:15:28Z</time>
      </trkpt>
      <trkpt lat="43.74549" lon="5.61446">
        <ele>519</ele>
        <time>2022-08-13T08:15:29Z</time>
      </trkpt>
      <trkpt lat="43.74558" lon="5.61444">
        <ele>518</ele>
        <time>2022-08-13T08:15:31Z</time>
      </trkpt>
      <trkpt lat="43.74563" lon="5.61443">
        <ele>517</ele>
        <time>2022-08-13T08:15:34Z</time>
      </trkpt>
      <trkpt lat="43.74567" lon="5.61448">
        <ele>517</ele>
        <time>2022-08-13T08:15:36Z</time>
      </trkpt>
      <trkpt lat="43.74574" lon="5.61453">
        <ele>516</ele>
        <time>2022-08-13T08:15:38Z</time>
      </trkpt>
      <trkpt lat="43.74574" lon="5.61461">
        <ele>516</ele>
        <time>2022-08-13T08:15:40Z</time>
      </trkpt>
      <trkpt lat="43.74571" lon="5.61467">
        <ele>516</ele>
        <time>2022-08-13T08:15:42Z</time>
      </trkpt>
      <trkpt lat="43.74565" lon="5.61472">
        <ele>516</ele>
        <time>2022-08-13T08:15:44Z</time>
      </trkpt>
      <trkpt lat="43.74558" lon="5.61475">
        <ele>515</ele>
        <time>2022-08-13T08:15:46Z</time>
      </trkpt>
      <trkpt lat="43.74551" lon="5.6148">
        <ele>515</ele>
        <time>2022-08-13T08:15:48Z</time>
      </trkpt>
      <trkpt lat="43.74543" lon="5.61485">
        <ele>515</ele>
        <time>2022-08-13T08:15:50Z</time>
      </trkpt>
      <trkpt lat="43.74538" lon="5.61488">
        <ele>515</ele>
        <time>2022-08-13T08:15:51Z</time>
      </trkpt>
      <trkpt lat="43.74534" lon="5.6149">
        <ele>515</ele>
        <time>2022-08-13T08:15:52Z</time>
      </trkpt>
      <trkpt lat="43.74529" lon="5.61492">
        <ele>515</ele>
        <time>2022-08-13T08:15:53Z</time>
      </trkpt>
      <trkpt lat="43.74524" lon="5.61495">
        <ele>515</ele>
        <time>2022-08-13T08:15:54Z</time>
      </trkpt>
      <trkpt lat="43.74519" lon="5.61498">
        <ele>515</ele>
        <time>2022-08-13T08:15:55Z</time>
      </trkpt>
      <trkpt lat="43.74514" lon="5.61501">
        <ele>515</ele>
        <time>2022-08-13T08:15:56Z</time>
      </trkpt>
      <trkpt lat="43.74509" lon="5.61505">
        <ele>514</ele>
        <time>2022-08-13T08:15:57Z</time>
      </trkpt>
      <trkpt lat="43.74503" lon="5.61506">
        <ele>514</ele>
        <time>2022-08-13T08:15:58Z</time>
      </trkpt>
      <trkpt lat="43.74498" lon="5.6151">
        <ele>513</ele>
        <time>2022-08-13T08:15:59Z</time>
      </trkpt>
      <trkpt lat="43.74493" lon="5.61515">
        <ele>513</ele>
        <time>2022-08-13T08:16:00Z</time>
      </trkpt>
      <trkpt lat="43.74487" lon="5.61518">
        <ele>512</ele>
        <time>2022-08-13T08:16:01Z</time>
      </trkpt>
      <trkpt lat="43.74482" lon="5.61522">
        <ele>512</ele>
        <time>2022-08-13T08:16:02Z</time>
      </trkpt>
      <trkpt lat="43.74476" lon="5.61526">
        <ele>511</ele>
        <time>2022-08-13T08:16:03Z</time>
      </trkpt>
      <trkpt lat="43.7447" lon="5.61529">
        <ele>511</ele>
        <time>2022-08-13T08:16:04Z</time>
      </trkpt>
      <trkpt lat="43.74464" lon="5.61532">
        <ele>510</ele>
        <time>2022-08-13T08:16:05Z</time>
      </trkpt>
      <trkpt lat="43.74458" lon="5.61537">
        <ele>510</ele>
        <time>2022-08-13T08:16:06Z</time>
      </trkpt>
      <trkpt lat="43.74451" lon="5.61541">
        <ele>510</ele>
        <time>2022-08-13T08:16:07Z</time>
      </trkpt>
      <trkpt lat="43.74445" lon="5.61544">
        <ele>509</ele>
        <time>2022-08-13T08:16:08Z</time>
      </trkpt>
      <trkpt lat="43.74437" lon="5.61549">
        <ele>509</ele>
        <time>2022-08-13T08:16:09Z</time>
      </trkpt>
      <trkpt lat="43.74431" lon="5.61555">
        <ele>508</ele>
        <time>2022-08-13T08:16:10Z</time>
      </trkpt>
      <trkpt lat="43.74425" lon="5.61561">
        <ele>508</ele>
        <time>2022-08-13T08:16:11Z</time>
      </trkpt>
      <trkpt lat="43.74419" lon="5.61567">
        <ele>507</ele>
        <time>2022-08-13T08:16:12Z</time>
      </trkpt>
      <trkpt lat="43.74413" lon="5.61574">
        <ele>506</ele>
        <time>2022-08-13T08:16:13Z</time>
      </trkpt>
      <trkpt lat="43.74407" lon="5.61579">
        <ele>506</ele>
        <time>2022-08-13T08:16:14Z</time>
      </trkpt>
      <trkpt lat="43.74402" lon="5.61585">
        <ele>506</ele>
        <time>2022-08-13T08:16:15Z</time>
      </trkpt>
      <trkpt lat="43.74397" lon="5.6159">
        <ele>505</ele>
        <time>2022-08-13T08:16:16Z</time>
      </trkpt>
      <trkpt lat="43.74391" lon="5.61594">
        <ele>505</ele>
        <time>2022-08-13T08:16:17Z</time>
      </trkpt>
      <trkpt lat="43.74386" lon="5.61598">
        <ele>505</ele>
        <time>2022-08-13T08:16:18Z</time>
      </trkpt>
      <trkpt lat="43.74381" lon="5.61603">
        <ele>505</ele>
        <time>2022-08-13T08:16:19Z</time>
      </trkpt>
      <trkpt lat="43.74376" lon="5.61607">
        <ele>504</ele>
        <time>2022-08-13T08:16:20Z</time>
      </trkpt>
      <trkpt lat="43.74371" lon="5.61611">
        <ele>504</ele>
        <time>2022-08-13T08:16:21Z</time>
      </trkpt>
      <trkpt lat="43.74366" lon="5.61615">
        <ele>504</ele>
        <time>2022-08-13T08:16:22Z</time>
      </trkpt>
      <trkpt lat="43.74361" lon="5.61619">
        <ele>504</ele>
        <time>2022-08-13T08:16:23Z</time>
      </trkpt>
      <trkpt lat="43.74356" lon="5.61623">
        <ele>504</ele>
        <time>2022-08-13T08:16:24Z</time>
      </trkpt>
      <trkpt lat="43.74351" lon="5.61629">
        <ele>504</ele>
        <time>2022-08-13T08:16:25Z</time>
      </trkpt>
      <trkpt lat="43.74345" lon="5.61632">
        <ele>504</ele>
        <time>2022-08-13T08:16:26Z</time>
      </trkpt>
      <trkpt lat="43.7434" lon="5.61636">
        <ele>504</ele>
        <time>2022-08-13T08:16:27Z</time>
      </trkpt>
      <trkpt lat="43.74335" lon="5.6164">
        <ele>503</ele>
        <time>2022-08-13T08:16:28Z</time>
      </trkpt>
      <trkpt lat="43.74329" lon="5.61644">
        <ele>503</ele>
        <time>2022-08-13T08:16:29Z</time>
      </trkpt>
      <trkpt lat="43.74324" lon="5.61646">
        <ele>503</ele>
        <time>2022-08-13T08:16:30Z</time>
      </trkpt>
      <trkpt lat="43.74319" lon="5.61649">
        <ele>503</ele>
        <time>2022-08-13T08:16:31Z</time>
      </trkpt>
      <trkpt lat="43.74313" lon="5.61652">
        <ele>503</ele>
        <time>2022-08-13T08:16:32Z</time>
      </trkpt>
      <trkpt lat="43.74306" lon="5.61655">
        <ele>502</ele>
        <time>2022-08-13T08:16:33Z</time>
      </trkpt>
      <trkpt lat="43.743" lon="5.61657">
        <ele>502</ele>
        <time>2022-08-13T08:16:34Z</time>
      </trkpt>
      <trkpt lat="43.74295" lon="5.61659">
        <ele>502</ele>
        <time>2022-08-13T08:16:35Z</time>
      </trkpt>
      <trkpt lat="43.74289" lon="5.61661">
        <ele>502</ele>
        <time>2022-08-13T08:16:36Z</time>
      </trkpt>
      <trkpt lat="43.74284" lon="5.61663">
        <ele>501</ele>
        <time>2022-08-13T08:16:37Z</time>
      </trkpt>
      <trkpt lat="43.74279" lon="5.61665">
        <ele>501</ele>
        <time>2022-08-13T08:16:38Z</time>
      </trkpt>
      <trkpt lat="43.74274" lon="5.61667">
        <ele>501</ele>
        <time>2022-08-13T08:16:39Z</time>
      </trkpt>
      <trkpt lat="43.74266" lon="5.6167">
        <ele>502</ele>
        <time>2022-08-13T08:16:41Z</time>
      </trkpt>
      <trkpt lat="43.74259" lon="5.61673">
        <ele>502</ele>
        <time>2022-08-13T08:16:43Z</time>
      </trkpt>
      <trkpt lat="43.74252" lon="5.61676">
        <ele>503</ele>
        <time>2022-08-13T08:16:45Z</time>
      </trkpt>
      <trkpt lat="43.74246" lon="5.6168">
        <ele>503</ele>
        <time>2022-08-13T08:16:47Z</time>
      </trkpt>
      <trkpt lat="43.7424" lon="5.61683">
        <ele>503</ele>
        <time>2022-08-13T08:16:49Z</time>
      </trkpt>
      <trkpt lat="43.74233" lon="5.61686">
        <ele>504</ele>
        <time>2022-08-13T08:16:51Z</time>
      </trkpt>
      <trkpt lat="43.74227" lon="5.61687">
        <ele>504</ele>
        <time>2022-08-13T08:16:53Z</time>
      </trkpt>
      <trkpt lat="43.74222" lon="5.61689">
        <ele>505</ele>
        <time>2022-08-13T08:16:55Z</time>
      </trkpt>
      <trkpt lat="43.74217" lon="5.61692">
        <ele>505</ele>
        <time>2022-08-13T08:16:57Z</time>
      </trkpt>
      <trkpt lat="43.74211" lon="5.61694">
        <ele>506</ele>
        <time>2022-08-13T08:16:59Z</time>
      </trkpt>
      <trkpt lat="43.74207" lon="5.61695">
        <ele>506</ele>
        <time>2022-08-13T08:17:01Z</time>
      </trkpt>
      <trkpt lat="43.74202" lon="5.61697">
        <ele>507</ele>
        <time>2022-08-13T08:17:03Z</time>
      </trkpt>
      <trkpt lat="43.74197" lon="5.61698">
        <ele>507</ele>
        <time>2022-08-13T08:17:05Z</time>
      </trkpt>
      <trkpt lat="43.74192" lon="5.617">
        <ele>507</ele>
        <time>2022-08-13T08:17:07Z</time>
      </trkpt>
      <trkpt lat="43.74187" lon="5.61702">
        <ele>508</ele>
        <time>2022-08-13T08:17:09Z</time>
      </trkpt>
      <trkpt lat="43.74182" lon="5.61705">
        <ele>508</ele>
        <time>2022-08-13T08:17:11Z</time>
      </trkpt>
      <trkpt lat="43.74177" lon="5.61707">
        <ele>508</ele>
        <time>2022-08-13T08:17:13Z</time>
      </trkpt>
      <trkpt lat="43.74172" lon="5.6171">
        <ele>509</ele>
        <time>2022-08-13T08:17:15Z</time>
      </trkpt>
      <trkpt lat="43.74167" lon="5.61713">
        <ele>509</ele>
        <time>2022-08-13T08:17:17Z</time>
      </trkpt>
      <trkpt lat="43.74162" lon="5.61717">
        <ele>509</ele>
        <time>2022-08-13T08:17:19Z</time>
      </trkpt>
      <trkpt lat="43.74156" lon="5.6172">
        <ele>509</ele>
        <time>2022-08-13T08:17:21Z</time>
      </trkpt>
      <trkpt lat="43.74151" lon="5.61723">
        <ele>509</ele>
        <time>2022-08-13T08:17:23Z</time>
      </trkpt>
      <trkpt lat="43.74145" lon="5.61726">
        <ele>509</ele>
        <time>2022-08-13T08:17:25Z</time>
      </trkpt>
      <trkpt lat="43.74139" lon="5.61728">
        <ele>509</ele>
        <time>2022-08-13T08:17:27Z</time>
      </trkpt>
      <trkpt lat="43.74134" lon="5.61731">
        <ele>509</ele>
        <time>2022-08-13T08:17:29Z</time>
      </trkpt>
      <trkpt lat="43.74128" lon="5.61734">
        <ele>509</ele>
        <time>2022-08-13T08:17:31Z</time>
      </trkpt>
      <trkpt lat="43.74123" lon="5.61736">
        <ele>509</ele>
        <time>2022-08-13T08:17:33Z</time>
      </trkpt>
      <trkpt lat="43.74118" lon="5.61739">
        <ele>508</ele>
        <time>2022-08-13T08:17:35Z</time>
      </trkpt>
      <trkpt lat="43.74112" lon="5.61742">
        <ele>508</ele>
        <time>2022-08-13T08:17:37Z</time>
      </trkpt>
      <trkpt lat="43.74107" lon="5.61745">
        <ele>509</ele>
        <time>2022-08-13T08:17:39Z</time>
      </trkpt>
      <trkpt lat="43.74102" lon="5.61747">
        <ele>509</ele>
        <time>2022-08-13T08:17:41Z</time>
      </trkpt>
      <trkpt lat="43.74096" lon="5.61749">
        <ele>509</ele>
        <time>2022-08-13T08:17:43Z</time>
      </trkpt>
      <trkpt lat="43.74091" lon="5.61752">
        <ele>509</ele>
        <time>2022-08-13T08:17:45Z</time>
      </trkpt>
      <trkpt lat="43.74086" lon="5.61754">
        <ele>509</ele>
        <time>2022-08-13T08:17:47Z</time>
      </trkpt>
      <trkpt lat="43.7408" lon="5.61757">
        <ele>509</ele>
        <time>2022-08-13T08:17:49Z</time>
      </trkpt>
      <trkpt lat="43.74075" lon="5.61759">
        <ele>509</ele>
        <time>2022-08-13T08:17:51Z</time>
      </trkpt>
      <trkpt lat="43.7407" lon="5.61762">
        <ele>509</ele>
        <time>2022-08-13T08:17:53Z</time>
      </trkpt>
      <trkpt lat="43.74064" lon="5.61765">
        <ele>509</ele>
        <time>2022-08-13T08:17:55Z</time>
      </trkpt>
      <trkpt lat="43.74058" lon="5.61769">
        <ele>509</ele>
        <time>2022-08-13T08:17:57Z</time>
      </trkpt>
      <trkpt lat="43.74053" lon="5.61771">
        <ele>510</ele>
        <time>2022-08-13T08:17:59Z</time>
      </trkpt>
      <trkpt lat="43.74047" lon="5.61774">
        <ele>510</ele>
        <time>2022-08-13T08:18:01Z</time>
      </trkpt>
      <trkpt lat="43.74042" lon="5.61778">
        <ele>511</ele>
        <time>2022-08-13T08:18:03Z</time>
      </trkpt>
      <trkpt lat="43.74036" lon="5.61781">
        <ele>511</ele>
        <time>2022-08-13T08:18:05Z</time>
      </trkpt>
      <trkpt lat="43.74031" lon="5.61783">
        <ele>511</ele>
        <time>2022-08-13T08:18:07Z</time>
      </trkpt>
      <trkpt lat="43.74026" lon="5.61785">
        <ele>511</ele>
        <time>2022-08-13T08:18:09Z</time>
      </trkpt>
      <trkpt lat="43.7402" lon="5.61788">
        <ele>511</ele>
        <time>2022-08-13T08:18:11Z</time>
      </trkpt>
      <trkpt lat="43.74015" lon="5.6179">
        <ele>511</ele>
        <time>2022-08-13T08:18:13Z</time>
      </trkpt>
      <trkpt lat="43.74009" lon="5.61792">
        <ele>510</ele>
        <time>2022-08-13T08:18:15Z</time>
      </trkpt>
      <trkpt lat="43.74004" lon="5.61794">
        <ele>510</ele>
        <time>2022-08-13T08:18:17Z</time>
      </trkpt>
      <trkpt lat="43.73999" lon="5.61797">
        <ele>510</ele>
        <time>2022-08-13T08:18:19Z</time>
      </trkpt>
      <trkpt lat="43.73994" lon="5.618">
        <ele>511</ele>
        <time>2022-08-13T08:18:21Z</time>
      </trkpt>
      <trkpt lat="43.73991" lon="5.61807">
        <ele>511</ele>
        <time>2022-08-13T08:18:23Z</time>
      </trkpt>
      <trkpt lat="43.73991" lon="5.61815">
        <ele>511</ele>
        <time>2022-08-13T08:18:25Z</time>
      </trkpt>
      <trkpt lat="43.7399" lon="5.61823">
        <ele>511</ele>
        <time>2022-08-13T08:18:27Z</time>
      </trkpt>
      <trkpt lat="43.7399" lon="5.6183">
        <ele>511</ele>
        <time>2022-08-13T08:18:29Z</time>
      </trkpt>
      <trkpt lat="43.73991" lon="5.61837">
        <ele>511</ele>
        <time>2022-08-13T08:18:31Z</time>
      </trkpt>
      <trkpt lat="43.73993" lon="5.61843">
        <ele>511</ele>
        <time>2022-08-13T08:18:33Z</time>
      </trkpt>
      <trkpt lat="43.73995" lon="5.61852">
        <ele>510</ele>
        <time>2022-08-13T08:18:36Z</time>
      </trkpt>
      <trkpt lat="43.73998" lon="5.6186">
        <ele>510</ele>
        <time>2022-08-13T08:18:39Z</time>
      </trkpt>
      <trkpt lat="43.74002" lon="5.61867">
        <ele>510</ele>
        <time>2022-08-13T08:18:42Z</time>
      </trkpt>
      <trkpt lat="43.74004" lon="5.61876">
        <ele>510</ele>
        <time>2022-08-13T08:18:45Z</time>
      </trkpt>
      <trkpt lat="43.74007" lon="5.61884">
        <ele>510</ele>
        <time>2022-08-13T08:18:48Z</time>
      </trkpt>
      <trkpt lat="43.7401" lon="5.61892">
        <ele>510</ele>
        <time>2022-08-13T08:18:51Z</time>
      </trkpt>
      <trkpt lat="43.74013" lon="5.61901">
        <ele>510</ele>
        <time>2022-08-13T08:18:54Z</time>
      </trkpt>
      <trkpt lat="43.74015" lon="5.61906">
        <ele>510</ele>
        <time>2022-08-13T08:18:56Z</time>
      </trkpt>
      <trkpt lat="43.74018" lon="5.61915">
        <ele>510</ele>
        <time>2022-08-13T08:18:59Z</time>
      </trkpt>
      <trkpt lat="43.74019" lon="5.61922">
        <ele>510</ele>
        <time>2022-08-13T08:19:01Z</time>
      </trkpt>
      <trkpt lat="43.74021" lon="5.6193">
        <ele>511</ele>
        <time>2022-08-13T08:19:04Z</time>
      </trkpt>
      <trkpt lat="43.74023" lon="5.61937">
        <ele>511</ele>
        <time>2022-08-13T08:19:06Z</time>
      </trkpt>
      <trkpt lat="43.74024" lon="5.61943">
        <ele>512</ele>
        <time>2022-08-13T08:19:08Z</time>
      </trkpt>
      <trkpt lat="43.74026" lon="5.61949">
        <ele>513</ele>
        <time>2022-08-13T08:19:10Z</time>
      </trkpt>
      <trkpt lat="43.74027" lon="5.61955">
        <ele>513</ele>
        <time>2022-08-13T08:19:12Z</time>
      </trkpt>
      <trkpt lat="43.74028" lon="5.61962">
        <ele>513</ele>
        <time>2022-08-13T08:19:14Z</time>
      </trkpt>
      <trkpt lat="43.7403" lon="5.61969">
        <ele>513</ele>
        <time>2022-08-13T08:19:16Z</time>
      </trkpt>
      <trkpt lat="43.74031" lon="5.61976">
        <ele>513</ele>
        <time>2022-08-13T08:19:18Z</time>
      </trkpt>
      <trkpt lat="43.74032" lon="5.61982">
        <ele>513</ele>
        <time>2022-08-13T08:19:20Z</time>
      </trkpt>
      <trkpt lat="43.74033" lon="5.61988">
        <ele>513</ele>
        <time>2022-08-13T08:19:22Z</time>
      </trkpt>
      <trkpt lat="43.74035" lon="5.61994">
        <ele>514</ele>
        <time>2022-08-13T08:19:24Z</time>
      </trkpt>
      <trkpt lat="43.74036" lon="5.62001">
        <ele>514</ele>
        <time>2022-08-13T08:19:26Z</time>
      </trkpt>
      <trkpt lat="43.74038" lon="5.62007">
        <ele>515</ele>
        <time>2022-08-13T08:19:28Z</time>
      </trkpt>
      <trkpt lat="43.74039" lon="5.62013">
        <ele>515</ele>
        <time>2022-08-13T08:19:30Z</time>
      </trkpt>
      <trkpt lat="43.74041" lon="5.62019">
        <ele>515</ele>
        <time>2022-08-13T08:19:32Z</time>
      </trkpt>
      <trkpt lat="43.74043" lon="5.62026">
        <ele>516</ele>
        <time>2022-08-13T08:19:34Z</time>
      </trkpt>
      <trkpt lat="43.74044" lon="5.62032">
        <ele>517</ele>
        <time>2022-08-13T08:19:36Z</time>
      </trkpt>
      <trkpt lat="43.74045" lon="5.62039">
        <ele>518</ele>
        <time>2022-08-13T08:19:38Z</time>
      </trkpt>
      <trkpt lat="43.74046" lon="5.62046">
        <ele>518</ele>
        <time>2022-08-13T08:19:40Z</time>
      </trkpt>
      <trkpt lat="43.74047" lon="5.62053">
        <ele>519</ele>
        <time>2022-08-13T08:19:42Z</time>
      </trkpt>
      <trkpt lat="43.74048" lon="5.6206">
        <ele>520</ele>
        <time>2022-08-13T08:19:44Z</time>
      </trkpt>
      <trkpt lat="43.74049" lon="5.62068">
        <ele>520</ele>
        <time>2022-08-13T08:19:46Z</time>
      </trkpt>
      <trkpt lat="43.7405" lon="5.62074">
        <ele>521</ele>
        <time>2022-08-13T08:19:48Z</time>
      </trkpt>
      <trkpt lat="43.74051" lon="5.62081">
        <ele>521</ele>
        <time>2022-08-13T08:19:50Z</time>
      </trkpt>
      <trkpt lat="43.74053" lon="5.62088">
        <ele>521</ele>
        <time>2022-08-13T08:19:52Z</time>
      </trkpt>
      <trkpt lat="43.74055" lon="5.62095">
        <ele>521</ele>
        <time>2022-08-13T08:19:54Z</time>
      </trkpt>
      <trkpt lat="43.74056" lon="5.62102">
        <ele>521</ele>
        <time>2022-08-13T08:19:56Z</time>
      </trkpt>
      <trkpt lat="43.74058" lon="5.62109">
        <ele>521</ele>
        <time>2022-08-13T08:19:58Z</time>
      </trkpt>
      <trkpt lat="43.7406" lon="5.62117">
        <ele>521</ele>
        <time>2022-08-13T08:20:00Z</time>
      </trkpt>
      <trkpt lat="43.74062" lon="5.62126">
        <ele>521</ele>
        <time>2022-08-13T08:20:02Z</time>
      </trkpt>
      <trkpt lat="43.74064" lon="5.62135">
        <ele>521</ele>
        <time>2022-08-13T08:20:04Z</time>
      </trkpt>
      <trkpt lat="43.74066" lon="5.62145">
        <ele>521</ele>
        <time>2022-08-13T08:20:06Z</time>
      </trkpt>
      <trkpt lat="43.74069" lon="5.62155">
        <ele>520</ele>
        <time>2022-08-13T08:20:08Z</time>
      </trkpt>
      <trkpt lat="43.74071" lon="5.62166">
        <ele>520</ele>
        <time>2022-08-13T08:20:10Z</time>
      </trkpt>
      <trkpt lat="43.74073" lon="5.62177">
        <ele>519</ele>
        <time>2022-08-13T08:20:12Z</time>
      </trkpt>
      <trkpt lat="43.74075" lon="5.62187">
        <ele>520</ele>
        <time>2022-08-13T08:20:14Z</time>
      </trkpt>
      <trkpt lat="43.74077" lon="5.62195">
        <ele>520</ele>
        <time>2022-08-13T08:20:16Z</time>
      </trkpt>
      <trkpt lat="43.74078" lon="5.62203">
        <ele>520</ele>
        <time>2022-08-13T08:20:18Z</time>
      </trkpt>
      <trkpt lat="43.74078" lon="5.62211">
        <ele>520</ele>
        <time>2022-08-13T08:20:20Z</time>
      </trkpt>
      <trkpt lat="43.7408" lon="5.62218">
        <ele>520</ele>
        <time>2022-08-13T08:20:22Z</time>
      </trkpt>
      <trkpt lat="43.7408" lon="5.62226">
        <ele>521</ele>
        <time>2022-08-13T08:20:24Z</time>
      </trkpt>
      <trkpt lat="43.7408" lon="5.62233">
        <ele>520</ele>
        <time>2022-08-13T08:20:26Z</time>
      </trkpt>
      <trkpt lat="43.7408" lon="5.62239">
        <ele>520</ele>
        <time>2022-08-13T08:20:28Z</time>
      </trkpt>
      <trkpt lat="43.7408" lon="5.62245">
        <ele>521</ele>
        <time>2022-08-13T08:20:30Z</time>
      </trkpt>
      <trkpt lat="43.7408" lon="5.62252">
        <ele>521</ele>
        <time>2022-08-13T08:20:32Z</time>
      </trkpt>
      <trkpt lat="43.7408" lon="5.62259">
        <ele>521</ele>
        <time>2022-08-13T08:20:34Z</time>
      </trkpt>
      <trkpt lat="43.74079" lon="5.62265">
        <ele>521</ele>
        <time>2022-08-13T08:20:36Z</time>
      </trkpt>
      <trkpt lat="43.74078" lon="5.62273">
        <ele>521</ele>
        <time>2022-08-13T08:20:38Z</time>
      </trkpt>
      <trkpt lat="43.74078" lon="5.62279">
        <ele>522</ele>
        <time>2022-08-13T08:20:40Z</time>
      </trkpt>
      <trkpt lat="43.74077" lon="5.62286">
        <ele>522</ele>
        <time>2022-08-13T08:20:42Z</time>
      </trkpt>
      <trkpt lat="43.74077" lon="5.62292">
        <ele>522</ele>
        <time>2022-08-13T08:20:44Z</time>
      </trkpt>
      <trkpt lat="43.74076" lon="5.62298">
        <ele>522</ele>
        <time>2022-08-13T08:20:46Z</time>
      </trkpt>
      <trkpt lat="43.74075" lon="5.62305">
        <ele>523</ele>
        <time>2022-08-13T08:20:48Z</time>
      </trkpt>
      <trkpt lat="43.74075" lon="5.62313">
        <ele>524</ele>
        <time>2022-08-13T08:20:51Z</time>
      </trkpt>
      <trkpt lat="43.74075" lon="5.62322">
        <ele>524</ele>
        <time>2022-08-13T08:20:54Z</time>
      </trkpt>
      <trkpt lat="43.74075" lon="5.62331">
        <ele>525</ele>
        <time>2022-08-13T08:20:57Z</time>
      </trkpt>
      <trkpt lat="43.74075" lon="5.62339">
        <ele>526</ele>
        <time>2022-08-13T08:21:00Z</time>
      </trkpt>
      <trkpt lat="43.74076" lon="5.62348">
        <ele>527</ele>
        <time>2022-08-13T08:21:03Z</time>
      </trkpt>
      <trkpt lat="43.74077" lon="5.62355">
        <ele>528</ele>
        <time>2022-08-13T08:21:06Z</time>
      </trkpt>
      <trkpt lat="43.7408" lon="5.62363">
        <ele>529</ele>
        <time>2022-08-13T08:21:09Z</time>
      </trkpt>
      <trkpt lat="43.74083" lon="5.6237">
        <ele>530</ele>
        <time>2022-08-13T08:21:12Z</time>
      </trkpt>
      <trkpt lat="43.74088" lon="5.62376">
        <ele>531</ele>
        <time>2022-08-13T08:21:15Z</time>
      </trkpt>
      <trkpt lat="43.74093" lon="5.62382">
        <ele>532</ele>
        <time>2022-08-13T08:21:18Z</time>
      </trkpt>
      <trkpt lat="43.74098" lon="5.62387">
        <ele>533</ele>
        <time>2022-08-13T08:21:21Z</time>
      </trkpt>
      <trkpt lat="43.74102" lon="5.62391">
        <ele>533</ele>
        <time>2022-08-13T08:21:23Z</time>
      </trkpt>
      <trkpt lat="43.74107" lon="5.62395">
        <ele>534</ele>
        <time>2022-08-13T08:21:26Z</time>
      </trkpt>
      <trkpt lat="43.74112" lon="5.62397">
        <ele>534</ele>
        <time>2022-08-13T08:21:28Z</time>
      </trkpt>
      <trkpt lat="43.74116" lon="5.62399">
        <ele>535</ele>
        <time>2022-08-13T08:21:30Z</time>
      </trkpt>
      <trkpt lat="43.74122" lon="5.62402">
        <ele>535</ele>
        <time>2022-08-13T08:21:33Z</time>
      </trkpt>
      <trkpt lat="43.74128" lon="5.62405">
        <ele>535</ele>
        <time>2022-08-13T08:21:36Z</time>
      </trkpt>
      <trkpt lat="43.74133" lon="5.62409">
        <ele>535</ele>
        <time>2022-08-13T08:21:39Z</time>
      </trkpt>
      <trkpt lat="43.74138" lon="5.62413">
        <ele>536</ele>
        <time>2022-08-13T08:21:42Z</time>
      </trkpt>
      <trkpt lat="43.74143" lon="5.62417">
        <ele>536</ele>
        <time>2022-08-13T08:21:45Z</time>
      </trkpt>
      <trkpt lat="43.74147" lon="5.62421">
        <ele>537</ele>
        <time>2022-08-13T08:21:48Z</time>
      </trkpt>
      <trkpt lat="43.74152" lon="5.62425">
        <ele>538</ele>
        <time>2022-08-13T08:21:51Z</time>
      </trkpt>
      <trkpt lat="43.74157" lon="5.6243">
        <ele>539</ele>
        <time>2022-08-13T08:21:54Z</time>
      </trkpt>
      <trkpt lat="43.74161" lon="5.62435">
        <ele>540</ele>
        <time>2022-08-13T08:21:57Z</time>
      </trkpt>
      <trkpt lat="43.74165" lon="5.62441">
        <ele>541</ele>
        <time>2022-08-13T08:22:00Z</time>
      </trkpt>
      <trkpt lat="43.74168" lon="5.62448">
        <ele>541</ele>
        <time>2022-08-13T08:22:03Z</time>
      </trkpt>
      <trkpt lat="43.74171" lon="5.62455">
        <ele>542</ele>
        <time>2022-08-13T08:22:06Z</time>
      </trkpt>
      <trkpt lat="43.74173" lon="5.62462">
        <ele>542</ele>
        <time>2022-08-13T08:22:09Z</time>
      </trkpt>
      <trkpt lat="43.74176" lon="5.6247">
        <ele>543</ele>
        <time>2022-08-13T08:22:12Z</time>
      </trkpt>
      <trkpt lat="43.74178" lon="5.62478">
        <ele>543</ele>
        <time>2022-08-13T08:22:15Z</time>
      </trkpt>
      <trkpt lat="43.74179" lon="5.62486">
        <ele>544</ele>
        <time>2022-08-13T08:22:18Z</time>
      </trkpt>
      <trkpt lat="43.7418" lon="5.62493">
        <ele>545</ele>
        <time>2022-08-13T08:22:21Z</time>
      </trkpt>
      <trkpt lat="43.74181" lon="5.625">
        <ele>546</ele>
        <time>2022-08-13T08:22:24Z</time>
      </trkpt>
      <trkpt lat="43.7418" lon="5.62507">
        <ele>546</ele>
        <time>2022-08-13T08:22:27Z</time>
      </trkpt>
      <trkpt lat="43.7418" lon="5.62514">
        <ele>547</ele>
        <time>2022-08-13T08:22:30Z</time>
      </trkpt>
      <trkpt lat="43.7418" lon="5.62521">
        <ele>548</ele>
        <time>2022-08-13T08:22:33Z</time>
      </trkpt>
      <trkpt lat="43.74178" lon="5.62528">
        <ele>549</ele>
        <time>2022-08-13T08:22:36Z</time>
      </trkpt>
      <trkpt lat="43.74176" lon="5.62536">
        <ele>549</ele>
        <time>2022-08-13T08:22:39Z</time>
      </trkpt>
      <trkpt lat="43.74176" lon="5.62543">
        <ele>550</ele>
        <time>2022-08-13T08:22:42Z</time>
      </trkpt>
      <trkpt lat="43.74177" lon="5.6255">
        <ele>550</ele>
        <time>2022-08-13T08:22:45Z</time>
      </trkpt>
      <trkpt lat="43.74177" lon="5.62558">
        <ele>551</ele>
        <time>2022-08-13T08:22:48Z</time>
      </trkpt>
      <trkpt lat="43.74178" lon="5.62565">
        <ele>551</ele>
        <time>2022-08-13T08:22:51Z</time>
      </trkpt>
      <trkpt lat="43.74178" lon="5.62572">
        <ele>552</ele>
        <time>2022-08-13T08:22:54Z</time>
      </trkpt>
      <trkpt lat="43.74178" lon="5.62579">
        <ele>552</ele>
        <time>2022-08-13T08:22:57Z</time>
      </trkpt>
      <trkpt lat="43.74179" lon="5.62586">
        <ele>553</ele>
        <time>2022-08-13T08:23:00Z</time>
      </trkpt>
      <trkpt lat="43.74179" lon="5.62593">
        <ele>554</ele>
        <time>2022-08-13T08:23:03Z</time>
      </trkpt>
      <trkpt lat="43.74177" lon="5.626">
        <ele>555</ele>
        <time>2022-08-13T08:23:06Z</time>
      </trkpt>
      <trkpt lat="43.74176" lon="5.62606">
        <ele>555</ele>
        <time>2022-08-13T08:23:09Z</time>
      </trkpt>
      <trkpt lat="43.74176" lon="5.62614">
        <ele>556</ele>
        <time>2022-08-13T08:23:12Z</time>
      </trkpt>
      <trkpt lat="43.74176" lon="5.62621">
        <ele>557</ele>
        <time>2022-08-13T08:23:15Z</time>
      </trkpt>
      <trkpt lat="43.74176" lon="5.62628">
        <ele>557</ele>
        <time>2022-08-13T08:23:18Z</time>
      </trkpt>
      <trkpt lat="43.74175" lon="5.62635">
        <ele>557</ele>
        <time>2022-08-13T08:23:21Z</time>
      </trkpt>
      <trkpt lat="43.74175" lon="5.62642">
        <ele>557</ele>
        <time>2022-08-13T08:23:24Z</time>
      </trkpt>
      <trkpt lat="43.74175" lon="5.6265">
        <ele>558</ele>
        <time>2022-08-13T08:23:28Z</time>
      </trkpt>
      <trkpt lat="43.74175" lon="5.62657">
        <ele>559</ele>
        <time>2022-08-13T08:23:31Z</time>
      </trkpt>
      <trkpt lat="43.74173" lon="5.62665">
        <ele>559</ele>
        <time>2022-08-13T08:23:34Z</time>
      </trkpt>
      <trkpt lat="43.74173" lon="5.62673">
        <ele>560</ele>
        <time>2022-08-13T08:23:37Z</time>
      </trkpt>
      <trkpt lat="43.74173" lon="5.6268">
        <ele>561</ele>
        <time>2022-08-13T08:23:40Z</time>
      </trkpt>
      <trkpt lat="43.74172" lon="5.62687">
        <ele>561</ele>
        <time>2022-08-13T08:23:43Z</time>
      </trkpt>
      <trkpt lat="43.74171" lon="5.62695">
        <ele>562</ele>
        <time>2022-08-13T08:23:46Z</time>
      </trkpt>
      <trkpt lat="43.74171" lon="5.62703">
        <ele>562</ele>
        <time>2022-08-13T08:23:49Z</time>
      </trkpt>
      <trkpt lat="43.7417" lon="5.62711">
        <ele>563</ele>
        <time>2022-08-13T08:23:52Z</time>
      </trkpt>
      <trkpt lat="43.74169" lon="5.62719">
        <ele>564</ele>
        <time>2022-08-13T08:23:55Z</time>
      </trkpt>
      <trkpt lat="43.74169" lon="5.62726">
        <ele>564</ele>
        <time>2022-08-13T08:23:58Z</time>
      </trkpt>
      <trkpt lat="43.7417" lon="5.62733">
        <ele>565</ele>
        <time>2022-08-13T08:24:01Z</time>
      </trkpt>
      <trkpt lat="43.74171" lon="5.62741">
        <ele>565</ele>
        <time>2022-08-13T08:24:04Z</time>
      </trkpt>
      <trkpt lat="43.74173" lon="5.62748">
        <ele>566</ele>
        <time>2022-08-13T08:24:07Z</time>
      </trkpt>
      <trkpt lat="43.74175" lon="5.62756">
        <ele>566</ele>
        <time>2022-08-13T08:24:10Z</time>
      </trkpt>
      <trkpt lat="43.74176" lon="5.62764">
        <ele>566</ele>
        <time>2022-08-13T08:24:13Z</time>
      </trkpt>
      <trkpt lat="43.74178" lon="5.62771">
        <ele>566</ele>
        <time>2022-08-13T08:24:16Z</time>
      </trkpt>
      <trkpt lat="43.74181" lon="5.62778">
        <ele>567</ele>
        <time>2022-08-13T08:24:19Z</time>
      </trkpt>
      <trkpt lat="43.74184" lon="5.62786">
        <ele>567</ele>
        <time>2022-08-13T08:24:22Z</time>
      </trkpt>
      <trkpt lat="43.74187" lon="5.62793">
        <ele>568</ele>
        <time>2022-08-13T08:24:25Z</time>
      </trkpt>
      <trkpt lat="43.74191" lon="5.628">
        <ele>567</ele>
        <time>2022-08-13T08:24:28Z</time>
      </trkpt>
      <trkpt lat="43.74194" lon="5.62806">
        <ele>567</ele>
        <time>2022-08-13T08:24:31Z</time>
      </trkpt>
      <trkpt lat="43.74196" lon="5.62812">
        <ele>566</ele>
        <time>2022-08-13T08:24:35Z</time>
      </trkpt>
      <trkpt lat="43.74191" lon="5.62813">
        <ele>565</ele>
        <time>2022-08-13T08:24:38Z</time>
      </trkpt>
      <trkpt lat="43.74187" lon="5.62807">
        <ele>565</ele>
        <time>2022-08-13T08:24:41Z</time>
      </trkpt>
      <trkpt lat="43.74187" lon="5.628">
        <ele>564</ele>
        <time>2022-08-13T08:24:45Z</time>
      </trkpt>
      <trkpt lat="43.74185" lon="5.62794">
        <ele>563</ele>
        <time>2022-08-13T08:24:48Z</time>
      </trkpt>
      <trkpt lat="43.7419" lon="5.62792">
        <ele>563</ele>
        <time>2022-08-13T08:24:52Z</time>
      </trkpt>
      <trkpt lat="43.74194" lon="5.62799">
        <ele>563</ele>
        <time>2022-08-13T08:24:55Z</time>
      </trkpt>
      <trkpt lat="43.74198" lon="5.62804">
        <ele>562</ele>
        <time>2022-08-13T08:24:57Z</time>
      </trkpt>
      <trkpt lat="43.74202" lon="5.62808">
        <ele>562</ele>
        <time>2022-08-13T08:24:59Z</time>
      </trkpt>
      <trkpt lat="43.74207" lon="5.62813">
        <ele>562</ele>
        <time>2022-08-13T08:25:01Z</time>
      </trkpt>
      <trkpt lat="43.74211" lon="5.62818">
        <ele>561</ele>
        <time>2022-08-13T08:25:03Z</time>
      </trkpt>
      <trkpt lat="43.74215" lon="5.62821">
        <ele>562</ele>
        <time>2022-08-13T08:25:05Z</time>
      </trkpt>
      <trkpt lat="43.74219" lon="5.62825">
        <ele>562</ele>
        <time>2022-08-13T08:25:07Z</time>
      </trkpt>
      <trkpt lat="43.74223" lon="5.62827">
        <ele>563</ele>
        <time>2022-08-13T08:25:09Z</time>
      </trkpt>
      <trkpt lat="43.74228" lon="5.6283">
        <ele>563</ele>
        <time>2022-08-13T08:25:11Z</time>
      </trkpt>
      <trkpt lat="43.74233" lon="5.62834">
        <ele>564</ele>
        <time>2022-08-13T08:25:13Z</time>
      </trkpt>
      <trkpt lat="43.74237" lon="5.62838">
        <ele>565</ele>
        <time>2022-08-13T08:25:15Z</time>
      </trkpt>
      <trkpt lat="43.74242" lon="5.62842">
        <ele>565</ele>
        <time>2022-08-13T08:25:17Z</time>
      </trkpt>
      <trkpt lat="43.74246" lon="5.62846">
        <ele>565</ele>
        <time>2022-08-13T08:25:19Z</time>
      </trkpt>
      <trkpt lat="43.7425" lon="5.62852">
        <ele>565</ele>
        <time>2022-08-13T08:25:21Z</time>
      </trkpt>
      <trkpt lat="43.74254" lon="5.62857">
        <ele>565</ele>
        <time>2022-08-13T08:25:23Z</time>
      </trkpt>
      <trkpt lat="43.74258" lon="5.62862">
        <ele>566</ele>
        <time>2022-08-13T08:25:25Z</time>
      </trkpt>
      <trkpt lat="43.74262" lon="5.62867">
        <ele>566</ele>
        <time>2022-08-13T08:25:27Z</time>
      </trkpt>
      <trkpt lat="43.74265" lon="5.62872">
        <ele>567</ele>
        <time>2022-08-13T08:25:29Z</time>
      </trkpt>
      <trkpt lat="43.74268" lon="5.62878">
        <ele>567</ele>
        <time>2022-08-13T08:25:31Z</time>
      </trkpt>
      <trkpt lat="43.74271" lon="5.62884">
        <ele>567</ele>
        <time>2022-08-13T08:25:33Z</time>
      </trkpt>
      <trkpt lat="43.74274" lon="5.62891">
        <ele>567</ele>
        <time>2022-08-13T08:25:35Z</time>
      </trkpt>
      <trkpt lat="43.74277" lon="5.62898">
        <ele>568</ele>
        <time>2022-08-13T08:25:37Z</time>
      </trkpt>
      <trkpt lat="43.74279" lon="5.62906">
        <ele>568</ele>
        <time>2022-08-13T08:25:39Z</time>
      </trkpt>
      <trkpt lat="43.74282" lon="5.62913">
        <ele>568</ele>
        <time>2022-08-13T08:25:41Z</time>
      </trkpt>
      <trkpt lat="43.74285" lon="5.6292">
        <ele>568</ele>
        <time>2022-08-13T08:25:43Z</time>
      </trkpt>
      <trkpt lat="43.74288" lon="5.62927">
        <ele>568</ele>
        <time>2022-08-13T08:25:45Z</time>
      </trkpt>
      <trkpt lat="43.74292" lon="5.62934">
        <ele>568</ele>
        <time>2022-08-13T08:25:47Z</time>
      </trkpt>
      <trkpt lat="43.74295" lon="5.62941">
        <ele>568</ele>
        <time>2022-08-13T08:25:49Z</time>
      </trkpt>
      <trkpt lat="43.74298" lon="5.62947">
        <ele>568</ele>
        <time>2022-08-13T08:25:51Z</time>
      </trkpt>
      <trkpt lat="43.74302" lon="5.62954">
        <ele>568</ele>
        <time>2022-08-13T08:25:53Z</time>
      </trkpt>
      <trkpt lat="43.74305" lon="5.62961">
        <ele>568</ele>
        <time>2022-08-13T08:25:55Z</time>
      </trkpt>
      <trkpt lat="43.74309" lon="5.62968">
        <ele>568</ele>
        <time>2022-08-13T08:25:57Z</time>
      </trkpt>
      <trkpt lat="43.74313" lon="5.62976">
        <ele>568</ele>
        <time>2022-08-13T08:25:59Z</time>
      </trkpt>
      <trkpt lat="43.74316" lon="5.62984">
        <ele>567</ele>
        <time>2022-08-13T08:26:01Z</time>
      </trkpt>
      <trkpt lat="43.7432" lon="5.62991">
        <ele>567</ele>
        <time>2022-08-13T08:26:03Z</time>
      </trkpt>
      <trkpt lat="43.74324" lon="5.62999">
        <ele>567</ele>
        <time>2022-08-13T08:26:05Z</time>
      </trkpt>
      <trkpt lat="43.74328" lon="5.63007">
        <ele>566</ele>
        <time>2022-08-13T08:26:07Z</time>
      </trkpt>
      <trkpt lat="43.74332" lon="5.63014">
        <ele>566</ele>
        <time>2022-08-13T08:26:09Z</time>
      </trkpt>
      <trkpt lat="43.74336" lon="5.63021">
        <ele>566</ele>
        <time>2022-08-13T08:26:11Z</time>
      </trkpt>
      <trkpt lat="43.7434" lon="5.63028">
        <ele>566</ele>
        <time>2022-08-13T08:26:13Z</time>
      </trkpt>
      <trkpt lat="43.74344" lon="5.63034">
        <ele>566</ele>
        <time>2022-08-13T08:26:15Z</time>
      </trkpt>
      <trkpt lat="43.74348" lon="5.63041">
        <ele>566</ele>
        <time>2022-08-13T08:26:17Z</time>
      </trkpt>
      <trkpt lat="43.74353" lon="5.63048">
        <ele>565</ele>
        <time>2022-08-13T08:26:19Z</time>
      </trkpt>
      <trkpt lat="43.74359" lon="5.63054">
        <ele>565</ele>
        <time>2022-08-13T08:26:21Z</time>
      </trkpt>
      <trkpt lat="43.74365" lon="5.6306">
        <ele>565</ele>
        <time>2022-08-13T08:26:23Z</time>
      </trkpt>
      <trkpt lat="43.74372" lon="5.63066">
        <ele>564</ele>
        <time>2022-08-13T08:26:25Z</time>
      </trkpt>
      <trkpt lat="43.74379" lon="5.63072">
        <ele>564</ele>
        <time>2022-08-13T08:26:27Z</time>
      </trkpt>
      <trkpt lat="43.74386" lon="5.63077">
        <ele>564</ele>
        <time>2022-08-13T08:26:29Z</time>
      </trkpt>
      <trkpt lat="43.74393" lon="5.63082">
        <ele>563</ele>
        <time>2022-08-13T08:26:31Z</time>
      </trkpt>
      <trkpt lat="43.74399" lon="5.63087">
        <ele>563</ele>
        <time>2022-08-13T08:26:33Z</time>
      </trkpt>
      <trkpt lat="43.74406" lon="5.63091">
        <ele>564</ele>
        <time>2022-08-13T08:26:35Z</time>
      </trkpt>
      <trkpt lat="43.74412" lon="5.63095">
        <ele>564</ele>
        <time>2022-08-13T08:26:37Z</time>
      </trkpt>
      <trkpt lat="43.74418" lon="5.63099">
        <ele>564</ele>
        <time>2022-08-13T08:26:39Z</time>
      </trkpt>
      <trkpt lat="43.74425" lon="5.63103">
        <ele>564</ele>
        <time>2022-08-13T08:26:41Z</time>
      </trkpt>
      <trkpt lat="43.74432" lon="5.63108">
        <ele>564</ele>
        <time>2022-08-13T08:26:43Z</time>
      </trkpt>
      <trkpt lat="43.7444" lon="5.63112">
        <ele>564</ele>
        <time>2022-08-13T08:26:45Z</time>
      </trkpt>
      <trkpt lat="43.74446" lon="5.63114">
        <ele>563</ele>
        <time>2022-08-13T08:26:46Z</time>
      </trkpt>
      <trkpt lat="43.74452" lon="5.63116">
        <ele>563</ele>
        <time>2022-08-13T08:26:47Z</time>
      </trkpt>
      <trkpt lat="43.74458" lon="5.63118">
        <ele>563</ele>
        <time>2022-08-13T08:26:48Z</time>
      </trkpt>
      <trkpt lat="43.74465" lon="5.6312">
        <ele>563</ele>
        <time>2022-08-13T08:26:49Z</time>
      </trkpt>
      <trkpt lat="43.74472" lon="5.63122">
        <ele>562</ele>
        <time>2022-08-13T08:26:50Z</time>
      </trkpt>
      <trkpt lat="43.7448" lon="5.63124">
        <ele>561</ele>
        <time>2022-08-13T08:26:51Z</time>
      </trkpt>
      <trkpt lat="43.74487" lon="5.63126">
        <ele>561</ele>
        <time>2022-08-13T08:26:52Z</time>
      </trkpt>
      <trkpt lat="43.74495" lon="5.6313">
        <ele>560</ele>
        <time>2022-08-13T08:26:53Z</time>
      </trkpt>
      <trkpt lat="43.74503" lon="5.63133">
        <ele>559</ele>
        <time>2022-08-13T08:26:54Z</time>
      </trkpt>
      <trkpt lat="43.7451" lon="5.63136">
        <ele>559</ele>
        <time>2022-08-13T08:26:55Z</time>
      </trkpt>
      <trkpt lat="43.74516" lon="5.6314">
        <ele>558</ele>
        <time>2022-08-13T08:26:56Z</time>
      </trkpt>
      <trkpt lat="43.74522" lon="5.63144">
        <ele>558</ele>
        <time>2022-08-13T08:26:57Z</time>
      </trkpt>
      <trkpt lat="43.74527" lon="5.63149">
        <ele>558</ele>
        <time>2022-08-13T08:26:58Z</time>
      </trkpt>
      <trkpt lat="43.74532" lon="5.63157">
        <ele>557</ele>
        <time>2022-08-13T08:26:59Z</time>
      </trkpt>
      <trkpt lat="43.74536" lon="5.63165">
        <ele>557</ele>
        <time>2022-08-13T08:27:00Z</time>
      </trkpt>
      <trkpt lat="43.74543" lon="5.63174">
        <ele>556</ele>
        <time>2022-08-13T08:27:01Z</time>
      </trkpt>
      <trkpt lat="43.74548" lon="5.63183">
        <ele>555</ele>
        <time>2022-08-13T08:27:02Z</time>
      </trkpt>
      <trkpt lat="43.74554" lon="5.63193">
        <ele>554</ele>
        <time>2022-08-13T08:27:03Z</time>
      </trkpt>
      <trkpt lat="43.74559" lon="5.63205">
        <ele>553</ele>
        <time>2022-08-13T08:27:04Z</time>
      </trkpt>
      <trkpt lat="43.74563" lon="5.63218">
        <ele>552</ele>
        <time>2022-08-13T08:27:05Z</time>
      </trkpt>
      <trkpt lat="43.74564" lon="5.63232">
        <ele>551</ele>
        <time>2022-08-13T08:27:06Z</time>
      </trkpt>
      <trkpt lat="43.74566" lon="5.63244">
        <ele>550</ele>
        <time>2022-08-13T08:27:07Z</time>
      </trkpt>
      <trkpt lat="43.74566" lon="5.63256">
        <ele>549</ele>
        <time>2022-08-13T08:27:08Z</time>
      </trkpt>
      <trkpt lat="43.74566" lon="5.63268">
        <ele>548</ele>
        <time>2022-08-13T08:27:09Z</time>
      </trkpt>
      <trkpt lat="43.74566" lon="5.6328">
        <ele>547</ele>
        <time>2022-08-13T08:27:10Z</time>
      </trkpt>
      <trkpt lat="43.74567" lon="5.63291">
        <ele>545</ele>
        <time>2022-08-13T08:27:11Z</time>
      </trkpt>
      <trkpt lat="43.74567" lon="5.63301">
        <ele>544</ele>
        <time>2022-08-13T08:27:12Z</time>
      </trkpt>
      <trkpt lat="43.74567" lon="5.6331">
        <ele>543</ele>
        <time>2022-08-13T08:27:13Z</time>
      </trkpt>
      <trkpt lat="43.74566" lon="5.63318">
        <ele>542</ele>
        <time>2022-08-13T08:27:14Z</time>
      </trkpt>
      <trkpt lat="43.74566" lon="5.63325">
        <ele>541</ele>
        <time>2022-08-13T08:27:15Z</time>
      </trkpt>
      <trkpt lat="43.74566" lon="5.63333">
        <ele>540</ele>
        <time>2022-08-13T08:27:16Z</time>
      </trkpt>
      <trkpt lat="43.74564" lon="5.63344">
        <ele>539</ele>
        <time>2022-08-13T08:27:18Z</time>
      </trkpt>
      <trkpt lat="43.74563" lon="5.6335">
        <ele>538</ele>
        <time>2022-08-13T08:27:19Z</time>
      </trkpt>
      <trkpt lat="43.74562" lon="5.63358">
        <ele>537</ele>
        <time>2022-08-13T08:27:20Z</time>
      </trkpt>
      <trkpt lat="43.74561" lon="5.63366">
        <ele>536</ele>
        <time>2022-08-13T08:27:21Z</time>
      </trkpt>
      <trkpt lat="43.74561" lon="5.63374">
        <ele>535</ele>
        <time>2022-08-13T08:27:22Z</time>
      </trkpt>
      <trkpt lat="43.74559" lon="5.63381">
        <ele>535</ele>
        <time>2022-08-13T08:27:23Z</time>
      </trkpt>
      <trkpt lat="43.74558" lon="5.63389">
        <ele>534</ele>
        <time>2022-08-13T08:27:24Z</time>
      </trkpt>
      <trkpt lat="43.74559" lon="5.63396">
        <ele>534</ele>
        <time>2022-08-13T08:27:26Z</time>
      </trkpt>
      <trkpt lat="43.74566" lon="5.63404">
        <ele>534</ele>
        <time>2022-08-13T08:27:28Z</time>
      </trkpt>
      <trkpt lat="43.74572" lon="5.63408">
        <ele>534</ele>
        <time>2022-08-13T08:27:29Z</time>
      </trkpt>
      <trkpt lat="43.74577" lon="5.63412">
        <ele>534</ele>
        <time>2022-08-13T08:27:30Z</time>
      </trkpt>
      <trkpt lat="43.74585" lon="5.63418">
        <ele>534</ele>
        <time>2022-08-13T08:27:32Z</time>
      </trkpt>
      <trkpt lat="43.74593" lon="5.63418">
        <ele>534</ele>
        <time>2022-08-13T08:27:34Z</time>
      </trkpt>
      <trkpt lat="43.74599" lon="5.63421">
        <ele>534</ele>
        <time>2022-08-13T08:27:36Z</time>
      </trkpt>
      <trkpt lat="43.74606" lon="5.6342">
        <ele>534</ele>
        <time>2022-08-13T08:27:38Z</time>
      </trkpt>
      <trkpt lat="43.74612" lon="5.63423">
        <ele>534</ele>
        <time>2022-08-13T08:27:40Z</time>
      </trkpt>
      <trkpt lat="43.74617" lon="5.63424">
        <ele>534</ele>
        <time>2022-08-13T08:27:42Z</time>
      </trkpt>
      <trkpt lat="43.74622" lon="5.63425">
        <ele>534</ele>
        <time>2022-08-13T08:27:44Z</time>
      </trkpt>
      <trkpt lat="43.74627" lon="5.63426">
        <ele>534</ele>
        <time>2022-08-13T08:27:46Z</time>
      </trkpt>
      <trkpt lat="43.74632" lon="5.63427">
        <ele>534</ele>
        <time>2022-08-13T08:27:48Z</time>
      </trkpt>
      <trkpt lat="43.74638" lon="5.63427">
        <ele>534</ele>
        <time>2022-08-13T08:27:51Z</time>
      </trkpt>
      <trkpt lat="43.74643" lon="5.63428">
        <ele>534</ele>
        <time>2022-08-13T08:27:53Z</time>
      </trkpt>
      <trkpt lat="43.74648" lon="5.6343">
        <ele>534</ele>
        <time>2022-08-13T08:27:55Z</time>
      </trkpt>
      <trkpt lat="43.74653" lon="5.63433">
        <ele>535</ele>
        <time>2022-08-13T08:27:57Z</time>
      </trkpt>
      <trkpt lat="43.74657" lon="5.63436">
        <ele>535</ele>
        <time>2022-08-13T08:27:59Z</time>
      </trkpt>
      <trkpt lat="43.74661" lon="5.63441">
        <ele>535</ele>
        <time>2022-08-13T08:28:01Z</time>
      </trkpt>
      <trkpt lat="43.74666" lon="5.63445">
        <ele>535</ele>
        <time>2022-08-13T08:28:03Z</time>
      </trkpt>
      <trkpt lat="43.7467" lon="5.63449">
        <ele>535</ele>
        <time>2022-08-13T08:28:05Z</time>
      </trkpt>
      <trkpt lat="43.74674" lon="5.63453">
        <ele>535</ele>
        <time>2022-08-13T08:28:07Z</time>
      </trkpt>
      <trkpt lat="43.74676" lon="5.63461">
        <ele>535</ele>
        <time>2022-08-13T08:28:09Z</time>
      </trkpt>
      <trkpt lat="43.74677" lon="5.63471">
        <ele>535</ele>
        <time>2022-08-13T08:28:11Z</time>
      </trkpt>
      <trkpt lat="43.74678" lon="5.63482">
        <ele>535</ele>
        <time>2022-08-13T08:28:13Z</time>
      </trkpt>
      <trkpt lat="43.7468" lon="5.63492">
        <ele>535</ele>
        <time>2022-08-13T08:28:15Z</time>
      </trkpt>
      <trkpt lat="43.74681" lon="5.63499">
        <ele>535</ele>
        <time>2022-08-13T08:28:17Z</time>
      </trkpt>
      <trkpt lat="43.74682" lon="5.63506">
        <ele>535</ele>
        <time>2022-08-13T08:28:34Z</time>
      </trkpt>
      <trkpt lat="43.74687" lon="5.63508">
        <ele>536</ele>
        <time>2022-08-13T08:28:37Z</time>
      </trkpt>
      <trkpt lat="43.74692" lon="5.63509">
        <ele>537</ele>
        <time>2022-08-13T08:28:39Z</time>
      </trkpt>
      <trkpt lat="43.74698" lon="5.6351">
        <ele>537</ele>
        <time>2022-08-13T08:28:41Z</time>
      </trkpt>
      <trkpt lat="43.74702" lon="5.63515">
        <ele>538</ele>
        <time>2022-08-13T08:28:43Z</time>
      </trkpt>
      <trkpt lat="43.74705" lon="5.6352">
        <ele>538</ele>
        <time>2022-08-13T08:28:45Z</time>
      </trkpt>
      <trkpt lat="43.74709" lon="5.63523">
        <ele>538</ele>
        <time>2022-08-13T08:28:47Z</time>
      </trkpt>
      <trkpt lat="43.74714" lon="5.63523">
        <ele>537</ele>
        <time>2022-08-13T08:28:49Z</time>
      </trkpt>
      <trkpt lat="43.7472" lon="5.6352">
        <ele>537</ele>
        <time>2022-08-13T08:28:51Z</time>
      </trkpt>
      <trkpt lat="43.74728" lon="5.63516">
        <ele>537</ele>
        <time>2022-08-13T08:28:53Z</time>
      </trkpt>
      <trkpt lat="43.74736" lon="5.63514">
        <ele>536</ele>
        <time>2022-08-13T08:28:55Z</time>
      </trkpt>
      <trkpt lat="43.74742" lon="5.63513">
        <ele>536</ele>
        <time>2022-08-13T08:28:57Z</time>
      </trkpt>
      <trkpt lat="43.74748" lon="5.63512">
        <ele>536</ele>
        <time>2022-08-13T08:28:59Z</time>
      </trkpt>
      <trkpt lat="43.74754" lon="5.63507">
        <ele>536</ele>
        <time>2022-08-13T08:29:01Z</time>
      </trkpt>
      <trkpt lat="43.7476" lon="5.63501">
        <ele>535</ele>
        <time>2022-08-13T08:29:03Z</time>
      </trkpt>
      <trkpt lat="43.74767" lon="5.63495">
        <ele>535</ele>
        <time>2022-08-13T08:29:05Z</time>
      </trkpt>
      <trkpt lat="43.74771" lon="5.63492">
        <ele>534</ele>
        <time>2022-08-13T08:29:06Z</time>
      </trkpt>
      <trkpt lat="43.74776" lon="5.6349">
        <ele>534</ele>
        <time>2022-08-13T08:29:07Z</time>
      </trkpt>
      <trkpt lat="43.74781" lon="5.63489">
        <ele>533</ele>
        <time>2022-08-13T08:29:08Z</time>
      </trkpt>
      <trkpt lat="43.74791" lon="5.63489">
        <ele>533</ele>
        <time>2022-08-13T08:29:10Z</time>
      </trkpt>
      <trkpt lat="43.74797" lon="5.63489">
        <ele>533</ele>
        <time>2022-08-13T08:29:11Z</time>
      </trkpt>
      <trkpt lat="43.74806" lon="5.63495">
        <ele>532</ele>
        <time>2022-08-13T08:29:13Z</time>
      </trkpt>
      <trkpt lat="43.74817" lon="5.63496">
        <ele>532</ele>
        <time>2022-08-13T08:29:15Z</time>
      </trkpt>
      <trkpt lat="43.74821" lon="5.635">
        <ele>532</ele>
        <time>2022-08-13T08:29:16Z</time>
      </trkpt>
      <trkpt lat="43.74826" lon="5.63503">
        <ele>532</ele>
        <time>2022-08-13T08:29:17Z</time>
      </trkpt>
      <trkpt lat="43.74833" lon="5.63507">
        <ele>532</ele>
        <time>2022-08-13T08:29:18Z</time>
      </trkpt>
      <trkpt lat="43.74837" lon="5.63513">
        <ele>532</ele>
        <time>2022-08-13T08:29:19Z</time>
      </trkpt>
      <trkpt lat="43.74843" lon="5.63516">
        <ele>532</ele>
        <time>2022-08-13T08:29:20Z</time>
      </trkpt>
      <trkpt lat="43.74848" lon="5.63513">
        <ele>532</ele>
        <time>2022-08-13T08:29:21Z</time>
      </trkpt>
      <trkpt lat="43.74854" lon="5.63509">
        <ele>532</ele>
        <time>2022-08-13T08:29:22Z</time>
      </trkpt>
      <trkpt lat="43.7486" lon="5.63507">
        <ele>531</ele>
        <time>2022-08-13T08:29:23Z</time>
      </trkpt>
      <trkpt lat="43.74869" lon="5.63504">
        <ele>530</ele>
        <time>2022-08-13T08:29:25Z</time>
      </trkpt>
      <trkpt lat="43.74874" lon="5.63502">
        <ele>529</ele>
        <time>2022-08-13T08:29:26Z</time>
      </trkpt>
      <trkpt lat="43.74881" lon="5.63498">
        <ele>528</ele>
        <time>2022-08-13T08:29:28Z</time>
      </trkpt>
      <trkpt lat="43.74888" lon="5.6349">
        <ele>527</ele>
        <time>2022-08-13T08:29:30Z</time>
      </trkpt>
      <trkpt lat="43.74892" lon="5.63484">
        <ele>526</ele>
        <time>2022-08-13T08:29:31Z</time>
      </trkpt>
      <trkpt lat="43.74898" lon="5.6348">
        <ele>525</ele>
        <time>2022-08-13T08:29:32Z</time>
      </trkpt>
      <trkpt lat="43.74904" lon="5.63474">
        <ele>524</ele>
        <time>2022-08-13T08:29:33Z</time>
      </trkpt>
      <trkpt lat="43.74908" lon="5.6347">
        <ele>522</ele>
        <time>2022-08-13T08:29:34Z</time>
      </trkpt>
      <trkpt lat="43.74912" lon="5.63467">
        <ele>521</ele>
        <time>2022-08-13T08:29:35Z</time>
      </trkpt>
      <trkpt lat="43.74917" lon="5.63463">
        <ele>520</ele>
        <time>2022-08-13T08:29:36Z</time>
      </trkpt>
      <trkpt lat="43.74921" lon="5.63465">
        <ele>519</ele>
        <time>2022-08-13T08:29:38Z</time>
      </trkpt>
      <trkpt lat="43.74927" lon="5.63465">
        <ele>519</ele>
        <time>2022-08-13T08:29:44Z</time>
      </trkpt>
      <trkpt lat="43.74931" lon="5.63462">
        <ele>519</ele>
        <time>2022-08-13T08:29:46Z</time>
      </trkpt>
      <trkpt lat="43.74935" lon="5.63452">
        <ele>519</ele>
        <time>2022-08-13T08:29:48Z</time>
      </trkpt>
      <trkpt lat="43.74938" lon="5.63445">
        <ele>520</ele>
        <time>2022-08-13T08:29:50Z</time>
      </trkpt>
      <trkpt lat="43.74945" lon="5.63447">
        <ele>521</ele>
        <time>2022-08-13T08:29:52Z</time>
      </trkpt>
      <trkpt lat="43.74954" lon="5.63453">
        <ele>520</ele>
        <time>2022-08-13T08:29:54Z</time>
      </trkpt>
      <trkpt lat="43.74959" lon="5.63456">
        <ele>520</ele>
        <time>2022-08-13T08:29:55Z</time>
      </trkpt>
      <trkpt lat="43.74964" lon="5.63457">
        <ele>519</ele>
        <time>2022-08-13T08:29:56Z</time>
      </trkpt>
      <trkpt lat="43.74969" lon="5.63456">
        <ele>518</ele>
        <time>2022-08-13T08:29:57Z</time>
      </trkpt>
      <trkpt lat="43.74976" lon="5.63453">
        <ele>518</ele>
        <time>2022-08-13T08:29:59Z</time>
      </trkpt>
      <trkpt lat="43.74981" lon="5.63449">
        <ele>517</ele>
        <time>2022-08-13T08:30:01Z</time>
      </trkpt>
      <trkpt lat="43.74986" lon="5.63444">
        <ele>517</ele>
        <time>2022-08-13T08:30:03Z</time>
      </trkpt>
      <trkpt lat="43.74989" lon="5.6344">
        <ele>517</ele>
        <time>2022-08-13T08:30:05Z</time>
      </trkpt>
      <trkpt lat="43.74992" lon="5.63435">
        <ele>517</ele>
        <time>2022-08-13T08:30:07Z</time>
      </trkpt>
      <trkpt lat="43.74996" lon="5.63431">
        <ele>517</ele>
        <time>2022-08-13T08:30:09Z</time>
      </trkpt>
      <trkpt lat="43.75002" lon="5.63427">
        <ele>518</ele>
        <time>2022-08-13T08:30:12Z</time>
      </trkpt>
      <trkpt lat="43.75006" lon="5.63424">
        <ele>519</ele>
        <time>2022-08-13T08:30:14Z</time>
      </trkpt>
      <trkpt lat="43.7501" lon="5.63424">
        <ele>519</ele>
        <time>2022-08-13T08:30:16Z</time>
      </trkpt>
      <trkpt lat="43.75016" lon="5.63427">
        <ele>520</ele>
        <time>2022-08-13T08:30:20Z</time>
      </trkpt>
      <trkpt lat="43.75021" lon="5.63428">
        <ele>521</ele>
        <time>2022-08-13T08:30:23Z</time>
      </trkpt>
      <trkpt lat="43.75027" lon="5.63428">
        <ele>521</ele>
        <time>2022-08-13T08:30:26Z</time>
      </trkpt>
      <trkpt lat="43.75032" lon="5.63426">
        <ele>523</ele>
        <time>2022-08-13T08:30:29Z</time>
      </trkpt>
      <trkpt lat="43.75039" lon="5.63426">
        <ele>524</ele>
        <time>2022-08-13T08:30:33Z</time>
      </trkpt>
      <trkpt lat="43.75046" lon="5.63427">
        <ele>525</ele>
        <time>2022-08-13T08:30:36Z</time>
      </trkpt>
      <trkpt lat="43.75052" lon="5.63429">
        <ele>526</ele>
        <time>2022-08-13T08:30:38Z</time>
      </trkpt>
      <trkpt lat="43.7506" lon="5.63433">
        <ele>527</ele>
        <time>2022-08-13T08:30:40Z</time>
      </trkpt>
      <trkpt lat="43.75066" lon="5.63437">
        <ele>527</ele>
        <time>2022-08-13T08:30:42Z</time>
      </trkpt>
      <trkpt lat="43.75072" lon="5.63442">
        <ele>527</ele>
        <time>2022-08-13T08:30:44Z</time>
      </trkpt>
      <trkpt lat="43.75077" lon="5.63446">
        <ele>527</ele>
        <time>2022-08-13T08:30:46Z</time>
      </trkpt>
      <trkpt lat="43.75082" lon="5.6345">
        <ele>527</ele>
        <time>2022-08-13T08:30:48Z</time>
      </trkpt>
      <trkpt lat="43.75088" lon="5.63453">
        <ele>528</ele>
        <time>2022-08-13T08:30:51Z</time>
      </trkpt>
      <trkpt lat="43.75093" lon="5.63453">
        <ele>528</ele>
        <time>2022-08-13T08:30:53Z</time>
      </trkpt>
      <trkpt lat="43.75099" lon="5.63453">
        <ele>529</ele>
        <time>2022-08-13T08:30:56Z</time>
      </trkpt>
      <trkpt lat="43.75105" lon="5.63453">
        <ele>530</ele>
        <time>2022-08-13T08:30:59Z</time>
      </trkpt>
      <trkpt lat="43.75111" lon="5.63453">
        <ele>531</ele>
        <time>2022-08-13T08:31:02Z</time>
      </trkpt>
      <trkpt lat="43.75116" lon="5.63452">
        <ele>531</ele>
        <time>2022-08-13T08:31:05Z</time>
      </trkpt>
      <trkpt lat="43.75122" lon="5.6345">
        <ele>532</ele>
        <time>2022-08-13T08:31:08Z</time>
      </trkpt>
      <trkpt lat="43.75127" lon="5.63447">
        <ele>532</ele>
        <time>2022-08-13T08:31:11Z</time>
      </trkpt>
      <trkpt lat="43.75133" lon="5.63449">
        <ele>533</ele>
        <time>2022-08-13T08:31:15Z</time>
      </trkpt>
      <trkpt lat="43.75139" lon="5.63452">
        <ele>533</ele>
        <time>2022-08-13T08:31:18Z</time>
      </trkpt>
      <trkpt lat="43.75145" lon="5.63451">
        <ele>533</ele>
        <time>2022-08-13T08:31:21Z</time>
      </trkpt>
      <trkpt lat="43.75151" lon="5.6345">
        <ele>533</ele>
        <time>2022-08-13T08:31:24Z</time>
      </trkpt>
      <trkpt lat="43.75156" lon="5.63448">
        <ele>533</ele>
        <time>2022-08-13T08:31:27Z</time>
      </trkpt>
      <trkpt lat="43.75161" lon="5.63444">
        <ele>533</ele>
        <time>2022-08-13T08:31:30Z</time>
      </trkpt>
      <trkpt lat="43.75166" lon="5.63438">
        <ele>533</ele>
        <time>2022-08-13T08:31:33Z</time>
      </trkpt>
      <trkpt lat="43.75169" lon="5.63434">
        <ele>534</ele>
        <time>2022-08-13T08:31:35Z</time>
      </trkpt>
      <trkpt lat="43.75173" lon="5.63431">
        <ele>534</ele>
        <time>2022-08-13T08:31:37Z</time>
      </trkpt>
      <trkpt lat="43.7518" lon="5.63431">
        <ele>534</ele>
        <time>2022-08-13T08:31:40Z</time>
      </trkpt>
      <trkpt lat="43.75182" lon="5.63437">
        <ele>534</ele>
        <time>2022-08-13T08:31:42Z</time>
      </trkpt>
      <trkpt lat="43.75182" lon="5.63444">
        <ele>535</ele>
        <time>2022-08-13T08:31:44Z</time>
      </trkpt>
      <trkpt lat="43.75185" lon="5.63453">
        <ele>535</ele>
        <time>2022-08-13T08:31:47Z</time>
      </trkpt>
      <trkpt lat="43.75188" lon="5.63459">
        <ele>535</ele>
        <time>2022-08-13T08:31:50Z</time>
      </trkpt>
      <trkpt lat="43.75194" lon="5.63461">
        <ele>536</ele>
        <time>2022-08-13T08:31:53Z</time>
      </trkpt>
      <trkpt lat="43.75199" lon="5.63463">
        <ele>537</ele>
        <time>2022-08-13T08:31:55Z</time>
      </trkpt>
      <trkpt lat="43.75206" lon="5.63465">
        <ele>537</ele>
        <time>2022-08-13T08:31:58Z</time>
      </trkpt>
      <trkpt lat="43.75212" lon="5.63464">
        <ele>538</ele>
        <time>2022-08-13T08:32:01Z</time>
      </trkpt>
      <trkpt lat="43.75217" lon="5.63461">
        <ele>539</ele>
        <time>2022-08-13T08:32:03Z</time>
      </trkpt>
      <trkpt lat="43.75221" lon="5.63459">
        <ele>540</ele>
        <time>2022-08-13T08:32:05Z</time>
      </trkpt>
      <trkpt lat="43.75227" lon="5.63455">
        <ele>540</ele>
        <time>2022-08-13T08:32:08Z</time>
      </trkpt>
      <trkpt lat="43.75233" lon="5.63452">
        <ele>541</ele>
        <time>2022-08-13T08:32:11Z</time>
      </trkpt>
      <trkpt lat="43.75239" lon="5.6345">
        <ele>541</ele>
        <time>2022-08-13T08:32:14Z</time>
      </trkpt>
      <trkpt lat="43.75245" lon="5.63454">
        <ele>542</ele>
        <time>2022-08-13T08:32:25Z</time>
      </trkpt>
      <trkpt lat="43.75253" lon="5.63462">
        <ele>542</ele>
        <time>2022-08-13T08:32:27Z</time>
      </trkpt>
      <trkpt lat="43.75258" lon="5.63466">
        <ele>542</ele>
        <time>2022-08-13T08:32:28Z</time>
      </trkpt>
      <trkpt lat="43.75261" lon="5.63472">
        <ele>542</ele>
        <time>2022-08-13T08:32:29Z</time>
      </trkpt>
      <trkpt lat="43.75264" lon="5.6348">
        <ele>541</ele>
        <time>2022-08-13T08:32:30Z</time>
      </trkpt>
      <trkpt lat="43.75267" lon="5.63488">
        <ele>540</ele>
        <time>2022-08-13T08:32:31Z</time>
      </trkpt>
      <trkpt lat="43.75272" lon="5.63497">
        <ele>540</ele>
        <time>2022-08-13T08:32:32Z</time>
      </trkpt>
      <trkpt lat="43.75275" lon="5.63505">
        <ele>540</ele>
        <time>2022-08-13T08:32:33Z</time>
      </trkpt>
      <trkpt lat="43.75279" lon="5.63514">
        <ele>539</ele>
        <time>2022-08-13T08:32:34Z</time>
      </trkpt>
      <trkpt lat="43.75281" lon="5.63525">
        <ele>538</ele>
        <time>2022-08-13T08:32:35Z</time>
      </trkpt>
      <trkpt lat="43.75285" lon="5.63536">
        <ele>537</ele>
        <time>2022-08-13T08:32:36Z</time>
      </trkpt>
      <trkpt lat="43.75289" lon="5.63548">
        <ele>536</ele>
        <time>2022-08-13T08:32:37Z</time>
      </trkpt>
      <trkpt lat="43.75293" lon="5.63559">
        <ele>535</ele>
        <time>2022-08-13T08:32:38Z</time>
      </trkpt>
      <trkpt lat="43.75296" lon="5.63571">
        <ele>534</ele>
        <time>2022-08-13T08:32:39Z</time>
      </trkpt>
      <trkpt lat="43.75299" lon="5.63585">
        <ele>532</ele>
        <time>2022-08-13T08:32:40Z</time>
      </trkpt>
      <trkpt lat="43.75303" lon="5.63598">
        <ele>531</ele>
        <time>2022-08-13T08:32:41Z</time>
      </trkpt>
      <trkpt lat="43.75306" lon="5.63613">
        <ele>530</ele>
        <time>2022-08-13T08:32:42Z</time>
      </trkpt>
      <trkpt lat="43.75309" lon="5.63627">
        <ele>528</ele>
        <time>2022-08-13T08:32:43Z</time>
      </trkpt>
      <trkpt lat="43.75314" lon="5.63637">
        <ele>527</ele>
        <time>2022-08-13T08:32:44Z</time>
      </trkpt>
      <trkpt lat="43.75319" lon="5.63646">
        <ele>526</ele>
        <time>2022-08-13T08:32:45Z</time>
      </trkpt>
      <trkpt lat="43.75324" lon="5.63655">
        <ele>524</ele>
        <time>2022-08-13T08:32:46Z</time>
      </trkpt>
      <trkpt lat="43.75329" lon="5.63665">
        <ele>523</ele>
        <time>2022-08-13T08:32:47Z</time>
      </trkpt>
      <trkpt lat="43.75337" lon="5.63676">
        <ele>521</ele>
        <time>2022-08-13T08:32:48Z</time>
      </trkpt>
      <trkpt lat="43.75345" lon="5.63687">
        <ele>520</ele>
        <time>2022-08-13T08:32:49Z</time>
      </trkpt>
      <trkpt lat="43.75353" lon="5.63699">
        <ele>518</ele>
        <time>2022-08-13T08:32:50Z</time>
      </trkpt>
      <trkpt lat="43.75359" lon="5.63712">
        <ele>516</ele>
        <time>2022-08-13T08:32:51Z</time>
      </trkpt>
      <trkpt lat="43.75368" lon="5.63723">
        <ele>515</ele>
        <time>2022-08-13T08:32:52Z</time>
      </trkpt>
      <trkpt lat="43.75374" lon="5.63735">
        <ele>514</ele>
        <time>2022-08-13T08:32:53Z</time>
      </trkpt>
      <trkpt lat="43.75378" lon="5.63745">
        <ele>513</ele>
        <time>2022-08-13T08:32:54Z</time>
      </trkpt>
      <trkpt lat="43.75383" lon="5.63758">
        <ele>512</ele>
        <time>2022-08-13T08:32:55Z</time>
      </trkpt>
      <trkpt lat="43.75385" lon="5.6377">
        <ele>512</ele>
        <time>2022-08-13T08:32:56Z</time>
      </trkpt>
      <trkpt lat="43.75386" lon="5.63785">
        <ele>511</ele>
        <time>2022-08-13T08:32:57Z</time>
      </trkpt>
      <trkpt lat="43.75388" lon="5.638">
        <ele>510</ele>
        <time>2022-08-13T08:32:58Z</time>
      </trkpt>
      <trkpt lat="43.7539" lon="5.63815">
        <ele>510</ele>
        <time>2022-08-13T08:32:59Z</time>
      </trkpt>
      <trkpt lat="43.75393" lon="5.63827">
        <ele>509</ele>
        <time>2022-08-13T08:33:00Z</time>
      </trkpt>
      <trkpt lat="43.75396" lon="5.6384">
        <ele>509</ele>
        <time>2022-08-13T08:33:01Z</time>
      </trkpt>
      <trkpt lat="43.75399" lon="5.63851">
        <ele>508</ele>
        <time>2022-08-13T08:33:02Z</time>
      </trkpt>
      <trkpt lat="43.75404" lon="5.63859">
        <ele>508</ele>
        <time>2022-08-13T08:33:03Z</time>
      </trkpt>
      <trkpt lat="43.75409" lon="5.63868">
        <ele>507</ele>
        <time>2022-08-13T08:33:04Z</time>
      </trkpt>
      <trkpt lat="43.75412" lon="5.63873">
        <ele>507</ele>
        <time>2022-08-13T08:33:05Z</time>
      </trkpt>
      <trkpt lat="43.75417" lon="5.63874">
        <ele>507</ele>
        <time>2022-08-13T08:33:08Z</time>
      </trkpt>
      <trkpt lat="43.75415" lon="5.63882">
        <ele>507</ele>
        <time>2022-08-13T08:33:22Z</time>
      </trkpt>
      <trkpt lat="43.75415" lon="5.6389">
        <ele>507</ele>
        <time>2022-08-13T08:33:24Z</time>
      </trkpt>
      <trkpt lat="43.75418" lon="5.63899">
        <ele>508</ele>
        <time>2022-08-13T08:33:27Z</time>
      </trkpt>
      <trkpt lat="43.7542" lon="5.63905">
        <ele>508</ele>
        <time>2022-08-13T08:33:29Z</time>
      </trkpt>
      <trkpt lat="43.75423" lon="5.63914">
        <ele>508</ele>
        <time>2022-08-13T08:33:32Z</time>
      </trkpt>
      <trkpt lat="43.75425" lon="5.63921">
        <ele>508</ele>
        <time>2022-08-13T08:33:34Z</time>
      </trkpt>
      <trkpt lat="43.75426" lon="5.63928">
        <ele>508</ele>
        <time>2022-08-13T08:33:36Z</time>
      </trkpt>
      <trkpt lat="43.75428" lon="5.63934">
        <ele>507</ele>
        <time>2022-08-13T08:33:38Z</time>
      </trkpt>
      <trkpt lat="43.75431" lon="5.6394">
        <ele>507</ele>
        <time>2022-08-13T08:33:40Z</time>
      </trkpt>
      <trkpt lat="43.75436" lon="5.63943">
        <ele>508</ele>
        <time>2022-08-13T08:33:42Z</time>
      </trkpt>
      <trkpt lat="43.75442" lon="5.63948">
        <ele>509</ele>
        <time>2022-08-13T08:33:45Z</time>
      </trkpt>
      <trkpt lat="43.75448" lon="5.6395">
        <ele>509</ele>
        <time>2022-08-13T08:33:47Z</time>
      </trkpt>
      <trkpt lat="43.75453" lon="5.63951">
        <ele>510</ele>
        <time>2022-08-13T08:33:49Z</time>
      </trkpt>
      <trkpt lat="43.75459" lon="5.63952">
        <ele>510</ele>
        <time>2022-08-13T08:33:51Z</time>
      </trkpt>
      <trkpt lat="43.75464" lon="5.63952">
        <ele>509</ele>
        <time>2022-08-13T08:33:53Z</time>
      </trkpt>
      <trkpt lat="43.75469" lon="5.63951">
        <ele>509</ele>
        <time>2022-08-13T08:33:55Z</time>
      </trkpt>
      <trkpt lat="43.75475" lon="5.63948">
        <ele>508</ele>
        <time>2022-08-13T08:33:57Z</time>
      </trkpt>
      <trkpt lat="43.75478" lon="5.63944">
        <ele>508</ele>
        <time>2022-08-13T08:33:59Z</time>
      </trkpt>
      <trkpt lat="43.75481" lon="5.63937">
        <ele>507</ele>
        <time>2022-08-13T08:34:02Z</time>
      </trkpt>
      <trkpt lat="43.75482" lon="5.6393">
        <ele>506</ele>
        <time>2022-08-13T08:34:05Z</time>
      </trkpt>
      <trkpt lat="43.75484" lon="5.63925">
        <ele>505</ele>
        <time>2022-08-13T08:34:12Z</time>
      </trkpt>
      <trkpt lat="43.75487" lon="5.63918">
        <ele>504</ele>
        <time>2022-08-13T08:34:14Z</time>
      </trkpt>
      <trkpt lat="43.75491" lon="5.63907">
        <ele>503</ele>
        <time>2022-08-13T08:34:16Z</time>
      </trkpt>
      <trkpt lat="43.75494" lon="5.63899">
        <ele>502</ele>
        <time>2022-08-13T08:34:18Z</time>
      </trkpt>
      <trkpt lat="43.75499" lon="5.63891">
        <ele>501</ele>
        <time>2022-08-13T08:34:20Z</time>
      </trkpt>
      <trkpt lat="43.75504" lon="5.63882">
        <ele>500</ele>
        <time>2022-08-13T08:34:22Z</time>
      </trkpt>
      <trkpt lat="43.75507" lon="5.63874">
        <ele>499</ele>
        <time>2022-08-13T08:34:24Z</time>
      </trkpt>
      <trkpt lat="43.7551" lon="5.63866">
        <ele>498</ele>
        <time>2022-08-13T08:34:26Z</time>
      </trkpt>
      <trkpt lat="43.75513" lon="5.63859">
        <ele>497</ele>
        <time>2022-08-13T08:34:28Z</time>
      </trkpt>
      <trkpt lat="43.75516" lon="5.63851">
        <ele>496</ele>
        <time>2022-08-13T08:34:30Z</time>
      </trkpt>
      <trkpt lat="43.75519" lon="5.63844">
        <ele>496</ele>
        <time>2022-08-13T08:34:32Z</time>
      </trkpt>
      <trkpt lat="43.75522" lon="5.63838">
        <ele>495</ele>
        <time>2022-08-13T08:34:34Z</time>
      </trkpt>
      <trkpt lat="43.75525" lon="5.63834">
        <ele>494</ele>
        <time>2022-08-13T08:34:37Z</time>
      </trkpt>
      <trkpt lat="43.75526" lon="5.63826">
        <ele>493</ele>
        <time>2022-08-13T08:34:40Z</time>
      </trkpt>
      <trkpt lat="43.75528" lon="5.63818">
        <ele>492</ele>
        <time>2022-08-13T08:34:42Z</time>
      </trkpt>
      <trkpt lat="43.75531" lon="5.63807">
        <ele>491</ele>
        <time>2022-08-13T08:34:44Z</time>
      </trkpt>
      <trkpt lat="43.75532" lon="5.63801">
        <ele>490</ele>
        <time>2022-08-13T08:34:45Z</time>
      </trkpt>
      <trkpt lat="43.75533" lon="5.63794">
        <ele>490</ele>
        <time>2022-08-13T08:34:46Z</time>
      </trkpt>
      <trkpt lat="43.75534" lon="5.63788">
        <ele>490</ele>
        <time>2022-08-13T08:34:47Z</time>
      </trkpt>
      <trkpt lat="43.75535" lon="5.63778">
        <ele>490</ele>
        <time>2022-08-13T08:34:48Z</time>
      </trkpt>
      <trkpt lat="43.75535" lon="5.6377">
        <ele>490</ele>
        <time>2022-08-13T08:34:49Z</time>
      </trkpt>
      <trkpt lat="43.75538" lon="5.63762">
        <ele>490</ele>
        <time>2022-08-13T08:34:50Z</time>
      </trkpt>
      <trkpt lat="43.75539" lon="5.63753">
        <ele>490</ele>
        <time>2022-08-13T08:34:51Z</time>
      </trkpt>
      <trkpt lat="43.75541" lon="5.63745">
        <ele>490</ele>
        <time>2022-08-13T08:34:52Z</time>
      </trkpt>
      <trkpt lat="43.75542" lon="5.63737">
        <ele>490</ele>
        <time>2022-08-13T08:34:53Z</time>
      </trkpt>
      <trkpt lat="43.75545" lon="5.63731">
        <ele>490</ele>
        <time>2022-08-13T08:34:54Z</time>
      </trkpt>
      <trkpt lat="43.75554" lon="5.63727">
        <ele>490</ele>
        <time>2022-08-13T08:34:56Z</time>
      </trkpt>
      <trkpt lat="43.75559" lon="5.63722">
        <ele>491</ele>
        <time>2022-08-13T08:34:58Z</time>
      </trkpt>
      <trkpt lat="43.75563" lon="5.63718">
        <ele>492</ele>
        <time>2022-08-13T08:35:00Z</time>
      </trkpt>
      <trkpt lat="43.75567" lon="5.63716">
        <ele>493</ele>
        <time>2022-08-13T08:35:03Z</time>
      </trkpt>
      <trkpt lat="43.75573" lon="5.63715">
        <ele>495</ele>
        <time>2022-08-13T08:35:06Z</time>
      </trkpt>
      <trkpt lat="43.75579" lon="5.63715">
        <ele>496</ele>
        <time>2022-08-13T08:35:09Z</time>
      </trkpt>
      <trkpt lat="43.75584" lon="5.63716">
        <ele>498</ele>
        <time>2022-08-13T08:35:12Z</time>
      </trkpt>
      <trkpt lat="43.75589" lon="5.6372">
        <ele>498</ele>
        <time>2022-08-13T08:35:16Z</time>
      </trkpt>
      <trkpt lat="43.75592" lon="5.63726">
        <ele>499</ele>
        <time>2022-08-13T08:35:20Z</time>
      </trkpt>
      <trkpt lat="43.75596" lon="5.63732">
        <ele>499</ele>
        <time>2022-08-13T08:35:23Z</time>
      </trkpt>
      <trkpt lat="43.756" lon="5.63738">
        <ele>500</ele>
        <time>2022-08-13T08:35:26Z</time>
      </trkpt>
      <trkpt lat="43.75603" lon="5.63744">
        <ele>500</ele>
        <time>2022-08-13T08:35:29Z</time>
      </trkpt>
      <trkpt lat="43.75607" lon="5.6375">
        <ele>502</ele>
        <time>2022-08-13T08:35:32Z</time>
      </trkpt>
      <trkpt lat="43.75612" lon="5.63757">
        <ele>503</ele>
        <time>2022-08-13T08:35:35Z</time>
      </trkpt>
      <trkpt lat="43.75616" lon="5.63763">
        <ele>504</ele>
        <time>2022-08-13T08:35:38Z</time>
      </trkpt>
      <trkpt lat="43.75621" lon="5.63768">
        <ele>505</ele>
        <time>2022-08-13T08:35:41Z</time>
      </trkpt>
      <trkpt lat="43.75623" lon="5.63775">
        <ele>507</ele>
        <time>2022-08-13T08:35:44Z</time>
      </trkpt>
      <trkpt lat="43.75622" lon="5.63783">
        <ele>508</ele>
        <time>2022-08-13T08:35:47Z</time>
      </trkpt>
      <trkpt lat="43.75619" lon="5.63791">
        <ele>509</ele>
        <time>2022-08-13T08:35:50Z</time>
      </trkpt>
      <trkpt lat="43.75615" lon="5.63797">
        <ele>509</ele>
        <time>2022-08-13T08:35:53Z</time>
      </trkpt>
      <trkpt lat="43.7561" lon="5.63802">
        <ele>510</ele>
        <time>2022-08-13T08:35:56Z</time>
      </trkpt>
      <trkpt lat="43.75606" lon="5.63806">
        <ele>511</ele>
        <time>2022-08-13T08:35:59Z</time>
      </trkpt>
      <trkpt lat="43.75602" lon="5.63811">
        <ele>511</ele>
        <time>2022-08-13T08:36:02Z</time>
      </trkpt>
      <trkpt lat="43.75597" lon="5.63817">
        <ele>512</ele>
        <time>2022-08-13T08:36:05Z</time>
      </trkpt>
      <trkpt lat="43.75594" lon="5.63823">
        <ele>513</ele>
        <time>2022-08-13T08:36:08Z</time>
      </trkpt>
      <trkpt lat="43.7559" lon="5.63829">
        <ele>513</ele>
        <time>2022-08-13T08:36:11Z</time>
      </trkpt>
      <trkpt lat="43.75587" lon="5.63835">
        <ele>514</ele>
        <time>2022-08-13T08:36:14Z</time>
      </trkpt>
      <trkpt lat="43.75584" lon="5.63842">
        <ele>514</ele>
        <time>2022-08-13T08:36:17Z</time>
      </trkpt>
      <trkpt lat="43.75581" lon="5.63848">
        <ele>515</ele>
        <time>2022-08-13T08:36:20Z</time>
      </trkpt>
      <trkpt lat="43.75581" lon="5.63856">
        <ele>516</ele>
        <time>2022-08-13T08:36:23Z</time>
      </trkpt>
      <trkpt lat="43.75582" lon="5.63862">
        <ele>517</ele>
        <time>2022-08-13T08:36:26Z</time>
      </trkpt>
      <trkpt lat="43.75584" lon="5.6387">
        <ele>518</ele>
        <time>2022-08-13T08:36:29Z</time>
      </trkpt>
      <trkpt lat="43.75586" lon="5.63875">
        <ele>519</ele>
        <time>2022-08-13T08:36:31Z</time>
      </trkpt>
      <trkpt lat="43.75589" lon="5.63882">
        <ele>519</ele>
        <time>2022-08-13T08:36:34Z</time>
      </trkpt>
      <trkpt lat="43.75594" lon="5.63885">
        <ele>519</ele>
        <time>2022-08-13T08:36:37Z</time>
      </trkpt>
      <trkpt lat="43.75598" lon="5.63888">
        <ele>519</ele>
        <time>2022-08-13T08:36:42Z</time>
      </trkpt>
      <trkpt lat="43.75602" lon="5.63894">
        <ele>518</ele>
        <time>2022-08-13T08:36:46Z</time>
      </trkpt>
      <trkpt lat="43.75605" lon="5.63899">
        <ele>517</ele>
        <time>2022-08-13T08:36:49Z</time>
      </trkpt>
      <trkpt lat="43.75609" lon="5.63904">
        <ele>517</ele>
        <time>2022-08-13T08:36:52Z</time>
      </trkpt>
      <trkpt lat="43.75613" lon="5.63909">
        <ele>517</ele>
        <time>2022-08-13T08:36:55Z</time>
      </trkpt>
      <trkpt lat="43.75617" lon="5.63914">
        <ele>517</ele>
        <time>2022-08-13T08:36:58Z</time>
      </trkpt>
      <trkpt lat="43.75622" lon="5.6392">
        <ele>517</ele>
        <time>2022-08-13T08:37:01Z</time>
      </trkpt>
      <trkpt lat="43.75626" lon="5.63925">
        <ele>517</ele>
        <time>2022-08-13T08:37:04Z</time>
      </trkpt>
      <trkpt lat="43.75631" lon="5.63931">
        <ele>517</ele>
        <time>2022-08-13T08:37:07Z</time>
      </trkpt>
      <trkpt lat="43.75635" lon="5.63934">
        <ele>518</ele>
        <time>2022-08-13T08:37:09Z</time>
      </trkpt>
      <trkpt lat="43.7564" lon="5.63939">
        <ele>518</ele>
        <time>2022-08-13T08:37:12Z</time>
      </trkpt>
      <trkpt lat="43.75644" lon="5.63943">
        <ele>518</ele>
        <time>2022-08-13T08:37:14Z</time>
      </trkpt>
      <trkpt lat="43.75649" lon="5.63947">
        <ele>518</ele>
        <time>2022-08-13T08:37:16Z</time>
      </trkpt>
      <trkpt lat="43.75654" lon="5.63951">
        <ele>518</ele>
        <time>2022-08-13T08:37:18Z</time>
      </trkpt>
      <trkpt lat="43.75659" lon="5.63956">
        <ele>517</ele>
        <time>2022-08-13T08:37:20Z</time>
      </trkpt>
      <trkpt lat="43.75665" lon="5.6396">
        <ele>517</ele>
        <time>2022-08-13T08:37:22Z</time>
      </trkpt>
      <trkpt lat="43.7567" lon="5.63965">
        <ele>517</ele>
        <time>2022-08-13T08:37:24Z</time>
      </trkpt>
      <trkpt lat="43.75676" lon="5.6397">
        <ele>517</ele>
        <time>2022-08-13T08:37:26Z</time>
      </trkpt>
      <trkpt lat="43.75681" lon="5.63975">
        <ele>517</ele>
        <time>2022-08-13T08:37:28Z</time>
      </trkpt>
      <trkpt lat="43.75687" lon="5.6398">
        <ele>517</ele>
        <time>2022-08-13T08:37:30Z</time>
      </trkpt>
      <trkpt lat="43.75692" lon="5.63986">
        <ele>518</ele>
        <time>2022-08-13T08:37:32Z</time>
      </trkpt>
      <trkpt lat="43.75698" lon="5.63992">
        <ele>518</ele>
        <time>2022-08-13T08:37:34Z</time>
      </trkpt>
      <trkpt lat="43.75703" lon="5.63998">
        <ele>517</ele>
        <time>2022-08-13T08:37:36Z</time>
      </trkpt>
      <trkpt lat="43.7571" lon="5.64004">
        <ele>517</ele>
        <time>2022-08-13T08:37:38Z</time>
      </trkpt>
      <trkpt lat="43.75716" lon="5.6401">
        <ele>517</ele>
        <time>2022-08-13T08:37:40Z</time>
      </trkpt>
      <trkpt lat="43.75722" lon="5.64016">
        <ele>517</ele>
        <time>2022-08-13T08:37:42Z</time>
      </trkpt>
      <trkpt lat="43.75728" lon="5.64021">
        <ele>516</ele>
        <time>2022-08-13T08:37:44Z</time>
      </trkpt>
      <trkpt lat="43.75733" lon="5.64026">
        <ele>516</ele>
        <time>2022-08-13T08:37:46Z</time>
      </trkpt>
      <trkpt lat="43.75739" lon="5.64031">
        <ele>515</ele>
        <time>2022-08-13T08:37:48Z</time>
      </trkpt>
      <trkpt lat="43.75745" lon="5.64036">
        <ele>515</ele>
        <time>2022-08-13T08:37:50Z</time>
      </trkpt>
      <trkpt lat="43.75752" lon="5.6404">
        <ele>515</ele>
        <time>2022-08-13T08:37:52Z</time>
      </trkpt>
      <trkpt lat="43.7576" lon="5.64044">
        <ele>515</ele>
        <time>2022-08-13T08:37:54Z</time>
      </trkpt>
      <trkpt lat="43.75769" lon="5.64046">
        <ele>515</ele>
        <time>2022-08-13T08:37:56Z</time>
      </trkpt>
      <trkpt lat="43.75774" lon="5.64048">
        <ele>515</ele>
        <time>2022-08-13T08:37:57Z</time>
      </trkpt>
      <trkpt lat="43.75779" lon="5.64049">
        <ele>514</ele>
        <time>2022-08-13T08:37:58Z</time>
      </trkpt>
      <trkpt lat="43.75784" lon="5.6405">
        <ele>514</ele>
        <time>2022-08-13T08:37:59Z</time>
      </trkpt>
      <trkpt lat="43.75789" lon="5.64052">
        <ele>514</ele>
        <time>2022-08-13T08:38:00Z</time>
      </trkpt>
      <trkpt lat="43.75795" lon="5.64053">
        <ele>514</ele>
        <time>2022-08-13T08:38:01Z</time>
      </trkpt>
      <trkpt lat="43.75801" lon="5.64054">
        <ele>514</ele>
        <time>2022-08-13T08:38:02Z</time>
      </trkpt>
      <trkpt lat="43.75807" lon="5.64056">
        <ele>514</ele>
        <time>2022-08-13T08:38:03Z</time>
      </trkpt>
      <trkpt lat="43.75813" lon="5.64057">
        <ele>514</ele>
        <time>2022-08-13T08:38:04Z</time>
      </trkpt>
      <trkpt lat="43.75819" lon="5.64058">
        <ele>514</ele>
        <time>2022-08-13T08:38:05Z</time>
      </trkpt>
      <trkpt lat="43.75826" lon="5.6406">
        <ele>514</ele>
        <time>2022-08-13T08:38:06Z</time>
      </trkpt>
      <trkpt lat="43.75832" lon="5.64062">
        <ele>514</ele>
        <time>2022-08-13T08:38:07Z</time>
      </trkpt>
      <trkpt lat="43.75839" lon="5.64065">
        <ele>513</ele>
        <time>2022-08-13T08:38:08Z</time>
      </trkpt>
      <trkpt lat="43.75846" lon="5.64066">
        <ele>512</ele>
        <time>2022-08-13T08:38:09Z</time>
      </trkpt>
      <trkpt lat="43.75853" lon="5.64069">
        <ele>511</ele>
        <time>2022-08-13T08:38:10Z</time>
      </trkpt>
      <trkpt lat="43.7586" lon="5.64071">
        <ele>511</ele>
        <time>2022-08-13T08:38:11Z</time>
      </trkpt>
      <trkpt lat="43.75867" lon="5.64073">
        <ele>510</ele>
        <time>2022-08-13T08:38:12Z</time>
      </trkpt>
      <trkpt lat="43.75875" lon="5.64075">
        <ele>510</ele>
        <time>2022-08-13T08:38:13Z</time>
      </trkpt>
      <trkpt lat="43.75883" lon="5.64078">
        <ele>509</ele>
        <time>2022-08-13T08:38:14Z</time>
      </trkpt>
      <trkpt lat="43.75891" lon="5.6408">
        <ele>509</ele>
        <time>2022-08-13T08:38:15Z</time>
      </trkpt>
      <trkpt lat="43.75898" lon="5.64082">
        <ele>508</ele>
        <time>2022-08-13T08:38:16Z</time>
      </trkpt>
      <trkpt lat="43.75906" lon="5.64083">
        <ele>507</ele>
        <time>2022-08-13T08:38:17Z</time>
      </trkpt>
      <trkpt lat="43.75914" lon="5.64085">
        <ele>507</ele>
        <time>2022-08-13T08:38:18Z</time>
      </trkpt>
      <trkpt lat="43.75922" lon="5.64088">
        <ele>506</ele>
        <time>2022-08-13T08:38:19Z</time>
      </trkpt>
      <trkpt lat="43.75929" lon="5.64092">
        <ele>506</ele>
        <time>2022-08-13T08:38:20Z</time>
      </trkpt>
      <trkpt lat="43.75937" lon="5.64095">
        <ele>506</ele>
        <time>2022-08-13T08:38:21Z</time>
      </trkpt>
      <trkpt lat="43.75944" lon="5.64099">
        <ele>505</ele>
        <time>2022-08-13T08:38:22Z</time>
      </trkpt>
      <trkpt lat="43.75951" lon="5.64103">
        <ele>505</ele>
        <time>2022-08-13T08:38:23Z</time>
      </trkpt>
      <trkpt lat="43.75958" lon="5.64107">
        <ele>504</ele>
        <time>2022-08-13T08:38:24Z</time>
      </trkpt>
      <trkpt lat="43.75965" lon="5.64111">
        <ele>504</ele>
        <time>2022-08-13T08:38:25Z</time>
      </trkpt>
      <trkpt lat="43.75972" lon="5.64116">
        <ele>504</ele>
        <time>2022-08-13T08:38:26Z</time>
      </trkpt>
      <trkpt lat="43.75979" lon="5.6412">
        <ele>504</ele>
        <time>2022-08-13T08:38:27Z</time>
      </trkpt>
      <trkpt lat="43.75985" lon="5.64125">
        <ele>505</ele>
        <time>2022-08-13T08:38:28Z</time>
      </trkpt>
      <trkpt lat="43.75991" lon="5.64129">
        <ele>505</ele>
        <time>2022-08-13T08:38:29Z</time>
      </trkpt>
      <trkpt lat="43.75998" lon="5.64134">
        <ele>505</ele>
        <time>2022-08-13T08:38:30Z</time>
      </trkpt>
      <trkpt lat="43.76004" lon="5.64138">
        <ele>505</ele>
        <time>2022-08-13T08:38:31Z</time>
      </trkpt>
      <trkpt lat="43.76011" lon="5.64143">
        <ele>505</ele>
        <time>2022-08-13T08:38:32Z</time>
      </trkpt>
      <trkpt lat="43.76017" lon="5.64148">
        <ele>506</ele>
        <time>2022-08-13T08:38:33Z</time>
      </trkpt>
      <trkpt lat="43.76024" lon="5.64151">
        <ele>506</ele>
        <time>2022-08-13T08:38:34Z</time>
      </trkpt>
      <trkpt lat="43.76031" lon="5.64156">
        <ele>506</ele>
        <time>2022-08-13T08:38:35Z</time>
      </trkpt>
      <trkpt lat="43.76038" lon="5.6416">
        <ele>506</ele>
        <time>2022-08-13T08:38:36Z</time>
      </trkpt>
      <trkpt lat="43.76045" lon="5.64162">
        <ele>505</ele>
        <time>2022-08-13T08:38:37Z</time>
      </trkpt>
      <trkpt lat="43.76053" lon="5.64164">
        <ele>505</ele>
        <time>2022-08-13T08:38:38Z</time>
      </trkpt>
      <trkpt lat="43.76061" lon="5.64165">
        <ele>504</ele>
        <time>2022-08-13T08:38:39Z</time>
      </trkpt>
      <trkpt lat="43.76069" lon="5.64168">
        <ele>504</ele>
        <time>2022-08-13T08:38:40Z</time>
      </trkpt>
      <trkpt lat="43.76078" lon="5.6417">
        <ele>504</ele>
        <time>2022-08-13T08:38:41Z</time>
      </trkpt>
      <trkpt lat="43.76089" lon="5.64176">
        <ele>504</ele>
        <time>2022-08-13T08:38:42Z</time>
      </trkpt>
      <trkpt lat="43.76099" lon="5.64181">
        <ele>504</ele>
        <time>2022-08-13T08:38:43Z</time>
      </trkpt>
      <trkpt lat="43.76109" lon="5.64189">
        <ele>504</ele>
        <time>2022-08-13T08:38:44Z</time>
      </trkpt>
      <trkpt lat="43.76118" lon="5.642">
        <ele>503</ele>
        <time>2022-08-13T08:38:45Z</time>
      </trkpt>
      <trkpt lat="43.76127" lon="5.64212">
        <ele>502</ele>
        <time>2022-08-13T08:38:46Z</time>
      </trkpt>
      <trkpt lat="43.76136" lon="5.64225">
        <ele>501</ele>
        <time>2022-08-13T08:38:47Z</time>
      </trkpt>
      <trkpt lat="43.76144" lon="5.64236">
        <ele>500</ele>
        <time>2022-08-13T08:38:48Z</time>
      </trkpt>
      <trkpt lat="43.76152" lon="5.64249">
        <ele>498</ele>
        <time>2022-08-13T08:38:49Z</time>
      </trkpt>
      <trkpt lat="43.7616" lon="5.64261">
        <ele>497</ele>
        <time>2022-08-13T08:38:50Z</time>
      </trkpt>
      <trkpt lat="43.76168" lon="5.64273">
        <ele>496</ele>
        <time>2022-08-13T08:38:51Z</time>
      </trkpt>
      <trkpt lat="43.76176" lon="5.64285">
        <ele>495</ele>
        <time>2022-08-13T08:38:52Z</time>
      </trkpt>
      <trkpt lat="43.76183" lon="5.64296">
        <ele>495</ele>
        <time>2022-08-13T08:38:53Z</time>
      </trkpt>
      <trkpt lat="43.7619" lon="5.64308">
        <ele>494</ele>
        <time>2022-08-13T08:38:54Z</time>
      </trkpt>
      <trkpt lat="43.76197" lon="5.64319">
        <ele>494</ele>
        <time>2022-08-13T08:38:55Z</time>
      </trkpt>
      <trkpt lat="43.76202" lon="5.6433">
        <ele>493</ele>
        <time>2022-08-13T08:38:56Z</time>
      </trkpt>
      <trkpt lat="43.76209" lon="5.64341">
        <ele>492</ele>
        <time>2022-08-13T08:38:57Z</time>
      </trkpt>
      <trkpt lat="43.76214" lon="5.64351">
        <ele>492</ele>
        <time>2022-08-13T08:38:58Z</time>
      </trkpt>
      <trkpt lat="43.76219" lon="5.64361">
        <ele>491</ele>
        <time>2022-08-13T08:38:59Z</time>
      </trkpt>
      <trkpt lat="43.76224" lon="5.64371">
        <ele>490</ele>
        <time>2022-08-13T08:39:00Z</time>
      </trkpt>
      <trkpt lat="43.76229" lon="5.6438">
        <ele>490</ele>
        <time>2022-08-13T08:39:01Z</time>
      </trkpt>
      <trkpt lat="43.76234" lon="5.64389">
        <ele>489</ele>
        <time>2022-08-13T08:39:02Z</time>
      </trkpt>
      <trkpt lat="43.76239" lon="5.64397">
        <ele>489</ele>
        <time>2022-08-13T08:39:03Z</time>
      </trkpt>
      <trkpt lat="43.76244" lon="5.64403">
        <ele>489</ele>
        <time>2022-08-13T08:39:04Z</time>
      </trkpt>
      <trkpt lat="43.7625" lon="5.64411">
        <ele>489</ele>
        <time>2022-08-13T08:39:05Z</time>
      </trkpt>
      <trkpt lat="43.76254" lon="5.64418">
        <ele>489</ele>
        <time>2022-08-13T08:39:06Z</time>
      </trkpt>
      <trkpt lat="43.76258" lon="5.64425">
        <ele>489</ele>
        <time>2022-08-13T08:39:07Z</time>
      </trkpt>
      <trkpt lat="43.76263" lon="5.64431">
        <ele>489</ele>
        <time>2022-08-13T08:39:08Z</time>
      </trkpt>
      <trkpt lat="43.76266" lon="5.64438">
        <ele>489</ele>
        <time>2022-08-13T08:39:09Z</time>
      </trkpt>
      <trkpt lat="43.7627" lon="5.64444">
        <ele>489</ele>
        <time>2022-08-13T08:39:10Z</time>
      </trkpt>
      <trkpt lat="43.76274" lon="5.6445">
        <ele>489</ele>
        <time>2022-08-13T08:39:11Z</time>
      </trkpt>
      <trkpt lat="43.76278" lon="5.64455">
        <ele>489</ele>
        <time>2022-08-13T08:39:12Z</time>
      </trkpt>
      <trkpt lat="43.76283" lon="5.64465">
        <ele>489</ele>
        <time>2022-08-13T08:39:14Z</time>
      </trkpt>
      <trkpt lat="43.76286" lon="5.6447">
        <ele>489</ele>
        <time>2022-08-13T08:39:15Z</time>
      </trkpt>
      <trkpt lat="43.7629" lon="5.6448">
        <ele>490</ele>
        <time>2022-08-13T08:39:17Z</time>
      </trkpt>
      <trkpt lat="43.76291" lon="5.64487">
        <ele>490</ele>
        <time>2022-08-13T08:39:19Z</time>
      </trkpt>
      <trkpt lat="43.76292" lon="5.64494">
        <ele>491</ele>
        <time>2022-08-13T08:39:21Z</time>
      </trkpt>
      <trkpt lat="43.76292" lon="5.64502">
        <ele>492</ele>
        <time>2022-08-13T08:39:23Z</time>
      </trkpt>
      <trkpt lat="43.76291" lon="5.64511">
        <ele>493</ele>
        <time>2022-08-13T08:39:25Z</time>
      </trkpt>
      <trkpt lat="43.76289" lon="5.64518">
        <ele>494</ele>
        <time>2022-08-13T08:39:27Z</time>
      </trkpt>
      <trkpt lat="43.76287" lon="5.64524">
        <ele>494</ele>
        <time>2022-08-13T08:39:29Z</time>
      </trkpt>
      <trkpt lat="43.76286" lon="5.64531">
        <ele>494</ele>
        <time>2022-08-13T08:39:32Z</time>
      </trkpt>
      <trkpt lat="43.76284" lon="5.64538">
        <ele>494</ele>
        <time>2022-08-13T08:39:34Z</time>
      </trkpt>
      <trkpt lat="43.76283" lon="5.64547">
        <ele>494</ele>
        <time>2022-08-13T08:39:36Z</time>
      </trkpt>
      <trkpt lat="43.76286" lon="5.64557">
        <ele>494</ele>
        <time>2022-08-13T08:39:38Z</time>
      </trkpt>
      <trkpt lat="43.76292" lon="5.64565">
        <ele>494</ele>
        <time>2022-08-13T08:39:40Z</time>
      </trkpt>
      <trkpt lat="43.76297" lon="5.64574">
        <ele>495</ele>
        <time>2022-08-13T08:39:42Z</time>
      </trkpt>
      <trkpt lat="43.763" lon="5.64584">
        <ele>495</ele>
        <time>2022-08-13T08:39:44Z</time>
      </trkpt>
      <trkpt lat="43.76302" lon="5.64593">
        <ele>495</ele>
        <time>2022-08-13T08:39:46Z</time>
      </trkpt>
      <trkpt lat="43.76305" lon="5.64602">
        <ele>495</ele>
        <time>2022-08-13T08:39:48Z</time>
      </trkpt>
      <trkpt lat="43.76308" lon="5.64612">
        <ele>495</ele>
        <time>2022-08-13T08:39:50Z</time>
      </trkpt>
      <trkpt lat="43.76312" lon="5.64621">
        <ele>494</ele>
        <time>2022-08-13T08:39:52Z</time>
      </trkpt>
      <trkpt lat="43.76315" lon="5.64629">
        <ele>494</ele>
        <time>2022-08-13T08:39:54Z</time>
      </trkpt>
      <trkpt lat="43.76318" lon="5.64637">
        <ele>495</ele>
        <time>2022-08-13T08:39:56Z</time>
      </trkpt>
      <trkpt lat="43.76322" lon="5.64646">
        <ele>495</ele>
        <time>2022-08-13T08:39:58Z</time>
      </trkpt>
      <trkpt lat="43.76325" lon="5.64655">
        <ele>495</ele>
        <time>2022-08-13T08:40:00Z</time>
      </trkpt>
      <trkpt lat="43.76328" lon="5.64663">
        <ele>495</ele>
        <time>2022-08-13T08:40:02Z</time>
      </trkpt>
      <trkpt lat="43.7633" lon="5.64672">
        <ele>495</ele>
        <time>2022-08-13T08:40:04Z</time>
      </trkpt>
      <trkpt lat="43.76333" lon="5.6468">
        <ele>495</ele>
        <time>2022-08-13T08:40:06Z</time>
      </trkpt>
      <trkpt lat="43.76336" lon="5.64689">
        <ele>494</ele>
        <time>2022-08-13T08:40:08Z</time>
      </trkpt>
      <trkpt lat="43.76339" lon="5.64697">
        <ele>494</ele>
        <time>2022-08-13T08:40:10Z</time>
      </trkpt>
      <trkpt lat="43.76341" lon="5.64706">
        <ele>494</ele>
        <time>2022-08-13T08:40:12Z</time>
      </trkpt>
      <trkpt lat="43.76343" lon="5.64715">
        <ele>494</ele>
        <time>2022-08-13T08:40:14Z</time>
      </trkpt>
      <trkpt lat="43.76345" lon="5.64723">
        <ele>495</ele>
        <time>2022-08-13T08:40:16Z</time>
      </trkpt>
      <trkpt lat="43.76347" lon="5.6473">
        <ele>495</ele>
        <time>2022-08-13T08:40:18Z</time>
      </trkpt>
      <trkpt lat="43.7635" lon="5.64737">
        <ele>495</ele>
        <time>2022-08-13T08:40:20Z</time>
      </trkpt>
      <trkpt lat="43.76353" lon="5.64744">
        <ele>495</ele>
        <time>2022-08-13T08:40:22Z</time>
      </trkpt>
      <trkpt lat="43.76355" lon="5.64752">
        <ele>495</ele>
        <time>2022-08-13T08:40:24Z</time>
      </trkpt>
      <trkpt lat="43.76358" lon="5.64759">
        <ele>495</ele>
        <time>2022-08-13T08:40:26Z</time>
      </trkpt>
      <trkpt lat="43.76361" lon="5.64765">
        <ele>495</ele>
        <time>2022-08-13T08:40:28Z</time>
      </trkpt>
      <trkpt lat="43.76365" lon="5.64772">
        <ele>495</ele>
        <time>2022-08-13T08:40:31Z</time>
      </trkpt>
      <trkpt lat="43.76368" lon="5.64777">
        <ele>495</ele>
        <time>2022-08-13T08:40:33Z</time>
      </trkpt>
      <trkpt lat="43.76371" lon="5.64783">
        <ele>495</ele>
        <time>2022-08-13T08:40:35Z</time>
      </trkpt>
      <trkpt lat="43.76372" lon="5.64789">
        <ele>495</ele>
        <time>2022-08-13T08:40:37Z</time>
      </trkpt>
      <trkpt lat="43.76374" lon="5.64796">
        <ele>495</ele>
        <time>2022-08-13T08:40:39Z</time>
      </trkpt>
      <trkpt lat="43.76377" lon="5.64803">
        <ele>495</ele>
        <time>2022-08-13T08:40:41Z</time>
      </trkpt>
      <trkpt lat="43.76379" lon="5.6481">
        <ele>495</ele>
        <time>2022-08-13T08:40:43Z</time>
      </trkpt>
      <trkpt lat="43.76381" lon="5.64817">
        <ele>495</ele>
        <time>2022-08-13T08:40:45Z</time>
      </trkpt>
      <trkpt lat="43.76382" lon="5.64824">
        <ele>496</ele>
        <time>2022-08-13T08:40:47Z</time>
      </trkpt>
      <trkpt lat="43.76384" lon="5.6483">
        <ele>496</ele>
        <time>2022-08-13T08:40:49Z</time>
      </trkpt>
      <trkpt lat="43.76386" lon="5.64837">
        <ele>496</ele>
        <time>2022-08-13T08:40:51Z</time>
      </trkpt>
      <trkpt lat="43.76387" lon="5.64844">
        <ele>497</ele>
        <time>2022-08-13T08:40:53Z</time>
      </trkpt>
      <trkpt lat="43.76387" lon="5.64851">
        <ele>497</ele>
        <time>2022-08-13T08:40:55Z</time>
      </trkpt>
      <trkpt lat="43.76387" lon="5.64857">
        <ele>497</ele>
        <time>2022-08-13T08:40:57Z</time>
      </trkpt>
      <trkpt lat="43.76387" lon="5.64864">
        <ele>498</ele>
        <time>2022-08-13T08:40:59Z</time>
      </trkpt>
      <trkpt lat="43.76389" lon="5.6487">
        <ele>498</ele>
        <time>2022-08-13T08:41:01Z</time>
      </trkpt>
      <trkpt lat="43.76391" lon="5.64876">
        <ele>498</ele>
        <time>2022-08-13T08:41:03Z</time>
      </trkpt>
      <trkpt lat="43.76394" lon="5.64883">
        <ele>498</ele>
        <time>2022-08-13T08:41:06Z</time>
      </trkpt>
      <trkpt lat="43.76397" lon="5.64888">
        <ele>498</ele>
        <time>2022-08-13T08:41:08Z</time>
      </trkpt>
      <trkpt lat="43.76401" lon="5.64892">
        <ele>499</ele>
        <time>2022-08-13T08:41:10Z</time>
      </trkpt>
      <trkpt lat="43.76405" lon="5.64896">
        <ele>499</ele>
        <time>2022-08-13T08:41:12Z</time>
      </trkpt>
      <trkpt lat="43.76408" lon="5.64901">
        <ele>499</ele>
        <time>2022-08-13T08:41:14Z</time>
      </trkpt>
      <trkpt lat="43.76412" lon="5.64906">
        <ele>499</ele>
        <time>2022-08-13T08:41:16Z</time>
      </trkpt>
      <trkpt lat="43.76415" lon="5.6491">
        <ele>499</ele>
        <time>2022-08-13T08:41:18Z</time>
      </trkpt>
      <trkpt lat="43.76419" lon="5.64914">
        <ele>499</ele>
        <time>2022-08-13T08:41:20Z</time>
      </trkpt>
      <trkpt lat="43.76424" lon="5.64918">
        <ele>500</ele>
        <time>2022-08-13T08:41:23Z</time>
      </trkpt>
      <trkpt lat="43.76429" lon="5.64921">
        <ele>500</ele>
        <time>2022-08-13T08:41:26Z</time>
      </trkpt>
      <trkpt lat="43.76434" lon="5.64924">
        <ele>500</ele>
        <time>2022-08-13T08:41:29Z</time>
      </trkpt>
      <trkpt lat="43.76438" lon="5.64927">
        <ele>501</ele>
        <time>2022-08-13T08:41:32Z</time>
      </trkpt>
      <trkpt lat="43.76442" lon="5.64924">
        <ele>501</ele>
        <time>2022-08-13T08:41:35Z</time>
      </trkpt>
      <trkpt lat="43.76447" lon="5.64925">
        <ele>502</ele>
        <time>2022-08-13T08:41:38Z</time>
      </trkpt>
      <trkpt lat="43.7645" lon="5.64931">
        <ele>502</ele>
        <time>2022-08-13T08:41:41Z</time>
      </trkpt>
      <trkpt lat="43.76453" lon="5.64938">
        <ele>503</ele>
        <time>2022-08-13T08:41:44Z</time>
      </trkpt>
      <trkpt lat="43.76457" lon="5.64943">
        <ele>504</ele>
        <time>2022-08-13T08:41:47Z</time>
      </trkpt>
      <trkpt lat="43.76462" lon="5.64945">
        <ele>505</ele>
        <time>2022-08-13T08:41:50Z</time>
      </trkpt>
      <trkpt lat="43.76468" lon="5.64944">
        <ele>506</ele>
        <time>2022-08-13T08:41:53Z</time>
      </trkpt>
      <trkpt lat="43.76473" lon="5.64947">
        <ele>507</ele>
        <time>2022-08-13T08:41:56Z</time>
      </trkpt>
      <trkpt lat="43.76479" lon="5.64949">
        <ele>508</ele>
        <time>2022-08-13T08:41:59Z</time>
      </trkpt>
      <trkpt lat="43.76484" lon="5.64953">
        <ele>509</ele>
        <time>2022-08-13T08:42:02Z</time>
      </trkpt>
      <trkpt lat="43.76489" lon="5.64957">
        <ele>510</ele>
        <time>2022-08-13T08:42:05Z</time>
      </trkpt>
      <trkpt lat="43.76494" lon="5.64963">
        <ele>511</ele>
        <time>2022-08-13T08:42:08Z</time>
      </trkpt>
      <trkpt lat="43.76497" lon="5.6497">
        <ele>511</ele>
        <time>2022-08-13T08:42:11Z</time>
      </trkpt>
      <trkpt lat="43.76501" lon="5.64976">
        <ele>512</ele>
        <time>2022-08-13T08:42:14Z</time>
      </trkpt>
      <trkpt lat="43.76504" lon="5.64983">
        <ele>512</ele>
        <time>2022-08-13T08:42:17Z</time>
      </trkpt>
      <trkpt lat="43.76506" lon="5.6499">
        <ele>512</ele>
        <time>2022-08-13T08:42:20Z</time>
      </trkpt>
      <trkpt lat="43.76509" lon="5.64997">
        <ele>513</ele>
        <time>2022-08-13T08:42:23Z</time>
      </trkpt>
      <trkpt lat="43.76513" lon="5.65004">
        <ele>513</ele>
        <time>2022-08-13T08:42:26Z</time>
      </trkpt>
      <trkpt lat="43.76516" lon="5.65009">
        <ele>514</ele>
        <time>2022-08-13T08:42:28Z</time>
      </trkpt>
      <trkpt lat="43.76519" lon="5.65015">
        <ele>514</ele>
        <time>2022-08-13T08:42:31Z</time>
      </trkpt>
      <trkpt lat="43.76524" lon="5.6502">
        <ele>515</ele>
        <time>2022-08-13T08:42:34Z</time>
      </trkpt>
      <trkpt lat="43.76528" lon="5.65022">
        <ele>515</ele>
        <time>2022-08-13T08:42:37Z</time>
      </trkpt>
      <trkpt lat="43.76532" lon="5.65028">
        <ele>516</ele>
        <time>2022-08-13T08:42:40Z</time>
      </trkpt>
      <trkpt lat="43.76535" lon="5.65035">
        <ele>516</ele>
        <time>2022-08-13T08:42:43Z</time>
      </trkpt>
      <trkpt lat="43.76536" lon="5.65043">
        <ele>516</ele>
        <time>2022-08-13T08:42:46Z</time>
      </trkpt>
      <trkpt lat="43.7654" lon="5.65049">
        <ele>517</ele>
        <time>2022-08-13T08:42:49Z</time>
      </trkpt>
      <trkpt lat="43.76546" lon="5.65053">
        <ele>517</ele>
        <time>2022-08-13T08:42:52Z</time>
      </trkpt>
      <trkpt lat="43.76551" lon="5.65057">
        <ele>517</ele>
        <time>2022-08-13T08:42:55Z</time>
      </trkpt>
      <trkpt lat="43.76555" lon="5.65062">
        <ele>517</ele>
        <time>2022-08-13T08:42:58Z</time>
      </trkpt>
      <trkpt lat="43.76559" lon="5.65067">
        <ele>518</ele>
        <time>2022-08-13T08:43:01Z</time>
      </trkpt>
      <trkpt lat="43.76564" lon="5.65073">
        <ele>518</ele>
        <time>2022-08-13T08:43:04Z</time>
      </trkpt>
      <trkpt lat="43.76569" lon="5.65078">
        <ele>518</ele>
        <time>2022-08-13T08:43:07Z</time>
      </trkpt>
      <trkpt lat="43.76574" lon="5.65082">
        <ele>519</ele>
        <time>2022-08-13T08:43:10Z</time>
      </trkpt>
      <trkpt lat="43.76577" lon="5.65086">
        <ele>520</ele>
        <time>2022-08-13T08:43:12Z</time>
      </trkpt>
      <trkpt lat="43.7658" lon="5.65091">
        <ele>521</ele>
        <time>2022-08-13T08:43:14Z</time>
      </trkpt>
      <trkpt lat="43.76598" lon="5.65104">
        <ele>522</ele>
        <time>2022-08-13T08:46:42Z</time>
      </trkpt>
      <trkpt lat="43.76605" lon="5.65109">
        <ele>522</ele>
        <time>2022-08-13T08:46:44Z</time>
      </trkpt>
      <trkpt lat="43.76611" lon="5.65115">
        <ele>522</ele>
        <time>2022-08-13T08:46:46Z</time>
      </trkpt>
      <trkpt lat="43.76617" lon="5.65122">
        <ele>521</ele>
        <time>2022-08-13T08:46:48Z</time>
      </trkpt>
      <trkpt lat="43.76625" lon="5.65129">
        <ele>521</ele>
        <time>2022-08-13T08:46:50Z</time>
      </trkpt>
      <trkpt lat="43.76631" lon="5.65138">
        <ele>520</ele>
        <time>2022-08-13T08:46:52Z</time>
      </trkpt>
      <trkpt lat="43.76634" lon="5.65144">
        <ele>519</ele>
        <time>2022-08-13T08:46:53Z</time>
      </trkpt>
      <trkpt lat="43.76638" lon="5.65149">
        <ele>518</ele>
        <time>2022-08-13T08:46:54Z</time>
      </trkpt>
      <trkpt lat="43.76641" lon="5.65156">
        <ele>518</ele>
        <time>2022-08-13T08:46:55Z</time>
      </trkpt>
      <trkpt lat="43.76646" lon="5.65161">
        <ele>517</ele>
        <time>2022-08-13T08:46:56Z</time>
      </trkpt>
      <trkpt lat="43.7665" lon="5.65169">
        <ele>516</ele>
        <time>2022-08-13T08:46:57Z</time>
      </trkpt>
      <trkpt lat="43.76653" lon="5.65177">
        <ele>516</ele>
        <time>2022-08-13T08:46:58Z</time>
      </trkpt>
      <trkpt lat="43.76657" lon="5.65185">
        <ele>515</ele>
        <time>2022-08-13T08:46:59Z</time>
      </trkpt>
      <trkpt lat="43.76662" lon="5.65193">
        <ele>515</ele>
        <time>2022-08-13T08:47:00Z</time>
      </trkpt>
      <trkpt lat="43.76667" lon="5.65201">
        <ele>514</ele>
        <time>2022-08-13T08:47:01Z</time>
      </trkpt>
      <trkpt lat="43.76673" lon="5.6521">
        <ele>514</ele>
        <time>2022-08-13T08:47:02Z</time>
      </trkpt>
      <trkpt lat="43.76678" lon="5.65221">
        <ele>513</ele>
        <time>2022-08-13T08:47:03Z</time>
      </trkpt>
      <trkpt lat="43.76683" lon="5.65231">
        <ele>512</ele>
        <time>2022-08-13T08:47:04Z</time>
      </trkpt>
      <trkpt lat="43.76688" lon="5.65241">
        <ele>511</ele>
        <time>2022-08-13T08:47:05Z</time>
      </trkpt>
      <trkpt lat="43.76693" lon="5.65252">
        <ele>510</ele>
        <time>2022-08-13T08:47:06Z</time>
      </trkpt>
      <trkpt lat="43.76698" lon="5.65262">
        <ele>509</ele>
        <time>2022-08-13T08:47:07Z</time>
      </trkpt>
      <trkpt lat="43.76704" lon="5.65273">
        <ele>508</ele>
        <time>2022-08-13T08:47:08Z</time>
      </trkpt>
      <trkpt lat="43.7671" lon="5.65285">
        <ele>507</ele>
        <time>2022-08-13T08:47:09Z</time>
      </trkpt>
      <trkpt lat="43.76716" lon="5.65296">
        <ele>506</ele>
        <time>2022-08-13T08:47:10Z</time>
      </trkpt>
      <trkpt lat="43.76721" lon="5.65306">
        <ele>505</ele>
        <time>2022-08-13T08:47:11Z</time>
      </trkpt>
      <trkpt lat="43.76727" lon="5.65316">
        <ele>504</ele>
        <time>2022-08-13T08:47:12Z</time>
      </trkpt>
      <trkpt lat="43.76732" lon="5.65326">
        <ele>504</ele>
        <time>2022-08-13T08:47:13Z</time>
      </trkpt>
      <trkpt lat="43.76739" lon="5.65335">
        <ele>504</ele>
        <time>2022-08-13T08:47:14Z</time>
      </trkpt>
      <trkpt lat="43.76745" lon="5.65343">
        <ele>503</ele>
        <time>2022-08-13T08:47:15Z</time>
      </trkpt>
      <trkpt lat="43.76751" lon="5.65351">
        <ele>503</ele>
        <time>2022-08-13T08:47:16Z</time>
      </trkpt>
      <trkpt lat="43.76756" lon="5.65359">
        <ele>503</ele>
        <time>2022-08-13T08:47:17Z</time>
      </trkpt>
      <trkpt lat="43.76761" lon="5.65366">
        <ele>503</ele>
        <time>2022-08-13T08:47:18Z</time>
      </trkpt>
      <trkpt lat="43.76765" lon="5.65372">
        <ele>503</ele>
        <time>2022-08-13T08:47:19Z</time>
      </trkpt>
      <trkpt lat="43.7677" lon="5.6538">
        <ele>503</ele>
        <time>2022-08-13T08:47:20Z</time>
      </trkpt>
      <trkpt lat="43.76775" lon="5.65385">
        <ele>503</ele>
        <time>2022-08-13T08:47:21Z</time>
      </trkpt>
      <trkpt lat="43.76779" lon="5.65391">
        <ele>503</ele>
        <time>2022-08-13T08:47:22Z</time>
      </trkpt>
      <trkpt lat="43.76783" lon="5.65396">
        <ele>503</ele>
        <time>2022-08-13T08:47:23Z</time>
      </trkpt>
      <trkpt lat="43.7679" lon="5.654">
        <ele>503</ele>
        <time>2022-08-13T08:47:25Z</time>
      </trkpt>
      <trkpt lat="43.76795" lon="5.65397">
        <ele>503</ele>
        <time>2022-08-13T08:47:27Z</time>
      </trkpt>
      <trkpt lat="43.768" lon="5.65392">
        <ele>503</ele>
        <time>2022-08-13T08:47:29Z</time>
      </trkpt>
      <trkpt lat="43.76803" lon="5.65384">
        <ele>503</ele>
        <time>2022-08-13T08:47:31Z</time>
      </trkpt>
      <trkpt lat="43.76808" lon="5.6538">
        <ele>503</ele>
        <time>2022-08-13T08:47:33Z</time>
      </trkpt>
      <trkpt lat="43.76813" lon="5.65373">
        <ele>503</ele>
        <time>2022-08-13T08:47:35Z</time>
      </trkpt>
      <trkpt lat="43.76817" lon="5.65367">
        <ele>502</ele>
        <time>2022-08-13T08:47:37Z</time>
      </trkpt>
      <trkpt lat="43.76821" lon="5.65361">
        <ele>503</ele>
        <time>2022-08-13T08:47:39Z</time>
      </trkpt>
      <trkpt lat="43.76826" lon="5.65355">
        <ele>503</ele>
        <time>2022-08-13T08:47:41Z</time>
      </trkpt>
      <trkpt lat="43.7683" lon="5.6535">
        <ele>504</ele>
        <time>2022-08-13T08:47:43Z</time>
      </trkpt>
      <trkpt lat="43.76835" lon="5.65345">
        <ele>504</ele>
        <time>2022-08-13T08:47:45Z</time>
      </trkpt>
      <trkpt lat="43.76839" lon="5.65341">
        <ele>505</ele>
        <time>2022-08-13T08:47:47Z</time>
      </trkpt>
      <trkpt lat="43.76843" lon="5.65335">
        <ele>506</ele>
        <time>2022-08-13T08:47:50Z</time>
      </trkpt>
      <trkpt lat="43.76848" lon="5.65332">
        <ele>507</ele>
        <time>2022-08-13T08:47:52Z</time>
      </trkpt>
      <trkpt lat="43.76852" lon="5.65328">
        <ele>508</ele>
        <time>2022-08-13T08:47:54Z</time>
      </trkpt>
      <trkpt lat="43.76857" lon="5.65325">
        <ele>509</ele>
        <time>2022-08-13T08:47:56Z</time>
      </trkpt>
      <trkpt lat="43.76861" lon="5.65321">
        <ele>509</ele>
        <time>2022-08-13T08:47:58Z</time>
      </trkpt>
      <trkpt lat="43.76866" lon="5.65316">
        <ele>508</ele>
        <time>2022-08-13T08:48:00Z</time>
      </trkpt>
      <trkpt lat="43.7687" lon="5.65312">
        <ele>508</ele>
        <time>2022-08-13T08:48:02Z</time>
      </trkpt>
      <trkpt lat="43.76874" lon="5.65308">
        <ele>507</ele>
        <time>2022-08-13T08:48:04Z</time>
      </trkpt>
      <trkpt lat="43.76878" lon="5.65303">
        <ele>506</ele>
        <time>2022-08-13T08:48:06Z</time>
      </trkpt>
      <trkpt lat="43.76882" lon="5.65299">
        <ele>506</ele>
        <time>2022-08-13T08:48:08Z</time>
      </trkpt>
      <trkpt lat="43.76886" lon="5.65296">
        <ele>506</ele>
        <time>2022-08-13T08:48:10Z</time>
      </trkpt>
      <trkpt lat="43.76891" lon="5.65293">
        <ele>507</ele>
        <time>2022-08-13T08:48:12Z</time>
      </trkpt>
      <trkpt lat="43.76895" lon="5.6529">
        <ele>507</ele>
        <time>2022-08-13T08:48:14Z</time>
      </trkpt>
      <trkpt lat="43.76898" lon="5.65286">
        <ele>507</ele>
        <time>2022-08-13T08:48:16Z</time>
      </trkpt>
      <trkpt lat="43.76902" lon="5.65282">
        <ele>508</ele>
        <time>2022-08-13T08:48:18Z</time>
      </trkpt>
      <trkpt lat="43.76906" lon="5.65278">
        <ele>508</ele>
        <time>2022-08-13T08:48:20Z</time>
      </trkpt>
      <trkpt lat="43.7691" lon="5.65275">
        <ele>508</ele>
        <time>2022-08-13T08:48:22Z</time>
      </trkpt>
      <trkpt lat="43.76914" lon="5.65271">
        <ele>509</ele>
        <time>2022-08-13T08:48:24Z</time>
      </trkpt>
      <trkpt lat="43.76918" lon="5.65267">
        <ele>509</ele>
        <time>2022-08-13T08:48:26Z</time>
      </trkpt>
      <trkpt lat="43.76922" lon="5.65262">
        <ele>509</ele>
        <time>2022-08-13T08:48:28Z</time>
      </trkpt>
      <trkpt lat="43.76925" lon="5.65257">
        <ele>510</ele>
        <time>2022-08-13T08:48:30Z</time>
      </trkpt>
      <trkpt lat="43.76928" lon="5.65251">
        <ele>511</ele>
        <time>2022-08-13T08:48:32Z</time>
      </trkpt>
      <trkpt lat="43.76932" lon="5.65247">
        <ele>511</ele>
        <time>2022-08-13T08:48:34Z</time>
      </trkpt>
      <trkpt lat="43.76936" lon="5.65244">
        <ele>511</ele>
        <time>2022-08-13T08:48:36Z</time>
      </trkpt>
      <trkpt lat="43.76939" lon="5.65239">
        <ele>511</ele>
        <time>2022-08-13T08:48:38Z</time>
      </trkpt>
      <trkpt lat="43.76942" lon="5.65232">
        <ele>512</ele>
        <time>2022-08-13T08:48:41Z</time>
      </trkpt>
      <trkpt lat="43.76945" lon="5.65225">
        <ele>512</ele>
        <time>2022-08-13T08:48:44Z</time>
      </trkpt>
      <trkpt lat="43.76947" lon="5.65217">
        <ele>512</ele>
        <time>2022-08-13T08:48:47Z</time>
      </trkpt>
      <trkpt lat="43.76951" lon="5.65211">
        <ele>512</ele>
        <time>2022-08-13T08:48:50Z</time>
      </trkpt>
      <trkpt lat="43.76956" lon="5.65208">
        <ele>512</ele>
        <time>2022-08-13T08:48:53Z</time>
      </trkpt>
      <trkpt lat="43.76961" lon="5.65205">
        <ele>511</ele>
        <time>2022-08-13T08:48:56Z</time>
      </trkpt>
      <trkpt lat="43.76967" lon="5.65202">
        <ele>512</ele>
        <time>2022-08-13T08:48:59Z</time>
      </trkpt>
      <trkpt lat="43.76972" lon="5.65199">
        <ele>513</ele>
        <time>2022-08-13T08:49:02Z</time>
      </trkpt>
      <trkpt lat="43.76977" lon="5.65194">
        <ele>514</ele>
        <time>2022-08-13T08:49:05Z</time>
      </trkpt>
      <trkpt lat="43.76982" lon="5.65191">
        <ele>515</ele>
        <time>2022-08-13T08:49:08Z</time>
      </trkpt>
      <trkpt lat="43.76988" lon="5.65188">
        <ele>517</ele>
        <time>2022-08-13T08:49:11Z</time>
      </trkpt>
      <trkpt lat="43.76994" lon="5.65186">
        <ele>518</ele>
        <time>2022-08-13T08:49:14Z</time>
      </trkpt>
      <trkpt lat="43.76999" lon="5.65181">
        <ele>520</ele>
        <time>2022-08-13T08:49:17Z</time>
      </trkpt>
      <trkpt lat="43.77004" lon="5.6518">
        <ele>521</ele>
        <time>2022-08-13T08:49:20Z</time>
      </trkpt>
      <trkpt lat="43.7701" lon="5.6518">
        <ele>523</ele>
        <time>2022-08-13T08:49:23Z</time>
      </trkpt>
      <trkpt lat="43.77015" lon="5.6518">
        <ele>524</ele>
        <time>2022-08-13T08:49:26Z</time>
      </trkpt>
      <trkpt lat="43.77021" lon="5.65179">
        <ele>526</ele>
        <time>2022-08-13T08:49:29Z</time>
      </trkpt>
      <trkpt lat="43.77027" lon="5.65178">
        <ele>527</ele>
        <time>2022-08-13T08:49:32Z</time>
      </trkpt>
      <trkpt lat="43.77032" lon="5.65176">
        <ele>528</ele>
        <time>2022-08-13T08:49:34Z</time>
      </trkpt>
      <trkpt lat="43.77038" lon="5.65173">
        <ele>529</ele>
        <time>2022-08-13T08:49:37Z</time>
      </trkpt>
      <trkpt lat="43.77042" lon="5.65168">
        <ele>530</ele>
        <time>2022-08-13T08:49:40Z</time>
      </trkpt>
      <trkpt lat="43.77047" lon="5.65164">
        <ele>531</ele>
        <time>2022-08-13T08:49:43Z</time>
      </trkpt>
      <trkpt lat="43.77052" lon="5.6516">
        <ele>532</ele>
        <time>2022-08-13T08:49:46Z</time>
      </trkpt>
      <trkpt lat="43.77057" lon="5.65156">
        <ele>534</ele>
        <time>2022-08-13T08:49:49Z</time>
      </trkpt>
      <trkpt lat="43.77062" lon="5.65152">
        <ele>535</ele>
        <time>2022-08-13T08:49:52Z</time>
      </trkpt>
      <trkpt lat="43.77068" lon="5.65148">
        <ele>535</ele>
        <time>2022-08-13T08:49:55Z</time>
      </trkpt>
      <trkpt lat="43.77072" lon="5.65143">
        <ele>536</ele>
        <time>2022-08-13T08:49:58Z</time>
      </trkpt>
      <trkpt lat="43.77077" lon="5.65138">
        <ele>536</ele>
        <time>2022-08-13T08:50:01Z</time>
      </trkpt>
      <trkpt lat="43.77081" lon="5.65132">
        <ele>535</ele>
        <time>2022-08-13T08:50:04Z</time>
      </trkpt>
      <trkpt lat="43.77084" lon="5.65126">
        <ele>535</ele>
        <time>2022-08-13T08:50:07Z</time>
      </trkpt>
      <trkpt lat="43.77087" lon="5.65121">
        <ele>536</ele>
        <time>2022-08-13T08:50:10Z</time>
      </trkpt>
      <trkpt lat="43.7709" lon="5.6511">
        <ele>531</ele>
        <time>2022-08-13T08:50:46Z</time>
      </trkpt>
      <trkpt lat="43.77089" lon="5.65103">
        <ele>531</ele>
        <time>2022-08-13T08:50:48Z</time>
      </trkpt>
      <trkpt lat="43.77089" lon="5.65093">
        <ele>530</ele>
        <time>2022-08-13T08:50:50Z</time>
      </trkpt>
      <trkpt lat="43.77091" lon="5.65084">
        <ele>530</ele>
        <time>2022-08-13T08:50:52Z</time>
      </trkpt>
      <trkpt lat="43.77093" lon="5.65076">
        <ele>529</ele>
        <time>2022-08-13T08:50:54Z</time>
      </trkpt>
      <trkpt lat="43.77094" lon="5.65068">
        <ele>529</ele>
        <time>2022-08-13T08:50:56Z</time>
      </trkpt>
      <trkpt lat="43.77095" lon="5.6506">
        <ele>530</ele>
        <time>2022-08-13T08:50:58Z</time>
      </trkpt>
      <trkpt lat="43.77097" lon="5.65051">
        <ele>530</ele>
        <time>2022-08-13T08:51:00Z</time>
      </trkpt>
      <trkpt lat="43.77099" lon="5.65043">
        <ele>531</ele>
        <time>2022-08-13T08:51:02Z</time>
      </trkpt>
      <trkpt lat="43.771" lon="5.65035">
        <ele>532</ele>
        <time>2022-08-13T08:51:04Z</time>
      </trkpt>
      <trkpt lat="43.771" lon="5.65026">
        <ele>534</ele>
        <time>2022-08-13T08:51:06Z</time>
      </trkpt>
      <trkpt lat="43.77101" lon="5.65017">
        <ele>535</ele>
        <time>2022-08-13T08:51:08Z</time>
      </trkpt>
      <trkpt lat="43.77102" lon="5.65009">
        <ele>535</ele>
        <time>2022-08-13T08:51:10Z</time>
      </trkpt>
      <trkpt lat="43.77104" lon="5.65">
        <ele>535</ele>
        <time>2022-08-13T08:51:12Z</time>
      </trkpt>
      <trkpt lat="43.77106" lon="5.64992">
        <ele>535</ele>
        <time>2022-08-13T08:51:14Z</time>
      </trkpt>
      <trkpt lat="43.77108" lon="5.64984">
        <ele>535</ele>
        <time>2022-08-13T08:51:16Z</time>
      </trkpt>
      <trkpt lat="43.77112" lon="5.64979">
        <ele>534</ele>
        <time>2022-08-13T08:51:18Z</time>
      </trkpt>
      <trkpt lat="43.77119" lon="5.64978">
        <ele>533</ele>
        <time>2022-08-13T08:51:20Z</time>
      </trkpt>
      <trkpt lat="43.77126" lon="5.64978">
        <ele>532</ele>
        <time>2022-08-13T08:51:22Z</time>
      </trkpt>
      <trkpt lat="43.77131" lon="5.64976">
        <ele>531</ele>
        <time>2022-08-13T08:51:23Z</time>
      </trkpt>
      <trkpt lat="43.77136" lon="5.64973">
        <ele>530</ele>
        <time>2022-08-13T08:51:25Z</time>
      </trkpt>
      <trkpt lat="43.77144" lon="5.64969">
        <ele>529</ele>
        <time>2022-08-13T08:51:27Z</time>
      </trkpt>
      <trkpt lat="43.77148" lon="5.64966">
        <ele>528</ele>
        <time>2022-08-13T08:51:28Z</time>
      </trkpt>
      <trkpt lat="43.77152" lon="5.64958">
        <ele>528</ele>
        <time>2022-08-13T08:51:30Z</time>
      </trkpt>
      <trkpt lat="43.77154" lon="5.64948">
        <ele>527</ele>
        <time>2022-08-13T08:51:32Z</time>
      </trkpt>
      <trkpt lat="43.77158" lon="5.64937">
        <ele>526</ele>
        <time>2022-08-13T08:51:34Z</time>
      </trkpt>
      <trkpt lat="43.77161" lon="5.64932">
        <ele>526</ele>
        <time>2022-08-13T08:51:35Z</time>
      </trkpt>
      <trkpt lat="43.77165" lon="5.64928">
        <ele>525</ele>
        <time>2022-08-13T08:51:36Z</time>
      </trkpt>
      <trkpt lat="43.77169" lon="5.64924">
        <ele>524</ele>
        <time>2022-08-13T08:51:37Z</time>
      </trkpt>
      <trkpt lat="43.77174" lon="5.64919">
        <ele>523</ele>
        <time>2022-08-13T08:51:38Z</time>
      </trkpt>
      <trkpt lat="43.77178" lon="5.64914">
        <ele>523</ele>
        <time>2022-08-13T08:51:39Z</time>
      </trkpt>
      <trkpt lat="43.77184" lon="5.6491">
        <ele>522</ele>
        <time>2022-08-13T08:51:40Z</time>
      </trkpt>
      <trkpt lat="43.77188" lon="5.64907">
        <ele>522</ele>
        <time>2022-08-13T08:51:41Z</time>
      </trkpt>
      <trkpt lat="43.77194" lon="5.64901">
        <ele>521</ele>
        <time>2022-08-13T08:51:42Z</time>
      </trkpt>
      <trkpt lat="43.77199" lon="5.64895">
        <ele>521</ele>
        <time>2022-08-13T08:51:43Z</time>
      </trkpt>
      <trkpt lat="43.77205" lon="5.64888">
        <ele>521</ele>
        <time>2022-08-13T08:51:44Z</time>
      </trkpt>
      <trkpt lat="43.7721" lon="5.64882">
        <ele>521</ele>
        <time>2022-08-13T08:51:45Z</time>
      </trkpt>
      <trkpt lat="43.77216" lon="5.64875">
        <ele>521</ele>
        <time>2022-08-13T08:51:46Z</time>
      </trkpt>
      <trkpt lat="43.77224" lon="5.64868">
        <ele>520</ele>
        <time>2022-08-13T08:51:47Z</time>
      </trkpt>
      <trkpt lat="43.7723" lon="5.64863">
        <ele>520</ele>
        <time>2022-08-13T08:51:48Z</time>
      </trkpt>
      <trkpt lat="43.77236" lon="5.64857">
        <ele>520</ele>
        <time>2022-08-13T08:51:49Z</time>
      </trkpt>
      <trkpt lat="43.77242" lon="5.6485">
        <ele>520</ele>
        <time>2022-08-13T08:51:50Z</time>
      </trkpt>
      <trkpt lat="43.77249" lon="5.64842">
        <ele>519</ele>
        <time>2022-08-13T08:51:51Z</time>
      </trkpt>
      <trkpt lat="43.77254" lon="5.64835">
        <ele>519</ele>
        <time>2022-08-13T08:51:52Z</time>
      </trkpt>
      <trkpt lat="43.77259" lon="5.64827">
        <ele>519</ele>
        <time>2022-08-13T08:51:53Z</time>
      </trkpt>
      <trkpt lat="43.77264" lon="5.64817">
        <ele>518</ele>
        <time>2022-08-13T08:51:54Z</time>
      </trkpt>
      <trkpt lat="43.7727" lon="5.64809">
        <ele>517</ele>
        <time>2022-08-13T08:51:55Z</time>
      </trkpt>
      <trkpt lat="43.77276" lon="5.648">
        <ele>517</ele>
        <time>2022-08-13T08:51:56Z</time>
      </trkpt>
      <trkpt lat="43.77284" lon="5.64795">
        <ele>517</ele>
        <time>2022-08-13T08:51:57Z</time>
      </trkpt>
      <trkpt lat="43.77292" lon="5.64787">
        <ele>516</ele>
        <time>2022-08-13T08:51:58Z</time>
      </trkpt>
      <trkpt lat="43.773" lon="5.64779">
        <ele>515</ele>
        <time>2022-08-13T08:51:59Z</time>
      </trkpt>
      <trkpt lat="43.77308" lon="5.64773">
        <ele>514</ele>
        <time>2022-08-13T08:52:00Z</time>
      </trkpt>
      <trkpt lat="43.77316" lon="5.64766">
        <ele>512</ele>
        <time>2022-08-13T08:52:01Z</time>
      </trkpt>
      <trkpt lat="43.77324" lon="5.64759">
        <ele>511</ele>
        <time>2022-08-13T08:52:02Z</time>
      </trkpt>
      <trkpt lat="43.77332" lon="5.64752">
        <ele>510</ele>
        <time>2022-08-13T08:52:03Z</time>
      </trkpt>
      <trkpt lat="43.77339" lon="5.64745">
        <ele>510</ele>
        <time>2022-08-13T08:52:04Z</time>
      </trkpt>
      <trkpt lat="43.77348" lon="5.64736">
        <ele>509</ele>
        <time>2022-08-13T08:52:05Z</time>
      </trkpt>
      <trkpt lat="43.77359" lon="5.64729">
        <ele>508</ele>
        <time>2022-08-13T08:52:06Z</time>
      </trkpt>
      <trkpt lat="43.77366" lon="5.64723">
        <ele>507</ele>
        <time>2022-08-13T08:52:07Z</time>
      </trkpt>
      <trkpt lat="43.77375" lon="5.64717">
        <ele>506</ele>
        <time>2022-08-13T08:52:08Z</time>
      </trkpt>
      <trkpt lat="43.77387" lon="5.64716">
        <ele>505</ele>
        <time>2022-08-13T08:52:09Z</time>
      </trkpt>
      <trkpt lat="43.77396" lon="5.64713">
        <ele>503</ele>
        <time>2022-08-13T08:52:10Z</time>
      </trkpt>
      <trkpt lat="43.77406" lon="5.6471">
        <ele>502</ele>
        <time>2022-08-13T08:52:11Z</time>
      </trkpt>
      <trkpt lat="43.77414" lon="5.64704">
        <ele>500</ele>
        <time>2022-08-13T08:52:12Z</time>
      </trkpt>
      <trkpt lat="43.77424" lon="5.64702">
        <ele>499</ele>
        <time>2022-08-13T08:52:13Z</time>
      </trkpt>
      <trkpt lat="43.77434" lon="5.64696">
        <ele>498</ele>
        <time>2022-08-13T08:52:14Z</time>
      </trkpt>
      <trkpt lat="43.77444" lon="5.64695">
        <ele>497</ele>
        <time>2022-08-13T08:52:15Z</time>
      </trkpt>
      <trkpt lat="43.77453" lon="5.64689">
        <ele>496</ele>
        <time>2022-08-13T08:52:16Z</time>
      </trkpt>
      <trkpt lat="43.77462" lon="5.64686">
        <ele>495</ele>
        <time>2022-08-13T08:52:17Z</time>
      </trkpt>
      <trkpt lat="43.77469" lon="5.64679">
        <ele>494</ele>
        <time>2022-08-13T08:52:18Z</time>
      </trkpt>
      <trkpt lat="43.77477" lon="5.64673">
        <ele>493</ele>
        <time>2022-08-13T08:52:19Z</time>
      </trkpt>
      <trkpt lat="43.77486" lon="5.64666">
        <ele>492</ele>
        <time>2022-08-13T08:52:20Z</time>
      </trkpt>
      <trkpt lat="43.77493" lon="5.64662">
        <ele>492</ele>
        <time>2022-08-13T08:52:21Z</time>
      </trkpt>
      <trkpt lat="43.77504" lon="5.64656">
        <ele>490</ele>
        <time>2022-08-13T08:52:22Z</time>
      </trkpt>
      <trkpt lat="43.77513" lon="5.64649">
        <ele>489</ele>
        <time>2022-08-13T08:52:23Z</time>
      </trkpt>
      <trkpt lat="43.77523" lon="5.64642">
        <ele>487</ele>
        <time>2022-08-13T08:52:24Z</time>
      </trkpt>
      <trkpt lat="43.77535" lon="5.64636">
        <ele>484</ele>
        <time>2022-08-13T08:52:25Z</time>
      </trkpt>
      <trkpt lat="43.77545" lon="5.6463">
        <ele>482</ele>
        <time>2022-08-13T08:52:26Z</time>
      </trkpt>
      <trkpt lat="43.77554" lon="5.64623">
        <ele>480</ele>
        <time>2022-08-13T08:52:27Z</time>
      </trkpt>
      <trkpt lat="43.77565" lon="5.64618">
        <ele>479</ele>
        <time>2022-08-13T08:52:28Z</time>
      </trkpt>
      <trkpt lat="43.77577" lon="5.64613">
        <ele>477</ele>
        <time>2022-08-13T08:52:29Z</time>
      </trkpt>
      <trkpt lat="43.77588" lon="5.64609">
        <ele>476</ele>
        <time>2022-08-13T08:52:30Z</time>
      </trkpt>
      <trkpt lat="43.77599" lon="5.64603">
        <ele>476</ele>
        <time>2022-08-13T08:52:31Z</time>
      </trkpt>
      <trkpt lat="43.77611" lon="5.64599">
        <ele>475</ele>
        <time>2022-08-13T08:52:32Z</time>
      </trkpt>
      <trkpt lat="43.77622" lon="5.64594">
        <ele>473</ele>
        <time>2022-08-13T08:52:33Z</time>
      </trkpt>
      <trkpt lat="43.77632" lon="5.64588">
        <ele>472</ele>
        <time>2022-08-13T08:52:34Z</time>
      </trkpt>
      <trkpt lat="43.77643" lon="5.64583">
        <ele>471</ele>
        <time>2022-08-13T08:52:35Z</time>
      </trkpt>
      <trkpt lat="43.77654" lon="5.64574">
        <ele>470</ele>
        <time>2022-08-13T08:52:36Z</time>
      </trkpt>
      <trkpt lat="43.77666" lon="5.64568">
        <ele>469</ele>
        <time>2022-08-13T08:52:37Z</time>
      </trkpt>
      <trkpt lat="43.77677" lon="5.6456">
        <ele>468</ele>
        <time>2022-08-13T08:52:38Z</time>
      </trkpt>
      <trkpt lat="43.77688" lon="5.64554">
        <ele>467</ele>
        <time>2022-08-13T08:52:39Z</time>
      </trkpt>
      <trkpt lat="43.777" lon="5.64547">
        <ele>466</ele>
        <time>2022-08-13T08:52:40Z</time>
      </trkpt>
      <trkpt lat="43.7771" lon="5.64541">
        <ele>465</ele>
        <time>2022-08-13T08:52:41Z</time>
      </trkpt>
      <trkpt lat="43.7772" lon="5.64534">
        <ele>465</ele>
        <time>2022-08-13T08:52:42Z</time>
      </trkpt>
      <trkpt lat="43.77731" lon="5.64526">
        <ele>465</ele>
        <time>2022-08-13T08:52:43Z</time>
      </trkpt>
      <trkpt lat="43.77741" lon="5.64517">
        <ele>463</ele>
        <time>2022-08-13T08:52:44Z</time>
      </trkpt>
      <trkpt lat="43.7775" lon="5.64508">
        <ele>462</ele>
        <time>2022-08-13T08:52:45Z</time>
      </trkpt>
      <trkpt lat="43.7776" lon="5.64501">
        <ele>461</ele>
        <time>2022-08-13T08:52:46Z</time>
      </trkpt>
      <trkpt lat="43.7777" lon="5.64493">
        <ele>460</ele>
        <time>2022-08-13T08:52:47Z</time>
      </trkpt>
      <trkpt lat="43.77781" lon="5.64485">
        <ele>459</ele>
        <time>2022-08-13T08:52:48Z</time>
      </trkpt>
      <trkpt lat="43.77789" lon="5.64478">
        <ele>458</ele>
        <time>2022-08-13T08:52:49Z</time>
      </trkpt>
      <trkpt lat="43.77799" lon="5.6447">
        <ele>457</ele>
        <time>2022-08-13T08:52:50Z</time>
      </trkpt>
      <trkpt lat="43.7781" lon="5.64463">
        <ele>456</ele>
        <time>2022-08-13T08:52:51Z</time>
      </trkpt>
      <trkpt lat="43.77821" lon="5.64455">
        <ele>455</ele>
        <time>2022-08-13T08:52:52Z</time>
      </trkpt>
      <trkpt lat="43.7783" lon="5.64448">
        <ele>454</ele>
        <time>2022-08-13T08:52:53Z</time>
      </trkpt>
      <trkpt lat="43.77841" lon="5.6444">
        <ele>452</ele>
        <time>2022-08-13T08:52:54Z</time>
      </trkpt>
      <trkpt lat="43.77851" lon="5.64432">
        <ele>451</ele>
        <time>2022-08-13T08:52:55Z</time>
      </trkpt>
      <trkpt lat="43.77861" lon="5.64424">
        <ele>450</ele>
        <time>2022-08-13T08:52:56Z</time>
      </trkpt>
      <trkpt lat="43.77871" lon="5.64415">
        <ele>449</ele>
        <time>2022-08-13T08:52:57Z</time>
      </trkpt>
      <trkpt lat="43.77882" lon="5.64408">
        <ele>448</ele>
        <time>2022-08-13T08:52:58Z</time>
      </trkpt>
      <trkpt lat="43.77892" lon="5.64402">
        <ele>448</ele>
        <time>2022-08-13T08:52:59Z</time>
      </trkpt>
      <trkpt lat="43.77903" lon="5.64393">
        <ele>447</ele>
        <time>2022-08-13T08:53:00Z</time>
      </trkpt>
      <trkpt lat="43.77915" lon="5.64388">
        <ele>446</ele>
        <time>2022-08-13T08:53:01Z</time>
      </trkpt>
      <trkpt lat="43.77926" lon="5.6438">
        <ele>445</ele>
        <time>2022-08-13T08:53:02Z</time>
      </trkpt>
      <trkpt lat="43.77936" lon="5.64374">
        <ele>445</ele>
        <time>2022-08-13T08:53:03Z</time>
      </trkpt>
      <trkpt lat="43.77947" lon="5.64365">
        <ele>443</ele>
        <time>2022-08-13T08:53:04Z</time>
      </trkpt>
      <trkpt lat="43.77956" lon="5.64356">
        <ele>443</ele>
        <time>2022-08-13T08:53:05Z</time>
      </trkpt>
      <trkpt lat="43.77966" lon="5.64347">
        <ele>442</ele>
        <time>2022-08-13T08:53:06Z</time>
      </trkpt>
      <trkpt lat="43.77975" lon="5.64337">
        <ele>441</ele>
        <time>2022-08-13T08:53:07Z</time>
      </trkpt>
      <trkpt lat="43.77982" lon="5.64327">
        <ele>440</ele>
        <time>2022-08-13T08:53:08Z</time>
      </trkpt>
      <trkpt lat="43.77989" lon="5.64317">
        <ele>439</ele>
        <time>2022-08-13T08:53:09Z</time>
      </trkpt>
      <trkpt lat="43.77996" lon="5.64307">
        <ele>438</ele>
        <time>2022-08-13T08:53:10Z</time>
      </trkpt>
      <trkpt lat="43.78002" lon="5.64297">
        <ele>438</ele>
        <time>2022-08-13T08:53:11Z</time>
      </trkpt>
      <trkpt lat="43.78009" lon="5.64287">
        <ele>438</ele>
        <time>2022-08-13T08:53:12Z</time>
      </trkpt>
      <trkpt lat="43.78015" lon="5.64276">
        <ele>438</ele>
        <time>2022-08-13T08:53:13Z</time>
      </trkpt>
      <trkpt lat="43.78021" lon="5.64266">
        <ele>437</ele>
        <time>2022-08-13T08:53:14Z</time>
      </trkpt>
      <trkpt lat="43.78026" lon="5.64255">
        <ele>437</ele>
        <time>2022-08-13T08:53:15Z</time>
      </trkpt>
      <trkpt lat="43.78032" lon="5.64246">
        <ele>437</ele>
        <time>2022-08-13T08:53:16Z</time>
      </trkpt>
      <trkpt lat="43.78037" lon="5.64236">
        <ele>437</ele>
        <time>2022-08-13T08:53:17Z</time>
      </trkpt>
      <trkpt lat="43.78042" lon="5.64226">
        <ele>436</ele>
        <time>2022-08-13T08:53:18Z</time>
      </trkpt>
      <trkpt lat="43.78047" lon="5.64215">
        <ele>436</ele>
        <time>2022-08-13T08:53:19Z</time>
      </trkpt>
      <trkpt lat="43.78051" lon="5.64206">
        <ele>436</ele>
        <time>2022-08-13T08:53:20Z</time>
      </trkpt>
      <trkpt lat="43.78055" lon="5.64197">
        <ele>435</ele>
        <time>2022-08-13T08:53:21Z</time>
      </trkpt>
      <trkpt lat="43.78059" lon="5.64188">
        <ele>435</ele>
        <time>2022-08-13T08:53:22Z</time>
      </trkpt>
      <trkpt lat="43.78062" lon="5.64179">
        <ele>435</ele>
        <time>2022-08-13T08:53:23Z</time>
      </trkpt>
      <trkpt lat="43.78065" lon="5.64171">
        <ele>435</ele>
        <time>2022-08-13T08:53:24Z</time>
      </trkpt>
      <trkpt lat="43.78069" lon="5.64162">
        <ele>435</ele>
        <time>2022-08-13T08:53:25Z</time>
      </trkpt>
      <trkpt lat="43.78073" lon="5.64154">
        <ele>435</ele>
        <time>2022-08-13T08:53:26Z</time>
      </trkpt>
      <trkpt lat="43.78076" lon="5.64146">
        <ele>435</ele>
        <time>2022-08-13T08:53:27Z</time>
      </trkpt>
      <trkpt lat="43.7808" lon="5.64138">
        <ele>435</ele>
        <time>2022-08-13T08:53:28Z</time>
      </trkpt>
      <trkpt lat="43.78083" lon="5.64133">
        <ele>434</ele>
        <time>2022-08-13T08:53:29Z</time>
      </trkpt>
      <trkpt lat="43.78089" lon="5.64126">
        <ele>434</ele>
        <time>2022-08-13T08:53:31Z</time>
      </trkpt>
      <trkpt lat="43.7809" lon="5.6412">
        <ele>434</ele>
        <time>2022-08-13T08:53:33Z</time>
      </trkpt>
      <trkpt lat="43.78092" lon="5.64113">
        <ele>434</ele>
        <time>2022-08-13T08:53:36Z</time>
      </trkpt>
      <trkpt lat="43.78098" lon="5.64105">
        <ele>434</ele>
        <time>2022-08-13T08:53:40Z</time>
      </trkpt>
      <trkpt lat="43.781" lon="5.64099">
        <ele>434</ele>
        <time>2022-08-13T08:53:41Z</time>
      </trkpt>
      <trkpt lat="43.78104" lon="5.64092">
        <ele>434</ele>
        <time>2022-08-13T08:53:42Z</time>
      </trkpt>
      <trkpt lat="43.78109" lon="5.64085">
        <ele>433</ele>
        <time>2022-08-13T08:53:43Z</time>
      </trkpt>
      <trkpt lat="43.78114" lon="5.64078">
        <ele>433</ele>
        <time>2022-08-13T08:53:44Z</time>
      </trkpt>
      <trkpt lat="43.78118" lon="5.64069">
        <ele>432</ele>
        <time>2022-08-13T08:53:45Z</time>
      </trkpt>
      <trkpt lat="43.78123" lon="5.64061">
        <ele>432</ele>
        <time>2022-08-13T08:53:46Z</time>
      </trkpt>
      <trkpt lat="43.78128" lon="5.64053">
        <ele>432</ele>
        <time>2022-08-13T08:53:47Z</time>
      </trkpt>
      <trkpt lat="43.78133" lon="5.64044">
        <ele>431</ele>
        <time>2022-08-13T08:53:48Z</time>
      </trkpt>
      <trkpt lat="43.78138" lon="5.64034">
        <ele>431</ele>
        <time>2022-08-13T08:53:49Z</time>
      </trkpt>
      <trkpt lat="43.78145" lon="5.64027">
        <ele>431</ele>
        <time>2022-08-13T08:53:50Z</time>
      </trkpt>
      <trkpt lat="43.78153" lon="5.64023">
        <ele>431</ele>
        <time>2022-08-13T08:53:51Z</time>
      </trkpt>
      <trkpt lat="43.78161" lon="5.64022">
        <ele>431</ele>
        <time>2022-08-13T08:53:52Z</time>
      </trkpt>
      <trkpt lat="43.7817" lon="5.64022">
        <ele>430</ele>
        <time>2022-08-13T08:53:53Z</time>
      </trkpt>
      <trkpt lat="43.78178" lon="5.64022">
        <ele>430</ele>
        <time>2022-08-13T08:53:54Z</time>
      </trkpt>
      <trkpt lat="43.78186" lon="5.64022">
        <ele>430</ele>
        <time>2022-08-13T08:53:55Z</time>
      </trkpt>
      <trkpt lat="43.78194" lon="5.64021">
        <ele>429</ele>
        <time>2022-08-13T08:53:56Z</time>
      </trkpt>
      <trkpt lat="43.78202" lon="5.6402">
        <ele>429</ele>
        <time>2022-08-13T08:53:57Z</time>
      </trkpt>
      <trkpt lat="43.7821" lon="5.64018">
        <ele>429</ele>
        <time>2022-08-13T08:53:58Z</time>
      </trkpt>
      <trkpt lat="43.78216" lon="5.64013">
        <ele>429</ele>
        <time>2022-08-13T08:53:59Z</time>
      </trkpt>
      <trkpt lat="43.78222" lon="5.64007">
        <ele>429</ele>
        <time>2022-08-13T08:54:00Z</time>
      </trkpt>
      <trkpt lat="43.78228" lon="5.64">
        <ele>429</ele>
        <time>2022-08-13T08:54:01Z</time>
      </trkpt>
      <trkpt lat="43.78235" lon="5.63992">
        <ele>428</ele>
        <time>2022-08-13T08:54:02Z</time>
      </trkpt>
      <trkpt lat="43.78239" lon="5.63983">
        <ele>428</ele>
        <time>2022-08-13T08:54:03Z</time>
      </trkpt>
      <trkpt lat="43.78244" lon="5.63974">
        <ele>428</ele>
        <time>2022-08-13T08:54:04Z</time>
      </trkpt>
      <trkpt lat="43.78248" lon="5.63964">
        <ele>427</ele>
        <time>2022-08-13T08:54:05Z</time>
      </trkpt>
      <trkpt lat="43.78252" lon="5.63954">
        <ele>426</ele>
        <time>2022-08-13T08:54:06Z</time>
      </trkpt>
      <trkpt lat="43.78257" lon="5.63945">
        <ele>426</ele>
        <time>2022-08-13T08:54:07Z</time>
      </trkpt>
      <trkpt lat="43.78262" lon="5.63937">
        <ele>425</ele>
        <time>2022-08-13T08:54:08Z</time>
      </trkpt>
      <trkpt lat="43.78267" lon="5.63929">
        <ele>425</ele>
        <time>2022-08-13T08:54:09Z</time>
      </trkpt>
      <trkpt lat="43.78275" lon="5.63925">
        <ele>424</ele>
        <time>2022-08-13T08:54:10Z</time>
      </trkpt>
      <trkpt lat="43.78282" lon="5.63919">
        <ele>423</ele>
        <time>2022-08-13T08:54:11Z</time>
      </trkpt>
      <trkpt lat="43.78289" lon="5.63916">
        <ele>423</ele>
        <time>2022-08-13T08:54:12Z</time>
      </trkpt>
      <trkpt lat="43.78297" lon="5.63911">
        <ele>423</ele>
        <time>2022-08-13T08:54:13Z</time>
      </trkpt>
      <trkpt lat="43.78305" lon="5.63905">
        <ele>422</ele>
        <time>2022-08-13T08:54:14Z</time>
      </trkpt>
      <trkpt lat="43.78312" lon="5.63897">
        <ele>422</ele>
        <time>2022-08-13T08:54:15Z</time>
      </trkpt>
      <trkpt lat="43.78319" lon="5.63888">
        <ele>421</ele>
        <time>2022-08-13T08:54:16Z</time>
      </trkpt>
      <trkpt lat="43.78325" lon="5.63878">
        <ele>421</ele>
        <time>2022-08-13T08:54:17Z</time>
      </trkpt>
      <trkpt lat="43.78329" lon="5.63868">
        <ele>421</ele>
        <time>2022-08-13T08:54:18Z</time>
      </trkpt>
      <trkpt lat="43.78333" lon="5.63859">
        <ele>421</ele>
        <time>2022-08-13T08:54:19Z</time>
      </trkpt>
      <trkpt lat="43.78337" lon="5.63851">
        <ele>421</ele>
        <time>2022-08-13T08:54:20Z</time>
      </trkpt>
      <trkpt lat="43.78341" lon="5.63844">
        <ele>421</ele>
        <time>2022-08-13T08:54:21Z</time>
      </trkpt>
      <trkpt lat="43.78348" lon="5.63841">
        <ele>421</ele>
        <time>2022-08-13T08:54:22Z</time>
      </trkpt>
      <trkpt lat="43.78357" lon="5.63843">
        <ele>421</ele>
        <time>2022-08-13T08:54:23Z</time>
      </trkpt>
      <trkpt lat="43.78365" lon="5.63839">
        <ele>420</ele>
        <time>2022-08-13T08:54:24Z</time>
      </trkpt>
      <trkpt lat="43.7837" lon="5.63832">
        <ele>420</ele>
        <time>2022-08-13T08:54:25Z</time>
      </trkpt>
      <trkpt lat="43.78375" lon="5.63826">
        <ele>420</ele>
        <time>2022-08-13T08:54:26Z</time>
      </trkpt>
      <trkpt lat="43.78379" lon="5.63819">
        <ele>419</ele>
        <time>2022-08-13T08:54:27Z</time>
      </trkpt>
      <trkpt lat="43.78379" lon="5.6381">
        <ele>419</ele>
        <time>2022-08-13T08:54:28Z</time>
      </trkpt>
      <trkpt lat="43.78379" lon="5.63801">
        <ele>418</ele>
        <time>2022-08-13T08:54:29Z</time>
      </trkpt>
      <trkpt lat="43.78379" lon="5.63794">
        <ele>418</ele>
        <time>2022-08-13T08:54:30Z</time>
      </trkpt>
      <trkpt lat="43.78381" lon="5.63786">
        <ele>418</ele>
        <time>2022-08-13T08:54:31Z</time>
      </trkpt>
      <trkpt lat="43.78378" lon="5.6378">
        <ele>417</ele>
        <time>2022-08-13T08:54:32Z</time>
      </trkpt>
      <trkpt lat="43.78378" lon="5.63767">
        <ele>417</ele>
        <time>2022-08-13T08:54:34Z</time>
      </trkpt>
      <trkpt lat="43.78379" lon="5.63754">
        <ele>417</ele>
        <time>2022-08-13T08:54:36Z</time>
      </trkpt>
      <trkpt lat="43.78379" lon="5.63748">
        <ele>418</ele>
        <time>2022-08-13T08:54:37Z</time>
      </trkpt>
      <trkpt lat="43.78379" lon="5.63741">
        <ele>418</ele>
        <time>2022-08-13T08:54:38Z</time>
      </trkpt>
      <trkpt lat="43.78379" lon="5.63734">
        <ele>418</ele>
        <time>2022-08-13T08:54:39Z</time>
      </trkpt>
      <trkpt lat="43.78378" lon="5.63721">
        <ele>419</ele>
        <time>2022-08-13T08:54:41Z</time>
      </trkpt>
      <trkpt lat="43.78376" lon="5.63708">
        <ele>419</ele>
        <time>2022-08-13T08:54:43Z</time>
      </trkpt>
      <trkpt lat="43.78376" lon="5.63701">
        <ele>419</ele>
        <time>2022-08-13T08:54:44Z</time>
      </trkpt>
      <trkpt lat="43.78378" lon="5.63694">
        <ele>419</ele>
        <time>2022-08-13T08:54:45Z</time>
      </trkpt>
      <trkpt lat="43.78379" lon="5.63689">
        <ele>419</ele>
        <time>2022-08-13T08:54:46Z</time>
      </trkpt>
      <trkpt lat="43.78383" lon="5.63683">
        <ele>419</ele>
        <time>2022-08-13T08:54:47Z</time>
      </trkpt>
      <trkpt lat="43.78387" lon="5.63676">
        <ele>419</ele>
        <time>2022-08-13T08:54:48Z</time>
      </trkpt>
      <trkpt lat="43.78389" lon="5.63668">
        <ele>419</ele>
        <time>2022-08-13T08:54:49Z</time>
      </trkpt>
      <trkpt lat="43.78391" lon="5.6366">
        <ele>419</ele>
        <time>2022-08-13T08:54:50Z</time>
      </trkpt>
      <trkpt lat="43.78392" lon="5.6365">
        <ele>418</ele>
        <time>2022-08-13T08:54:51Z</time>
      </trkpt>
      <trkpt lat="43.78394" lon="5.63641">
        <ele>418</ele>
        <time>2022-08-13T08:54:52Z</time>
      </trkpt>
      <trkpt lat="43.784" lon="5.63634">
        <ele>417</ele>
        <time>2022-08-13T08:54:53Z</time>
      </trkpt>
      <trkpt lat="43.78404" lon="5.63625">
        <ele>417</ele>
        <time>2022-08-13T08:54:54Z</time>
      </trkpt>
      <trkpt lat="43.78406" lon="5.63614">
        <ele>416</ele>
        <time>2022-08-13T08:54:55Z</time>
      </trkpt>
      <trkpt lat="43.78408" lon="5.63602">
        <ele>415</ele>
        <time>2022-08-13T08:54:56Z</time>
      </trkpt>
      <trkpt lat="43.7841" lon="5.63591">
        <ele>414</ele>
        <time>2022-08-13T08:54:57Z</time>
      </trkpt>
      <trkpt lat="43.78412" lon="5.63578">
        <ele>414</ele>
        <time>2022-08-13T08:54:58Z</time>
      </trkpt>
      <trkpt lat="43.78412" lon="5.6357">
        <ele>414</ele>
        <time>2022-08-13T08:54:59Z</time>
      </trkpt>
      <trkpt lat="43.78416" lon="5.63563">
        <ele>414</ele>
        <time>2022-08-13T08:55:00Z</time>
      </trkpt>
      <trkpt lat="43.7842" lon="5.63556">
        <ele>413</ele>
        <time>2022-08-13T08:55:01Z</time>
      </trkpt>
      <trkpt lat="43.78426" lon="5.63553">
        <ele>413</ele>
        <time>2022-08-13T08:55:02Z</time>
      </trkpt>
      <trkpt lat="43.78435" lon="5.63555">
        <ele>412</ele>
        <time>2022-08-13T08:55:03Z</time>
      </trkpt>
      <trkpt lat="43.78443" lon="5.63556">
        <ele>411</ele>
        <time>2022-08-13T08:55:04Z</time>
      </trkpt>
      <trkpt lat="43.78451" lon="5.63558">
        <ele>410</ele>
        <time>2022-08-13T08:55:05Z</time>
      </trkpt>
      <trkpt lat="43.7846" lon="5.63562">
        <ele>410</ele>
        <time>2022-08-13T08:55:06Z</time>
      </trkpt>
      <trkpt lat="43.78467" lon="5.63563">
        <ele>409</ele>
        <time>2022-08-13T08:55:07Z</time>
      </trkpt>
      <trkpt lat="43.78473" lon="5.63565">
        <ele>409</ele>
        <time>2022-08-13T08:55:08Z</time>
      </trkpt>
      <trkpt lat="43.78481" lon="5.63564">
        <ele>409</ele>
        <time>2022-08-13T08:55:10Z</time>
      </trkpt>
      <trkpt lat="43.78488" lon="5.63558">
        <ele>409</ele>
        <time>2022-08-13T08:55:12Z</time>
      </trkpt>
      <trkpt lat="43.78494" lon="5.6355">
        <ele>409</ele>
        <time>2022-08-13T08:55:14Z</time>
      </trkpt>
      <trkpt lat="43.78498" lon="5.63547">
        <ele>408</ele>
        <time>2022-08-13T08:55:15Z</time>
      </trkpt>
      <trkpt lat="43.78502" lon="5.63543">
        <ele>408</ele>
        <time>2022-08-13T08:55:16Z</time>
      </trkpt>
      <trkpt lat="43.7851" lon="5.63539">
        <ele>408</ele>
        <time>2022-08-13T08:55:18Z</time>
      </trkpt>
      <trkpt lat="43.78516" lon="5.63533">
        <ele>408</ele>
        <time>2022-08-13T08:55:20Z</time>
      </trkpt>
      <trkpt lat="43.78521" lon="5.63529">
        <ele>408</ele>
        <time>2022-08-13T08:55:22Z</time>
      </trkpt>
      <trkpt lat="43.78526" lon="5.63525">
        <ele>409</ele>
        <time>2022-08-13T08:55:24Z</time>
      </trkpt>
      <trkpt lat="43.78532" lon="5.63522">
        <ele>409</ele>
        <time>2022-08-13T08:55:26Z</time>
      </trkpt>
      <trkpt lat="43.78538" lon="5.63519">
        <ele>410</ele>
        <time>2022-08-13T08:55:28Z</time>
      </trkpt>
      <trkpt lat="43.78542" lon="5.63515">
        <ele>411</ele>
        <time>2022-08-13T08:55:30Z</time>
      </trkpt>
      <trkpt lat="43.78547" lon="5.6351">
        <ele>411</ele>
        <time>2022-08-13T08:55:32Z</time>
      </trkpt>
      <trkpt lat="43.78553" lon="5.63505">
        <ele>412</ele>
        <time>2022-08-13T08:55:34Z</time>
      </trkpt>
      <trkpt lat="43.78559" lon="5.63501">
        <ele>413</ele>
        <time>2022-08-13T08:55:36Z</time>
      </trkpt>
      <trkpt lat="43.78564" lon="5.63496">
        <ele>413</ele>
        <time>2022-08-13T08:55:38Z</time>
      </trkpt>
      <trkpt lat="43.78569" lon="5.63492">
        <ele>414</ele>
        <time>2022-08-13T08:55:40Z</time>
      </trkpt>
      <trkpt lat="43.78573" lon="5.63486">
        <ele>414</ele>
        <time>2022-08-13T08:55:42Z</time>
      </trkpt>
      <trkpt lat="43.78576" lon="5.63477">
        <ele>415</ele>
        <time>2022-08-13T08:55:44Z</time>
      </trkpt>
      <trkpt lat="43.78577" lon="5.63466">
        <ele>415</ele>
        <time>2022-08-13T08:55:46Z</time>
      </trkpt>
      <trkpt lat="43.78578" lon="5.63454">
        <ele>415</ele>
        <time>2022-08-13T08:55:48Z</time>
      </trkpt>
      <trkpt lat="43.78581" lon="5.63447">
        <ele>415</ele>
        <time>2022-08-13T08:55:49Z</time>
      </trkpt>
      <trkpt lat="43.78583" lon="5.63442">
        <ele>415</ele>
        <time>2022-08-13T08:55:50Z</time>
      </trkpt>
      <trkpt lat="43.78587" lon="5.63435">
        <ele>415</ele>
        <time>2022-08-13T08:55:51Z</time>
      </trkpt>
      <trkpt lat="43.7859" lon="5.63427">
        <ele>414</ele>
        <time>2022-08-13T08:55:52Z</time>
      </trkpt>
      <trkpt lat="43.78593" lon="5.63419">
        <ele>414</ele>
        <time>2022-08-13T08:55:53Z</time>
      </trkpt>
      <trkpt lat="43.78596" lon="5.63412">
        <ele>413</ele>
        <time>2022-08-13T08:55:54Z</time>
      </trkpt>
      <trkpt lat="43.78599" lon="5.63405">
        <ele>412</ele>
        <time>2022-08-13T08:55:55Z</time>
      </trkpt>
      <trkpt lat="43.78604" lon="5.63399">
        <ele>412</ele>
        <time>2022-08-13T08:55:56Z</time>
      </trkpt>
      <trkpt lat="43.78609" lon="5.63393">
        <ele>411</ele>
        <time>2022-08-13T08:55:57Z</time>
      </trkpt>
      <trkpt lat="43.78614" lon="5.63387">
        <ele>411</ele>
        <time>2022-08-13T08:55:58Z</time>
      </trkpt>
      <trkpt lat="43.7862" lon="5.63381">
        <ele>410</ele>
        <time>2022-08-13T08:55:59Z</time>
      </trkpt>
      <trkpt lat="43.78625" lon="5.63376">
        <ele>410</ele>
        <time>2022-08-13T08:56:00Z</time>
      </trkpt>
      <trkpt lat="43.7863" lon="5.63372">
        <ele>410</ele>
        <time>2022-08-13T08:56:01Z</time>
      </trkpt>
      <trkpt lat="43.78635" lon="5.63367">
        <ele>410</ele>
        <time>2022-08-13T08:56:02Z</time>
      </trkpt>
      <trkpt lat="43.78639" lon="5.63363">
        <ele>410</ele>
        <time>2022-08-13T08:56:03Z</time>
      </trkpt>
      <trkpt lat="43.78645" lon="5.63359">
        <ele>410</ele>
        <time>2022-08-13T08:56:05Z</time>
      </trkpt>
    </trkseg>
  </trk>
</gpx>